<?xml version="1.0" encoding="UTF-8"?>
<gpx version="1.1" creator="https://www.youtrack.es" xsi:schemaLocation="http://www.topografix.com/GPX/1/1 http://www.topografix.com/GPX/1/1/gpx.xsd http://www.garmin.com/xmlschemas/GpxExtensions/v3 http://www.garmin.com/xmlschemas/GpxExtensionsv3.xsd http://www.garmin.com/xmlschemas/TrackPointExtension/v1 http://www.garmin.com/xmlschemas/TrackPointExtensionv1.xsd" xmlns:gpxtpx="http://www.garmin.com/xmlschemas/TrackPointExtension/v1" xmlns:gpxx="http://www.garmin.com/xmlschemas/GpxExtensions/v3" xmlns:xsi="http://www.w3.org/2001/XMLSchema-instance">
  <metadata>
    <link href="https://www.youtrack.es">
      <text>YouTrack.es</text>
    </link>
    <time>2026-05-08T08:54:06Z</time>
  </metadata>
  <trk>
    <src>https://www.youtrack.es</src>
    <link href="https://www.youtrack.es/ruta/17420-passeig-per-montjuic">
      <text>YouTrack.es</text>
    </link>
    <trkseg>
      <trkpt lat="41.3771170" lon="2.1313460">
        <ele>42.0</ele>
        <time>2020-11-15T10:03:23Z</time>
      </trkpt>
      <trkpt lat="41.3771030" lon="2.1313450">
        <ele>42.0</ele>
        <time>2020-11-15T10:03:25Z</time>
      </trkpt>
      <trkpt lat="41.3772730" lon="2.1314220">
        <ele>42.1</ele>
        <time>2020-11-15T10:03:31Z</time>
      </trkpt>
      <trkpt lat="41.3773770" lon="2.1316850">
        <ele>42.3</ele>
        <time>2020-11-15T10:03:45Z</time>
      </trkpt>
      <trkpt lat="41.3772900" lon="2.1316440">
        <ele>42.3</ele>
        <time>2020-11-15T10:03:48Z</time>
      </trkpt>
      <trkpt lat="41.3772980" lon="2.1316630">
        <ele>42.4</ele>
        <time>2020-11-15T10:03:50Z</time>
      </trkpt>
      <trkpt lat="41.3773170" lon="2.1316900">
        <ele>42.4</ele>
        <time>2020-11-15T10:03:52Z</time>
      </trkpt>
      <trkpt lat="41.3773790" lon="2.1317640">
        <ele>42.4</ele>
        <time>2020-11-15T10:03:57Z</time>
      </trkpt>
      <trkpt lat="41.3774560" lon="2.1318390">
        <ele>42.5</ele>
        <time>2020-11-15T10:04:06Z</time>
      </trkpt>
      <trkpt lat="41.3774170" lon="2.1318730">
        <ele>42.5</ele>
        <time>2020-11-15T10:04:13Z</time>
      </trkpt>
      <trkpt lat="41.3773670" lon="2.1318680">
        <ele>42.4</ele>
        <time>2020-11-15T10:04:18Z</time>
      </trkpt>
      <trkpt lat="41.3773000" lon="2.1318470">
        <ele>42.3</ele>
        <time>2020-11-15T10:04:26Z</time>
      </trkpt>
      <trkpt lat="41.3772470" lon="2.1320160">
        <ele>41.9</ele>
        <time>2020-11-15T10:04:31Z</time>
      </trkpt>
      <trkpt lat="41.3772480" lon="2.1320610">
        <ele>41.9</ele>
        <time>2020-11-15T10:04:33Z</time>
      </trkpt>
      <trkpt lat="41.3772490" lon="2.1322230">
        <ele>41.9</ele>
        <time>2020-11-15T10:04:41Z</time>
      </trkpt>
      <trkpt lat="41.3772680" lon="2.1324760">
        <ele>42.1</ele>
        <time>2020-11-15T10:04:54Z</time>
      </trkpt>
      <trkpt lat="41.3773080" lon="2.1327210">
        <ele>42.3</ele>
        <time>2020-11-15T10:05:07Z</time>
      </trkpt>
      <trkpt lat="41.3773510" lon="2.1328570">
        <ele>42.4</ele>
        <time>2020-11-15T10:05:15Z</time>
      </trkpt>
      <trkpt lat="41.3774350" lon="2.1330780">
        <ele>42.5</ele>
        <time>2020-11-15T10:05:29Z</time>
      </trkpt>
      <trkpt lat="41.3774640" lon="2.1333230">
        <ele>42.7</ele>
        <time>2020-11-15T10:05:42Z</time>
      </trkpt>
      <trkpt lat="41.3774050" lon="2.1334730">
        <ele>42.7</ele>
        <time>2020-11-15T10:05:59Z</time>
      </trkpt>
      <trkpt lat="41.3773280" lon="2.1335660">
        <ele>42.6</ele>
        <time>2020-11-15T10:06:08Z</time>
      </trkpt>
      <trkpt lat="41.3772370" lon="2.1335980">
        <ele>42.5</ele>
        <time>2020-11-15T10:06:22Z</time>
      </trkpt>
      <trkpt lat="41.3773180" lon="2.1338170">
        <ele>42.9</ele>
        <time>2020-11-15T10:06:34Z</time>
      </trkpt>
      <trkpt lat="41.3772990" lon="2.1338910">
        <ele>43.0</ele>
        <time>2020-11-15T10:06:42Z</time>
      </trkpt>
      <trkpt lat="41.3772170" lon="2.1339310">
        <ele>42.9</ele>
        <time>2020-11-15T10:06:54Z</time>
      </trkpt>
      <trkpt lat="41.3772170" lon="2.1339830">
        <ele>42.9</ele>
        <time>2020-11-15T10:06:58Z</time>
      </trkpt>
      <trkpt lat="41.3771970" lon="2.1340210">
        <ele>42.8</ele>
        <time>2020-11-15T10:07:02Z</time>
      </trkpt>
      <trkpt lat="41.3771890" lon="2.1340290">
        <ele>42.6</ele>
        <time>2020-11-15T10:07:04Z</time>
      </trkpt>
      <trkpt lat="41.3771000" lon="2.1342410">
        <ele>42.9</ele>
        <time>2020-11-15T10:07:20Z</time>
      </trkpt>
      <trkpt lat="41.3769100" lon="2.1342920">
        <ele>42.6</ele>
        <time>2020-11-15T10:07:30Z</time>
      </trkpt>
      <trkpt lat="41.3768860" lon="2.1342930">
        <ele>42.4</ele>
        <time>2020-11-15T10:07:31Z</time>
      </trkpt>
      <trkpt lat="41.3768410" lon="2.1342880">
        <ele>42.1</ele>
        <time>2020-11-15T10:07:35Z</time>
      </trkpt>
      <trkpt lat="41.3767380" lon="2.1342830">
        <ele>41.3</ele>
        <time>2020-11-15T10:07:40Z</time>
      </trkpt>
      <trkpt lat="41.3766550" lon="2.1343700">
        <ele>40.4</ele>
        <time>2020-11-15T10:07:45Z</time>
      </trkpt>
      <trkpt lat="41.3764890" lon="2.1345100">
        <ele>38.3</ele>
        <time>2020-11-15T10:07:53Z</time>
      </trkpt>
      <trkpt lat="41.3763350" lon="2.1346350">
        <ele>36.3</ele>
        <time>2020-11-15T10:08:04Z</time>
      </trkpt>
      <trkpt lat="41.3763040" lon="2.1348450">
        <ele>36.1</ele>
        <time>2020-11-15T10:08:09Z</time>
      </trkpt>
      <trkpt lat="41.3762840" lon="2.1349450">
        <ele>36.0</ele>
        <time>2020-11-15T10:08:13Z</time>
      </trkpt>
      <trkpt lat="41.3761000" lon="2.1350710">
        <ele>36.1</ele>
        <time>2020-11-15T10:08:22Z</time>
      </trkpt>
      <trkpt lat="41.3760760" lon="2.1351190">
        <ele>36.1</ele>
        <time>2020-11-15T10:08:25Z</time>
      </trkpt>
      <trkpt lat="41.3760450" lon="2.1352180">
        <ele>36.2</ele>
        <time>2020-11-15T10:08:33Z</time>
      </trkpt>
      <trkpt lat="41.3759390" lon="2.1354210">
        <ele>35.5</ele>
        <time>2020-11-15T10:08:49Z</time>
      </trkpt>
      <trkpt lat="41.3758090" lon="2.1356000">
        <ele>35.1</ele>
        <time>2020-11-15T10:09:02Z</time>
      </trkpt>
      <trkpt lat="41.3756650" lon="2.1357550">
        <ele>36.6</ele>
        <time>2020-11-15T10:09:11Z</time>
      </trkpt>
      <trkpt lat="41.3755990" lon="2.1358290">
        <ele>38.0</ele>
        <time>2020-11-15T10:09:16Z</time>
      </trkpt>
      <trkpt lat="41.3754840" lon="2.1360010">
        <ele>40.8</ele>
        <time>2020-11-15T10:09:26Z</time>
      </trkpt>
      <trkpt lat="41.3754540" lon="2.1361570">
        <ele>41.5</ele>
        <time>2020-11-15T10:09:36Z</time>
      </trkpt>
      <trkpt lat="41.3753090" lon="2.1362880">
        <ele>41.6</ele>
        <time>2020-11-15T10:09:54Z</time>
      </trkpt>
      <trkpt lat="41.3751780" lon="2.1363740">
        <ele>41.8</ele>
        <time>2020-11-15T10:10:06Z</time>
      </trkpt>
      <trkpt lat="41.3749870" lon="2.1364630">
        <ele>42.2</ele>
        <time>2020-11-15T10:10:21Z</time>
      </trkpt>
      <trkpt lat="41.3749390" lon="2.1364790">
        <ele>42.3</ele>
        <time>2020-11-15T10:10:25Z</time>
      </trkpt>
      <trkpt lat="41.3748770" lon="2.1364530">
        <ele>42.4</ele>
        <time>2020-11-15T10:10:29Z</time>
      </trkpt>
      <trkpt lat="41.3747140" lon="2.1363670">
        <ele>42.7</ele>
        <time>2020-11-15T10:10:45Z</time>
      </trkpt>
      <trkpt lat="41.3746400" lon="2.1364070">
        <ele>42.9</ele>
        <time>2020-11-15T10:10:50Z</time>
      </trkpt>
      <trkpt lat="41.3745840" lon="2.1364280">
        <ele>42.9</ele>
        <time>2020-11-15T10:10:54Z</time>
      </trkpt>
      <trkpt lat="41.3744050" lon="2.1364520">
        <ele>42.8</ele>
        <time>2020-11-15T10:11:06Z</time>
      </trkpt>
      <trkpt lat="41.3743540" lon="2.1364300">
        <ele>42.7</ele>
        <time>2020-11-15T10:11:10Z</time>
      </trkpt>
      <trkpt lat="41.3742780" lon="2.1363590">
        <ele>42.6</ele>
        <time>2020-11-15T10:11:16Z</time>
      </trkpt>
      <trkpt lat="41.3742310" lon="2.1363590">
        <ele>42.6</ele>
        <time>2020-11-15T10:11:18Z</time>
      </trkpt>
      <trkpt lat="41.3740730" lon="2.1364350">
        <ele>42.2</ele>
        <time>2020-11-15T10:11:23Z</time>
      </trkpt>
      <trkpt lat="41.3738900" lon="2.1364630">
        <ele>41.7</ele>
        <time>2020-11-15T10:11:37Z</time>
      </trkpt>
      <trkpt lat="41.3737000" lon="2.1364660">
        <ele>41.3</ele>
        <time>2020-11-15T10:11:48Z</time>
      </trkpt>
      <trkpt lat="41.3735250" lon="2.1365320">
        <ele>40.9</ele>
        <time>2020-11-15T10:12:02Z</time>
      </trkpt>
      <trkpt lat="41.3734760" lon="2.1365450">
        <ele>40.8</ele>
        <time>2020-11-15T10:12:06Z</time>
      </trkpt>
      <trkpt lat="41.3733030" lon="2.1366020">
        <ele>40.3</ele>
        <time>2020-11-15T10:12:21Z</time>
      </trkpt>
      <trkpt lat="41.3731170" lon="2.1366150">
        <ele>39.8</ele>
        <time>2020-11-15T10:12:36Z</time>
      </trkpt>
      <trkpt lat="41.3729320" lon="2.1367580">
        <ele>39.1</ele>
        <time>2020-11-15T10:12:51Z</time>
      </trkpt>
      <trkpt lat="41.3729070" lon="2.1367750">
        <ele>39.1</ele>
        <time>2020-11-15T10:12:53Z</time>
      </trkpt>
      <trkpt lat="41.3731530" lon="2.1365050">
        <ele>39.9</ele>
        <time>2020-11-15T10:14:26Z</time>
      </trkpt>
      <trkpt lat="41.3731540" lon="2.1365030">
        <ele>39.9</ele>
        <time>2020-11-15T10:14:27Z</time>
      </trkpt>
      <trkpt lat="41.3731190" lon="2.1365110">
        <ele>39.8</ele>
        <time>2020-11-15T10:14:35Z</time>
      </trkpt>
      <trkpt lat="41.3742750" lon="2.1379390">
        <ele>43.8</ele>
        <time>2020-11-15T10:14:44Z</time>
      </trkpt>
      <trkpt lat="41.3748570" lon="2.1387160">
        <ele>40.0</ele>
        <time>2020-11-15T10:14:54Z</time>
      </trkpt>
      <trkpt lat="41.3748760" lon="2.1388510">
        <ele>39.5</ele>
        <time>2020-11-15T10:15:01Z</time>
      </trkpt>
      <trkpt lat="41.3748750" lon="2.1389540">
        <ele>39.0</ele>
        <time>2020-11-15T10:15:33Z</time>
      </trkpt>
      <trkpt lat="41.3740590" lon="2.1393000">
        <ele>38.4</ele>
        <time>2020-11-15T10:15:48Z</time>
      </trkpt>
      <trkpt lat="41.3740320" lon="2.1395780">
        <ele>37.4</ele>
        <time>2020-11-15T10:15:58Z</time>
      </trkpt>
      <trkpt lat="41.3736570" lon="2.1400330">
        <ele>35.8</ele>
        <time>2020-11-15T10:16:04Z</time>
      </trkpt>
      <trkpt lat="41.3735900" lon="2.1401210">
        <ele>35.5</ele>
        <time>2020-11-15T10:16:06Z</time>
      </trkpt>
      <trkpt lat="41.3734190" lon="2.1400800">
        <ele>35.5</ele>
        <time>2020-11-15T10:16:32Z</time>
      </trkpt>
      <trkpt lat="41.3733730" lon="2.1399660">
        <ele>35.8</ele>
        <time>2020-11-15T10:16:54Z</time>
      </trkpt>
      <trkpt lat="41.3732400" lon="2.1399600">
        <ele>35.6</ele>
        <time>2020-11-15T10:17:09Z</time>
      </trkpt>
      <trkpt lat="41.3731070" lon="2.1399580">
        <ele>35.2</ele>
        <time>2020-11-15T10:17:24Z</time>
      </trkpt>
      <trkpt lat="41.3730650" lon="2.1400030">
        <ele>34.8</ele>
        <time>2020-11-15T10:17:29Z</time>
      </trkpt>
      <trkpt lat="41.3730560" lon="2.1400190">
        <ele>34.6</ele>
        <time>2020-11-15T10:17:31Z</time>
      </trkpt>
      <trkpt lat="41.3730230" lon="2.1399850">
        <ele>34.6</ele>
        <time>2020-11-15T10:17:38Z</time>
      </trkpt>
      <trkpt lat="41.3724890" lon="2.1405280">
        <ele>32.0</ele>
        <time>2020-11-15T10:17:56Z</time>
      </trkpt>
      <trkpt lat="41.3723240" lon="2.1406610">
        <ele>32.2</ele>
        <time>2020-11-15T10:18:00Z</time>
      </trkpt>
      <trkpt lat="41.3722640" lon="2.1405200">
        <ele>31.7</ele>
        <time>2020-11-15T10:18:09Z</time>
      </trkpt>
      <trkpt lat="41.3722190" lon="2.1404430">
        <ele>31.5</ele>
        <time>2020-11-15T10:18:13Z</time>
      </trkpt>
      <trkpt lat="41.3722060" lon="2.1404620">
        <ele>31.5</ele>
        <time>2020-11-15T10:18:16Z</time>
      </trkpt>
      <trkpt lat="41.3719560" lon="2.1407420">
        <ele>32.1</ele>
        <time>2020-11-15T10:18:27Z</time>
      </trkpt>
      <trkpt lat="41.3719180" lon="2.1407760">
        <ele>32.1</ele>
        <time>2020-11-15T10:18:28Z</time>
      </trkpt>
      <trkpt lat="41.3718750" lon="2.1408200">
        <ele>32.1</ele>
        <time>2020-11-15T10:18:30Z</time>
      </trkpt>
      <trkpt lat="41.3718030" lon="2.1409700">
        <ele>32.0</ele>
        <time>2020-11-15T10:18:54Z</time>
      </trkpt>
      <trkpt lat="41.3717320" lon="2.1408290">
        <ele>32.0</ele>
        <time>2020-11-15T10:19:06Z</time>
      </trkpt>
      <trkpt lat="41.3715180" lon="2.1408420">
        <ele>31.1</ele>
        <time>2020-11-15T10:19:14Z</time>
      </trkpt>
      <trkpt lat="41.3713230" lon="2.1408730">
        <ele>29.3</ele>
        <time>2020-11-15T10:19:20Z</time>
      </trkpt>
      <trkpt lat="41.3711310" lon="2.1409120">
        <ele>27.1</ele>
        <time>2020-11-15T10:19:33Z</time>
      </trkpt>
      <trkpt lat="41.3709790" lon="2.1409610">
        <ele>24.9</ele>
        <time>2020-11-15T10:19:44Z</time>
      </trkpt>
      <trkpt lat="41.3709270" lon="2.1409680">
        <ele>24.5</ele>
        <time>2020-11-15T10:19:48Z</time>
      </trkpt>
      <trkpt lat="41.3708410" lon="2.1410460">
        <ele>23.2</ele>
        <time>2020-11-15T10:19:56Z</time>
      </trkpt>
      <trkpt lat="41.3707110" lon="2.1411740">
        <ele>21.9</ele>
        <time>2020-11-15T10:20:10Z</time>
      </trkpt>
      <trkpt lat="41.3705930" lon="2.1411950">
        <ele>21.0</ele>
        <time>2020-11-15T10:20:22Z</time>
      </trkpt>
      <trkpt lat="41.3705700" lon="2.1413430">
        <ele>21.0</ele>
        <time>2020-11-15T10:20:28Z</time>
      </trkpt>
      <trkpt lat="41.3706020" lon="2.1414750">
        <ele>21.2</ele>
        <time>2020-11-15T10:20:30Z</time>
      </trkpt>
      <trkpt lat="41.3705020" lon="2.1415140">
        <ele>20.8</ele>
        <time>2020-11-15T10:20:39Z</time>
      </trkpt>
      <trkpt lat="41.3704010" lon="2.1414870">
        <ele>20.4</ele>
        <time>2020-11-15T10:20:43Z</time>
      </trkpt>
      <trkpt lat="41.3703450" lon="2.1414670">
        <ele>20.1</ele>
        <time>2020-11-15T10:20:52Z</time>
      </trkpt>
      <trkpt lat="41.3702880" lon="2.1414460">
        <ele>19.9</ele>
        <time>2020-11-15T10:20:54Z</time>
      </trkpt>
      <trkpt lat="41.3698540" lon="2.1406240">
        <ele>19.1</ele>
        <time>2020-11-15T10:21:04Z</time>
      </trkpt>
      <trkpt lat="41.3695850" lon="2.1404000">
        <ele>19.7</ele>
        <time>2020-11-15T10:21:15Z</time>
      </trkpt>
      <trkpt lat="41.3699920" lon="2.1415110">
        <ele>19.6</ele>
        <time>2020-11-15T10:21:25Z</time>
      </trkpt>
      <trkpt lat="41.3699410" lon="2.1414570">
        <ele>19.4</ele>
        <time>2020-11-15T10:21:27Z</time>
      </trkpt>
      <trkpt lat="41.3699100" lon="2.1413900">
        <ele>19.2</ele>
        <time>2020-11-15T10:21:32Z</time>
      </trkpt>
      <trkpt lat="41.3697450" lon="2.1414980">
        <ele>19.2</ele>
        <time>2020-11-15T10:21:54Z</time>
      </trkpt>
      <trkpt lat="41.3695570" lon="2.1415350">
        <ele>19.8</ele>
        <time>2020-11-15T10:22:09Z</time>
      </trkpt>
      <trkpt lat="41.3693500" lon="2.1415100">
        <ele>20.7</ele>
        <time>2020-11-15T10:22:20Z</time>
      </trkpt>
      <trkpt lat="41.3693130" lon="2.1417020">
        <ele>25.5</ele>
        <time>2020-11-15T10:22:25Z</time>
      </trkpt>
      <trkpt lat="41.3692900" lon="2.1416990">
        <ele>26.0</ele>
        <time>2020-11-15T10:22:27Z</time>
      </trkpt>
      <trkpt lat="41.3690480" lon="2.1415590">
        <ele>26.4</ele>
        <time>2020-11-15T10:22:31Z</time>
      </trkpt>
      <trkpt lat="41.3689360" lon="2.1417720">
        <ele>33.1</ele>
        <time>2020-11-15T10:22:34Z</time>
      </trkpt>
      <trkpt lat="41.3688770" lon="2.1418980">
        <ele>34.8</ele>
        <time>2020-11-15T10:22:38Z</time>
      </trkpt>
      <trkpt lat="41.3688810" lon="2.1419010">
        <ele>34.7</ele>
        <time>2020-11-15T10:22:39Z</time>
      </trkpt>
      <trkpt lat="41.3689180" lon="2.1418870">
        <ele>34.3</ele>
        <time>2020-11-15T10:22:42Z</time>
      </trkpt>
      <trkpt lat="41.3687690" lon="2.1426100">
        <ele>33.8</ele>
        <time>2020-11-15T10:23:45Z</time>
      </trkpt>
      <trkpt lat="41.3688530" lon="2.1425090">
        <ele>34.3</ele>
        <time>2020-11-15T10:23:56Z</time>
      </trkpt>
      <trkpt lat="41.3687490" lon="2.1423860">
        <ele>35.6</ele>
        <time>2020-11-15T10:24:00Z</time>
      </trkpt>
      <trkpt lat="41.3686480" lon="2.1424680">
        <ele>35.3</ele>
        <time>2020-11-15T10:24:04Z</time>
      </trkpt>
      <trkpt lat="41.3689530" lon="2.1426830">
        <ele>32.4</ele>
        <time>2020-11-15T10:24:13Z</time>
      </trkpt>
      <trkpt lat="41.3691460" lon="2.1426850">
        <ele>32.0</ele>
        <time>2020-11-15T10:24:20Z</time>
      </trkpt>
      <trkpt lat="41.3692400" lon="2.1427430">
        <ele>31.7</ele>
        <time>2020-11-15T10:24:26Z</time>
      </trkpt>
      <trkpt lat="41.3692800" lon="2.1429120">
        <ele>31.4</ele>
        <time>2020-11-15T10:24:33Z</time>
      </trkpt>
      <trkpt lat="41.3693140" lon="2.1429700">
        <ele>31.4</ele>
        <time>2020-11-15T10:24:36Z</time>
      </trkpt>
      <trkpt lat="41.3693950" lon="2.1430860">
        <ele>31.8</ele>
        <time>2020-11-15T10:24:43Z</time>
      </trkpt>
      <trkpt lat="41.3694410" lon="2.1432520">
        <ele>32.3</ele>
        <time>2020-11-15T10:24:53Z</time>
      </trkpt>
      <trkpt lat="41.3694410" lon="2.1432650">
        <ele>32.3</ele>
        <time>2020-11-15T10:24:54Z</time>
      </trkpt>
      <trkpt lat="41.3695840" lon="2.1431530">
        <ele>32.3</ele>
        <time>2020-11-15T10:25:05Z</time>
      </trkpt>
      <trkpt lat="41.3694930" lon="2.1432450">
        <ele>32.2</ele>
        <time>2020-11-15T10:25:06Z</time>
      </trkpt>
      <trkpt lat="41.3694970" lon="2.1434210">
        <ele>32.6</ele>
        <time>2020-11-15T10:25:18Z</time>
      </trkpt>
      <trkpt lat="41.3694730" lon="2.1434630">
        <ele>32.7</ele>
        <time>2020-11-15T10:25:19Z</time>
      </trkpt>
      <trkpt lat="41.3693970" lon="2.1435800">
        <ele>33.5</ele>
        <time>2020-11-15T10:25:24Z</time>
      </trkpt>
      <trkpt lat="41.3694180" lon="2.1436750">
        <ele>33.8</ele>
        <time>2020-11-15T10:25:35Z</time>
      </trkpt>
      <trkpt lat="41.3694070" lon="2.1437000">
        <ele>33.7</ele>
        <time>2020-11-15T10:25:36Z</time>
      </trkpt>
      <trkpt lat="41.3693480" lon="2.1437490">
        <ele>34.2</ele>
        <time>2020-11-15T10:25:40Z</time>
      </trkpt>
      <trkpt lat="41.3691350" lon="2.1437200">
        <ele>34.9</ele>
        <time>2020-11-15T10:25:50Z</time>
      </trkpt>
      <trkpt lat="41.3689560" lon="2.1438320">
        <ele>35.4</ele>
        <time>2020-11-15T10:26:04Z</time>
      </trkpt>
      <trkpt lat="41.3687700" lon="2.1438710">
        <ele>36.0</ele>
        <time>2020-11-15T10:26:16Z</time>
      </trkpt>
      <trkpt lat="41.3687550" lon="2.1438290">
        <ele>35.8</ele>
        <time>2020-11-15T10:26:26Z</time>
      </trkpt>
      <trkpt lat="41.3686130" lon="2.1437400">
        <ele>35.9</ele>
        <time>2020-11-15T10:26:36Z</time>
      </trkpt>
      <trkpt lat="41.3684480" lon="2.1438700">
        <ele>38.1</ele>
        <time>2020-11-15T10:26:46Z</time>
      </trkpt>
      <trkpt lat="41.3682580" lon="2.1439190">
        <ele>40.9</ele>
        <time>2020-11-15T10:26:59Z</time>
      </trkpt>
      <trkpt lat="41.3681160" lon="2.1440710">
        <ele>44.4</ele>
        <time>2020-11-15T10:27:17Z</time>
      </trkpt>
      <trkpt lat="41.3681630" lon="2.1441060">
        <ele>44.3</ele>
        <time>2020-11-15T10:27:35Z</time>
      </trkpt>
      <trkpt lat="41.3681680" lon="2.1442270">
        <ele>45.8</ele>
        <time>2020-11-15T10:27:39Z</time>
      </trkpt>
      <trkpt lat="41.3681910" lon="2.1442640">
        <ele>45.3</ele>
        <time>2020-11-15T10:28:04Z</time>
      </trkpt>
      <trkpt lat="41.3682470" lon="2.1443910">
        <ele>46.2</ele>
        <time>2020-11-15T10:28:20Z</time>
      </trkpt>
      <trkpt lat="41.3684430" lon="2.1443580">
        <ele>43.1</ele>
        <time>2020-11-15T10:28:29Z</time>
      </trkpt>
      <trkpt lat="41.3685860" lon="2.1443490">
        <ele>40.6</ele>
        <time>2020-11-15T10:28:37Z</time>
      </trkpt>
      <trkpt lat="41.3685980" lon="2.1443550">
        <ele>40.8</ele>
        <time>2020-11-15T10:28:41Z</time>
      </trkpt>
      <trkpt lat="41.3687230" lon="2.1443730">
        <ele>40.0</ele>
        <time>2020-11-15T10:28:52Z</time>
      </trkpt>
      <trkpt lat="41.3686650" lon="2.1445430">
        <ele>43.0</ele>
        <time>2020-11-15T10:29:02Z</time>
      </trkpt>
      <trkpt lat="41.3687420" lon="2.1448020">
        <ele>47.6</ele>
        <time>2020-11-15T10:29:21Z</time>
      </trkpt>
      <trkpt lat="41.3692000" lon="2.1439520">
        <ele>34.9</ele>
        <time>2020-11-15T10:29:31Z</time>
      </trkpt>
      <trkpt lat="41.3691680" lon="2.1439250">
        <ele>34.8</ele>
        <time>2020-11-15T10:29:39Z</time>
      </trkpt>
      <trkpt lat="41.3691270" lon="2.1439300">
        <ele>34.7</ele>
        <time>2020-11-15T10:29:50Z</time>
      </trkpt>
      <trkpt lat="41.3691210" lon="2.1439180">
        <ele>34.6</ele>
        <time>2020-11-15T10:29:52Z</time>
      </trkpt>
      <trkpt lat="41.3692030" lon="2.1437490">
        <ele>34.2</ele>
        <time>2020-11-15T10:30:13Z</time>
      </trkpt>
      <trkpt lat="41.3691950" lon="2.1437350">
        <ele>34.2</ele>
        <time>2020-11-15T10:30:16Z</time>
      </trkpt>
      <trkpt lat="41.3691090" lon="2.1437960">
        <ele>33.9</ele>
        <time>2020-11-15T10:30:27Z</time>
      </trkpt>
      <trkpt lat="41.3691030" lon="2.1438020">
        <ele>33.9</ele>
        <time>2020-11-15T10:30:28Z</time>
      </trkpt>
      <trkpt lat="41.3690440" lon="2.1438340">
        <ele>33.7</ele>
        <time>2020-11-15T10:30:46Z</time>
      </trkpt>
      <trkpt lat="41.3684690" lon="2.1431840">
        <ele>31.5</ele>
        <time>2020-11-15T10:30:51Z</time>
      </trkpt>
      <trkpt lat="41.3684000" lon="2.1431230">
        <ele>31.8</ele>
        <time>2020-11-15T10:30:53Z</time>
      </trkpt>
      <trkpt lat="41.3683610" lon="2.1431530">
        <ele>32.0</ele>
        <time>2020-11-15T10:30:57Z</time>
      </trkpt>
      <trkpt lat="41.3683370" lon="2.1431450">
        <ele>32.1</ele>
        <time>2020-11-15T10:30:59Z</time>
      </trkpt>
      <trkpt lat="41.3682790" lon="2.1431080">
        <ele>32.4</ele>
        <time>2020-11-15T10:31:04Z</time>
      </trkpt>
      <trkpt lat="41.3682300" lon="2.1430520">
        <ele>32.6</ele>
        <time>2020-11-15T10:31:08Z</time>
      </trkpt>
      <trkpt lat="41.3682140" lon="2.1430350">
        <ele>32.7</ele>
        <time>2020-11-15T10:31:10Z</time>
      </trkpt>
      <trkpt lat="41.3681560" lon="2.1429710">
        <ele>33.0</ele>
        <time>2020-11-15T10:31:14Z</time>
      </trkpt>
      <trkpt lat="41.3679930" lon="2.1428190">
        <ele>33.3</ele>
        <time>2020-11-15T10:31:28Z</time>
      </trkpt>
      <trkpt lat="41.3678620" lon="2.1427230">
        <ele>33.5</ele>
        <time>2020-11-15T10:31:43Z</time>
      </trkpt>
      <trkpt lat="41.3675220" lon="2.1428720">
        <ele>39.7</ele>
        <time>2020-11-15T10:32:45Z</time>
      </trkpt>
      <trkpt lat="41.3673420" lon="2.1429250">
        <ele>44.8</ele>
        <time>2020-11-15T10:33:07Z</time>
      </trkpt>
      <trkpt lat="41.3671560" lon="2.1429600">
        <ele>50.4</ele>
        <time>2020-11-15T10:33:23Z</time>
      </trkpt>
      <trkpt lat="41.3669800" lon="2.1428940">
        <ele>54.2</ele>
        <time>2020-11-15T10:33:37Z</time>
      </trkpt>
      <trkpt lat="41.3668700" lon="2.1429560">
        <ele>59.5</ele>
        <time>2020-11-15T10:33:47Z</time>
      </trkpt>
      <trkpt lat="41.3669120" lon="2.1430450">
        <ele>60.2</ele>
        <time>2020-11-15T10:33:55Z</time>
      </trkpt>
      <trkpt lat="41.3670820" lon="2.1431480">
        <ele>61.5</ele>
        <time>2020-11-15T10:34:11Z</time>
      </trkpt>
      <trkpt lat="41.3672360" lon="2.1432520">
        <ele>61.9</ele>
        <time>2020-11-15T10:34:37Z</time>
      </trkpt>
      <trkpt lat="41.3674190" lon="2.1432850">
        <ele>62.2</ele>
        <time>2020-11-15T10:34:56Z</time>
      </trkpt>
      <trkpt lat="41.3674530" lon="2.1432960">
        <ele>62.3</ele>
        <time>2020-11-15T10:35:00Z</time>
      </trkpt>
      <trkpt lat="41.3674930" lon="2.1433320">
        <ele>62.4</ele>
        <time>2020-11-15T10:35:12Z</time>
      </trkpt>
      <trkpt lat="41.3675400" lon="2.1433750">
        <ele>62.6</ele>
        <time>2020-11-15T10:35:20Z</time>
      </trkpt>
      <trkpt lat="41.3674580" lon="2.1435880">
        <ele>64.5</ele>
        <time>2020-11-15T10:35:41Z</time>
      </trkpt>
      <trkpt lat="41.3673710" lon="2.1437930">
        <ele>71.3</ele>
        <time>2020-11-15T10:36:14Z</time>
      </trkpt>
      <trkpt lat="41.3673230" lon="2.1440310">
        <ele>74.3</ele>
        <time>2020-11-15T10:36:31Z</time>
      </trkpt>
      <trkpt lat="41.3673060" lon="2.1442700">
        <ele>73.7</ele>
        <time>2020-11-15T10:36:47Z</time>
      </trkpt>
      <trkpt lat="41.3672440" lon="2.1445060">
        <ele>75.3</ele>
        <time>2020-11-15T10:37:04Z</time>
      </trkpt>
      <trkpt lat="41.3672490" lon="2.1445180">
        <ele>75.3</ele>
        <time>2020-11-15T10:37:05Z</time>
      </trkpt>
      <trkpt lat="41.3673540" lon="2.1447200">
        <ele>75.2</ele>
        <time>2020-11-15T10:37:21Z</time>
      </trkpt>
      <trkpt lat="41.3673630" lon="2.1447270">
        <ele>75.2</ele>
        <time>2020-11-15T10:37:22Z</time>
      </trkpt>
      <trkpt lat="41.3674140" lon="2.1449290">
        <ele>74.9</ele>
        <time>2020-11-15T10:37:36Z</time>
      </trkpt>
      <trkpt lat="41.3673530" lon="2.1451570">
        <ele>75.5</ele>
        <time>2020-11-15T10:37:52Z</time>
      </trkpt>
      <trkpt lat="41.3672020" lon="2.1453080">
        <ele>75.7</ele>
        <time>2020-11-15T10:38:09Z</time>
      </trkpt>
      <trkpt lat="41.3671370" lon="2.1455190">
        <ele>75.9</ele>
        <time>2020-11-15T10:38:25Z</time>
      </trkpt>
      <trkpt lat="41.3671490" lon="2.1457610">
        <ele>76.7</ele>
        <time>2020-11-15T10:38:40Z</time>
      </trkpt>
      <trkpt lat="41.3671860" lon="2.1460020">
        <ele>77.5</ele>
        <time>2020-11-15T10:38:55Z</time>
      </trkpt>
      <trkpt lat="41.3672230" lon="2.1462450">
        <ele>78.3</ele>
        <time>2020-11-15T10:39:14Z</time>
      </trkpt>
      <trkpt lat="41.3672910" lon="2.1464840">
        <ele>78.7</ele>
        <time>2020-11-15T10:39:29Z</time>
      </trkpt>
      <trkpt lat="41.3673760" lon="2.1467010">
        <ele>79.1</ele>
        <time>2020-11-15T10:39:48Z</time>
      </trkpt>
      <trkpt lat="41.3674030" lon="2.1467480">
        <ele>79.2</ele>
        <time>2020-11-15T10:39:51Z</time>
      </trkpt>
      <trkpt lat="41.3674460" lon="2.1468800">
        <ele>79.3</ele>
        <time>2020-11-15T10:40:01Z</time>
      </trkpt>
      <trkpt lat="41.3674370" lon="2.1470750">
        <ele>79.5</ele>
        <time>2020-11-15T10:40:14Z</time>
      </trkpt>
      <trkpt lat="41.3674510" lon="2.1472130">
        <ele>79.6</ele>
        <time>2020-11-15T10:40:24Z</time>
      </trkpt>
      <trkpt lat="41.3674720" lon="2.1474490">
        <ele>79.6</ele>
        <time>2020-11-15T10:40:38Z</time>
      </trkpt>
      <trkpt lat="41.3675180" lon="2.1476240">
        <ele>79.6</ele>
        <time>2020-11-15T10:40:51Z</time>
      </trkpt>
      <trkpt lat="41.3675480" lon="2.1477070">
        <ele>79.6</ele>
        <time>2020-11-15T10:40:58Z</time>
      </trkpt>
      <trkpt lat="41.3675590" lon="2.1477180">
        <ele>79.6</ele>
        <time>2020-11-15T10:41:00Z</time>
      </trkpt>
      <trkpt lat="41.3676070" lon="2.1478620">
        <ele>79.5</ele>
        <time>2020-11-15T10:41:10Z</time>
      </trkpt>
      <trkpt lat="41.3676300" lon="2.1479740">
        <ele>79.5</ele>
        <time>2020-11-15T10:41:19Z</time>
      </trkpt>
      <trkpt lat="41.3677270" lon="2.1481840">
        <ele>79.6</ele>
        <time>2020-11-15T10:41:33Z</time>
      </trkpt>
      <trkpt lat="41.3677550" lon="2.1482650">
        <ele>79.6</ele>
        <time>2020-11-15T10:41:38Z</time>
      </trkpt>
      <trkpt lat="41.3678610" lon="2.1484780">
        <ele>79.7</ele>
        <time>2020-11-15T10:41:53Z</time>
      </trkpt>
      <trkpt lat="41.3678880" lon="2.1486030">
        <ele>79.7</ele>
        <time>2020-11-15T10:42:01Z</time>
      </trkpt>
      <trkpt lat="41.3678940" lon="2.1486510">
        <ele>79.7</ele>
        <time>2020-11-15T10:42:05Z</time>
      </trkpt>
      <trkpt lat="41.3679070" lon="2.1486850">
        <ele>79.7</ele>
        <time>2020-11-15T10:42:09Z</time>
      </trkpt>
      <trkpt lat="41.3679260" lon="2.1487280">
        <ele>79.8</ele>
        <time>2020-11-15T10:42:13Z</time>
      </trkpt>
      <trkpt lat="41.3680350" lon="2.1489300">
        <ele>80.1</ele>
        <time>2020-11-15T10:42:32Z</time>
      </trkpt>
      <trkpt lat="41.3680630" lon="2.1490510">
        <ele>80.3</ele>
        <time>2020-11-15T10:42:39Z</time>
      </trkpt>
      <trkpt lat="41.3680850" lon="2.1491190">
        <ele>80.4</ele>
        <time>2020-11-15T10:42:43Z</time>
      </trkpt>
      <trkpt lat="41.3680980" lon="2.1491830">
        <ele>80.5</ele>
        <time>2020-11-15T10:42:47Z</time>
      </trkpt>
      <trkpt lat="41.3681400" lon="2.1492970">
        <ele>80.6</ele>
        <time>2020-11-15T10:42:55Z</time>
      </trkpt>
      <trkpt lat="41.3681680" lon="2.1493750">
        <ele>80.7</ele>
        <time>2020-11-15T10:43:01Z</time>
      </trkpt>
      <trkpt lat="41.3682610" lon="2.1495770">
        <ele>80.9</ele>
        <time>2020-11-15T10:43:16Z</time>
      </trkpt>
      <trkpt lat="41.3683350" lon="2.1498100">
        <ele>80.9</ele>
        <time>2020-11-15T10:43:32Z</time>
      </trkpt>
      <trkpt lat="41.3683400" lon="2.1498570">
        <ele>80.9</ele>
        <time>2020-11-15T10:43:35Z</time>
      </trkpt>
      <trkpt lat="41.3682820" lon="2.1500580">
        <ele>80.6</ele>
        <time>2020-11-15T10:43:50Z</time>
      </trkpt>
      <trkpt lat="41.3682330" lon="2.1501560">
        <ele>80.2</ele>
        <time>2020-11-15T10:43:58Z</time>
      </trkpt>
      <trkpt lat="41.3681910" lon="2.1502400">
        <ele>79.9</ele>
        <time>2020-11-15T10:44:04Z</time>
      </trkpt>
      <trkpt lat="41.3681480" lon="2.1503490">
        <ele>79.4</ele>
        <time>2020-11-15T10:44:11Z</time>
      </trkpt>
      <trkpt lat="41.3680900" lon="2.1504140">
        <ele>79.6</ele>
        <time>2020-11-15T10:44:17Z</time>
      </trkpt>
      <trkpt lat="41.3680140" lon="2.1505050">
        <ele>79.8</ele>
        <time>2020-11-15T10:44:27Z</time>
      </trkpt>
      <trkpt lat="41.3679120" lon="2.1506780">
        <ele>78.9</ele>
        <time>2020-11-15T10:44:42Z</time>
      </trkpt>
      <trkpt lat="41.3678980" lon="2.1509250">
        <ele>78.0</ele>
        <time>2020-11-15T10:44:56Z</time>
      </trkpt>
      <trkpt lat="41.3678990" lon="2.1509790">
        <ele>77.7</ele>
        <time>2020-11-15T10:45:00Z</time>
      </trkpt>
      <trkpt lat="41.3679040" lon="2.1511150">
        <ele>77.4</ele>
        <time>2020-11-15T10:45:10Z</time>
      </trkpt>
      <trkpt lat="41.3678490" lon="2.1512460">
        <ele>76.8</ele>
        <time>2020-11-15T10:45:19Z</time>
      </trkpt>
      <trkpt lat="41.3678140" lon="2.1512800">
        <ele>76.3</ele>
        <time>2020-11-15T10:45:23Z</time>
      </trkpt>
      <trkpt lat="41.3677510" lon="2.1515240">
        <ele>75.3</ele>
        <time>2020-11-15T10:45:41Z</time>
      </trkpt>
      <trkpt lat="41.3676370" lon="2.1517100">
        <ele>75.0</ele>
        <time>2020-11-15T10:45:56Z</time>
      </trkpt>
      <trkpt lat="41.3675160" lon="2.1518850">
        <ele>77.6</ele>
        <time>2020-11-15T10:46:14Z</time>
      </trkpt>
      <trkpt lat="41.3674450" lon="2.1521080">
        <ele>80.4</ele>
        <time>2020-11-15T10:46:31Z</time>
      </trkpt>
      <trkpt lat="41.3674250" lon="2.1523560">
        <ele>82.4</ele>
        <time>2020-11-15T10:46:46Z</time>
      </trkpt>
      <trkpt lat="41.3674170" lon="2.1525980">
        <ele>83.4</ele>
        <time>2020-11-15T10:47:00Z</time>
      </trkpt>
      <trkpt lat="41.3674130" lon="2.1526290">
        <ele>83.2</ele>
        <time>2020-11-15T10:47:02Z</time>
      </trkpt>
      <trkpt lat="41.3674030" lon="2.1527430">
        <ele>83.0</ele>
        <time>2020-11-15T10:47:10Z</time>
      </trkpt>
      <trkpt lat="41.3674060" lon="2.1527700">
        <ele>83.0</ele>
        <time>2020-11-15T10:47:13Z</time>
      </trkpt>
      <trkpt lat="41.3673900" lon="2.1527970">
        <ele>83.0</ele>
        <time>2020-11-15T10:47:19Z</time>
      </trkpt>
      <trkpt lat="41.3672190" lon="2.1527860">
        <ele>82.8</ele>
        <time>2020-11-15T10:47:45Z</time>
      </trkpt>
      <trkpt lat="41.3672540" lon="2.1525380">
        <ele>81.4</ele>
        <time>2020-11-15T10:48:05Z</time>
      </trkpt>
      <trkpt lat="41.3672970" lon="2.1523090">
        <ele>79.4</ele>
        <time>2020-11-15T10:48:29Z</time>
      </trkpt>
      <trkpt lat="41.3673560" lon="2.1520740">
        <ele>77.7</ele>
        <time>2020-11-15T10:48:51Z</time>
      </trkpt>
      <trkpt lat="41.3673980" lon="2.1518320">
        <ele>76.9</ele>
        <time>2020-11-15T10:49:17Z</time>
      </trkpt>
      <trkpt lat="41.3673540" lon="2.1516440">
        <ele>75.9</ele>
        <time>2020-11-15T10:49:50Z</time>
      </trkpt>
      <trkpt lat="41.3672390" lon="2.1516120">
        <ele>75.2</ele>
        <time>2020-11-15T10:50:14Z</time>
      </trkpt>
      <trkpt lat="41.3672360" lon="2.1517890">
        <ele>73.9</ele>
        <time>2020-11-15T10:50:56Z</time>
      </trkpt>
      <trkpt lat="41.3671650" lon="2.1518040">
        <ele>73.1</ele>
        <time>2020-11-15T10:51:21Z</time>
      </trkpt>
      <trkpt lat="41.3670730" lon="2.1518810">
        <ele>72.3</ele>
        <time>2020-11-15T10:51:41Z</time>
      </trkpt>
      <trkpt lat="41.3669700" lon="2.1519560">
        <ele>72.6</ele>
        <time>2020-11-15T10:52:00Z</time>
      </trkpt>
      <trkpt lat="41.3669290" lon="2.1519140">
        <ele>73.1</ele>
        <time>2020-11-15T10:52:09Z</time>
      </trkpt>
      <trkpt lat="41.3669720" lon="2.1520530">
        <ele>74.9</ele>
        <time>2020-11-15T10:52:53Z</time>
      </trkpt>
      <trkpt lat="41.3669860" lon="2.1522770">
        <ele>79.1</ele>
        <time>2020-11-15T10:53:30Z</time>
      </trkpt>
      <trkpt lat="41.3669660" lon="2.1522920">
        <ele>79.8</ele>
        <time>2020-11-15T10:53:31Z</time>
      </trkpt>
      <trkpt lat="41.3669320" lon="2.1524490">
        <ele>82.8</ele>
        <time>2020-11-15T10:54:00Z</time>
      </trkpt>
      <trkpt lat="41.3669930" lon="2.1526400">
        <ele>83.1</ele>
        <time>2020-11-15T10:54:33Z</time>
      </trkpt>
      <trkpt lat="41.3671350" lon="2.1527820">
        <ele>82.8</ele>
        <time>2020-11-15T10:55:01Z</time>
      </trkpt>
      <trkpt lat="41.3671930" lon="2.1529930">
        <ele>82.9</ele>
        <time>2020-11-15T10:55:31Z</time>
      </trkpt>
      <trkpt lat="41.3670480" lon="2.1531340">
        <ele>83.3</ele>
        <time>2020-11-15T10:55:50Z</time>
      </trkpt>
      <trkpt lat="41.3668590" lon="2.1531730">
        <ele>84.5</ele>
        <time>2020-11-15T10:56:07Z</time>
      </trkpt>
      <trkpt lat="41.3667180" lon="2.1533160">
        <ele>85.2</ele>
        <time>2020-11-15T10:56:38Z</time>
      </trkpt>
      <trkpt lat="41.3666990" lon="2.1534000">
        <ele>85.5</ele>
        <time>2020-11-15T10:56:46Z</time>
      </trkpt>
      <trkpt lat="41.3667600" lon="2.1535810">
        <ele>85.1</ele>
        <time>2020-11-15T10:57:18Z</time>
      </trkpt>
      <trkpt lat="41.3668820" lon="2.1537590">
        <ele>84.7</ele>
        <time>2020-11-15T10:57:41Z</time>
      </trkpt>
      <trkpt lat="41.3670040" lon="2.1537360">
        <ele>84.5</ele>
        <time>2020-11-15T10:58:24Z</time>
      </trkpt>
      <trkpt lat="41.3670540" lon="2.1536370">
        <ele>84.3</ele>
        <time>2020-11-15T10:58:39Z</time>
      </trkpt>
      <trkpt lat="41.3669980" lon="2.1536430">
        <ele>84.4</ele>
        <time>2020-11-15T10:59:14Z</time>
      </trkpt>
      <trkpt lat="41.3670200" lon="2.1535910">
        <ele>84.5</ele>
        <time>2020-11-15T11:00:12Z</time>
      </trkpt>
      <trkpt lat="41.3670610" lon="2.1536060">
        <ele>84.5</ele>
        <time>2020-11-15T11:00:16Z</time>
      </trkpt>
      <trkpt lat="41.3670880" lon="2.1536320">
        <ele>84.6</ele>
        <time>2020-11-15T11:00:19Z</time>
      </trkpt>
      <trkpt lat="41.3670220" lon="2.1535850">
        <ele>84.7</ele>
        <time>2020-11-15T11:00:29Z</time>
      </trkpt>
      <trkpt lat="41.3668620" lon="2.1536040">
        <ele>85.0</ele>
        <time>2020-11-15T11:01:04Z</time>
      </trkpt>
      <trkpt lat="41.3667300" lon="2.1534430">
        <ele>85.4</ele>
        <time>2020-11-15T11:01:27Z</time>
      </trkpt>
      <trkpt lat="41.3667410" lon="2.1532140">
        <ele>84.9</ele>
        <time>2020-11-15T11:01:54Z</time>
      </trkpt>
      <trkpt lat="41.3669160" lon="2.1531620">
        <ele>84.2</ele>
        <time>2020-11-15T11:02:16Z</time>
      </trkpt>
      <trkpt lat="41.3670720" lon="2.1530640">
        <ele>83.1</ele>
        <time>2020-11-15T11:02:40Z</time>
      </trkpt>
      <trkpt lat="41.3670950" lon="2.1530280">
        <ele>83.0</ele>
        <time>2020-11-15T11:02:44Z</time>
      </trkpt>
      <trkpt lat="41.3672660" lon="2.1529080">
        <ele>82.9</ele>
        <time>2020-11-15T11:03:05Z</time>
      </trkpt>
      <trkpt lat="41.3673690" lon="2.1529260">
        <ele>84.0</ele>
        <time>2020-11-15T11:03:31Z</time>
      </trkpt>
      <trkpt lat="41.3671990" lon="2.1529540">
        <ele>85.8</ele>
        <time>2020-11-15T11:03:56Z</time>
      </trkpt>
      <trkpt lat="41.3670220" lon="2.1528910">
        <ele>90.2</ele>
        <time>2020-11-15T11:04:26Z</time>
      </trkpt>
      <trkpt lat="41.3668370" lon="2.1528590">
        <ele>90.6</ele>
        <time>2020-11-15T11:04:46Z</time>
      </trkpt>
      <trkpt lat="41.3666530" lon="2.1529040">
        <ele>91.2</ele>
        <time>2020-11-15T11:05:01Z</time>
      </trkpt>
      <trkpt lat="41.3664900" lon="2.1529950">
        <ele>92.5</ele>
        <time>2020-11-15T11:05:21Z</time>
      </trkpt>
      <trkpt lat="41.3663320" lon="2.1531110">
        <ele>94.2</ele>
        <time>2020-11-15T11:05:46Z</time>
      </trkpt>
      <trkpt lat="41.3662480" lon="2.1533160">
        <ele>95.4</ele>
        <time>2020-11-15T11:06:08Z</time>
      </trkpt>
      <trkpt lat="41.3662120" lon="2.1535570">
        <ele>96.4</ele>
        <time>2020-11-15T11:06:25Z</time>
      </trkpt>
      <trkpt lat="41.3661800" lon="2.1538030">
        <ele>97.4</ele>
        <time>2020-11-15T11:06:43Z</time>
      </trkpt>
      <trkpt lat="41.3661860" lon="2.1538190">
        <ele>97.4</ele>
        <time>2020-11-15T11:06:44Z</time>
      </trkpt>
      <trkpt lat="41.3661770" lon="2.1540670">
        <ele>98.4</ele>
        <time>2020-11-15T11:07:04Z</time>
      </trkpt>
      <trkpt lat="41.3661590" lon="2.1543070">
        <ele>99.3</ele>
        <time>2020-11-15T11:07:20Z</time>
      </trkpt>
      <trkpt lat="41.3661420" lon="2.1545550">
        <ele>100.3</ele>
        <time>2020-11-15T11:07:37Z</time>
      </trkpt>
      <trkpt lat="41.3661730" lon="2.1547940">
        <ele>101.2</ele>
        <time>2020-11-15T11:07:55Z</time>
      </trkpt>
      <trkpt lat="41.3661820" lon="2.1550290">
        <ele>102.1</ele>
        <time>2020-11-15T11:08:11Z</time>
      </trkpt>
      <trkpt lat="41.3661930" lon="2.1552820">
        <ele>103.0</ele>
        <time>2020-11-15T11:08:29Z</time>
      </trkpt>
      <trkpt lat="41.3660730" lon="2.1554460">
        <ele>103.0</ele>
        <time>2020-11-15T11:08:49Z</time>
      </trkpt>
      <trkpt lat="41.3661040" lon="2.1556880">
        <ele>103.5</ele>
        <time>2020-11-15T11:09:10Z</time>
      </trkpt>
      <trkpt lat="41.3660890" lon="2.1559340">
        <ele>104.0</ele>
        <time>2020-11-15T11:09:27Z</time>
      </trkpt>
      <trkpt lat="41.3660540" lon="2.1561660">
        <ele>104.3</ele>
        <time>2020-11-15T11:09:43Z</time>
      </trkpt>
      <trkpt lat="41.3659950" lon="2.1563930">
        <ele>104.8</ele>
        <time>2020-11-15T11:10:00Z</time>
      </trkpt>
      <trkpt lat="41.3658910" lon="2.1565890">
        <ele>105.7</ele>
        <time>2020-11-15T11:10:16Z</time>
      </trkpt>
      <trkpt lat="41.3657840" lon="2.1567910">
        <ele>106.8</ele>
        <time>2020-11-15T11:10:32Z</time>
      </trkpt>
      <trkpt lat="41.3656700" lon="2.1569820">
        <ele>107.7</ele>
        <time>2020-11-15T11:10:49Z</time>
      </trkpt>
      <trkpt lat="41.3655280" lon="2.1571430">
        <ele>108.4</ele>
        <time>2020-11-15T11:11:06Z</time>
      </trkpt>
      <trkpt lat="41.3653750" lon="2.1572690">
        <ele>108.8</ele>
        <time>2020-11-15T11:11:22Z</time>
      </trkpt>
      <trkpt lat="41.3651980" lon="2.1573580">
        <ele>108.9</ele>
        <time>2020-11-15T11:11:39Z</time>
      </trkpt>
      <trkpt lat="41.3650170" lon="2.1574180">
        <ele>108.9</ele>
        <time>2020-11-15T11:11:55Z</time>
      </trkpt>
      <trkpt lat="41.3648310" lon="2.1574260">
        <ele>108.9</ele>
        <time>2020-11-15T11:12:11Z</time>
      </trkpt>
      <trkpt lat="41.3646500" lon="2.1574510">
        <ele>109.0</ele>
        <time>2020-11-15T11:12:27Z</time>
      </trkpt>
      <trkpt lat="41.3644640" lon="2.1574610">
        <ele>108.9</ele>
        <time>2020-11-15T11:12:44Z</time>
      </trkpt>
      <trkpt lat="41.3642850" lon="2.1574400">
        <ele>108.6</ele>
        <time>2020-11-15T11:13:00Z</time>
      </trkpt>
      <trkpt lat="41.3641080" lon="2.1573830">
        <ele>107.9</ele>
        <time>2020-11-15T11:13:16Z</time>
      </trkpt>
      <trkpt lat="41.3639260" lon="2.1573760">
        <ele>109.7</ele>
        <time>2020-11-15T11:13:32Z</time>
      </trkpt>
      <trkpt lat="41.3637970" lon="2.1574600">
        <ele>110.9</ele>
        <time>2020-11-15T11:13:56Z</time>
      </trkpt>
      <trkpt lat="41.3636330" lon="2.1573670">
        <ele>111.0</ele>
        <time>2020-11-15T11:14:13Z</time>
      </trkpt>
      <trkpt lat="41.3634650" lon="2.1572550">
        <ele>110.6</ele>
        <time>2020-11-15T11:14:29Z</time>
      </trkpt>
      <trkpt lat="41.3632820" lon="2.1572060">
        <ele>110.3</ele>
        <time>2020-11-15T11:14:44Z</time>
      </trkpt>
      <trkpt lat="41.3631370" lon="2.1572970">
        <ele>109.6</ele>
        <time>2020-11-15T11:15:03Z</time>
      </trkpt>
      <trkpt lat="41.3630670" lon="2.1575210">
        <ele>109.3</ele>
        <time>2020-11-15T11:15:22Z</time>
      </trkpt>
      <trkpt lat="41.3630700" lon="2.1577350">
        <ele>109.5</ele>
        <time>2020-11-15T11:15:40Z</time>
      </trkpt>
      <trkpt lat="41.3631950" lon="2.1579210">
        <ele>111.1</ele>
        <time>2020-11-15T11:15:58Z</time>
      </trkpt>
      <trkpt lat="41.3633250" lon="2.1580980">
        <ele>112.8</ele>
        <time>2020-11-15T11:16:16Z</time>
      </trkpt>
      <trkpt lat="41.3634710" lon="2.1582500">
        <ele>114.3</ele>
        <time>2020-11-15T11:16:34Z</time>
      </trkpt>
      <trkpt lat="41.3636270" lon="2.1583920">
        <ele>116.1</ele>
        <time>2020-11-15T11:16:51Z</time>
      </trkpt>
      <trkpt lat="41.3637810" lon="2.1585240">
        <ele>117.9</ele>
        <time>2020-11-15T11:17:10Z</time>
      </trkpt>
      <trkpt lat="41.3639360" lon="2.1586560">
        <ele>119.8</ele>
        <time>2020-11-15T11:17:28Z</time>
      </trkpt>
      <trkpt lat="41.3640180" lon="2.1587110">
        <ele>120.9</ele>
        <time>2020-11-15T11:17:37Z</time>
      </trkpt>
      <trkpt lat="41.3641810" lon="2.1588370">
        <ele>123.1</ele>
        <time>2020-11-15T11:17:55Z</time>
      </trkpt>
      <trkpt lat="41.3643460" lon="2.1589510">
        <ele>123.7</ele>
        <time>2020-11-15T11:18:13Z</time>
      </trkpt>
      <trkpt lat="41.3645070" lon="2.1590580">
        <ele>124.9</ele>
        <time>2020-11-15T11:18:31Z</time>
      </trkpt>
      <trkpt lat="41.3646440" lon="2.1592150">
        <ele>126.3</ele>
        <time>2020-11-15T11:18:49Z</time>
      </trkpt>
      <trkpt lat="41.3647720" lon="2.1593910">
        <ele>127.6</ele>
        <time>2020-11-15T11:19:08Z</time>
      </trkpt>
      <trkpt lat="41.3649060" lon="2.1595600">
        <ele>129.0</ele>
        <time>2020-11-15T11:19:27Z</time>
      </trkpt>
      <trkpt lat="41.3650010" lon="2.1597500">
        <ele>130.1</ele>
        <time>2020-11-15T11:19:47Z</time>
      </trkpt>
      <trkpt lat="41.3649900" lon="2.1599010">
        <ele>131.3</ele>
        <time>2020-11-15T11:20:01Z</time>
      </trkpt>
      <trkpt lat="41.3648600" lon="2.1600640">
        <ele>132.7</ele>
        <time>2020-11-15T11:20:20Z</time>
      </trkpt>
      <trkpt lat="41.3647340" lon="2.1602110">
        <ele>133.7</ele>
        <time>2020-11-15T11:20:37Z</time>
      </trkpt>
      <trkpt lat="41.3645500" lon="2.1602860">
        <ele>134.9</ele>
        <time>2020-11-15T11:20:55Z</time>
      </trkpt>
      <trkpt lat="41.3643700" lon="2.1603420">
        <ele>136.1</ele>
        <time>2020-11-15T11:21:12Z</time>
      </trkpt>
      <trkpt lat="41.3641920" lon="2.1604250">
        <ele>137.4</ele>
        <time>2020-11-15T11:21:29Z</time>
      </trkpt>
      <trkpt lat="41.3640140" lon="2.1605090">
        <ele>138.7</ele>
        <time>2020-11-15T11:21:47Z</time>
      </trkpt>
      <trkpt lat="41.3639270" lon="2.1605370">
        <ele>139.4</ele>
        <time>2020-11-15T11:21:57Z</time>
      </trkpt>
      <trkpt lat="41.3638150" lon="2.1605670">
        <ele>140.2</ele>
        <time>2020-11-15T11:22:07Z</time>
      </trkpt>
      <trkpt lat="41.3636400" lon="2.1606210">
        <ele>141.5</ele>
        <time>2020-11-15T11:22:24Z</time>
      </trkpt>
      <trkpt lat="41.3636190" lon="2.1606220">
        <ele>141.7</ele>
        <time>2020-11-15T11:22:26Z</time>
      </trkpt>
      <trkpt lat="41.3634940" lon="2.1606750">
        <ele>142.6</ele>
        <time>2020-11-15T11:22:39Z</time>
      </trkpt>
      <trkpt lat="41.3634500" lon="2.1606990">
        <ele>142.9</ele>
        <time>2020-11-15T11:22:43Z</time>
      </trkpt>
      <trkpt lat="41.3634080" lon="2.1607170">
        <ele>143.2</ele>
        <time>2020-11-15T11:22:47Z</time>
      </trkpt>
      <trkpt lat="41.3633340" lon="2.1607320">
        <ele>143.8</ele>
        <time>2020-11-15T11:22:54Z</time>
      </trkpt>
      <trkpt lat="41.3632670" lon="2.1607560">
        <ele>144.2</ele>
        <time>2020-11-15T11:23:01Z</time>
      </trkpt>
      <trkpt lat="41.3631860" lon="2.1608280">
        <ele>144.9</ele>
        <time>2020-11-15T11:23:10Z</time>
      </trkpt>
      <trkpt lat="41.3631160" lon="2.1608510">
        <ele>145.3</ele>
        <time>2020-11-15T11:23:17Z</time>
      </trkpt>
      <trkpt lat="41.3631080" lon="2.1608620">
        <ele>145.4</ele>
        <time>2020-11-15T11:23:18Z</time>
      </trkpt>
      <trkpt lat="41.3630780" lon="2.1608960">
        <ele>145.6</ele>
        <time>2020-11-15T11:23:22Z</time>
      </trkpt>
      <trkpt lat="41.3630720" lon="2.1608960">
        <ele>145.7</ele>
        <time>2020-11-15T11:23:23Z</time>
      </trkpt>
      <trkpt lat="41.3630280" lon="2.1609280">
        <ele>146.0</ele>
        <time>2020-11-15T11:23:29Z</time>
      </trkpt>
      <trkpt lat="41.3628650" lon="2.1610310">
        <ele>147.0</ele>
        <time>2020-11-15T11:23:50Z</time>
      </trkpt>
      <trkpt lat="41.3628820" lon="2.1611730">
        <ele>147.6</ele>
        <time>2020-11-15T11:24:01Z</time>
      </trkpt>
      <trkpt lat="41.3628710" lon="2.1612070">
        <ele>147.7</ele>
        <time>2020-11-15T11:24:05Z</time>
      </trkpt>
      <trkpt lat="41.3628020" lon="2.1612360">
        <ele>148.0</ele>
        <time>2020-11-15T11:24:09Z</time>
      </trkpt>
      <trkpt lat="41.3627050" lon="2.1613110">
        <ele>148.6</ele>
        <time>2020-11-15T11:24:18Z</time>
      </trkpt>
      <trkpt lat="41.3626300" lon="2.1615250">
        <ele>149.2</ele>
        <time>2020-11-15T11:24:36Z</time>
      </trkpt>
      <trkpt lat="41.3624670" lon="2.1616110">
        <ele>149.4</ele>
        <time>2020-11-15T11:24:56Z</time>
      </trkpt>
      <trkpt lat="41.3622920" lon="2.1615810">
        <ele>149.6</ele>
        <time>2020-11-15T11:25:14Z</time>
      </trkpt>
      <trkpt lat="41.3621490" lon="2.1614260">
        <ele>149.8</ele>
        <time>2020-11-15T11:25:30Z</time>
      </trkpt>
      <trkpt lat="41.3620330" lon="2.1612430">
        <ele>150.0</ele>
        <time>2020-11-15T11:25:45Z</time>
      </trkpt>
      <trkpt lat="41.3618920" lon="2.1610850">
        <ele>150.2</ele>
        <time>2020-11-15T11:25:58Z</time>
      </trkpt>
      <trkpt lat="41.3617780" lon="2.1608970">
        <ele>150.3</ele>
        <time>2020-11-15T11:26:14Z</time>
      </trkpt>
      <trkpt lat="41.3616440" lon="2.1607390">
        <ele>150.7</ele>
        <time>2020-11-15T11:26:30Z</time>
      </trkpt>
      <trkpt lat="41.3614850" lon="2.1606090">
        <ele>151.4</ele>
        <time>2020-11-15T11:26:45Z</time>
      </trkpt>
      <trkpt lat="41.3613200" lon="2.1605050">
        <ele>151.7</ele>
        <time>2020-11-15T11:27:01Z</time>
      </trkpt>
      <trkpt lat="41.3611650" lon="2.1603840">
        <ele>152.8</ele>
        <time>2020-11-15T11:27:15Z</time>
      </trkpt>
      <trkpt lat="41.3610130" lon="2.1602520">
        <ele>153.8</ele>
        <time>2020-11-15T11:27:30Z</time>
      </trkpt>
      <trkpt lat="41.3608580" lon="2.1601120">
        <ele>154.8</ele>
        <time>2020-11-15T11:27:45Z</time>
      </trkpt>
      <trkpt lat="41.3607740" lon="2.1600690">
        <ele>155.2</ele>
        <time>2020-11-15T11:27:53Z</time>
      </trkpt>
      <trkpt lat="41.3607280" lon="2.1600460">
        <ele>155.4</ele>
        <time>2020-11-15T11:27:58Z</time>
      </trkpt>
      <trkpt lat="41.3606800" lon="2.1600050">
        <ele>155.6</ele>
        <time>2020-11-15T11:28:03Z</time>
      </trkpt>
      <trkpt lat="41.3605080" lon="2.1599560">
        <ele>156.1</ele>
        <time>2020-11-15T11:28:20Z</time>
      </trkpt>
      <trkpt lat="41.3604980" lon="2.1599490">
        <ele>156.1</ele>
        <time>2020-11-15T11:28:21Z</time>
      </trkpt>
      <trkpt lat="41.3603380" lon="2.1600360">
        <ele>156.7</ele>
        <time>2020-11-15T11:28:37Z</time>
      </trkpt>
      <trkpt lat="41.3603020" lon="2.1600760">
        <ele>157.0</ele>
        <time>2020-11-15T11:28:41Z</time>
      </trkpt>
      <trkpt lat="41.3601300" lon="2.1601660">
        <ele>158.3</ele>
        <time>2020-11-15T11:28:59Z</time>
      </trkpt>
      <trkpt lat="41.3599610" lon="2.1602570">
        <ele>159.9</ele>
        <time>2020-11-15T11:29:16Z</time>
      </trkpt>
      <trkpt lat="41.3599430" lon="2.1602660">
        <ele>160.1</ele>
        <time>2020-11-15T11:29:18Z</time>
      </trkpt>
      <trkpt lat="41.3598420" lon="2.1603170">
        <ele>161.0</ele>
        <time>2020-11-15T11:29:28Z</time>
      </trkpt>
      <trkpt lat="41.3598080" lon="2.1603600">
        <ele>161.4</ele>
        <time>2020-11-15T11:29:32Z</time>
      </trkpt>
      <trkpt lat="41.3596960" lon="2.1604600">
        <ele>162.9</ele>
        <time>2020-11-15T11:29:44Z</time>
      </trkpt>
      <trkpt lat="41.3597060" lon="2.1606950">
        <ele>163.3</ele>
        <time>2020-11-15T11:30:38Z</time>
      </trkpt>
      <trkpt lat="41.3597340" lon="2.1606310">
        <ele>163.4</ele>
        <time>2020-11-15T11:31:45Z</time>
      </trkpt>
      <trkpt lat="41.3598240" lon="2.1606360">
        <ele>163.7</ele>
        <time>2020-11-15T11:32:49Z</time>
      </trkpt>
      <trkpt lat="41.3597550" lon="2.1606180">
        <ele>163.8</ele>
        <time>2020-11-15T11:33:44Z</time>
      </trkpt>
      <trkpt lat="41.3597640" lon="2.1606560">
        <ele>163.9</ele>
        <time>2020-11-15T11:33:47Z</time>
      </trkpt>
      <trkpt lat="41.3598080" lon="2.1606620">
        <ele>164.0</ele>
        <time>2020-11-15T11:33:53Z</time>
      </trkpt>
      <trkpt lat="41.3598320" lon="2.1606520">
        <ele>164.1</ele>
        <time>2020-11-15T11:33:55Z</time>
      </trkpt>
      <trkpt lat="41.3598210" lon="2.1606100">
        <ele>164.2</ele>
        <time>2020-11-15T11:34:23Z</time>
      </trkpt>
      <trkpt lat="41.3598190" lon="2.1605970">
        <ele>164.2</ele>
        <time>2020-11-15T11:35:04Z</time>
      </trkpt>
      <trkpt lat="41.3598330" lon="2.1606060">
        <ele>164.2</ele>
        <time>2020-11-15T11:35:10Z</time>
      </trkpt>
      <trkpt lat="41.3598330" lon="2.1606060">
        <ele>164.2</ele>
        <time>2020-11-15T12:05:45Z</time>
      </trkpt>
      <trkpt lat="41.3599820" lon="2.1614620">
        <ele>171.9</ele>
        <time>2020-11-15T12:05:52Z</time>
      </trkpt>
      <trkpt lat="41.3599820" lon="2.1615670">
        <ele>172.3</ele>
        <time>2020-11-15T12:05:54Z</time>
      </trkpt>
      <trkpt lat="41.3600420" lon="2.1615400">
        <ele>172.7</ele>
        <time>2020-11-15T12:06:00Z</time>
      </trkpt>
      <trkpt lat="41.3600250" lon="2.1615780">
        <ele>172.8</ele>
        <time>2020-11-15T12:06:01Z</time>
      </trkpt>
      <trkpt lat="41.3600740" lon="2.1616550">
        <ele>173.2</ele>
        <time>2020-11-15T12:06:08Z</time>
      </trkpt>
      <trkpt lat="41.3600890" lon="2.1616360">
        <ele>173.3</ele>
        <time>2020-11-15T12:06:09Z</time>
      </trkpt>
      <trkpt lat="41.3601210" lon="2.1616400">
        <ele>173.4</ele>
        <time>2020-11-15T12:06:12Z</time>
      </trkpt>
      <trkpt lat="41.3602460" lon="2.1617600">
        <ele>173.9</ele>
        <time>2020-11-15T12:06:31Z</time>
      </trkpt>
      <trkpt lat="41.3603080" lon="2.1619920">
        <ele>174.3</ele>
        <time>2020-11-15T12:06:46Z</time>
      </trkpt>
      <trkpt lat="41.3603150" lon="2.1620240">
        <ele>174.3</ele>
        <time>2020-11-15T12:06:48Z</time>
      </trkpt>
      <trkpt lat="41.3603510" lon="2.1620510">
        <ele>174.3</ele>
        <time>2020-11-15T12:06:52Z</time>
      </trkpt>
      <trkpt lat="41.3605240" lon="2.1621230">
        <ele>174.4</ele>
        <time>2020-11-15T12:07:07Z</time>
      </trkpt>
      <trkpt lat="41.3606950" lon="2.1621810">
        <ele>174.5</ele>
        <time>2020-11-15T12:07:25Z</time>
      </trkpt>
      <trkpt lat="41.3608770" lon="2.1621460">
        <ele>174.5</ele>
        <time>2020-11-15T12:07:41Z</time>
      </trkpt>
      <trkpt lat="41.3608950" lon="2.1621020">
        <ele>174.6</ele>
        <time>2020-11-15T12:07:44Z</time>
      </trkpt>
      <trkpt lat="41.3609680" lon="2.1621470">
        <ele>174.6</ele>
        <time>2020-11-15T12:07:53Z</time>
      </trkpt>
      <trkpt lat="41.3609750" lon="2.1623660">
        <ele>172.4</ele>
        <time>2020-11-15T12:08:15Z</time>
      </trkpt>
      <trkpt lat="41.3608090" lon="2.1622520">
        <ele>171.9</ele>
        <time>2020-11-15T12:08:31Z</time>
      </trkpt>
      <trkpt lat="41.3607820" lon="2.1622220">
        <ele>171.8</ele>
        <time>2020-11-15T12:08:34Z</time>
      </trkpt>
      <trkpt lat="41.3607450" lon="2.1621980">
        <ele>171.6</ele>
        <time>2020-11-15T12:08:38Z</time>
      </trkpt>
      <trkpt lat="41.3607010" lon="2.1621900">
        <ele>171.5</ele>
        <time>2020-11-15T12:08:42Z</time>
      </trkpt>
      <trkpt lat="41.3606700" lon="2.1621770">
        <ele>171.4</ele>
        <time>2020-11-15T12:08:45Z</time>
      </trkpt>
      <trkpt lat="41.3606120" lon="2.1621520">
        <ele>171.3</ele>
        <time>2020-11-15T12:08:50Z</time>
      </trkpt>
      <trkpt lat="41.3605800" lon="2.1621400">
        <ele>171.2</ele>
        <time>2020-11-15T12:08:53Z</time>
      </trkpt>
      <trkpt lat="41.3605000" lon="2.1621060">
        <ele>171.0</ele>
        <time>2020-11-15T12:09:00Z</time>
      </trkpt>
      <trkpt lat="41.3604520" lon="2.1620860">
        <ele>170.8</ele>
        <time>2020-11-15T12:09:04Z</time>
      </trkpt>
      <trkpt lat="41.3604230" lon="2.1620800">
        <ele>170.8</ele>
        <time>2020-11-15T12:09:07Z</time>
      </trkpt>
      <trkpt lat="41.3602450" lon="2.1620600">
        <ele>170.3</ele>
        <time>2020-11-15T12:09:27Z</time>
      </trkpt>
      <trkpt lat="41.3602370" lon="2.1620900">
        <ele>170.2</ele>
        <time>2020-11-15T12:09:30Z</time>
      </trkpt>
      <trkpt lat="41.3602440" lon="2.1621180">
        <ele>170.1</ele>
        <time>2020-11-15T12:09:32Z</time>
      </trkpt>
      <trkpt lat="41.3602680" lon="2.1622040">
        <ele>169.8</ele>
        <time>2020-11-15T12:09:38Z</time>
      </trkpt>
      <trkpt lat="41.3603840" lon="2.1623900">
        <ele>169.9</ele>
        <time>2020-11-15T12:09:55Z</time>
      </trkpt>
      <trkpt lat="41.3605010" lon="2.1625770">
        <ele>169.1</ele>
        <time>2020-11-15T12:10:14Z</time>
      </trkpt>
      <trkpt lat="41.3606230" lon="2.1627530">
        <ele>168.4</ele>
        <time>2020-11-15T12:10:32Z</time>
      </trkpt>
      <trkpt lat="41.3607660" lon="2.1629180">
        <ele>168.3</ele>
        <time>2020-11-15T12:10:51Z</time>
      </trkpt>
      <trkpt lat="41.3609090" lon="2.1630830">
        <ele>168.6</ele>
        <time>2020-11-15T12:11:08Z</time>
      </trkpt>
      <trkpt lat="41.3610390" lon="2.1632460">
        <ele>169.0</ele>
        <time>2020-11-15T12:11:30Z</time>
      </trkpt>
      <trkpt lat="41.3611630" lon="2.1634240">
        <ele>169.2</ele>
        <time>2020-11-15T12:11:47Z</time>
      </trkpt>
      <trkpt lat="41.3612720" lon="2.1636200">
        <ele>169.2</ele>
        <time>2020-11-15T12:12:04Z</time>
      </trkpt>
      <trkpt lat="41.3613120" lon="2.1636970">
        <ele>169.2</ele>
        <time>2020-11-15T12:12:10Z</time>
      </trkpt>
      <trkpt lat="41.3613470" lon="2.1638030">
        <ele>169.2</ele>
        <time>2020-11-15T12:12:16Z</time>
      </trkpt>
      <trkpt lat="41.3614270" lon="2.1639380">
        <ele>169.0</ele>
        <time>2020-11-15T12:12:27Z</time>
      </trkpt>
      <trkpt lat="41.3614400" lon="2.1640090">
        <ele>168.9</ele>
        <time>2020-11-15T12:12:31Z</time>
      </trkpt>
      <trkpt lat="41.3615120" lon="2.1640990">
        <ele>168.8</ele>
        <time>2020-11-15T12:12:40Z</time>
      </trkpt>
      <trkpt lat="41.3615160" lon="2.1641180">
        <ele>168.7</ele>
        <time>2020-11-15T12:12:41Z</time>
      </trkpt>
      <trkpt lat="41.3616170" lon="2.1642870">
        <ele>168.6</ele>
        <time>2020-11-15T12:12:55Z</time>
      </trkpt>
      <trkpt lat="41.3616930" lon="2.1644380">
        <ele>168.6</ele>
        <time>2020-11-15T12:13:06Z</time>
      </trkpt>
      <trkpt lat="41.3617590" lon="2.1645650">
        <ele>168.8</ele>
        <time>2020-11-15T12:13:16Z</time>
      </trkpt>
      <trkpt lat="41.3617890" lon="2.1646440">
        <ele>168.9</ele>
        <time>2020-11-15T12:13:22Z</time>
      </trkpt>
      <trkpt lat="41.3618570" lon="2.1647680">
        <ele>169.2</ele>
        <time>2020-11-15T12:13:31Z</time>
      </trkpt>
      <trkpt lat="41.3619840" lon="2.1649380">
        <ele>169.7</ele>
        <time>2020-11-15T12:13:47Z</time>
      </trkpt>
      <trkpt lat="41.3620320" lon="2.1650270">
        <ele>169.9</ele>
        <time>2020-11-15T12:13:55Z</time>
      </trkpt>
      <trkpt lat="41.3620670" lon="2.1650770">
        <ele>170.1</ele>
        <time>2020-11-15T12:14:00Z</time>
      </trkpt>
      <trkpt lat="41.3622010" lon="2.1652310">
        <ele>170.9</ele>
        <time>2020-11-15T12:14:18Z</time>
      </trkpt>
      <trkpt lat="41.3622920" lon="2.1654110">
        <ele>171.6</ele>
        <time>2020-11-15T12:14:38Z</time>
      </trkpt>
      <trkpt lat="41.3623390" lon="2.1655740">
        <ele>172.1</ele>
        <time>2020-11-15T12:14:49Z</time>
      </trkpt>
      <trkpt lat="41.3624020" lon="2.1656600">
        <ele>172.3</ele>
        <time>2020-11-15T12:14:58Z</time>
      </trkpt>
      <trkpt lat="41.3624730" lon="2.1657970">
        <ele>172.6</ele>
        <time>2020-11-15T12:15:11Z</time>
      </trkpt>
      <trkpt lat="41.3624950" lon="2.1658440">
        <ele>172.7</ele>
        <time>2020-11-15T12:15:16Z</time>
      </trkpt>
      <trkpt lat="41.3625560" lon="2.1660310">
        <ele>172.8</ele>
        <time>2020-11-15T12:15:30Z</time>
      </trkpt>
      <trkpt lat="41.3625830" lon="2.1661100">
        <ele>172.8</ele>
        <time>2020-11-15T12:15:36Z</time>
      </trkpt>
      <trkpt lat="41.3626010" lon="2.1661550">
        <ele>172.8</ele>
        <time>2020-11-15T12:15:39Z</time>
      </trkpt>
      <trkpt lat="41.3626160" lon="2.1661940">
        <ele>172.8</ele>
        <time>2020-11-15T12:15:42Z</time>
      </trkpt>
      <trkpt lat="41.3626760" lon="2.1662910">
        <ele>172.6</ele>
        <time>2020-11-15T12:15:50Z</time>
      </trkpt>
      <trkpt lat="41.3626870" lon="2.1663320">
        <ele>172.6</ele>
        <time>2020-11-15T12:15:53Z</time>
      </trkpt>
      <trkpt lat="41.3627230" lon="2.1664460">
        <ele>172.4</ele>
        <time>2020-11-15T12:16:03Z</time>
      </trkpt>
      <trkpt lat="41.3628130" lon="2.1666580">
        <ele>172.1</ele>
        <time>2020-11-15T12:16:20Z</time>
      </trkpt>
      <trkpt lat="41.3629050" lon="2.1668720">
        <ele>171.7</ele>
        <time>2020-11-15T12:16:36Z</time>
      </trkpt>
      <trkpt lat="41.3629770" lon="2.1670930">
        <ele>171.4</ele>
        <time>2020-11-15T12:16:52Z</time>
      </trkpt>
      <trkpt lat="41.3630680" lon="2.1673060">
        <ele>171.2</ele>
        <time>2020-11-15T12:17:08Z</time>
      </trkpt>
      <trkpt lat="41.3631360" lon="2.1675150">
        <ele>171.0</ele>
        <time>2020-11-15T12:17:23Z</time>
      </trkpt>
      <trkpt lat="41.3631790" lon="2.1676330">
        <ele>170.9</ele>
        <time>2020-11-15T12:17:32Z</time>
      </trkpt>
      <trkpt lat="41.3633240" lon="2.1677070">
        <ele>170.9</ele>
        <time>2020-11-15T12:17:48Z</time>
      </trkpt>
      <trkpt lat="41.3633970" lon="2.1677600">
        <ele>170.5</ele>
        <time>2020-11-15T12:17:58Z</time>
      </trkpt>
      <trkpt lat="41.3634850" lon="2.1678250">
        <ele>169.9</ele>
        <time>2020-11-15T12:18:09Z</time>
      </trkpt>
      <trkpt lat="41.3636260" lon="2.1678230">
        <ele>169.3</ele>
        <time>2020-11-15T12:18:23Z</time>
      </trkpt>
      <trkpt lat="41.3638080" lon="2.1678030">
        <ele>168.6</ele>
        <time>2020-11-15T12:18:41Z</time>
      </trkpt>
      <trkpt lat="41.3638530" lon="2.1677990">
        <ele>168.5</ele>
        <time>2020-11-15T12:18:45Z</time>
      </trkpt>
      <trkpt lat="41.3639580" lon="2.1677050">
        <ele>168.0</ele>
        <time>2020-11-15T12:18:58Z</time>
      </trkpt>
      <trkpt lat="41.3641120" lon="2.1675770">
        <ele>167.3</ele>
        <time>2020-11-15T12:19:14Z</time>
      </trkpt>
      <trkpt lat="41.3641410" lon="2.1675680">
        <ele>167.2</ele>
        <time>2020-11-15T12:19:17Z</time>
      </trkpt>
      <trkpt lat="41.3643280" lon="2.1675610">
        <ele>166.6</ele>
        <time>2020-11-15T12:19:37Z</time>
      </trkpt>
      <trkpt lat="41.3644110" lon="2.1675520">
        <ele>166.4</ele>
        <time>2020-11-15T12:19:44Z</time>
      </trkpt>
      <trkpt lat="41.3645260" lon="2.1674940">
        <ele>166.1</ele>
        <time>2020-11-15T12:19:56Z</time>
      </trkpt>
      <trkpt lat="41.3645490" lon="2.1674840">
        <ele>166.0</ele>
        <time>2020-11-15T12:19:58Z</time>
      </trkpt>
      <trkpt lat="41.3646320" lon="2.1674300">
        <ele>165.8</ele>
        <time>2020-11-15T12:20:05Z</time>
      </trkpt>
      <trkpt lat="41.3647230" lon="2.1674030">
        <ele>165.5</ele>
        <time>2020-11-15T12:20:14Z</time>
      </trkpt>
      <trkpt lat="41.3649070" lon="2.1673830">
        <ele>165.2</ele>
        <time>2020-11-15T12:20:32Z</time>
      </trkpt>
      <trkpt lat="41.3650730" lon="2.1674480">
        <ele>164.5</ele>
        <time>2020-11-15T12:20:46Z</time>
      </trkpt>
      <trkpt lat="41.3652480" lon="2.1675360">
        <ele>161.2</ele>
        <time>2020-11-15T12:21:06Z</time>
      </trkpt>
      <trkpt lat="41.3653550" lon="2.1676090">
        <ele>158.8</ele>
        <time>2020-11-15T12:21:26Z</time>
      </trkpt>
      <trkpt lat="41.3654110" lon="2.1676400">
        <ele>157.5</ele>
        <time>2020-11-15T12:21:32Z</time>
      </trkpt>
      <trkpt lat="41.3654290" lon="2.1676340">
        <ele>157.1</ele>
        <time>2020-11-15T12:21:34Z</time>
      </trkpt>
      <trkpt lat="41.3654840" lon="2.1676470">
        <ele>156.0</ele>
        <time>2020-11-15T12:21:40Z</time>
      </trkpt>
      <trkpt lat="41.3656470" lon="2.1677170">
        <ele>152.7</ele>
        <time>2020-11-15T12:21:57Z</time>
      </trkpt>
      <trkpt lat="41.3656800" lon="2.1677180">
        <ele>152.1</ele>
        <time>2020-11-15T12:22:01Z</time>
      </trkpt>
      <trkpt lat="41.3657870" lon="2.1677470">
        <ele>150.1</ele>
        <time>2020-11-15T12:22:11Z</time>
      </trkpt>
      <trkpt lat="41.3659410" lon="2.1677560">
        <ele>148.6</ele>
        <time>2020-11-15T12:22:29Z</time>
      </trkpt>
      <trkpt lat="41.3660170" lon="2.1677740">
        <ele>147.4</ele>
        <time>2020-11-15T12:22:37Z</time>
      </trkpt>
      <trkpt lat="41.3661130" lon="2.1678250">
        <ele>145.8</ele>
        <time>2020-11-15T12:22:50Z</time>
      </trkpt>
      <trkpt lat="41.3662060" lon="2.1679080">
        <ele>144.2</ele>
        <time>2020-11-15T12:23:01Z</time>
      </trkpt>
      <trkpt lat="41.3662440" lon="2.1679440">
        <ele>143.6</ele>
        <time>2020-11-15T12:23:06Z</time>
      </trkpt>
      <trkpt lat="41.3662830" lon="2.1679970">
        <ele>142.8</ele>
        <time>2020-11-15T12:23:13Z</time>
      </trkpt>
      <trkpt lat="41.3663040" lon="2.1680370">
        <ele>142.2</ele>
        <time>2020-11-15T12:23:17Z</time>
      </trkpt>
      <trkpt lat="41.3663140" lon="2.1680440">
        <ele>142.1</ele>
        <time>2020-11-15T12:23:18Z</time>
      </trkpt>
      <trkpt lat="41.3664110" lon="2.1681360">
        <ele>140.4</ele>
        <time>2020-11-15T12:23:33Z</time>
      </trkpt>
      <trkpt lat="41.3664790" lon="2.1682700">
        <ele>138.9</ele>
        <time>2020-11-15T12:23:45Z</time>
      </trkpt>
      <trkpt lat="41.3665090" lon="2.1683240">
        <ele>138.4</ele>
        <time>2020-11-15T12:23:50Z</time>
      </trkpt>
      <trkpt lat="41.3665690" lon="2.1683860">
        <ele>137.5</ele>
        <time>2020-11-15T12:23:57Z</time>
      </trkpt>
      <trkpt lat="41.3665960" lon="2.1684440">
        <ele>136.3</ele>
        <time>2020-11-15T12:24:02Z</time>
      </trkpt>
      <trkpt lat="41.3666220" lon="2.1684970">
        <ele>135.8</ele>
        <time>2020-11-15T12:24:08Z</time>
      </trkpt>
      <trkpt lat="41.3666260" lon="2.1685660">
        <ele>135.2</ele>
        <time>2020-11-15T12:24:12Z</time>
      </trkpt>
      <trkpt lat="41.3666900" lon="2.1687930">
        <ele>133.4</ele>
        <time>2020-11-15T12:24:36Z</time>
      </trkpt>
      <trkpt lat="41.3667310" lon="2.1690280">
        <ele>132.8</ele>
        <time>2020-11-15T12:24:56Z</time>
      </trkpt>
      <trkpt lat="41.3667110" lon="2.1692590">
        <ele>130.0</ele>
        <time>2020-11-15T12:25:26Z</time>
      </trkpt>
      <trkpt lat="41.3667650" lon="2.1694840">
        <ele>127.2</ele>
        <time>2020-11-15T12:25:47Z</time>
      </trkpt>
      <trkpt lat="41.3667910" lon="2.1694450">
        <ele>126.9</ele>
        <time>2020-11-15T12:26:15Z</time>
      </trkpt>
      <trkpt lat="41.3667890" lon="2.1694460">
        <ele>126.9</ele>
        <time>2020-11-15T12:26:20Z</time>
      </trkpt>
      <trkpt lat="41.3669560" lon="2.1694230">
        <ele>125.9</ele>
        <time>2020-11-15T12:26:43Z</time>
      </trkpt>
      <trkpt lat="41.3671380" lon="2.1694630">
        <ele>124.2</ele>
        <time>2020-11-15T12:27:05Z</time>
      </trkpt>
      <trkpt lat="41.3673020" lon="2.1695660">
        <ele>123.0</ele>
        <time>2020-11-15T12:27:25Z</time>
      </trkpt>
      <trkpt lat="41.3674790" lon="2.1695230">
        <ele>122.5</ele>
        <time>2020-11-15T12:27:43Z</time>
      </trkpt>
      <trkpt lat="41.3674900" lon="2.1695290">
        <ele>122.5</ele>
        <time>2020-11-15T12:27:45Z</time>
      </trkpt>
      <trkpt lat="41.3675580" lon="2.1695910">
        <ele>122.5</ele>
        <time>2020-11-15T12:30:47Z</time>
      </trkpt>
      <trkpt lat="41.3675970" lon="2.1693540">
        <ele>122.4</ele>
        <time>2020-11-15T12:31:09Z</time>
      </trkpt>
      <trkpt lat="41.3676330" lon="2.1691090">
        <ele>122.3</ele>
        <time>2020-11-15T12:31:28Z</time>
      </trkpt>
      <trkpt lat="41.3677210" lon="2.1688940">
        <ele>122.2</ele>
        <time>2020-11-15T12:31:43Z</time>
      </trkpt>
      <trkpt lat="41.3678210" lon="2.1686850">
        <ele>121.9</ele>
        <time>2020-11-15T12:32:00Z</time>
      </trkpt>
      <trkpt lat="41.3679180" lon="2.1684730">
        <ele>120.3</ele>
        <time>2020-11-15T12:32:16Z</time>
      </trkpt>
      <trkpt lat="41.3680190" lon="2.1682720">
        <ele>119.6</ele>
        <time>2020-11-15T12:32:30Z</time>
      </trkpt>
      <trkpt lat="41.3680210" lon="2.1682560">
        <ele>119.5</ele>
        <time>2020-11-15T12:32:31Z</time>
      </trkpt>
      <trkpt lat="41.3680310" lon="2.1681630">
        <ele>119.2</ele>
        <time>2020-11-15T12:32:38Z</time>
      </trkpt>
      <trkpt lat="41.3681650" lon="2.1679910">
        <ele>118.7</ele>
        <time>2020-11-15T12:32:56Z</time>
      </trkpt>
      <trkpt lat="41.3683320" lon="2.1679010">
        <ele>118.3</ele>
        <time>2020-11-15T12:33:12Z</time>
      </trkpt>
      <trkpt lat="41.3683480" lon="2.1679070">
        <ele>118.3</ele>
        <time>2020-11-15T12:33:14Z</time>
      </trkpt>
      <trkpt lat="41.3684040" lon="2.1678950">
        <ele>118.0</ele>
        <time>2020-11-15T12:33:19Z</time>
      </trkpt>
      <trkpt lat="41.3684880" lon="2.1677790">
        <ele>114.5</ele>
        <time>2020-11-15T12:33:34Z</time>
      </trkpt>
      <trkpt lat="41.3685350" lon="2.1675920">
        <ele>109.9</ele>
        <time>2020-11-15T12:34:03Z</time>
      </trkpt>
      <trkpt lat="41.3685810" lon="2.1676070">
        <ele>109.4</ele>
        <time>2020-11-15T12:34:10Z</time>
      </trkpt>
      <trkpt lat="41.3686720" lon="2.1676280">
        <ele>109.2</ele>
        <time>2020-11-15T12:34:19Z</time>
      </trkpt>
      <trkpt lat="41.3686510" lon="2.1674020">
        <ele>109.1</ele>
        <time>2020-11-15T12:34:38Z</time>
      </trkpt>
      <trkpt lat="41.3685710" lon="2.1671850">
        <ele>109.1</ele>
        <time>2020-11-15T12:34:53Z</time>
      </trkpt>
      <trkpt lat="41.3684750" lon="2.1669740">
        <ele>109.2</ele>
        <time>2020-11-15T12:35:09Z</time>
      </trkpt>
      <trkpt lat="41.3683970" lon="2.1667570">
        <ele>109.1</ele>
        <time>2020-11-15T12:35:26Z</time>
      </trkpt>
      <trkpt lat="41.3683210" lon="2.1665270">
        <ele>108.1</ele>
        <time>2020-11-15T12:35:43Z</time>
      </trkpt>
      <trkpt lat="41.3683290" lon="2.1662880">
        <ele>106.4</ele>
        <time>2020-11-15T12:36:02Z</time>
      </trkpt>
      <trkpt lat="41.3683590" lon="2.1660430">
        <ele>103.2</ele>
        <time>2020-11-15T12:36:26Z</time>
      </trkpt>
      <trkpt lat="41.3684430" lon="2.1658340">
        <ele>99.3</ele>
        <time>2020-11-15T12:36:49Z</time>
      </trkpt>
      <trkpt lat="41.3685040" lon="2.1656440">
        <ele>97.1</ele>
        <time>2020-11-15T12:37:14Z</time>
      </trkpt>
      <trkpt lat="41.3684160" lon="2.1654380">
        <ele>98.5</ele>
        <time>2020-11-15T12:37:38Z</time>
      </trkpt>
      <trkpt lat="41.3684500" lon="2.1652490">
        <ele>97.4</ele>
        <time>2020-11-15T12:38:08Z</time>
      </trkpt>
      <trkpt lat="41.3684590" lon="2.1652430">
        <ele>97.4</ele>
        <time>2020-11-15T12:38:11Z</time>
      </trkpt>
      <trkpt lat="41.3688260" lon="2.1640340">
        <ele>89.6</ele>
        <time>2020-11-15T12:39:50Z</time>
      </trkpt>
      <trkpt lat="41.3688210" lon="2.1640770">
        <ele>89.6</ele>
        <time>2020-11-15T12:39:52Z</time>
      </trkpt>
      <trkpt lat="41.3688240" lon="2.1640870">
        <ele>89.6</ele>
        <time>2020-11-15T12:39:53Z</time>
      </trkpt>
      <trkpt lat="41.3688340" lon="2.1640840">
        <ele>89.6</ele>
        <time>2020-11-15T12:39:55Z</time>
      </trkpt>
      <trkpt lat="41.3688350" lon="2.1640750">
        <ele>89.6</ele>
        <time>2020-11-15T12:39:56Z</time>
      </trkpt>
      <trkpt lat="41.3688350" lon="2.1640560">
        <ele>89.6</ele>
        <time>2020-11-15T12:39:57Z</time>
      </trkpt>
      <trkpt lat="41.3688370" lon="2.1640510">
        <ele>89.6</ele>
        <time>2020-11-15T12:39:59Z</time>
      </trkpt>
      <trkpt lat="41.3688390" lon="2.1640390">
        <ele>89.6</ele>
        <time>2020-11-15T12:40:00Z</time>
      </trkpt>
      <trkpt lat="41.3688450" lon="2.1639940">
        <ele>89.6</ele>
        <time>2020-11-15T12:40:01Z</time>
      </trkpt>
      <trkpt lat="41.3688480" lon="2.1639760">
        <ele>89.6</ele>
        <time>2020-11-15T12:40:02Z</time>
      </trkpt>
      <trkpt lat="41.3688510" lon="2.1639570">
        <ele>89.6</ele>
        <time>2020-11-15T12:40:03Z</time>
      </trkpt>
      <trkpt lat="41.3688570" lon="2.1639290">
        <ele>89.7</ele>
        <time>2020-11-15T12:40:05Z</time>
      </trkpt>
      <trkpt lat="41.3688620" lon="2.1639010">
        <ele>89.7</ele>
        <time>2020-11-15T12:40:07Z</time>
      </trkpt>
      <trkpt lat="41.3688600" lon="2.1638890">
        <ele>89.7</ele>
        <time>2020-11-15T12:40:08Z</time>
      </trkpt>
      <trkpt lat="41.3688560" lon="2.1638680">
        <ele>89.7</ele>
        <time>2020-11-15T12:40:09Z</time>
      </trkpt>
      <trkpt lat="41.3688530" lon="2.1638520">
        <ele>89.7</ele>
        <time>2020-11-15T12:40:10Z</time>
      </trkpt>
      <trkpt lat="41.3688420" lon="2.1638080">
        <ele>89.7</ele>
        <time>2020-11-15T12:40:12Z</time>
      </trkpt>
      <trkpt lat="41.3688370" lon="2.1637980">
        <ele>89.7</ele>
        <time>2020-11-15T12:40:13Z</time>
      </trkpt>
      <trkpt lat="41.3688270" lon="2.1637690">
        <ele>89.7</ele>
        <time>2020-11-15T12:40:15Z</time>
      </trkpt>
      <trkpt lat="41.3688220" lon="2.1637560">
        <ele>89.7</ele>
        <time>2020-11-15T12:40:16Z</time>
      </trkpt>
      <trkpt lat="41.3688180" lon="2.1637430">
        <ele>89.7</ele>
        <time>2020-11-15T12:40:17Z</time>
      </trkpt>
      <trkpt lat="41.3688140" lon="2.1637330">
        <ele>89.7</ele>
        <time>2020-11-15T12:40:18Z</time>
      </trkpt>
      <trkpt lat="41.3688090" lon="2.1637180">
        <ele>89.7</ele>
        <time>2020-11-15T12:40:19Z</time>
      </trkpt>
      <trkpt lat="41.3688050" lon="2.1637030">
        <ele>89.7</ele>
        <time>2020-11-15T12:40:21Z</time>
      </trkpt>
      <trkpt lat="41.3688020" lon="2.1636800">
        <ele>89.7</ele>
        <time>2020-11-15T12:40:22Z</time>
      </trkpt>
      <trkpt lat="41.3688030" lon="2.1636640">
        <ele>89.7</ele>
        <time>2020-11-15T12:40:23Z</time>
      </trkpt>
      <trkpt lat="41.3688080" lon="2.1636300">
        <ele>89.7</ele>
        <time>2020-11-15T12:40:25Z</time>
      </trkpt>
      <trkpt lat="41.3688110" lon="2.1636150">
        <ele>89.7</ele>
        <time>2020-11-15T12:40:26Z</time>
      </trkpt>
      <trkpt lat="41.3688150" lon="2.1635990">
        <ele>89.7</ele>
        <time>2020-11-15T12:40:28Z</time>
      </trkpt>
      <trkpt lat="41.3688210" lon="2.1635840">
        <ele>89.7</ele>
        <time>2020-11-15T12:40:29Z</time>
      </trkpt>
      <trkpt lat="41.3688270" lon="2.1635720">
        <ele>89.7</ele>
        <time>2020-11-15T12:40:30Z</time>
      </trkpt>
      <trkpt lat="41.3688370" lon="2.1635550">
        <ele>89.7</ele>
        <time>2020-11-15T12:40:31Z</time>
      </trkpt>
      <trkpt lat="41.3688470" lon="2.1635330">
        <ele>89.7</ele>
        <time>2020-11-15T12:40:32Z</time>
      </trkpt>
      <trkpt lat="41.3688530" lon="2.1635220">
        <ele>89.7</ele>
        <time>2020-11-15T12:40:33Z</time>
      </trkpt>
      <trkpt lat="41.3688590" lon="2.1635080">
        <ele>89.7</ele>
        <time>2020-11-15T12:40:35Z</time>
      </trkpt>
      <trkpt lat="41.3688680" lon="2.1634780">
        <ele>89.7</ele>
        <time>2020-11-15T12:40:37Z</time>
      </trkpt>
      <trkpt lat="41.3688740" lon="2.1634640">
        <ele>89.7</ele>
        <time>2020-11-15T12:40:38Z</time>
      </trkpt>
      <trkpt lat="41.3688760" lon="2.1634520">
        <ele>89.7</ele>
        <time>2020-11-15T12:40:40Z</time>
      </trkpt>
      <trkpt lat="41.3688790" lon="2.1634390">
        <ele>89.7</ele>
        <time>2020-11-15T12:40:41Z</time>
      </trkpt>
      <trkpt lat="41.3688810" lon="2.1634260">
        <ele>89.7</ele>
        <time>2020-11-15T12:40:42Z</time>
      </trkpt>
      <trkpt lat="41.3688800" lon="2.1634150">
        <ele>89.7</ele>
        <time>2020-11-15T12:40:43Z</time>
      </trkpt>
      <trkpt lat="41.3688800" lon="2.1634010">
        <ele>89.7</ele>
        <time>2020-11-15T12:40:45Z</time>
      </trkpt>
      <trkpt lat="41.3688810" lon="2.1633850">
        <ele>89.7</ele>
        <time>2020-11-15T12:40:46Z</time>
      </trkpt>
      <trkpt lat="41.3688810" lon="2.1633540">
        <ele>89.6</ele>
        <time>2020-11-15T12:40:47Z</time>
      </trkpt>
      <trkpt lat="41.3688810" lon="2.1633440">
        <ele>89.6</ele>
        <time>2020-11-15T12:40:48Z</time>
      </trkpt>
      <trkpt lat="41.3688800" lon="2.1633340">
        <ele>89.6</ele>
        <time>2020-11-15T12:40:49Z</time>
      </trkpt>
      <trkpt lat="41.3688780" lon="2.1633160">
        <ele>89.6</ele>
        <time>2020-11-15T12:40:50Z</time>
      </trkpt>
      <trkpt lat="41.3688760" lon="2.1632990">
        <ele>89.6</ele>
        <time>2020-11-15T12:40:51Z</time>
      </trkpt>
      <trkpt lat="41.3688720" lon="2.1632680">
        <ele>89.6</ele>
        <time>2020-11-15T12:40:53Z</time>
      </trkpt>
      <trkpt lat="41.3688690" lon="2.1632590">
        <ele>89.6</ele>
        <time>2020-11-15T12:40:54Z</time>
      </trkpt>
      <trkpt lat="41.3688670" lon="2.1632500">
        <ele>89.6</ele>
        <time>2020-11-15T12:40:55Z</time>
      </trkpt>
      <trkpt lat="41.3688600" lon="2.1632340">
        <ele>89.6</ele>
        <time>2020-11-15T12:40:56Z</time>
      </trkpt>
      <trkpt lat="41.3688540" lon="2.1632180">
        <ele>89.6</ele>
        <time>2020-11-15T12:40:57Z</time>
      </trkpt>
      <trkpt lat="41.3688520" lon="2.1632100">
        <ele>89.6</ele>
        <time>2020-11-15T12:40:58Z</time>
      </trkpt>
      <trkpt lat="41.3688460" lon="2.1631880">
        <ele>89.6</ele>
        <time>2020-11-15T12:40:59Z</time>
      </trkpt>
      <trkpt lat="41.3688430" lon="2.1631760">
        <ele>89.6</ele>
        <time>2020-11-15T12:41:01Z</time>
      </trkpt>
      <trkpt lat="41.3688400" lon="2.1631630">
        <ele>89.6</ele>
        <time>2020-11-15T12:41:02Z</time>
      </trkpt>
      <trkpt lat="41.3688360" lon="2.1631420">
        <ele>89.6</ele>
        <time>2020-11-15T12:41:04Z</time>
      </trkpt>
      <trkpt lat="41.3688340" lon="2.1631270">
        <ele>89.6</ele>
        <time>2020-11-15T12:41:05Z</time>
      </trkpt>
      <trkpt lat="41.3688330" lon="2.1631100">
        <ele>89.6</ele>
        <time>2020-11-15T12:41:06Z</time>
      </trkpt>
      <trkpt lat="41.3688300" lon="2.1630900">
        <ele>89.6</ele>
        <time>2020-11-15T12:41:08Z</time>
      </trkpt>
      <trkpt lat="41.3688300" lon="2.1630770">
        <ele>89.6</ele>
        <time>2020-11-15T12:41:09Z</time>
      </trkpt>
      <trkpt lat="41.3688300" lon="2.1630640">
        <ele>89.6</ele>
        <time>2020-11-15T12:41:10Z</time>
      </trkpt>
      <trkpt lat="41.3688320" lon="2.1630430">
        <ele>89.6</ele>
        <time>2020-11-15T12:41:11Z</time>
      </trkpt>
      <trkpt lat="41.3688320" lon="2.1630260">
        <ele>89.6</ele>
        <time>2020-11-15T12:41:12Z</time>
      </trkpt>
      <trkpt lat="41.3688340" lon="2.1630120">
        <ele>89.6</ele>
        <time>2020-11-15T12:41:14Z</time>
      </trkpt>
      <trkpt lat="41.3688330" lon="2.1629950">
        <ele>89.6</ele>
        <time>2020-11-15T12:41:15Z</time>
      </trkpt>
      <trkpt lat="41.3688320" lon="2.1629750">
        <ele>89.6</ele>
        <time>2020-11-15T12:41:16Z</time>
      </trkpt>
      <trkpt lat="41.3688310" lon="2.1629480">
        <ele>89.6</ele>
        <time>2020-11-15T12:41:17Z</time>
      </trkpt>
      <trkpt lat="41.3688310" lon="2.1629310">
        <ele>89.6</ele>
        <time>2020-11-15T12:41:18Z</time>
      </trkpt>
      <trkpt lat="41.3688310" lon="2.1629090">
        <ele>89.6</ele>
        <time>2020-11-15T12:41:19Z</time>
      </trkpt>
      <trkpt lat="41.3688320" lon="2.1628910">
        <ele>89.6</ele>
        <time>2020-11-15T12:41:20Z</time>
      </trkpt>
      <trkpt lat="41.3688330" lon="2.1628710">
        <ele>89.6</ele>
        <time>2020-11-15T12:41:22Z</time>
      </trkpt>
      <trkpt lat="41.3688350" lon="2.1628430">
        <ele>89.6</ele>
        <time>2020-11-15T12:41:23Z</time>
      </trkpt>
      <trkpt lat="41.3688360" lon="2.1628280">
        <ele>89.6</ele>
        <time>2020-11-15T12:41:24Z</time>
      </trkpt>
      <trkpt lat="41.3688380" lon="2.1628100">
        <ele>89.6</ele>
        <time>2020-11-15T12:41:25Z</time>
      </trkpt>
      <trkpt lat="41.3688420" lon="2.1627910">
        <ele>89.6</ele>
        <time>2020-11-15T12:41:26Z</time>
      </trkpt>
      <trkpt lat="41.3688470" lon="2.1627610">
        <ele>89.6</ele>
        <time>2020-11-15T12:41:27Z</time>
      </trkpt>
      <trkpt lat="41.3688500" lon="2.1627470">
        <ele>89.6</ele>
        <time>2020-11-15T12:41:28Z</time>
      </trkpt>
      <trkpt lat="41.3688510" lon="2.1627180">
        <ele>89.6</ele>
        <time>2020-11-15T12:41:29Z</time>
      </trkpt>
      <trkpt lat="41.3688510" lon="2.1627060">
        <ele>89.6</ele>
        <time>2020-11-15T12:41:31Z</time>
      </trkpt>
      <trkpt lat="41.3688510" lon="2.1626930">
        <ele>89.6</ele>
        <time>2020-11-15T12:41:32Z</time>
      </trkpt>
      <trkpt lat="41.3688510" lon="2.1626670">
        <ele>89.6</ele>
        <time>2020-11-15T12:41:33Z</time>
      </trkpt>
      <trkpt lat="41.3688520" lon="2.1626510">
        <ele>89.6</ele>
        <time>2020-11-15T12:41:34Z</time>
      </trkpt>
      <trkpt lat="41.3688530" lon="2.1626320">
        <ele>89.6</ele>
        <time>2020-11-15T12:41:35Z</time>
      </trkpt>
      <trkpt lat="41.3688550" lon="2.1626120">
        <ele>89.6</ele>
        <time>2020-11-15T12:41:36Z</time>
      </trkpt>
      <trkpt lat="41.3688570" lon="2.1625850">
        <ele>89.6</ele>
        <time>2020-11-15T12:41:37Z</time>
      </trkpt>
      <trkpt lat="41.3688590" lon="2.1625720">
        <ele>89.6</ele>
        <time>2020-11-15T12:41:39Z</time>
      </trkpt>
      <trkpt lat="41.3688570" lon="2.1625560">
        <ele>89.6</ele>
        <time>2020-11-15T12:41:40Z</time>
      </trkpt>
      <trkpt lat="41.3688450" lon="2.1625540">
        <ele>89.6</ele>
        <time>2020-11-15T12:41:41Z</time>
      </trkpt>
      <trkpt lat="41.3688360" lon="2.1625540">
        <ele>89.6</ele>
        <time>2020-11-15T12:41:42Z</time>
      </trkpt>
      <trkpt lat="41.3688310" lon="2.1625430">
        <ele>89.6</ele>
        <time>2020-11-15T12:41:43Z</time>
      </trkpt>
      <trkpt lat="41.3688350" lon="2.1625220">
        <ele>89.5</ele>
        <time>2020-11-15T12:41:44Z</time>
      </trkpt>
      <trkpt lat="41.3688400" lon="2.1625030">
        <ele>89.5</ele>
        <time>2020-11-15T12:41:46Z</time>
      </trkpt>
      <trkpt lat="41.3688440" lon="2.1624860">
        <ele>89.5</ele>
        <time>2020-11-15T12:41:47Z</time>
      </trkpt>
      <trkpt lat="41.3688440" lon="2.1624580">
        <ele>89.5</ele>
        <time>2020-11-15T12:41:48Z</time>
      </trkpt>
      <trkpt lat="41.3688410" lon="2.1624350">
        <ele>89.5</ele>
        <time>2020-11-15T12:41:50Z</time>
      </trkpt>
      <trkpt lat="41.3688330" lon="2.1624190">
        <ele>89.5</ele>
        <time>2020-11-15T12:41:51Z</time>
      </trkpt>
      <trkpt lat="41.3688320" lon="2.1624010">
        <ele>89.5</ele>
        <time>2020-11-15T12:41:52Z</time>
      </trkpt>
      <trkpt lat="41.3688350" lon="2.1623870">
        <ele>89.5</ele>
        <time>2020-11-15T12:41:54Z</time>
      </trkpt>
      <trkpt lat="41.3688320" lon="2.1623530">
        <ele>89.5</ele>
        <time>2020-11-15T12:41:56Z</time>
      </trkpt>
      <trkpt lat="41.3688290" lon="2.1623370">
        <ele>89.5</ele>
        <time>2020-11-15T12:41:57Z</time>
      </trkpt>
      <trkpt lat="41.3688250" lon="2.1623180">
        <ele>89.5</ele>
        <time>2020-11-15T12:41:58Z</time>
      </trkpt>
      <trkpt lat="41.3688190" lon="2.1622810">
        <ele>89.5</ele>
        <time>2020-11-15T12:42:00Z</time>
      </trkpt>
      <trkpt lat="41.3688150" lon="2.1622690">
        <ele>89.5</ele>
        <time>2020-11-15T12:42:01Z</time>
      </trkpt>
      <trkpt lat="41.3688100" lon="2.1622530">
        <ele>89.5</ele>
        <time>2020-11-15T12:42:02Z</time>
      </trkpt>
      <trkpt lat="41.3688020" lon="2.1622210">
        <ele>89.5</ele>
        <time>2020-11-15T12:42:04Z</time>
      </trkpt>
      <trkpt lat="41.3688000" lon="2.1622050">
        <ele>89.5</ele>
        <time>2020-11-15T12:42:05Z</time>
      </trkpt>
      <trkpt lat="41.3688000" lon="2.1621910">
        <ele>89.5</ele>
        <time>2020-11-15T12:42:06Z</time>
      </trkpt>
      <trkpt lat="41.3688000" lon="2.1621760">
        <ele>89.5</ele>
        <time>2020-11-15T12:42:07Z</time>
      </trkpt>
      <trkpt lat="41.3688000" lon="2.1621600">
        <ele>89.6</ele>
        <time>2020-11-15T12:42:09Z</time>
      </trkpt>
      <trkpt lat="41.3687980" lon="2.1621460">
        <ele>89.6</ele>
        <time>2020-11-15T12:42:10Z</time>
      </trkpt>
      <trkpt lat="41.3688010" lon="2.1621330">
        <ele>89.6</ele>
        <time>2020-11-15T12:42:11Z</time>
      </trkpt>
      <trkpt lat="41.3688020" lon="2.1621160">
        <ele>89.6</ele>
        <time>2020-11-15T12:42:12Z</time>
      </trkpt>
      <trkpt lat="41.3687990" lon="2.1620960">
        <ele>89.6</ele>
        <time>2020-11-15T12:42:14Z</time>
      </trkpt>
      <trkpt lat="41.3687960" lon="2.1620770">
        <ele>89.6</ele>
        <time>2020-11-15T12:42:15Z</time>
      </trkpt>
      <trkpt lat="41.3687920" lon="2.1620560">
        <ele>89.6</ele>
        <time>2020-11-15T12:42:17Z</time>
      </trkpt>
      <trkpt lat="41.3687910" lon="2.1620450">
        <ele>89.6</ele>
        <time>2020-11-15T12:42:18Z</time>
      </trkpt>
      <trkpt lat="41.3687890" lon="2.1620320">
        <ele>89.6</ele>
        <time>2020-11-15T12:42:19Z</time>
      </trkpt>
      <trkpt lat="41.3687860" lon="2.1620190">
        <ele>89.6</ele>
        <time>2020-11-15T12:42:20Z</time>
      </trkpt>
      <trkpt lat="41.3687760" lon="2.1619910">
        <ele>89.6</ele>
        <time>2020-11-15T12:42:21Z</time>
      </trkpt>
      <trkpt lat="41.3687710" lon="2.1619810">
        <ele>89.6</ele>
        <time>2020-11-15T12:42:23Z</time>
      </trkpt>
      <trkpt lat="41.3687660" lon="2.1619710">
        <ele>89.6</ele>
        <time>2020-11-15T12:42:24Z</time>
      </trkpt>
      <trkpt lat="41.3687590" lon="2.1619580">
        <ele>89.6</ele>
        <time>2020-11-15T12:42:25Z</time>
      </trkpt>
      <trkpt lat="41.3687520" lon="2.1619430">
        <ele>89.6</ele>
        <time>2020-11-15T12:42:26Z</time>
      </trkpt>
      <trkpt lat="41.3687500" lon="2.1619330">
        <ele>89.6</ele>
        <time>2020-11-15T12:42:28Z</time>
      </trkpt>
      <trkpt lat="41.3687470" lon="2.1619210">
        <ele>89.6</ele>
        <time>2020-11-15T12:42:29Z</time>
      </trkpt>
      <trkpt lat="41.3687440" lon="2.1619100">
        <ele>89.6</ele>
        <time>2020-11-15T12:42:30Z</time>
      </trkpt>
      <trkpt lat="41.3687370" lon="2.1618890">
        <ele>89.6</ele>
        <time>2020-11-15T12:42:32Z</time>
      </trkpt>
      <trkpt lat="41.3687330" lon="2.1618830">
        <ele>89.6</ele>
        <time>2020-11-15T12:42:33Z</time>
      </trkpt>
      <trkpt lat="41.3687290" lon="2.1618740">
        <ele>89.6</ele>
        <time>2020-11-15T12:42:34Z</time>
      </trkpt>
      <trkpt lat="41.3687260" lon="2.1618610">
        <ele>89.6</ele>
        <time>2020-11-15T12:42:35Z</time>
      </trkpt>
      <trkpt lat="41.3687230" lon="2.1618470">
        <ele>89.6</ele>
        <time>2020-11-15T12:42:37Z</time>
      </trkpt>
      <trkpt lat="41.3687240" lon="2.1618400">
        <ele>89.6</ele>
        <time>2020-11-15T12:42:38Z</time>
      </trkpt>
      <trkpt lat="41.3687230" lon="2.1618190">
        <ele>89.6</ele>
        <time>2020-11-15T12:42:40Z</time>
      </trkpt>
      <trkpt lat="41.3687200" lon="2.1618040">
        <ele>89.6</ele>
        <time>2020-11-15T12:42:41Z</time>
      </trkpt>
      <trkpt lat="41.3687160" lon="2.1617870">
        <ele>89.6</ele>
        <time>2020-11-15T12:42:42Z</time>
      </trkpt>
      <trkpt lat="41.3687100" lon="2.1617710">
        <ele>89.6</ele>
        <time>2020-11-15T12:42:43Z</time>
      </trkpt>
      <trkpt lat="41.3687020" lon="2.1617520">
        <ele>89.6</ele>
        <time>2020-11-15T12:42:45Z</time>
      </trkpt>
      <trkpt lat="41.3686920" lon="2.1617330">
        <ele>89.6</ele>
        <time>2020-11-15T12:42:46Z</time>
      </trkpt>
      <trkpt lat="41.3686860" lon="2.1617190">
        <ele>89.6</ele>
        <time>2020-11-15T12:42:47Z</time>
      </trkpt>
      <trkpt lat="41.3686750" lon="2.1616890">
        <ele>89.6</ele>
        <time>2020-11-15T12:42:48Z</time>
      </trkpt>
      <trkpt lat="41.3686710" lon="2.1616760">
        <ele>89.6</ele>
        <time>2020-11-15T12:42:50Z</time>
      </trkpt>
      <trkpt lat="41.3686660" lon="2.1616620">
        <ele>89.6</ele>
        <time>2020-11-15T12:42:51Z</time>
      </trkpt>
      <trkpt lat="41.3686620" lon="2.1616490">
        <ele>89.6</ele>
        <time>2020-11-15T12:42:52Z</time>
      </trkpt>
      <trkpt lat="41.3686570" lon="2.1616360">
        <ele>89.6</ele>
        <time>2020-11-15T12:42:53Z</time>
      </trkpt>
      <trkpt lat="41.3686500" lon="2.1616030">
        <ele>89.6</ele>
        <time>2020-11-15T12:42:54Z</time>
      </trkpt>
      <trkpt lat="41.3686470" lon="2.1615880">
        <ele>89.6</ele>
        <time>2020-11-15T12:42:56Z</time>
      </trkpt>
      <trkpt lat="41.3686440" lon="2.1615720">
        <ele>89.6</ele>
        <time>2020-11-15T12:42:57Z</time>
      </trkpt>
      <trkpt lat="41.3686410" lon="2.1615570">
        <ele>89.6</ele>
        <time>2020-11-15T12:42:58Z</time>
      </trkpt>
      <trkpt lat="41.3686380" lon="2.1615410">
        <ele>89.6</ele>
        <time>2020-11-15T12:42:59Z</time>
      </trkpt>
      <trkpt lat="41.3686350" lon="2.1615210">
        <ele>89.6</ele>
        <time>2020-11-15T12:43:00Z</time>
      </trkpt>
      <trkpt lat="41.3686300" lon="2.1614950">
        <ele>89.6</ele>
        <time>2020-11-15T12:43:02Z</time>
      </trkpt>
      <trkpt lat="41.3686280" lon="2.1614810">
        <ele>89.6</ele>
        <time>2020-11-15T12:43:03Z</time>
      </trkpt>
      <trkpt lat="41.3686230" lon="2.1614590">
        <ele>89.6</ele>
        <time>2020-11-15T12:43:04Z</time>
      </trkpt>
      <trkpt lat="41.3686190" lon="2.1614420">
        <ele>89.6</ele>
        <time>2020-11-15T12:43:05Z</time>
      </trkpt>
      <trkpt lat="41.3686120" lon="2.1614120">
        <ele>89.6</ele>
        <time>2020-11-15T12:43:07Z</time>
      </trkpt>
      <trkpt lat="41.3686070" lon="2.1613980">
        <ele>89.6</ele>
        <time>2020-11-15T12:43:08Z</time>
      </trkpt>
      <trkpt lat="41.3686010" lon="2.1613840">
        <ele>89.6</ele>
        <time>2020-11-15T12:43:09Z</time>
      </trkpt>
      <trkpt lat="41.3685940" lon="2.1613700">
        <ele>89.6</ele>
        <time>2020-11-15T12:43:10Z</time>
      </trkpt>
      <trkpt lat="41.3685820" lon="2.1613460">
        <ele>89.6</ele>
        <time>2020-11-15T12:43:11Z</time>
      </trkpt>
      <trkpt lat="41.3685780" lon="2.1613380">
        <ele>89.6</ele>
        <time>2020-11-15T12:43:13Z</time>
      </trkpt>
      <trkpt lat="41.3685720" lon="2.1613270">
        <ele>89.6</ele>
        <time>2020-11-15T12:43:14Z</time>
      </trkpt>
      <trkpt lat="41.3685670" lon="2.1613170">
        <ele>89.6</ele>
        <time>2020-11-15T12:43:15Z</time>
      </trkpt>
      <trkpt lat="41.3685610" lon="2.1613060">
        <ele>89.7</ele>
        <time>2020-11-15T12:43:16Z</time>
      </trkpt>
      <trkpt lat="41.3685500" lon="2.1612840">
        <ele>89.7</ele>
        <time>2020-11-15T12:43:17Z</time>
      </trkpt>
      <trkpt lat="41.3685440" lon="2.1612730">
        <ele>89.7</ele>
        <time>2020-11-15T12:43:18Z</time>
      </trkpt>
      <trkpt lat="41.3685360" lon="2.1612570">
        <ele>89.7</ele>
        <time>2020-11-15T12:43:19Z</time>
      </trkpt>
      <trkpt lat="41.3685300" lon="2.1612430">
        <ele>89.7</ele>
        <time>2020-11-15T12:43:20Z</time>
      </trkpt>
      <trkpt lat="41.3685190" lon="2.1612200">
        <ele>89.7</ele>
        <time>2020-11-15T12:43:22Z</time>
      </trkpt>
      <trkpt lat="41.3685120" lon="2.1612100">
        <ele>89.7</ele>
        <time>2020-11-15T12:43:23Z</time>
      </trkpt>
      <trkpt lat="41.3685040" lon="2.1611960">
        <ele>89.7</ele>
        <time>2020-11-15T12:43:24Z</time>
      </trkpt>
      <trkpt lat="41.3684950" lon="2.1611750">
        <ele>89.7</ele>
        <time>2020-11-15T12:43:26Z</time>
      </trkpt>
      <trkpt lat="41.3684840" lon="2.1611470">
        <ele>89.7</ele>
        <time>2020-11-15T12:43:27Z</time>
      </trkpt>
      <trkpt lat="41.3684800" lon="2.1611350">
        <ele>89.7</ele>
        <time>2020-11-15T12:43:28Z</time>
      </trkpt>
      <trkpt lat="41.3684680" lon="2.1610950">
        <ele>89.7</ele>
        <time>2020-11-15T12:43:30Z</time>
      </trkpt>
      <trkpt lat="41.3684610" lon="2.1610780">
        <ele>89.7</ele>
        <time>2020-11-15T12:43:31Z</time>
      </trkpt>
      <trkpt lat="41.3684490" lon="2.1610580">
        <ele>89.7</ele>
        <time>2020-11-15T12:43:33Z</time>
      </trkpt>
      <trkpt lat="41.3684430" lon="2.1610490">
        <ele>89.7</ele>
        <time>2020-11-15T12:43:34Z</time>
      </trkpt>
      <trkpt lat="41.3684360" lon="2.1610390">
        <ele>89.7</ele>
        <time>2020-11-15T12:43:35Z</time>
      </trkpt>
      <trkpt lat="41.3684190" lon="2.1610200">
        <ele>89.7</ele>
        <time>2020-11-15T12:43:37Z</time>
      </trkpt>
      <trkpt lat="41.3684080" lon="2.1610140">
        <ele>89.7</ele>
        <time>2020-11-15T12:43:38Z</time>
      </trkpt>
      <trkpt lat="41.3683900" lon="2.1609950">
        <ele>89.7</ele>
        <time>2020-11-15T12:43:40Z</time>
      </trkpt>
      <trkpt lat="41.3683810" lon="2.1609850">
        <ele>89.7</ele>
        <time>2020-11-15T12:43:41Z</time>
      </trkpt>
      <trkpt lat="41.3683720" lon="2.1609750">
        <ele>89.7</ele>
        <time>2020-11-15T12:43:42Z</time>
      </trkpt>
      <trkpt lat="41.3683640" lon="2.1609640">
        <ele>89.7</ele>
        <time>2020-11-15T12:43:43Z</time>
      </trkpt>
      <trkpt lat="41.3683560" lon="2.1609500">
        <ele>89.7</ele>
        <time>2020-11-15T12:43:44Z</time>
      </trkpt>
      <trkpt lat="41.3683470" lon="2.1609340">
        <ele>89.8</ele>
        <time>2020-11-15T12:43:46Z</time>
      </trkpt>
      <trkpt lat="41.3683350" lon="2.1609110">
        <ele>89.8</ele>
        <time>2020-11-15T12:43:47Z</time>
      </trkpt>
      <trkpt lat="41.3683310" lon="2.1609010">
        <ele>89.8</ele>
        <time>2020-11-15T12:43:48Z</time>
      </trkpt>
      <trkpt lat="41.3683210" lon="2.1608780">
        <ele>89.8</ele>
        <time>2020-11-15T12:43:50Z</time>
      </trkpt>
      <trkpt lat="41.3683140" lon="2.1608670">
        <ele>89.8</ele>
        <time>2020-11-15T12:43:51Z</time>
      </trkpt>
      <trkpt lat="41.3683060" lon="2.1608630">
        <ele>89.8</ele>
        <time>2020-11-15T12:43:52Z</time>
      </trkpt>
      <trkpt lat="41.3682990" lon="2.1608610">
        <ele>89.8</ele>
        <time>2020-11-15T12:43:53Z</time>
      </trkpt>
      <trkpt lat="41.3682860" lon="2.1608490">
        <ele>89.8</ele>
        <time>2020-11-15T12:43:54Z</time>
      </trkpt>
      <trkpt lat="41.3682850" lon="2.1608300">
        <ele>89.8</ele>
        <time>2020-11-15T12:43:56Z</time>
      </trkpt>
      <trkpt lat="41.3682880" lon="2.1608030">
        <ele>89.8</ele>
        <time>2020-11-15T12:43:57Z</time>
      </trkpt>
      <trkpt lat="41.3682930" lon="2.1607760">
        <ele>89.8</ele>
        <time>2020-11-15T12:43:58Z</time>
      </trkpt>
      <trkpt lat="41.3682940" lon="2.1607650">
        <ele>89.8</ele>
        <time>2020-11-15T12:43:59Z</time>
      </trkpt>
      <trkpt lat="41.3682950" lon="2.1607530">
        <ele>89.8</ele>
        <time>2020-11-15T12:44:00Z</time>
      </trkpt>
      <trkpt lat="41.3682930" lon="2.1607340">
        <ele>89.8</ele>
        <time>2020-11-15T12:44:01Z</time>
      </trkpt>
      <trkpt lat="41.3682880" lon="2.1607130">
        <ele>89.8</ele>
        <time>2020-11-15T12:44:02Z</time>
      </trkpt>
      <trkpt lat="41.3682730" lon="2.1606870">
        <ele>89.8</ele>
        <time>2020-11-15T12:44:04Z</time>
      </trkpt>
      <trkpt lat="41.3682650" lon="2.1606750">
        <ele>89.8</ele>
        <time>2020-11-15T12:44:05Z</time>
      </trkpt>
      <trkpt lat="41.3682550" lon="2.1606550">
        <ele>89.8</ele>
        <time>2020-11-15T12:44:07Z</time>
      </trkpt>
      <trkpt lat="41.3682480" lon="2.1606460">
        <ele>89.8</ele>
        <time>2020-11-15T12:44:08Z</time>
      </trkpt>
      <trkpt lat="41.3682340" lon="2.1606270">
        <ele>89.8</ele>
        <time>2020-11-15T12:44:09Z</time>
      </trkpt>
      <trkpt lat="41.3682280" lon="2.1606160">
        <ele>89.8</ele>
        <time>2020-11-15T12:44:11Z</time>
      </trkpt>
      <trkpt lat="41.3682210" lon="2.1606040">
        <ele>89.8</ele>
        <time>2020-11-15T12:44:12Z</time>
      </trkpt>
      <trkpt lat="41.3682160" lon="2.1606000">
        <ele>89.8</ele>
        <time>2020-11-15T12:44:13Z</time>
      </trkpt>
      <trkpt lat="41.3682080" lon="2.1605930">
        <ele>89.8</ele>
        <time>2020-11-15T12:44:14Z</time>
      </trkpt>
      <trkpt lat="41.3682010" lon="2.1605840">
        <ele>89.8</ele>
        <time>2020-11-15T12:44:15Z</time>
      </trkpt>
      <trkpt lat="41.3681880" lon="2.1605640">
        <ele>89.8</ele>
        <time>2020-11-15T12:44:17Z</time>
      </trkpt>
      <trkpt lat="41.3681790" lon="2.1605500">
        <ele>89.8</ele>
        <time>2020-11-15T12:44:18Z</time>
      </trkpt>
      <trkpt lat="41.3681750" lon="2.1605400">
        <ele>89.8</ele>
        <time>2020-11-15T12:44:19Z</time>
      </trkpt>
      <trkpt lat="41.3681700" lon="2.1605310">
        <ele>89.8</ele>
        <time>2020-11-15T12:44:20Z</time>
      </trkpt>
      <trkpt lat="41.3681650" lon="2.1605210">
        <ele>89.8</ele>
        <time>2020-11-15T12:44:21Z</time>
      </trkpt>
      <trkpt lat="41.3681550" lon="2.1604960">
        <ele>89.8</ele>
        <time>2020-11-15T12:44:22Z</time>
      </trkpt>
      <trkpt lat="41.3681520" lon="2.1604860">
        <ele>89.8</ele>
        <time>2020-11-15T12:44:23Z</time>
      </trkpt>
      <trkpt lat="41.3681450" lon="2.1604710">
        <ele>89.8</ele>
        <time>2020-11-15T12:44:25Z</time>
      </trkpt>
      <trkpt lat="41.3681390" lon="2.1604580">
        <ele>89.8</ele>
        <time>2020-11-15T12:44:26Z</time>
      </trkpt>
      <trkpt lat="41.3681250" lon="2.1604320">
        <ele>89.8</ele>
        <time>2020-11-15T12:44:28Z</time>
      </trkpt>
      <trkpt lat="41.3681200" lon="2.1604250">
        <ele>89.8</ele>
        <time>2020-11-15T12:44:29Z</time>
      </trkpt>
      <trkpt lat="41.3681110" lon="2.1604230">
        <ele>89.8</ele>
        <time>2020-11-15T12:44:30Z</time>
      </trkpt>
      <trkpt lat="41.3680990" lon="2.1604230">
        <ele>89.8</ele>
        <time>2020-11-15T12:44:31Z</time>
      </trkpt>
      <trkpt lat="41.3680900" lon="2.1604060">
        <ele>89.8</ele>
        <time>2020-11-15T12:44:33Z</time>
      </trkpt>
      <trkpt lat="41.3681080" lon="2.1603720">
        <ele>89.8</ele>
        <time>2020-11-15T12:44:34Z</time>
      </trkpt>
      <trkpt lat="41.3681180" lon="2.1603620">
        <ele>89.8</ele>
        <time>2020-11-15T12:44:35Z</time>
      </trkpt>
      <trkpt lat="41.3681480" lon="2.1603400">
        <ele>89.9</ele>
        <time>2020-11-15T12:44:36Z</time>
      </trkpt>
      <trkpt lat="41.3681590" lon="2.1603320">
        <ele>89.9</ele>
        <time>2020-11-15T12:44:37Z</time>
      </trkpt>
      <trkpt lat="41.3681710" lon="2.1603240">
        <ele>89.9</ele>
        <time>2020-11-15T12:44:38Z</time>
      </trkpt>
      <trkpt lat="41.3681840" lon="2.1603120">
        <ele>89.9</ele>
        <time>2020-11-15T12:44:39Z</time>
      </trkpt>
      <trkpt lat="41.3682040" lon="2.1602900">
        <ele>89.9</ele>
        <time>2020-11-15T12:44:41Z</time>
      </trkpt>
      <trkpt lat="41.3682120" lon="2.1602780">
        <ele>89.9</ele>
        <time>2020-11-15T12:44:42Z</time>
      </trkpt>
      <trkpt lat="41.3682210" lon="2.1602520">
        <ele>89.9</ele>
        <time>2020-11-15T12:44:43Z</time>
      </trkpt>
      <trkpt lat="41.3682240" lon="2.1602410">
        <ele>89.9</ele>
        <time>2020-11-15T12:44:45Z</time>
      </trkpt>
      <trkpt lat="41.3682270" lon="2.1602290">
        <ele>89.9</ele>
        <time>2020-11-15T12:44:46Z</time>
      </trkpt>
      <trkpt lat="41.3682250" lon="2.1602000">
        <ele>89.9</ele>
        <time>2020-11-15T12:44:47Z</time>
      </trkpt>
      <trkpt lat="41.3682190" lon="2.1601890">
        <ele>89.9</ele>
        <time>2020-11-15T12:44:48Z</time>
      </trkpt>
      <trkpt lat="41.3682080" lon="2.1601760">
        <ele>89.9</ele>
        <time>2020-11-15T12:44:49Z</time>
      </trkpt>
      <trkpt lat="41.3681940" lon="2.1601640">
        <ele>89.9</ele>
        <time>2020-11-15T12:44:50Z</time>
      </trkpt>
      <trkpt lat="41.3681670" lon="2.1601370">
        <ele>90.0</ele>
        <time>2020-11-15T12:44:51Z</time>
      </trkpt>
      <trkpt lat="41.3681600" lon="2.1601300">
        <ele>90.1</ele>
        <time>2020-11-15T12:44:52Z</time>
      </trkpt>
      <trkpt lat="41.3681410" lon="2.1600960">
        <ele>90.2</ele>
        <time>2020-11-15T12:44:53Z</time>
      </trkpt>
      <trkpt lat="41.3681330" lon="2.1600770">
        <ele>90.2</ele>
        <time>2020-11-15T12:44:55Z</time>
      </trkpt>
      <trkpt lat="41.3681240" lon="2.1600580">
        <ele>90.3</ele>
        <time>2020-11-15T12:44:57Z</time>
      </trkpt>
      <trkpt lat="41.3681150" lon="2.1600390">
        <ele>90.3</ele>
        <time>2020-11-15T12:44:58Z</time>
      </trkpt>
      <trkpt lat="41.3681070" lon="2.1600150">
        <ele>90.4</ele>
        <time>2020-11-15T12:44:59Z</time>
      </trkpt>
      <trkpt lat="41.3680970" lon="2.1599870">
        <ele>90.5</ele>
        <time>2020-11-15T12:45:01Z</time>
      </trkpt>
      <trkpt lat="41.3680870" lon="2.1599560">
        <ele>90.5</ele>
        <time>2020-11-15T12:45:02Z</time>
      </trkpt>
      <trkpt lat="41.3680820" lon="2.1599430">
        <ele>90.6</ele>
        <time>2020-11-15T12:45:03Z</time>
      </trkpt>
      <trkpt lat="41.3680710" lon="2.1599130">
        <ele>90.7</ele>
        <time>2020-11-15T12:45:04Z</time>
      </trkpt>
      <trkpt lat="41.3680630" lon="2.1598990">
        <ele>90.7</ele>
        <time>2020-11-15T12:45:06Z</time>
      </trkpt>
      <trkpt lat="41.3680540" lon="2.1598860">
        <ele>90.8</ele>
        <time>2020-11-15T12:45:07Z</time>
      </trkpt>
      <trkpt lat="41.3680460" lon="2.1598720">
        <ele>90.8</ele>
        <time>2020-11-15T12:45:08Z</time>
      </trkpt>
      <trkpt lat="41.3680340" lon="2.1598600">
        <ele>90.9</ele>
        <time>2020-11-15T12:45:10Z</time>
      </trkpt>
      <trkpt lat="41.3680160" lon="2.1598440">
        <ele>90.9</ele>
        <time>2020-11-15T12:45:12Z</time>
      </trkpt>
      <trkpt lat="41.3679960" lon="2.1598240">
        <ele>91.0</ele>
        <time>2020-11-15T12:45:13Z</time>
      </trkpt>
      <trkpt lat="41.3679880" lon="2.1598150">
        <ele>91.1</ele>
        <time>2020-11-15T12:45:14Z</time>
      </trkpt>
      <trkpt lat="41.3679790" lon="2.1598050">
        <ele>91.1</ele>
        <time>2020-11-15T12:45:15Z</time>
      </trkpt>
      <trkpt lat="41.3679710" lon="2.1597910">
        <ele>91.2</ele>
        <time>2020-11-15T12:45:16Z</time>
      </trkpt>
      <trkpt lat="41.3679610" lon="2.1597750">
        <ele>91.2</ele>
        <time>2020-11-15T12:45:18Z</time>
      </trkpt>
      <trkpt lat="41.3679560" lon="2.1597650">
        <ele>91.3</ele>
        <time>2020-11-15T12:45:19Z</time>
      </trkpt>
      <trkpt lat="41.3679500" lon="2.1597540">
        <ele>91.3</ele>
        <time>2020-11-15T12:45:20Z</time>
      </trkpt>
      <trkpt lat="41.3679420" lon="2.1597380">
        <ele>91.4</ele>
        <time>2020-11-15T12:45:21Z</time>
      </trkpt>
      <trkpt lat="41.3679290" lon="2.1597150">
        <ele>91.5</ele>
        <time>2020-11-15T12:45:22Z</time>
      </trkpt>
      <trkpt lat="41.3679230" lon="2.1597070">
        <ele>91.2</ele>
        <time>2020-11-15T12:45:24Z</time>
      </trkpt>
      <trkpt lat="41.3679150" lon="2.1596950">
        <ele>91.5</ele>
        <time>2020-11-15T12:45:25Z</time>
      </trkpt>
      <trkpt lat="41.3679070" lon="2.1596790">
        <ele>91.6</ele>
        <time>2020-11-15T12:45:26Z</time>
      </trkpt>
      <trkpt lat="41.3678980" lon="2.1596520">
        <ele>91.2</ele>
        <time>2020-11-15T12:45:28Z</time>
      </trkpt>
      <trkpt lat="41.3678980" lon="2.1596460">
        <ele>91.3</ele>
        <time>2020-11-15T12:45:29Z</time>
      </trkpt>
      <trkpt lat="41.3678950" lon="2.1596280">
        <ele>91.0</ele>
        <time>2020-11-15T12:45:30Z</time>
      </trkpt>
      <trkpt lat="41.3678920" lon="2.1596110">
        <ele>91.0</ele>
        <time>2020-11-15T12:45:31Z</time>
      </trkpt>
      <trkpt lat="41.3678900" lon="2.1595940">
        <ele>91.0</ele>
        <time>2020-11-15T12:45:33Z</time>
      </trkpt>
      <trkpt lat="41.3678890" lon="2.1595740">
        <ele>90.7</ele>
        <time>2020-11-15T12:45:34Z</time>
      </trkpt>
      <trkpt lat="41.3678900" lon="2.1595560">
        <ele>90.7</ele>
        <time>2020-11-15T12:45:35Z</time>
      </trkpt>
      <trkpt lat="41.3678920" lon="2.1595410">
        <ele>90.4</ele>
        <time>2020-11-15T12:45:36Z</time>
      </trkpt>
      <trkpt lat="41.3678970" lon="2.1595100">
        <ele>90.4</ele>
        <time>2020-11-15T12:45:38Z</time>
      </trkpt>
      <trkpt lat="41.3678980" lon="2.1594850">
        <ele>90.1</ele>
        <time>2020-11-15T12:45:39Z</time>
      </trkpt>
      <trkpt lat="41.3678990" lon="2.1594720">
        <ele>90.1</ele>
        <time>2020-11-15T12:45:41Z</time>
      </trkpt>
      <trkpt lat="41.3678990" lon="2.1594600">
        <ele>90.1</ele>
        <time>2020-11-15T12:45:42Z</time>
      </trkpt>
      <trkpt lat="41.3679000" lon="2.1594250">
        <ele>89.8</ele>
        <time>2020-11-15T12:45:43Z</time>
      </trkpt>
      <trkpt lat="41.3678990" lon="2.1594100">
        <ele>89.4</ele>
        <time>2020-11-15T12:45:44Z</time>
      </trkpt>
      <trkpt lat="41.3678950" lon="2.1594020">
        <ele>89.5</ele>
        <time>2020-11-15T12:45:45Z</time>
      </trkpt>
      <trkpt lat="41.3678890" lon="2.1593890">
        <ele>89.5</ele>
        <time>2020-11-15T12:45:46Z</time>
      </trkpt>
      <trkpt lat="41.3678800" lon="2.1593750">
        <ele>89.9</ele>
        <time>2020-11-15T12:45:48Z</time>
      </trkpt>
      <trkpt lat="41.3678670" lon="2.1593540">
        <ele>89.5</ele>
        <time>2020-11-15T12:45:49Z</time>
      </trkpt>
      <trkpt lat="41.3678620" lon="2.1593410">
        <ele>89.6</ele>
        <time>2020-11-15T12:45:51Z</time>
      </trkpt>
      <trkpt lat="41.3678690" lon="2.1593320">
        <ele>89.6</ele>
        <time>2020-11-15T12:45:52Z</time>
      </trkpt>
      <trkpt lat="41.3678790" lon="2.1593210">
        <ele>89.2</ele>
        <time>2020-11-15T12:45:53Z</time>
      </trkpt>
      <trkpt lat="41.3678970" lon="2.1593000">
        <ele>88.8</ele>
        <time>2020-11-15T12:45:55Z</time>
      </trkpt>
      <trkpt lat="41.3679050" lon="2.1592930">
        <ele>88.8</ele>
        <time>2020-11-15T12:45:56Z</time>
      </trkpt>
      <trkpt lat="41.3679180" lon="2.1592760">
        <ele>88.4</ele>
        <time>2020-11-15T12:45:57Z</time>
      </trkpt>
      <trkpt lat="41.3679280" lon="2.1592620">
        <ele>88.0</ele>
        <time>2020-11-15T12:45:58Z</time>
      </trkpt>
      <trkpt lat="41.3679390" lon="2.1592470">
        <ele>88.0</ele>
        <time>2020-11-15T12:45:59Z</time>
      </trkpt>
      <trkpt lat="41.3679520" lon="2.1592280">
        <ele>87.5</ele>
        <time>2020-11-15T12:46:01Z</time>
      </trkpt>
      <trkpt lat="41.3679570" lon="2.1592190">
        <ele>87.1</ele>
        <time>2020-11-15T12:46:02Z</time>
      </trkpt>
      <trkpt lat="41.3679630" lon="2.1592110">
        <ele>87.1</ele>
        <time>2020-11-15T12:46:03Z</time>
      </trkpt>
      <trkpt lat="41.3679800" lon="2.1592050">
        <ele>87.2</ele>
        <time>2020-11-15T12:46:04Z</time>
      </trkpt>
      <trkpt lat="41.3679900" lon="2.1592030">
        <ele>86.7</ele>
        <time>2020-11-15T12:46:05Z</time>
      </trkpt>
      <trkpt lat="41.3680050" lon="2.1591860">
        <ele>86.1</ele>
        <time>2020-11-15T12:46:07Z</time>
      </trkpt>
      <trkpt lat="41.3680120" lon="2.1591770">
        <ele>86.2</ele>
        <time>2020-11-15T12:46:08Z</time>
      </trkpt>
      <trkpt lat="41.3680180" lon="2.1591670">
        <ele>85.7</ele>
        <time>2020-11-15T12:46:09Z</time>
      </trkpt>
      <trkpt lat="41.3680260" lon="2.1591570">
        <ele>85.7</ele>
        <time>2020-11-15T12:46:11Z</time>
      </trkpt>
      <trkpt lat="41.3680360" lon="2.1591490">
        <ele>85.1</ele>
        <time>2020-11-15T12:46:12Z</time>
      </trkpt>
      <trkpt lat="41.3680440" lon="2.1591410">
        <ele>85.1</ele>
        <time>2020-11-15T12:46:13Z</time>
      </trkpt>
      <trkpt lat="41.3680530" lon="2.1591280">
        <ele>84.6</ele>
        <time>2020-11-15T12:46:15Z</time>
      </trkpt>
      <trkpt lat="41.3680590" lon="2.1591180">
        <ele>84.6</ele>
        <time>2020-11-15T12:46:16Z</time>
      </trkpt>
      <trkpt lat="41.3680670" lon="2.1591110">
        <ele>84.0</ele>
        <time>2020-11-15T12:46:17Z</time>
      </trkpt>
      <trkpt lat="41.3680760" lon="2.1591040">
        <ele>84.1</ele>
        <time>2020-11-15T12:46:18Z</time>
      </trkpt>
      <trkpt lat="41.3680900" lon="2.1590950">
        <ele>83.5</ele>
        <time>2020-11-15T12:46:19Z</time>
      </trkpt>
      <trkpt lat="41.3680980" lon="2.1590950">
        <ele>83.6</ele>
        <time>2020-11-15T12:46:20Z</time>
      </trkpt>
      <trkpt lat="41.3681090" lon="2.1590870">
        <ele>83.6</ele>
        <time>2020-11-15T12:46:21Z</time>
      </trkpt>
      <trkpt lat="41.3681160" lon="2.1590770">
        <ele>83.1</ele>
        <time>2020-11-15T12:46:23Z</time>
      </trkpt>
      <trkpt lat="41.3681200" lon="2.1590650">
        <ele>82.6</ele>
        <time>2020-11-15T12:46:24Z</time>
      </trkpt>
      <trkpt lat="41.3681170" lon="2.1590520">
        <ele>82.6</ele>
        <time>2020-11-15T12:46:25Z</time>
      </trkpt>
      <trkpt lat="41.3681040" lon="2.1590260">
        <ele>82.6</ele>
        <time>2020-11-15T12:46:26Z</time>
      </trkpt>
      <trkpt lat="41.3681000" lon="2.1590170">
        <ele>82.6</ele>
        <time>2020-11-15T12:46:27Z</time>
      </trkpt>
      <trkpt lat="41.3680900" lon="2.1589990">
        <ele>82.6</ele>
        <time>2020-11-15T12:46:29Z</time>
      </trkpt>
      <trkpt lat="41.3680840" lon="2.1589910">
        <ele>82.6</ele>
        <time>2020-11-15T12:46:30Z</time>
      </trkpt>
      <trkpt lat="41.3680730" lon="2.1589750">
        <ele>82.7</ele>
        <time>2020-11-15T12:46:32Z</time>
      </trkpt>
      <trkpt lat="41.3680650" lon="2.1589630">
        <ele>82.7</ele>
        <time>2020-11-15T12:46:33Z</time>
      </trkpt>
      <trkpt lat="41.3680530" lon="2.1589380">
        <ele>82.2</ele>
        <time>2020-11-15T12:46:35Z</time>
      </trkpt>
      <trkpt lat="41.3680460" lon="2.1589270">
        <ele>82.8</ele>
        <time>2020-11-15T12:46:36Z</time>
      </trkpt>
      <trkpt lat="41.3680350" lon="2.1589030">
        <ele>82.8</ele>
        <time>2020-11-15T12:46:37Z</time>
      </trkpt>
      <trkpt lat="41.3680290" lon="2.1588900">
        <ele>82.3</ele>
        <time>2020-11-15T12:46:38Z</time>
      </trkpt>
      <trkpt lat="41.3680240" lon="2.1588780">
        <ele>82.4</ele>
        <time>2020-11-15T12:46:39Z</time>
      </trkpt>
      <trkpt lat="41.3680170" lon="2.1588670">
        <ele>82.4</ele>
        <time>2020-11-15T12:46:40Z</time>
      </trkpt>
      <trkpt lat="41.3680080" lon="2.1588550">
        <ele>82.5</ele>
        <time>2020-11-15T12:46:42Z</time>
      </trkpt>
      <trkpt lat="41.3679980" lon="2.1588430">
        <ele>82.5</ele>
        <time>2020-11-15T12:46:43Z</time>
      </trkpt>
      <trkpt lat="41.3679810" lon="2.1588210">
        <ele>83.1</ele>
        <time>2020-11-15T12:46:44Z</time>
      </trkpt>
      <trkpt lat="41.3679760" lon="2.1588140">
        <ele>83.1</ele>
        <time>2020-11-15T12:46:45Z</time>
      </trkpt>
      <trkpt lat="41.3679720" lon="2.1588070">
        <ele>82.6</ele>
        <time>2020-11-15T12:46:46Z</time>
      </trkpt>
      <trkpt lat="41.3679610" lon="2.1587830">
        <ele>82.7</ele>
        <time>2020-11-15T12:46:47Z</time>
      </trkpt>
      <trkpt lat="41.3679560" lon="2.1587720">
        <ele>82.7</ele>
        <time>2020-11-15T12:46:49Z</time>
      </trkpt>
      <trkpt lat="41.3679500" lon="2.1587620">
        <ele>82.7</ele>
        <time>2020-11-15T12:46:50Z</time>
      </trkpt>
      <trkpt lat="41.3679330" lon="2.1587420">
        <ele>82.8</ele>
        <time>2020-11-15T12:46:51Z</time>
      </trkpt>
      <trkpt lat="41.3679260" lon="2.1587360">
        <ele>82.8</ele>
        <time>2020-11-15T12:46:52Z</time>
      </trkpt>
      <trkpt lat="41.3679190" lon="2.1587290">
        <ele>83.3</ele>
        <time>2020-11-15T12:46:53Z</time>
      </trkpt>
      <trkpt lat="41.3679050" lon="2.1587160">
        <ele>82.9</ele>
        <time>2020-11-15T12:46:55Z</time>
      </trkpt>
      <trkpt lat="41.3678970" lon="2.1587080">
        <ele>82.9</ele>
        <time>2020-11-15T12:46:56Z</time>
      </trkpt>
      <trkpt lat="41.3678800" lon="2.1586910">
        <ele>83.5</ele>
        <time>2020-11-15T12:46:57Z</time>
      </trkpt>
      <trkpt lat="41.3678710" lon="2.1586820">
        <ele>83.0</ele>
        <time>2020-11-15T12:46:58Z</time>
      </trkpt>
      <trkpt lat="41.3678630" lon="2.1586720">
        <ele>83.0</ele>
        <time>2020-11-15T12:46:59Z</time>
      </trkpt>
      <trkpt lat="41.3678570" lon="2.1586660">
        <ele>83.1</ele>
        <time>2020-11-15T12:47:01Z</time>
      </trkpt>
      <trkpt lat="41.3678440" lon="2.1586620">
        <ele>83.7</ele>
        <time>2020-11-15T12:47:02Z</time>
      </trkpt>
      <trkpt lat="41.3678310" lon="2.1586680">
        <ele>83.7</ele>
        <time>2020-11-15T12:47:03Z</time>
      </trkpt>
      <trkpt lat="41.3678160" lon="2.1586850">
        <ele>85.0</ele>
        <time>2020-11-15T12:47:05Z</time>
      </trkpt>
      <trkpt lat="41.3678080" lon="2.1586950">
        <ele>85.0</ele>
        <time>2020-11-15T12:47:06Z</time>
      </trkpt>
      <trkpt lat="41.3677980" lon="2.1587020">
        <ele>85.0</ele>
        <time>2020-11-15T12:47:07Z</time>
      </trkpt>
      <trkpt lat="41.3677870" lon="2.1586960">
        <ele>85.7</ele>
        <time>2020-11-15T12:47:08Z</time>
      </trkpt>
      <trkpt lat="41.3677800" lon="2.1586660">
        <ele>85.3</ele>
        <time>2020-11-15T12:47:09Z</time>
      </trkpt>
      <trkpt lat="41.3677810" lon="2.1586420">
        <ele>85.3</ele>
        <time>2020-11-15T12:47:11Z</time>
      </trkpt>
      <trkpt lat="41.3677820" lon="2.1586240">
        <ele>84.8</ele>
        <time>2020-11-15T12:47:12Z</time>
      </trkpt>
      <trkpt lat="41.3677790" lon="2.1585860">
        <ele>84.4</ele>
        <time>2020-11-15T12:47:14Z</time>
      </trkpt>
      <trkpt lat="41.3677770" lon="2.1585730">
        <ele>84.4</ele>
        <time>2020-11-15T12:47:15Z</time>
      </trkpt>
      <trkpt lat="41.3677680" lon="2.1585440">
        <ele>84.0</ele>
        <time>2020-11-15T12:47:17Z</time>
      </trkpt>
      <trkpt lat="41.3677620" lon="2.1585290">
        <ele>84.0</ele>
        <time>2020-11-15T12:47:18Z</time>
      </trkpt>
      <trkpt lat="41.3677570" lon="2.1585150">
        <ele>84.7</ele>
        <time>2020-11-15T12:47:19Z</time>
      </trkpt>
      <trkpt lat="41.3677520" lon="2.1585120">
        <ele>84.3</ele>
        <time>2020-11-15T12:47:20Z</time>
      </trkpt>
      <trkpt lat="41.3677440" lon="2.1585020">
        <ele>84.3</ele>
        <time>2020-11-15T12:47:22Z</time>
      </trkpt>
      <trkpt lat="41.3677350" lon="2.1584900">
        <ele>84.4</ele>
        <time>2020-11-15T12:47:23Z</time>
      </trkpt>
      <trkpt lat="41.3677200" lon="2.1584660">
        <ele>84.6</ele>
        <time>2020-11-15T12:47:25Z</time>
      </trkpt>
      <trkpt lat="41.3677150" lon="2.1584580">
        <ele>84.7</ele>
        <time>2020-11-15T12:47:26Z</time>
      </trkpt>
      <trkpt lat="41.3677030" lon="2.1584340">
        <ele>84.7</ele>
        <time>2020-11-15T12:47:28Z</time>
      </trkpt>
      <trkpt lat="41.3676990" lon="2.1584250">
        <ele>84.3</ele>
        <time>2020-11-15T12:47:29Z</time>
      </trkpt>
      <trkpt lat="41.3676940" lon="2.1584150">
        <ele>85.0</ele>
        <time>2020-11-15T12:47:30Z</time>
      </trkpt>
      <trkpt lat="41.3676950" lon="2.1584100">
        <ele>84.4</ele>
        <time>2020-11-15T12:47:31Z</time>
      </trkpt>
      <trkpt lat="41.3676960" lon="2.1583980">
        <ele>84.4</ele>
        <time>2020-11-15T12:47:33Z</time>
      </trkpt>
      <trkpt lat="41.3677020" lon="2.1584000">
        <ele>84.5</ele>
        <time>2020-11-15T12:47:34Z</time>
      </trkpt>
      <trkpt lat="41.3677170" lon="2.1583960">
        <ele>84.5</ele>
        <time>2020-11-15T12:47:35Z</time>
      </trkpt>
      <trkpt lat="41.3677290" lon="2.1583920">
        <ele>83.9</ele>
        <time>2020-11-15T12:47:37Z</time>
      </trkpt>
      <trkpt lat="41.3677460" lon="2.1583770">
        <ele>83.5</ele>
        <time>2020-11-15T12:47:38Z</time>
      </trkpt>
      <trkpt lat="41.3677540" lon="2.1583680">
        <ele>83.5</ele>
        <time>2020-11-15T12:47:39Z</time>
      </trkpt>
      <trkpt lat="41.3677610" lon="2.1583600">
        <ele>82.9</ele>
        <time>2020-11-15T12:47:40Z</time>
      </trkpt>
      <trkpt lat="41.3677700" lon="2.1583450">
        <ele>82.9</ele>
        <time>2020-11-15T12:47:42Z</time>
      </trkpt>
      <trkpt lat="41.3677760" lon="2.1583330">
        <ele>82.6</ele>
        <time>2020-11-15T12:47:43Z</time>
      </trkpt>
      <trkpt lat="41.3677820" lon="2.1583240">
        <ele>82.6</ele>
        <time>2020-11-15T12:47:44Z</time>
      </trkpt>
      <trkpt lat="41.3677920" lon="2.1583140">
        <ele>81.9</ele>
        <time>2020-11-15T12:47:45Z</time>
      </trkpt>
      <trkpt lat="41.3677980" lon="2.1583120">
        <ele>82.0</ele>
        <time>2020-11-15T12:47:46Z</time>
      </trkpt>
      <trkpt lat="41.3678100" lon="2.1583140">
        <ele>82.0</ele>
        <time>2020-11-15T12:47:47Z</time>
      </trkpt>
      <trkpt lat="41.3678200" lon="2.1583130">
        <ele>82.0</ele>
        <time>2020-11-15T12:47:49Z</time>
      </trkpt>
      <trkpt lat="41.3678320" lon="2.1583160">
        <ele>81.4</ele>
        <time>2020-11-15T12:47:50Z</time>
      </trkpt>
      <trkpt lat="41.3678380" lon="2.1583190">
        <ele>81.4</ele>
        <time>2020-11-15T12:47:51Z</time>
      </trkpt>
      <trkpt lat="41.3678450" lon="2.1583210">
        <ele>81.5</ele>
        <time>2020-11-15T12:47:52Z</time>
      </trkpt>
      <trkpt lat="41.3678530" lon="2.1583240">
        <ele>81.5</ele>
        <time>2020-11-15T12:47:53Z</time>
      </trkpt>
      <trkpt lat="41.3678780" lon="2.1583300">
        <ele>80.9</ele>
        <time>2020-11-15T12:47:55Z</time>
      </trkpt>
      <trkpt lat="41.3678830" lon="2.1583340">
        <ele>81.0</ele>
        <time>2020-11-15T12:47:56Z</time>
      </trkpt>
      <trkpt lat="41.3678920" lon="2.1583380">
        <ele>80.4</ele>
        <time>2020-11-15T12:47:58Z</time>
      </trkpt>
      <trkpt lat="41.3678970" lon="2.1583400">
        <ele>80.5</ele>
        <time>2020-11-15T12:47:59Z</time>
      </trkpt>
      <trkpt lat="41.3679060" lon="2.1583420">
        <ele>80.9</ele>
        <time>2020-11-15T12:48:00Z</time>
      </trkpt>
      <trkpt lat="41.3679110" lon="2.1583440">
        <ele>80.9</ele>
        <time>2020-11-15T12:48:01Z</time>
      </trkpt>
      <trkpt lat="41.3679190" lon="2.1583490">
        <ele>80.9</ele>
        <time>2020-11-15T12:48:03Z</time>
      </trkpt>
      <trkpt lat="41.3679230" lon="2.1583540">
        <ele>80.5</ele>
        <time>2020-11-15T12:48:04Z</time>
      </trkpt>
      <trkpt lat="41.3679260" lon="2.1583580">
        <ele>80.5</ele>
        <time>2020-11-15T12:48:06Z</time>
      </trkpt>
      <trkpt lat="41.3679300" lon="2.1583610">
        <ele>80.5</ele>
        <time>2020-11-15T12:48:07Z</time>
      </trkpt>
      <trkpt lat="41.3679360" lon="2.1583640">
        <ele>80.6</ele>
        <time>2020-11-15T12:48:08Z</time>
      </trkpt>
      <trkpt lat="41.3679460" lon="2.1583630">
        <ele>80.6</ele>
        <time>2020-11-15T12:48:09Z</time>
      </trkpt>
      <trkpt lat="41.3679560" lon="2.1583630">
        <ele>80.1</ele>
        <time>2020-11-15T12:48:10Z</time>
      </trkpt>
      <trkpt lat="41.3679640" lon="2.1583610">
        <ele>80.2</ele>
        <time>2020-11-15T12:48:12Z</time>
      </trkpt>
      <trkpt lat="41.3679730" lon="2.1583620">
        <ele>80.2</ele>
        <time>2020-11-15T12:48:13Z</time>
      </trkpt>
      <trkpt lat="41.3679820" lon="2.1583660">
        <ele>80.2</ele>
        <time>2020-11-15T12:48:15Z</time>
      </trkpt>
      <trkpt lat="41.3679920" lon="2.1583690">
        <ele>79.7</ele>
        <time>2020-11-15T12:48:17Z</time>
      </trkpt>
      <trkpt lat="41.3680000" lon="2.1583710">
        <ele>79.8</ele>
        <time>2020-11-15T12:48:18Z</time>
      </trkpt>
      <trkpt lat="41.3680140" lon="2.1583720">
        <ele>79.8</ele>
        <time>2020-11-15T12:48:20Z</time>
      </trkpt>
      <trkpt lat="41.3680190" lon="2.1583690">
        <ele>79.3</ele>
        <time>2020-11-15T12:48:21Z</time>
      </trkpt>
      <trkpt lat="41.3680260" lon="2.1583670">
        <ele>79.3</ele>
        <time>2020-11-15T12:48:22Z</time>
      </trkpt>
      <trkpt lat="41.3680340" lon="2.1583670">
        <ele>79.3</ele>
        <time>2020-11-15T12:48:23Z</time>
      </trkpt>
      <trkpt lat="41.3680480" lon="2.1583710">
        <ele>79.3</ele>
        <time>2020-11-15T12:48:25Z</time>
      </trkpt>
      <trkpt lat="41.3680530" lon="2.1583720">
        <ele>78.8</ele>
        <time>2020-11-15T12:48:26Z</time>
      </trkpt>
      <trkpt lat="41.3680690" lon="2.1583730">
        <ele>78.8</ele>
        <time>2020-11-15T12:48:28Z</time>
      </trkpt>
      <trkpt lat="41.3680950" lon="2.1583790">
        <ele>78.3</ele>
        <time>2020-11-15T12:48:30Z</time>
      </trkpt>
      <trkpt lat="41.3681010" lon="2.1583800">
        <ele>78.3</ele>
        <time>2020-11-15T12:48:31Z</time>
      </trkpt>
      <trkpt lat="41.3681080" lon="2.1583810">
        <ele>78.3</ele>
        <time>2020-11-15T12:48:32Z</time>
      </trkpt>
      <trkpt lat="41.3681180" lon="2.1583810">
        <ele>77.8</ele>
        <time>2020-11-15T12:48:34Z</time>
      </trkpt>
      <trkpt lat="41.3681330" lon="2.1583790">
        <ele>77.8</ele>
        <time>2020-11-15T12:48:35Z</time>
      </trkpt>
      <trkpt lat="41.3681390" lon="2.1583680">
        <ele>77.9</ele>
        <time>2020-11-15T12:48:36Z</time>
      </trkpt>
      <trkpt lat="41.3681350" lon="2.1583420">
        <ele>77.9</ele>
        <time>2020-11-15T12:48:38Z</time>
      </trkpt>
      <trkpt lat="41.3681310" lon="2.1583320">
        <ele>77.5</ele>
        <time>2020-11-15T12:48:39Z</time>
      </trkpt>
      <trkpt lat="41.3681260" lon="2.1583210">
        <ele>77.5</ele>
        <time>2020-11-15T12:48:40Z</time>
      </trkpt>
      <trkpt lat="41.3681170" lon="2.1583140">
        <ele>77.5</ele>
        <time>2020-11-15T12:48:41Z</time>
      </trkpt>
      <trkpt lat="41.3681050" lon="2.1583070">
        <ele>78.1</ele>
        <time>2020-11-15T12:48:42Z</time>
      </trkpt>
      <trkpt lat="41.3680920" lon="2.1583010">
        <ele>78.1</ele>
        <time>2020-11-15T12:48:44Z</time>
      </trkpt>
      <trkpt lat="41.3680700" lon="2.1582940">
        <ele>78.3</ele>
        <time>2020-11-15T12:48:45Z</time>
      </trkpt>
      <trkpt lat="41.3680550" lon="2.1582900">
        <ele>78.4</ele>
        <time>2020-11-15T12:48:47Z</time>
      </trkpt>
      <trkpt lat="41.3680430" lon="2.1582860">
        <ele>79.0</ele>
        <time>2020-11-15T12:48:48Z</time>
      </trkpt>
      <trkpt lat="41.3680130" lon="2.1582760">
        <ele>79.6</ele>
        <time>2020-11-15T12:48:50Z</time>
      </trkpt>
      <trkpt lat="41.3680010" lon="2.1582710">
        <ele>79.7</ele>
        <time>2020-11-15T12:48:52Z</time>
      </trkpt>
      <trkpt lat="41.3679900" lon="2.1582670">
        <ele>79.7</ele>
        <time>2020-11-15T12:48:53Z</time>
      </trkpt>
      <trkpt lat="41.3679810" lon="2.1582640">
        <ele>80.3</ele>
        <time>2020-11-15T12:48:54Z</time>
      </trkpt>
      <trkpt lat="41.3679670" lon="2.1582590">
        <ele>80.3</ele>
        <time>2020-11-15T12:48:55Z</time>
      </trkpt>
      <trkpt lat="41.3679570" lon="2.1582530">
        <ele>80.0</ele>
        <time>2020-11-15T12:48:57Z</time>
      </trkpt>
      <trkpt lat="41.3679480" lon="2.1582460">
        <ele>80.5</ele>
        <time>2020-11-15T12:48:58Z</time>
      </trkpt>
      <trkpt lat="41.3679310" lon="2.1582210">
        <ele>80.5</ele>
        <time>2020-11-15T12:49:01Z</time>
      </trkpt>
      <trkpt lat="41.3679300" lon="2.1582050">
        <ele>80.2</ele>
        <time>2020-11-15T12:49:03Z</time>
      </trkpt>
      <trkpt lat="41.3679410" lon="2.1581880">
        <ele>80.3</ele>
        <time>2020-11-15T12:49:05Z</time>
      </trkpt>
      <trkpt lat="41.3679480" lon="2.1581830">
        <ele>80.3</ele>
        <time>2020-11-15T12:49:06Z</time>
      </trkpt>
      <trkpt lat="41.3679580" lon="2.1581800">
        <ele>79.8</ele>
        <time>2020-11-15T12:49:07Z</time>
      </trkpt>
      <trkpt lat="41.3679660" lon="2.1581760">
        <ele>79.8</ele>
        <time>2020-11-15T12:49:09Z</time>
      </trkpt>
      <trkpt lat="41.3679980" lon="2.1581720">
        <ele>79.3</ele>
        <time>2020-11-15T12:49:11Z</time>
      </trkpt>
      <trkpt lat="41.3680100" lon="2.1581760">
        <ele>79.3</ele>
        <time>2020-11-15T12:49:12Z</time>
      </trkpt>
      <trkpt lat="41.3680220" lon="2.1581790">
        <ele>78.7</ele>
        <time>2020-11-15T12:49:13Z</time>
      </trkpt>
      <trkpt lat="41.3680410" lon="2.1581860">
        <ele>78.7</ele>
        <time>2020-11-15T12:49:15Z</time>
      </trkpt>
      <trkpt lat="41.3680570" lon="2.1581910">
        <ele>78.1</ele>
        <time>2020-11-15T12:49:16Z</time>
      </trkpt>
      <trkpt lat="41.3680690" lon="2.1581940">
        <ele>78.2</ele>
        <time>2020-11-15T12:49:18Z</time>
      </trkpt>
      <trkpt lat="41.3680830" lon="2.1581990">
        <ele>77.5</ele>
        <time>2020-11-15T12:49:19Z</time>
      </trkpt>
      <trkpt lat="41.3681020" lon="2.1582010">
        <ele>77.6</ele>
        <time>2020-11-15T12:49:20Z</time>
      </trkpt>
      <trkpt lat="41.3681150" lon="2.1582070">
        <ele>77.0</ele>
        <time>2020-11-15T12:49:22Z</time>
      </trkpt>
      <trkpt lat="41.3681220" lon="2.1582120">
        <ele>77.0</ele>
        <time>2020-11-15T12:49:23Z</time>
      </trkpt>
      <trkpt lat="41.3681290" lon="2.1582160">
        <ele>77.5</ele>
        <time>2020-11-15T12:49:24Z</time>
      </trkpt>
      <trkpt lat="41.3681360" lon="2.1582210">
        <ele>77.5</ele>
        <time>2020-11-15T12:49:26Z</time>
      </trkpt>
      <trkpt lat="41.3681430" lon="2.1582250">
        <ele>77.5</ele>
        <time>2020-11-15T12:49:27Z</time>
      </trkpt>
      <trkpt lat="41.3681500" lon="2.1582300">
        <ele>77.1</ele>
        <time>2020-11-15T12:49:28Z</time>
      </trkpt>
      <trkpt lat="41.3681570" lon="2.1582340">
        <ele>77.1</ele>
        <time>2020-11-15T12:49:30Z</time>
      </trkpt>
      <trkpt lat="41.3681640" lon="2.1582390">
        <ele>77.1</ele>
        <time>2020-11-15T12:49:31Z</time>
      </trkpt>
      <trkpt lat="41.3681680" lon="2.1582430">
        <ele>77.1</ele>
        <time>2020-11-15T12:49:32Z</time>
      </trkpt>
      <trkpt lat="41.3681710" lon="2.1582460">
        <ele>77.2</ele>
        <time>2020-11-15T12:49:33Z</time>
      </trkpt>
      <trkpt lat="41.3681800" lon="2.1582560">
        <ele>77.2</ele>
        <time>2020-11-15T12:49:35Z</time>
      </trkpt>
      <trkpt lat="41.3681890" lon="2.1582650">
        <ele>77.2</ele>
        <time>2020-11-15T12:49:36Z</time>
      </trkpt>
      <trkpt lat="41.3681890" lon="2.1582630">
        <ele>77.3</ele>
        <time>2020-11-15T12:49:37Z</time>
      </trkpt>
      <trkpt lat="41.3681880" lon="2.1582590">
        <ele>77.3</ele>
        <time>2020-11-15T12:49:38Z</time>
      </trkpt>
      <trkpt lat="41.3681870" lon="2.1582540">
        <ele>76.9</ele>
        <time>2020-11-15T12:49:39Z</time>
      </trkpt>
      <trkpt lat="41.3681870" lon="2.1582500">
        <ele>76.9</ele>
        <time>2020-11-15T12:49:41Z</time>
      </trkpt>
      <trkpt lat="41.3681860" lon="2.1582460">
        <ele>76.9</ele>
        <time>2020-11-15T12:49:42Z</time>
      </trkpt>
      <trkpt lat="41.3681850" lon="2.1582420">
        <ele>76.9</ele>
        <time>2020-11-15T12:49:44Z</time>
      </trkpt>
      <trkpt lat="41.3681840" lon="2.1582370">
        <ele>77.0</ele>
        <time>2020-11-15T12:49:46Z</time>
      </trkpt>
      <trkpt lat="41.3681830" lon="2.1582330">
        <ele>77.0</ele>
        <time>2020-11-15T12:49:47Z</time>
      </trkpt>
      <trkpt lat="41.3681820" lon="2.1582290">
        <ele>77.0</ele>
        <time>2020-11-15T12:49:49Z</time>
      </trkpt>
      <trkpt lat="41.3681810" lon="2.1582250">
        <ele>77.1</ele>
        <time>2020-11-15T12:49:50Z</time>
      </trkpt>
      <trkpt lat="41.3681810" lon="2.1582210">
        <ele>77.1</ele>
        <time>2020-11-15T12:49:51Z</time>
      </trkpt>
      <trkpt lat="41.3681800" lon="2.1582160">
        <ele>77.1</ele>
        <time>2020-11-15T12:49:53Z</time>
      </trkpt>
      <trkpt lat="41.3681790" lon="2.1582120">
        <ele>76.7</ele>
        <time>2020-11-15T12:49:54Z</time>
      </trkpt>
      <trkpt lat="41.3681780" lon="2.1582080">
        <ele>76.7</ele>
        <time>2020-11-15T12:49:55Z</time>
      </trkpt>
      <trkpt lat="41.3681670" lon="2.1581990">
        <ele>77.2</ele>
        <time>2020-11-15T12:49:57Z</time>
      </trkpt>
      <trkpt lat="41.3681540" lon="2.1581900">
        <ele>77.3</ele>
        <time>2020-11-15T12:49:58Z</time>
      </trkpt>
      <trkpt lat="41.3681390" lon="2.1581810">
        <ele>77.8</ele>
        <time>2020-11-15T12:50:00Z</time>
      </trkpt>
      <trkpt lat="41.3681230" lon="2.1581710">
        <ele>77.9</ele>
        <time>2020-11-15T12:50:01Z</time>
      </trkpt>
      <trkpt lat="41.3681190" lon="2.1581620">
        <ele>77.5</ele>
        <time>2020-11-15T12:50:02Z</time>
      </trkpt>
      <trkpt lat="41.3681240" lon="2.1581590">
        <ele>77.6</ele>
        <time>2020-11-15T12:50:04Z</time>
      </trkpt>
      <trkpt lat="41.3681300" lon="2.1581550">
        <ele>77.6</ele>
        <time>2020-11-15T12:50:05Z</time>
      </trkpt>
      <trkpt lat="41.3681350" lon="2.1581510">
        <ele>77.6</ele>
        <time>2020-11-15T12:50:07Z</time>
      </trkpt>
      <trkpt lat="41.3681400" lon="2.1581480">
        <ele>77.6</ele>
        <time>2020-11-15T12:50:08Z</time>
      </trkpt>
      <trkpt lat="41.3681450" lon="2.1581440">
        <ele>77.7</ele>
        <time>2020-11-15T12:50:09Z</time>
      </trkpt>
      <trkpt lat="41.3681550" lon="2.1581490">
        <ele>77.2</ele>
        <time>2020-11-15T12:50:11Z</time>
      </trkpt>
      <trkpt lat="41.3681720" lon="2.1581670">
        <ele>77.2</ele>
        <time>2020-11-15T12:50:12Z</time>
      </trkpt>
      <trkpt lat="41.3681990" lon="2.1581910">
        <ele>77.1</ele>
        <time>2020-11-15T12:50:13Z</time>
      </trkpt>
      <trkpt lat="41.3682060" lon="2.1581960">
        <ele>77.2</ele>
        <time>2020-11-15T12:50:14Z</time>
      </trkpt>
      <trkpt lat="41.3682140" lon="2.1581990">
        <ele>77.2</ele>
        <time>2020-11-15T12:50:15Z</time>
      </trkpt>
      <trkpt lat="41.3682230" lon="2.1581960">
        <ele>77.1</ele>
        <time>2020-11-15T12:50:16Z</time>
      </trkpt>
      <trkpt lat="41.3682310" lon="2.1581750">
        <ele>77.1</ele>
        <time>2020-11-15T12:50:18Z</time>
      </trkpt>
      <trkpt lat="41.3682280" lon="2.1581600">
        <ele>77.1</ele>
        <time>2020-11-15T12:50:19Z</time>
      </trkpt>
      <trkpt lat="41.3682220" lon="2.1581500">
        <ele>77.1</ele>
        <time>2020-11-15T12:50:21Z</time>
      </trkpt>
      <trkpt lat="41.3682030" lon="2.1581140">
        <ele>77.1</ele>
        <time>2020-11-15T12:50:23Z</time>
      </trkpt>
      <trkpt lat="41.3681920" lon="2.1581030">
        <ele>77.1</ele>
        <time>2020-11-15T12:50:24Z</time>
      </trkpt>
      <trkpt lat="41.3681730" lon="2.1580870">
        <ele>77.1</ele>
        <time>2020-11-15T12:50:25Z</time>
      </trkpt>
      <trkpt lat="41.3681620" lon="2.1580750">
        <ele>77.1</ele>
        <time>2020-11-15T12:50:26Z</time>
      </trkpt>
      <trkpt lat="41.3681520" lon="2.1580580">
        <ele>77.1</ele>
        <time>2020-11-15T12:50:27Z</time>
      </trkpt>
      <trkpt lat="41.3681460" lon="2.1580480">
        <ele>77.1</ele>
        <time>2020-11-15T12:50:29Z</time>
      </trkpt>
      <trkpt lat="41.3681420" lon="2.1580370">
        <ele>77.1</ele>
        <time>2020-11-15T12:50:30Z</time>
      </trkpt>
      <trkpt lat="41.3681380" lon="2.1580280">
        <ele>77.1</ele>
        <time>2020-11-15T12:50:31Z</time>
      </trkpt>
      <trkpt lat="41.3681270" lon="2.1579890">
        <ele>77.1</ele>
        <time>2020-11-15T12:50:32Z</time>
      </trkpt>
      <trkpt lat="41.3681210" lon="2.1579660">
        <ele>77.1</ele>
        <time>2020-11-15T12:50:33Z</time>
      </trkpt>
      <trkpt lat="41.3681220" lon="2.1579620">
        <ele>77.1</ele>
        <time>2020-11-15T12:50:35Z</time>
      </trkpt>
      <trkpt lat="41.3681230" lon="2.1579520">
        <ele>77.1</ele>
        <time>2020-11-15T12:50:36Z</time>
      </trkpt>
      <trkpt lat="41.3681250" lon="2.1579350">
        <ele>77.1</ele>
        <time>2020-11-15T12:50:37Z</time>
      </trkpt>
      <trkpt lat="41.3681250" lon="2.1579250">
        <ele>77.1</ele>
        <time>2020-11-15T12:50:39Z</time>
      </trkpt>
      <trkpt lat="41.3681230" lon="2.1579130">
        <ele>77.1</ele>
        <time>2020-11-15T12:50:40Z</time>
      </trkpt>
      <trkpt lat="41.3681310" lon="2.1579010">
        <ele>77.1</ele>
        <time>2020-11-15T12:50:42Z</time>
      </trkpt>
      <trkpt lat="41.3681510" lon="2.1579010">
        <ele>77.1</ele>
        <time>2020-11-15T12:50:43Z</time>
      </trkpt>
      <trkpt lat="41.3681810" lon="2.1579080">
        <ele>77.1</ele>
        <time>2020-11-15T12:50:45Z</time>
      </trkpt>
      <trkpt lat="41.3681900" lon="2.1579090">
        <ele>77.1</ele>
        <time>2020-11-15T12:50:46Z</time>
      </trkpt>
      <trkpt lat="41.3682060" lon="2.1578950">
        <ele>77.1</ele>
        <time>2020-11-15T12:50:48Z</time>
      </trkpt>
      <trkpt lat="41.3682060" lon="2.1578860">
        <ele>77.1</ele>
        <time>2020-11-15T12:50:49Z</time>
      </trkpt>
      <trkpt lat="41.3682000" lon="2.1578660">
        <ele>77.0</ele>
        <time>2020-11-15T12:50:50Z</time>
      </trkpt>
      <trkpt lat="41.3681930" lon="2.1578510">
        <ele>77.0</ele>
        <time>2020-11-15T12:50:52Z</time>
      </trkpt>
      <trkpt lat="41.3681830" lon="2.1578280">
        <ele>77.0</ele>
        <time>2020-11-15T12:50:53Z</time>
      </trkpt>
      <trkpt lat="41.3681760" lon="2.1578200">
        <ele>77.0</ele>
        <time>2020-11-15T12:50:54Z</time>
      </trkpt>
      <trkpt lat="41.3681700" lon="2.1578090">
        <ele>77.0</ele>
        <time>2020-11-15T12:50:55Z</time>
      </trkpt>
      <trkpt lat="41.3681650" lon="2.1577970">
        <ele>77.0</ele>
        <time>2020-11-15T12:50:56Z</time>
      </trkpt>
      <trkpt lat="41.3681600" lon="2.1577810">
        <ele>76.9</ele>
        <time>2020-11-15T12:50:57Z</time>
      </trkpt>
      <trkpt lat="41.3681570" lon="2.1577610">
        <ele>76.9</ele>
        <time>2020-11-15T12:50:58Z</time>
      </trkpt>
      <trkpt lat="41.3681560" lon="2.1577510">
        <ele>76.9</ele>
        <time>2020-11-15T12:51:00Z</time>
      </trkpt>
      <trkpt lat="41.3681560" lon="2.1577380">
        <ele>76.9</ele>
        <time>2020-11-15T12:51:01Z</time>
      </trkpt>
      <trkpt lat="41.3681600" lon="2.1577310">
        <ele>76.9</ele>
        <time>2020-11-15T12:51:02Z</time>
      </trkpt>
      <trkpt lat="41.3681660" lon="2.1577240">
        <ele>76.9</ele>
        <time>2020-11-15T12:51:03Z</time>
      </trkpt>
      <trkpt lat="41.3681690" lon="2.1577220">
        <ele>76.9</ele>
        <time>2020-11-15T12:51:04Z</time>
      </trkpt>
      <trkpt lat="41.3681800" lon="2.1577210">
        <ele>76.9</ele>
        <time>2020-11-15T12:51:05Z</time>
      </trkpt>
      <trkpt lat="41.3681890" lon="2.1577220">
        <ele>76.9</ele>
        <time>2020-11-15T12:51:07Z</time>
      </trkpt>
      <trkpt lat="41.3681950" lon="2.1577280">
        <ele>76.9</ele>
        <time>2020-11-15T12:51:08Z</time>
      </trkpt>
      <trkpt lat="41.3682090" lon="2.1577530">
        <ele>77.0</ele>
        <time>2020-11-15T12:51:10Z</time>
      </trkpt>
      <trkpt lat="41.3682100" lon="2.1577710">
        <ele>77.0</ele>
        <time>2020-11-15T12:51:11Z</time>
      </trkpt>
      <trkpt lat="41.3682130" lon="2.1577880">
        <ele>77.0</ele>
        <time>2020-11-15T12:51:12Z</time>
      </trkpt>
      <trkpt lat="41.3682170" lon="2.1578090">
        <ele>77.0</ele>
        <time>2020-11-15T12:51:14Z</time>
      </trkpt>
      <trkpt lat="41.3682190" lon="2.1578180">
        <ele>77.0</ele>
        <time>2020-11-15T12:51:15Z</time>
      </trkpt>
      <trkpt lat="41.3682200" lon="2.1578290">
        <ele>77.0</ele>
        <time>2020-11-15T12:51:16Z</time>
      </trkpt>
      <trkpt lat="41.3682390" lon="2.1578560">
        <ele>77.0</ele>
        <time>2020-11-15T12:51:19Z</time>
      </trkpt>
      <trkpt lat="41.3682500" lon="2.1578600">
        <ele>76.6</ele>
        <time>2020-11-15T12:51:20Z</time>
      </trkpt>
      <trkpt lat="41.3682700" lon="2.1578630">
        <ele>75.9</ele>
        <time>2020-11-15T12:51:22Z</time>
      </trkpt>
      <trkpt lat="41.3682900" lon="2.1578490">
        <ele>75.1</ele>
        <time>2020-11-15T12:51:23Z</time>
      </trkpt>
      <trkpt lat="41.3683030" lon="2.1578440">
        <ele>74.6</ele>
        <time>2020-11-15T12:51:25Z</time>
      </trkpt>
      <trkpt lat="41.3683120" lon="2.1578430">
        <ele>74.3</ele>
        <time>2020-11-15T12:51:26Z</time>
      </trkpt>
      <trkpt lat="41.3683520" lon="2.1578340">
        <ele>72.8</ele>
        <time>2020-11-15T12:51:29Z</time>
      </trkpt>
      <trkpt lat="41.3683740" lon="2.1578310">
        <ele>68.9</ele>
        <time>2020-11-15T12:51:30Z</time>
      </trkpt>
      <trkpt lat="41.3683910" lon="2.1578300">
        <ele>65.4</ele>
        <time>2020-11-15T12:51:32Z</time>
      </trkpt>
      <trkpt lat="41.3684270" lon="2.1578300">
        <ele>70.5</ele>
        <time>2020-11-15T12:51:34Z</time>
      </trkpt>
      <trkpt lat="41.3684370" lon="2.1578320">
        <ele>71.5</ele>
        <time>2020-11-15T12:51:35Z</time>
      </trkpt>
      <trkpt lat="41.3684540" lon="2.1578350">
        <ele>71.2</ele>
        <time>2020-11-15T12:51:36Z</time>
      </trkpt>
      <trkpt lat="41.3684700" lon="2.1578340">
        <ele>70.9</ele>
        <time>2020-11-15T12:51:37Z</time>
      </trkpt>
      <trkpt lat="41.3684900" lon="2.1578310">
        <ele>70.6</ele>
        <time>2020-11-15T12:51:38Z</time>
      </trkpt>
      <trkpt lat="41.3685000" lon="2.1578270">
        <ele>70.5</ele>
        <time>2020-11-15T12:51:40Z</time>
      </trkpt>
      <trkpt lat="41.3685110" lon="2.1578220">
        <ele>70.3</ele>
        <time>2020-11-15T12:51:41Z</time>
      </trkpt>
      <trkpt lat="41.3685370" lon="2.1578100">
        <ele>69.8</ele>
        <time>2020-11-15T12:51:43Z</time>
      </trkpt>
      <trkpt lat="41.3685440" lon="2.1578050">
        <ele>69.7</ele>
        <time>2020-11-15T12:51:44Z</time>
      </trkpt>
      <trkpt lat="41.3685510" lon="2.1577970">
        <ele>69.5</ele>
        <time>2020-11-15T12:51:45Z</time>
      </trkpt>
      <trkpt lat="41.3685650" lon="2.1577820">
        <ele>69.2</ele>
        <time>2020-11-15T12:51:47Z</time>
      </trkpt>
      <trkpt lat="41.3685750" lon="2.1577670">
        <ele>69.0</ele>
        <time>2020-11-15T12:51:48Z</time>
      </trkpt>
      <trkpt lat="41.3685790" lon="2.1577570">
        <ele>68.8</ele>
        <time>2020-11-15T12:51:49Z</time>
      </trkpt>
      <trkpt lat="41.3685830" lon="2.1577460">
        <ele>68.7</ele>
        <time>2020-11-15T12:51:50Z</time>
      </trkpt>
      <trkpt lat="41.3685860" lon="2.1577070">
        <ele>68.2</ele>
        <time>2020-11-15T12:51:53Z</time>
      </trkpt>
      <trkpt lat="41.3685860" lon="2.1576920">
        <ele>68.0</ele>
        <time>2020-11-15T12:51:54Z</time>
      </trkpt>
      <trkpt lat="41.3685850" lon="2.1576790">
        <ele>67.7</ele>
        <time>2020-11-15T12:51:55Z</time>
      </trkpt>
      <trkpt lat="41.3685870" lon="2.1576650">
        <ele>67.7</ele>
        <time>2020-11-15T12:51:57Z</time>
      </trkpt>
      <trkpt lat="41.3685960" lon="2.1576320">
        <ele>67.7</ele>
        <time>2020-11-15T12:51:59Z</time>
      </trkpt>
      <trkpt lat="41.3686020" lon="2.1576080">
        <ele>67.7</ele>
        <time>2020-11-15T12:52:00Z</time>
      </trkpt>
      <trkpt lat="41.3686050" lon="2.1575960">
        <ele>67.7</ele>
        <time>2020-11-15T12:52:01Z</time>
      </trkpt>
      <trkpt lat="41.3686080" lon="2.1575850">
        <ele>67.7</ele>
        <time>2020-11-15T12:52:02Z</time>
      </trkpt>
      <trkpt lat="41.3686180" lon="2.1575570">
        <ele>67.7</ele>
        <time>2020-11-15T12:52:03Z</time>
      </trkpt>
      <trkpt lat="41.3686230" lon="2.1575500">
        <ele>67.7</ele>
        <time>2020-11-15T12:52:05Z</time>
      </trkpt>
      <trkpt lat="41.3686300" lon="2.1575430">
        <ele>67.7</ele>
        <time>2020-11-15T12:52:06Z</time>
      </trkpt>
      <trkpt lat="41.3686450" lon="2.1575340">
        <ele>67.7</ele>
        <time>2020-11-15T12:52:07Z</time>
      </trkpt>
      <trkpt lat="41.3686690" lon="2.1575220">
        <ele>67.8</ele>
        <time>2020-11-15T12:52:09Z</time>
      </trkpt>
      <trkpt lat="41.3686790" lon="2.1575210">
        <ele>67.8</ele>
        <time>2020-11-15T12:52:11Z</time>
      </trkpt>
      <trkpt lat="41.3686940" lon="2.1575230">
        <ele>67.8</ele>
        <time>2020-11-15T12:52:12Z</time>
      </trkpt>
      <trkpt lat="41.3687120" lon="2.1575280">
        <ele>67.8</ele>
        <time>2020-11-15T12:52:14Z</time>
      </trkpt>
      <trkpt lat="41.3687190" lon="2.1575350">
        <ele>67.8</ele>
        <time>2020-11-15T12:52:15Z</time>
      </trkpt>
      <trkpt lat="41.3687280" lon="2.1575400">
        <ele>67.8</ele>
        <time>2020-11-15T12:52:16Z</time>
      </trkpt>
      <trkpt lat="41.3687380" lon="2.1575520">
        <ele>67.8</ele>
        <time>2020-11-15T12:52:17Z</time>
      </trkpt>
      <trkpt lat="41.3687540" lon="2.1575640">
        <ele>67.7</ele>
        <time>2020-11-15T12:52:18Z</time>
      </trkpt>
      <trkpt lat="41.3687610" lon="2.1575760">
        <ele>67.7</ele>
        <time>2020-11-15T12:52:20Z</time>
      </trkpt>
      <trkpt lat="41.3687660" lon="2.1575860">
        <ele>67.7</ele>
        <time>2020-11-15T12:52:21Z</time>
      </trkpt>
      <trkpt lat="41.3687720" lon="2.1576010">
        <ele>67.7</ele>
        <time>2020-11-15T12:52:22Z</time>
      </trkpt>
      <trkpt lat="41.3687820" lon="2.1576250">
        <ele>67.3</ele>
        <time>2020-11-15T12:52:24Z</time>
      </trkpt>
      <trkpt lat="41.3687860" lon="2.1576360">
        <ele>67.2</ele>
        <time>2020-11-15T12:52:25Z</time>
      </trkpt>
      <trkpt lat="41.3687920" lon="2.1576490">
        <ele>67.0</ele>
        <time>2020-11-15T12:52:26Z</time>
      </trkpt>
      <trkpt lat="41.3688010" lon="2.1576620">
        <ele>66.7</ele>
        <time>2020-11-15T12:52:27Z</time>
      </trkpt>
      <trkpt lat="41.3688150" lon="2.1576800">
        <ele>66.4</ele>
        <time>2020-11-15T12:52:28Z</time>
      </trkpt>
      <trkpt lat="41.3688240" lon="2.1576840">
        <ele>66.2</ele>
        <time>2020-11-15T12:52:29Z</time>
      </trkpt>
      <trkpt lat="41.3688560" lon="2.1576800">
        <ele>65.6</ele>
        <time>2020-11-15T12:52:32Z</time>
      </trkpt>
      <trkpt lat="41.3688680" lon="2.1576740">
        <ele>65.4</ele>
        <time>2020-11-15T12:52:33Z</time>
      </trkpt>
      <trkpt lat="41.3688770" lon="2.1576630">
        <ele>65.2</ele>
        <time>2020-11-15T12:52:34Z</time>
      </trkpt>
      <trkpt lat="41.3688870" lon="2.1576460">
        <ele>64.9</ele>
        <time>2020-11-15T12:52:35Z</time>
      </trkpt>
      <trkpt lat="41.3689050" lon="2.1576240">
        <ele>64.5</ele>
        <time>2020-11-15T12:52:37Z</time>
      </trkpt>
      <trkpt lat="41.3689210" lon="2.1576060">
        <ele>64.1</ele>
        <time>2020-11-15T12:52:39Z</time>
      </trkpt>
      <trkpt lat="41.3689320" lon="2.1575900">
        <ele>63.9</ele>
        <time>2020-11-15T12:52:40Z</time>
      </trkpt>
      <trkpt lat="41.3689410" lon="2.1575810">
        <ele>63.7</ele>
        <time>2020-11-15T12:52:41Z</time>
      </trkpt>
      <trkpt lat="41.3689510" lon="2.1575740">
        <ele>63.5</ele>
        <time>2020-11-15T12:52:43Z</time>
      </trkpt>
      <trkpt lat="41.3689730" lon="2.1575610">
        <ele>63.1</ele>
        <time>2020-11-15T12:52:45Z</time>
      </trkpt>
      <trkpt lat="41.3689800" lon="2.1575550">
        <ele>62.9</ele>
        <time>2020-11-15T12:52:46Z</time>
      </trkpt>
      <trkpt lat="41.3689910" lon="2.1575430">
        <ele>62.7</ele>
        <time>2020-11-15T12:52:47Z</time>
      </trkpt>
      <trkpt lat="41.3690120" lon="2.1575280">
        <ele>62.5</ele>
        <time>2020-11-15T12:52:49Z</time>
      </trkpt>
      <trkpt lat="41.3690200" lon="2.1575230">
        <ele>62.5</ele>
        <time>2020-11-15T12:52:50Z</time>
      </trkpt>
      <trkpt lat="41.3690370" lon="2.1575130">
        <ele>62.5</ele>
        <time>2020-11-15T12:52:52Z</time>
      </trkpt>
      <trkpt lat="41.3690480" lon="2.1575070">
        <ele>62.5</ele>
        <time>2020-11-15T12:52:53Z</time>
      </trkpt>
      <trkpt lat="41.3690700" lon="2.1574980">
        <ele>62.5</ele>
        <time>2020-11-15T12:52:55Z</time>
      </trkpt>
      <trkpt lat="41.3690760" lon="2.1574940">
        <ele>62.5</ele>
        <time>2020-11-15T12:52:56Z</time>
      </trkpt>
      <trkpt lat="41.3690910" lon="2.1574820">
        <ele>62.4</ele>
        <time>2020-11-15T12:52:58Z</time>
      </trkpt>
      <trkpt lat="41.3691090" lon="2.1574700">
        <ele>62.4</ele>
        <time>2020-11-15T12:53:00Z</time>
      </trkpt>
      <trkpt lat="41.3691140" lon="2.1574600">
        <ele>62.4</ele>
        <time>2020-11-15T12:53:01Z</time>
      </trkpt>
      <trkpt lat="41.3691180" lon="2.1574500">
        <ele>62.3</ele>
        <time>2020-11-15T12:53:02Z</time>
      </trkpt>
      <trkpt lat="41.3691210" lon="2.1574330">
        <ele>62.3</ele>
        <time>2020-11-15T12:53:03Z</time>
      </trkpt>
      <trkpt lat="41.3691190" lon="2.1574220">
        <ele>62.2</ele>
        <time>2020-11-15T12:53:04Z</time>
      </trkpt>
      <trkpt lat="41.3691220" lon="2.1574110">
        <ele>62.2</ele>
        <time>2020-11-15T12:53:06Z</time>
      </trkpt>
      <trkpt lat="41.3691250" lon="2.1574060">
        <ele>62.1</ele>
        <time>2020-11-15T12:53:07Z</time>
      </trkpt>
      <trkpt lat="41.3691260" lon="2.1573900">
        <ele>62.1</ele>
        <time>2020-11-15T12:53:09Z</time>
      </trkpt>
      <trkpt lat="41.3691230" lon="2.1573830">
        <ele>62.1</ele>
        <time>2020-11-15T12:53:10Z</time>
      </trkpt>
      <trkpt lat="41.3691190" lon="2.1573750">
        <ele>62.0</ele>
        <time>2020-11-15T12:53:11Z</time>
      </trkpt>
      <trkpt lat="41.3691100" lon="2.1573550">
        <ele>61.9</ele>
        <time>2020-11-15T12:53:12Z</time>
      </trkpt>
      <trkpt lat="41.3691060" lon="2.1573220">
        <ele>61.8</ele>
        <time>2020-11-15T12:53:14Z</time>
      </trkpt>
      <trkpt lat="41.3691050" lon="2.1573070">
        <ele>61.7</ele>
        <time>2020-11-15T12:53:16Z</time>
      </trkpt>
      <trkpt lat="41.3691040" lon="2.1572790">
        <ele>61.6</ele>
        <time>2020-11-15T12:53:17Z</time>
      </trkpt>
      <trkpt lat="41.3691050" lon="2.1572670">
        <ele>61.6</ele>
        <time>2020-11-15T12:53:18Z</time>
      </trkpt>
      <trkpt lat="41.3691050" lon="2.1572550">
        <ele>61.6</ele>
        <time>2020-11-15T12:53:19Z</time>
      </trkpt>
      <trkpt lat="41.3691060" lon="2.1572430">
        <ele>61.6</ele>
        <time>2020-11-15T12:53:20Z</time>
      </trkpt>
      <trkpt lat="41.3691080" lon="2.1572260">
        <ele>61.6</ele>
        <time>2020-11-15T12:53:22Z</time>
      </trkpt>
      <trkpt lat="41.3691120" lon="2.1572110">
        <ele>61.6</ele>
        <time>2020-11-15T12:53:23Z</time>
      </trkpt>
      <trkpt lat="41.3691170" lon="2.1571880">
        <ele>61.6</ele>
        <time>2020-11-15T12:53:24Z</time>
      </trkpt>
      <trkpt lat="41.3691200" lon="2.1571750">
        <ele>61.6</ele>
        <time>2020-11-15T12:53:25Z</time>
      </trkpt>
      <trkpt lat="41.3691260" lon="2.1571490">
        <ele>61.6</ele>
        <time>2020-11-15T12:53:26Z</time>
      </trkpt>
      <trkpt lat="41.3691270" lon="2.1571370">
        <ele>61.6</ele>
        <time>2020-11-15T12:53:28Z</time>
      </trkpt>
      <trkpt lat="41.3691290" lon="2.1571250">
        <ele>61.6</ele>
        <time>2020-11-15T12:53:29Z</time>
      </trkpt>
      <trkpt lat="41.3691300" lon="2.1571140">
        <ele>61.6</ele>
        <time>2020-11-15T12:53:30Z</time>
      </trkpt>
      <trkpt lat="41.3691330" lon="2.1571020">
        <ele>61.6</ele>
        <time>2020-11-15T12:53:32Z</time>
      </trkpt>
      <trkpt lat="41.3691360" lon="2.1570900">
        <ele>61.6</ele>
        <time>2020-11-15T12:53:33Z</time>
      </trkpt>
      <trkpt lat="41.3691400" lon="2.1570710">
        <ele>61.6</ele>
        <time>2020-11-15T12:53:34Z</time>
      </trkpt>
      <trkpt lat="41.3691450" lon="2.1570600">
        <ele>61.6</ele>
        <time>2020-11-15T12:53:35Z</time>
      </trkpt>
      <trkpt lat="41.3691510" lon="2.1570470">
        <ele>61.6</ele>
        <time>2020-11-15T12:53:36Z</time>
      </trkpt>
      <trkpt lat="41.3691590" lon="2.1570360">
        <ele>61.6</ele>
        <time>2020-11-15T12:53:38Z</time>
      </trkpt>
      <trkpt lat="41.3691700" lon="2.1570200">
        <ele>61.6</ele>
        <time>2020-11-15T12:53:39Z</time>
      </trkpt>
      <trkpt lat="41.3691800" lon="2.1570010">
        <ele>61.5</ele>
        <time>2020-11-15T12:53:41Z</time>
      </trkpt>
      <trkpt lat="41.3691840" lon="2.1569920">
        <ele>61.5</ele>
        <time>2020-11-15T12:53:42Z</time>
      </trkpt>
      <trkpt lat="41.3691880" lon="2.1569780">
        <ele>61.5</ele>
        <time>2020-11-15T12:53:43Z</time>
      </trkpt>
      <trkpt lat="41.3692000" lon="2.1569520">
        <ele>61.5</ele>
        <time>2020-11-15T12:53:44Z</time>
      </trkpt>
      <trkpt lat="41.3692020" lon="2.1569480">
        <ele>61.5</ele>
        <time>2020-11-15T12:53:45Z</time>
      </trkpt>
      <trkpt lat="41.3692060" lon="2.1569380">
        <ele>61.4</ele>
        <time>2020-11-15T12:53:46Z</time>
      </trkpt>
      <trkpt lat="41.3692110" lon="2.1569260">
        <ele>61.4</ele>
        <time>2020-11-15T12:53:48Z</time>
      </trkpt>
      <trkpt lat="41.3692210" lon="2.1569050">
        <ele>61.4</ele>
        <time>2020-11-15T12:53:49Z</time>
      </trkpt>
      <trkpt lat="41.3692240" lon="2.1568960">
        <ele>61.4</ele>
        <time>2020-11-15T12:53:50Z</time>
      </trkpt>
      <trkpt lat="41.3692300" lon="2.1568840">
        <ele>61.3</ele>
        <time>2020-11-15T12:53:51Z</time>
      </trkpt>
      <trkpt lat="41.3692380" lon="2.1568700">
        <ele>61.3</ele>
        <time>2020-11-15T12:53:52Z</time>
      </trkpt>
      <trkpt lat="41.3692500" lon="2.1568460">
        <ele>61.2</ele>
        <time>2020-11-15T12:53:54Z</time>
      </trkpt>
      <trkpt lat="41.3692540" lon="2.1568370">
        <ele>61.2</ele>
        <time>2020-11-15T12:53:55Z</time>
      </trkpt>
      <trkpt lat="41.3692590" lon="2.1568250">
        <ele>61.1</ele>
        <time>2020-11-15T12:53:56Z</time>
      </trkpt>
      <trkpt lat="41.3692640" lon="2.1568100">
        <ele>61.1</ele>
        <time>2020-11-15T12:53:57Z</time>
      </trkpt>
      <trkpt lat="41.3692670" lon="2.1567930">
        <ele>61.0</ele>
        <time>2020-11-15T12:53:58Z</time>
      </trkpt>
      <trkpt lat="41.3692710" lon="2.1567730">
        <ele>61.0</ele>
        <time>2020-11-15T12:53:59Z</time>
      </trkpt>
      <trkpt lat="41.3692720" lon="2.1567590">
        <ele>60.9</ele>
        <time>2020-11-15T12:54:01Z</time>
      </trkpt>
      <trkpt lat="41.3692740" lon="2.1567470">
        <ele>60.9</ele>
        <time>2020-11-15T12:54:02Z</time>
      </trkpt>
      <trkpt lat="41.3692770" lon="2.1567220">
        <ele>60.8</ele>
        <time>2020-11-15T12:54:03Z</time>
      </trkpt>
      <trkpt lat="41.3692800" lon="2.1566990">
        <ele>60.7</ele>
        <time>2020-11-15T12:54:05Z</time>
      </trkpt>
      <trkpt lat="41.3692820" lon="2.1566720">
        <ele>60.6</ele>
        <time>2020-11-15T12:54:07Z</time>
      </trkpt>
      <trkpt lat="41.3692830" lon="2.1566560">
        <ele>60.6</ele>
        <time>2020-11-15T12:54:08Z</time>
      </trkpt>
      <trkpt lat="41.3692870" lon="2.1566300">
        <ele>60.5</ele>
        <time>2020-11-15T12:54:09Z</time>
      </trkpt>
      <trkpt lat="41.3692890" lon="2.1566150">
        <ele>60.4</ele>
        <time>2020-11-15T12:54:10Z</time>
      </trkpt>
      <trkpt lat="41.3692910" lon="2.1566000">
        <ele>60.4</ele>
        <time>2020-11-15T12:54:11Z</time>
      </trkpt>
      <trkpt lat="41.3692920" lon="2.1565830">
        <ele>60.3</ele>
        <time>2020-11-15T12:54:12Z</time>
      </trkpt>
      <trkpt lat="41.3692950" lon="2.1565540">
        <ele>60.2</ele>
        <time>2020-11-15T12:54:14Z</time>
      </trkpt>
      <trkpt lat="41.3692980" lon="2.1565360">
        <ele>60.2</ele>
        <time>2020-11-15T12:54:15Z</time>
      </trkpt>
      <trkpt lat="41.3693000" lon="2.1565200">
        <ele>60.2</ele>
        <time>2020-11-15T12:54:16Z</time>
      </trkpt>
      <trkpt lat="41.3693050" lon="2.1564990">
        <ele>60.2</ele>
        <time>2020-11-15T12:54:18Z</time>
      </trkpt>
      <trkpt lat="41.3693120" lon="2.1564750">
        <ele>60.2</ele>
        <time>2020-11-15T12:54:19Z</time>
      </trkpt>
      <trkpt lat="41.3693180" lon="2.1564600">
        <ele>60.2</ele>
        <time>2020-11-15T12:54:21Z</time>
      </trkpt>
      <trkpt lat="41.3693270" lon="2.1564440">
        <ele>60.3</ele>
        <time>2020-11-15T12:54:22Z</time>
      </trkpt>
      <trkpt lat="41.3693370" lon="2.1564250">
        <ele>60.3</ele>
        <time>2020-11-15T12:54:24Z</time>
      </trkpt>
      <trkpt lat="41.3693430" lon="2.1564130">
        <ele>60.3</ele>
        <time>2020-11-15T12:54:26Z</time>
      </trkpt>
      <trkpt lat="41.3693480" lon="2.1564010">
        <ele>60.3</ele>
        <time>2020-11-15T12:54:27Z</time>
      </trkpt>
      <trkpt lat="41.3693530" lon="2.1563910">
        <ele>60.3</ele>
        <time>2020-11-15T12:54:28Z</time>
      </trkpt>
      <trkpt lat="41.3693640" lon="2.1563670">
        <ele>60.4</ele>
        <time>2020-11-15T12:54:29Z</time>
      </trkpt>
      <trkpt lat="41.3693690" lon="2.1563560">
        <ele>60.4</ele>
        <time>2020-11-15T12:54:30Z</time>
      </trkpt>
      <trkpt lat="41.3693830" lon="2.1563300">
        <ele>60.5</ele>
        <time>2020-11-15T12:54:31Z</time>
      </trkpt>
      <trkpt lat="41.3693900" lon="2.1563160">
        <ele>60.5</ele>
        <time>2020-11-15T12:54:33Z</time>
      </trkpt>
      <trkpt lat="41.3693970" lon="2.1563030">
        <ele>60.5</ele>
        <time>2020-11-15T12:54:34Z</time>
      </trkpt>
      <trkpt lat="41.3694030" lon="2.1562920">
        <ele>60.6</ele>
        <time>2020-11-15T12:54:36Z</time>
      </trkpt>
      <trkpt lat="41.3694090" lon="2.1562820">
        <ele>60.6</ele>
        <time>2020-11-15T12:54:37Z</time>
      </trkpt>
      <trkpt lat="41.3694200" lon="2.1562620">
        <ele>60.7</ele>
        <time>2020-11-15T12:54:39Z</time>
      </trkpt>
      <trkpt lat="41.3694330" lon="2.1562350">
        <ele>60.8</ele>
        <time>2020-11-15T12:54:40Z</time>
      </trkpt>
      <trkpt lat="41.3694370" lon="2.1562270">
        <ele>60.8</ele>
        <time>2020-11-15T12:54:41Z</time>
      </trkpt>
      <trkpt lat="41.3694410" lon="2.1562200">
        <ele>60.9</ele>
        <time>2020-11-15T12:54:42Z</time>
      </trkpt>
      <trkpt lat="41.3694490" lon="2.1562060">
        <ele>60.9</ele>
        <time>2020-11-15T12:54:43Z</time>
      </trkpt>
      <trkpt lat="41.3694570" lon="2.1561870">
        <ele>61.0</ele>
        <time>2020-11-15T12:54:44Z</time>
      </trkpt>
      <trkpt lat="41.3694610" lon="2.1561740">
        <ele>61.1</ele>
        <time>2020-11-15T12:54:46Z</time>
      </trkpt>
      <trkpt lat="41.3694640" lon="2.1561610">
        <ele>61.1</ele>
        <time>2020-11-15T12:54:47Z</time>
      </trkpt>
      <trkpt lat="41.3694670" lon="2.1561430">
        <ele>61.2</ele>
        <time>2020-11-15T12:54:48Z</time>
      </trkpt>
      <trkpt lat="41.3694720" lon="2.1561170">
        <ele>61.4</ele>
        <time>2020-11-15T12:54:49Z</time>
      </trkpt>
      <trkpt lat="41.3694730" lon="2.1561040">
        <ele>61.4</ele>
        <time>2020-11-15T12:54:50Z</time>
      </trkpt>
      <trkpt lat="41.3694760" lon="2.1560860">
        <ele>61.5</ele>
        <time>2020-11-15T12:54:52Z</time>
      </trkpt>
      <trkpt lat="41.3694830" lon="2.1560620">
        <ele>61.7</ele>
        <time>2020-11-15T12:54:53Z</time>
      </trkpt>
      <trkpt lat="41.3694920" lon="2.1560360">
        <ele>61.8</ele>
        <time>2020-11-15T12:54:55Z</time>
      </trkpt>
      <trkpt lat="41.3694970" lon="2.1560200">
        <ele>61.9</ele>
        <time>2020-11-15T12:54:56Z</time>
      </trkpt>
      <trkpt lat="41.3695070" lon="2.1559960">
        <ele>62.1</ele>
        <time>2020-11-15T12:54:57Z</time>
      </trkpt>
      <trkpt lat="41.3695130" lon="2.1559800">
        <ele>62.2</ele>
        <time>2020-11-15T12:54:59Z</time>
      </trkpt>
      <trkpt lat="41.3695200" lon="2.1559580">
        <ele>62.4</ele>
        <time>2020-11-15T12:55:00Z</time>
      </trkpt>
      <trkpt lat="41.3695250" lon="2.1559340">
        <ele>62.6</ele>
        <time>2020-11-15T12:55:02Z</time>
      </trkpt>
      <trkpt lat="41.3695270" lon="2.1559190">
        <ele>62.7</ele>
        <time>2020-11-15T12:55:03Z</time>
      </trkpt>
      <trkpt lat="41.3695330" lon="2.1558890">
        <ele>62.9</ele>
        <time>2020-11-15T12:55:04Z</time>
      </trkpt>
      <trkpt lat="41.3695340" lon="2.1558800">
        <ele>62.9</ele>
        <time>2020-11-15T12:55:06Z</time>
      </trkpt>
      <trkpt lat="41.3695360" lon="2.1558660">
        <ele>63.0</ele>
        <time>2020-11-15T12:55:07Z</time>
      </trkpt>
      <trkpt lat="41.3695370" lon="2.1558560">
        <ele>63.1</ele>
        <time>2020-11-15T12:55:08Z</time>
      </trkpt>
      <trkpt lat="41.3695380" lon="2.1558450">
        <ele>63.2</ele>
        <time>2020-11-15T12:55:09Z</time>
      </trkpt>
      <trkpt lat="41.3695420" lon="2.1558190">
        <ele>63.3</ele>
        <time>2020-11-15T12:55:10Z</time>
      </trkpt>
      <trkpt lat="41.3695450" lon="2.1558030">
        <ele>63.4</ele>
        <time>2020-11-15T12:55:12Z</time>
      </trkpt>
      <trkpt lat="41.3695490" lon="2.1557880">
        <ele>63.5</ele>
        <time>2020-11-15T12:55:13Z</time>
      </trkpt>
      <trkpt lat="41.3695540" lon="2.1557610">
        <ele>63.7</ele>
        <time>2020-11-15T12:55:14Z</time>
      </trkpt>
      <trkpt lat="41.3695610" lon="2.1557390">
        <ele>63.8</ele>
        <time>2020-11-15T12:55:15Z</time>
      </trkpt>
      <trkpt lat="41.3695640" lon="2.1557270">
        <ele>63.9</ele>
        <time>2020-11-15T12:55:17Z</time>
      </trkpt>
      <trkpt lat="41.3695670" lon="2.1557160">
        <ele>64.0</ele>
        <time>2020-11-15T12:55:18Z</time>
      </trkpt>
      <trkpt lat="41.3695710" lon="2.1556870">
        <ele>64.1</ele>
        <time>2020-11-15T12:55:19Z</time>
      </trkpt>
      <trkpt lat="41.3695730" lon="2.1556770">
        <ele>64.2</ele>
        <time>2020-11-15T12:55:21Z</time>
      </trkpt>
      <trkpt lat="41.3695760" lon="2.1556620">
        <ele>64.2</ele>
        <time>2020-11-15T12:55:22Z</time>
      </trkpt>
      <trkpt lat="41.3695790" lon="2.1556490">
        <ele>64.3</ele>
        <time>2020-11-15T12:55:23Z</time>
      </trkpt>
      <trkpt lat="41.3695870" lon="2.1556070">
        <ele>64.5</ele>
        <time>2020-11-15T12:55:25Z</time>
      </trkpt>
      <trkpt lat="41.3695940" lon="2.1555820">
        <ele>64.6</ele>
        <time>2020-11-15T12:55:26Z</time>
      </trkpt>
      <trkpt lat="41.3695960" lon="2.1555700">
        <ele>64.6</ele>
        <time>2020-11-15T12:55:27Z</time>
      </trkpt>
      <trkpt lat="41.3695990" lon="2.1555580">
        <ele>64.7</ele>
        <time>2020-11-15T12:55:28Z</time>
      </trkpt>
      <trkpt lat="41.3696090" lon="2.1555120">
        <ele>64.8</ele>
        <time>2020-11-15T12:55:29Z</time>
      </trkpt>
      <trkpt lat="41.3696130" lon="2.1554960">
        <ele>64.9</ele>
        <time>2020-11-15T12:55:31Z</time>
      </trkpt>
      <trkpt lat="41.3696170" lon="2.1554810">
        <ele>64.9</ele>
        <time>2020-11-15T12:55:33Z</time>
      </trkpt>
      <trkpt lat="41.3696210" lon="2.1554650">
        <ele>65.0</ele>
        <time>2020-11-15T12:55:34Z</time>
      </trkpt>
      <trkpt lat="41.3696280" lon="2.1554390">
        <ele>65.0</ele>
        <time>2020-11-15T12:55:35Z</time>
      </trkpt>
      <trkpt lat="41.3696330" lon="2.1554250">
        <ele>65.1</ele>
        <time>2020-11-15T12:55:36Z</time>
      </trkpt>
      <trkpt lat="41.3696390" lon="2.1554020">
        <ele>65.1</ele>
        <time>2020-11-15T12:55:38Z</time>
      </trkpt>
      <trkpt lat="41.3696420" lon="2.1553850">
        <ele>65.1</ele>
        <time>2020-11-15T12:55:39Z</time>
      </trkpt>
      <trkpt lat="41.3696480" lon="2.1553590">
        <ele>65.2</ele>
        <time>2020-11-15T12:55:40Z</time>
      </trkpt>
      <trkpt lat="41.3696490" lon="2.1553480">
        <ele>65.2</ele>
        <time>2020-11-15T12:55:41Z</time>
      </trkpt>
      <trkpt lat="41.3696510" lon="2.1553330">
        <ele>65.2</ele>
        <time>2020-11-15T12:55:42Z</time>
      </trkpt>
      <trkpt lat="41.3696520" lon="2.1553090">
        <ele>65.2</ele>
        <time>2020-11-15T12:55:43Z</time>
      </trkpt>
      <trkpt lat="41.3696540" lon="2.1552810">
        <ele>65.3</ele>
        <time>2020-11-15T12:55:45Z</time>
      </trkpt>
      <trkpt lat="41.3696520" lon="2.1552680">
        <ele>65.3</ele>
        <time>2020-11-15T12:55:46Z</time>
      </trkpt>
      <trkpt lat="41.3696500" lon="2.1552400">
        <ele>65.3</ele>
        <time>2020-11-15T12:55:48Z</time>
      </trkpt>
      <trkpt lat="41.3696490" lon="2.1552230">
        <ele>65.3</ele>
        <time>2020-11-15T12:55:49Z</time>
      </trkpt>
      <trkpt lat="41.3696480" lon="2.1551940">
        <ele>65.3</ele>
        <time>2020-11-15T12:55:50Z</time>
      </trkpt>
      <trkpt lat="41.3696420" lon="2.1551720">
        <ele>65.3</ele>
        <time>2020-11-15T12:55:52Z</time>
      </trkpt>
      <trkpt lat="41.3696380" lon="2.1551540">
        <ele>65.3</ele>
        <time>2020-11-15T12:55:53Z</time>
      </trkpt>
      <trkpt lat="41.3696330" lon="2.1551200">
        <ele>65.4</ele>
        <time>2020-11-15T12:55:55Z</time>
      </trkpt>
      <trkpt lat="41.3696330" lon="2.1551090">
        <ele>65.4</ele>
        <time>2020-11-15T12:55:56Z</time>
      </trkpt>
      <trkpt lat="41.3696320" lon="2.1550830">
        <ele>65.4</ele>
        <time>2020-11-15T12:55:58Z</time>
      </trkpt>
      <trkpt lat="41.3696310" lon="2.1550420">
        <ele>65.4</ele>
        <time>2020-11-15T12:56:00Z</time>
      </trkpt>
      <trkpt lat="41.3696350" lon="2.1550300">
        <ele>65.4</ele>
        <time>2020-11-15T12:56:01Z</time>
      </trkpt>
      <trkpt lat="41.3696400" lon="2.1550150">
        <ele>65.4</ele>
        <time>2020-11-15T12:56:02Z</time>
      </trkpt>
      <trkpt lat="41.3696460" lon="2.1549990">
        <ele>65.4</ele>
        <time>2020-11-15T12:56:03Z</time>
      </trkpt>
      <trkpt lat="41.3696540" lon="2.1549710">
        <ele>65.4</ele>
        <time>2020-11-15T12:56:05Z</time>
      </trkpt>
      <trkpt lat="41.3696600" lon="2.1549630">
        <ele>65.4</ele>
        <time>2020-11-15T12:56:06Z</time>
      </trkpt>
      <trkpt lat="41.3696740" lon="2.1549440">
        <ele>65.4</ele>
        <time>2020-11-15T12:56:07Z</time>
      </trkpt>
      <trkpt lat="41.3696820" lon="2.1549330">
        <ele>65.4</ele>
        <time>2020-11-15T12:56:08Z</time>
      </trkpt>
      <trkpt lat="41.3696900" lon="2.1549230">
        <ele>65.4</ele>
        <time>2020-11-15T12:56:09Z</time>
      </trkpt>
      <trkpt lat="41.3696980" lon="2.1549140">
        <ele>65.4</ele>
        <time>2020-11-15T12:56:11Z</time>
      </trkpt>
      <trkpt lat="41.3697080" lon="2.1549050">
        <ele>65.4</ele>
        <time>2020-11-15T12:56:12Z</time>
      </trkpt>
      <trkpt lat="41.3697180" lon="2.1548960">
        <ele>65.4</ele>
        <time>2020-11-15T12:56:13Z</time>
      </trkpt>
      <trkpt lat="41.3697350" lon="2.1548820">
        <ele>65.4</ele>
        <time>2020-11-15T12:56:14Z</time>
      </trkpt>
      <trkpt lat="41.3697430" lon="2.1548770">
        <ele>65.4</ele>
        <time>2020-11-15T12:56:15Z</time>
      </trkpt>
      <trkpt lat="41.3697500" lon="2.1548710">
        <ele>65.4</ele>
        <time>2020-11-15T12:56:16Z</time>
      </trkpt>
      <trkpt lat="41.3697590" lon="2.1548630">
        <ele>65.4</ele>
        <time>2020-11-15T12:56:18Z</time>
      </trkpt>
      <trkpt lat="41.3697680" lon="2.1548530">
        <ele>65.4</ele>
        <time>2020-11-15T12:56:19Z</time>
      </trkpt>
      <trkpt lat="41.3697850" lon="2.1548260">
        <ele>65.4</ele>
        <time>2020-11-15T12:56:21Z</time>
      </trkpt>
      <trkpt lat="41.3697880" lon="2.1548120">
        <ele>65.4</ele>
        <time>2020-11-15T12:56:22Z</time>
      </trkpt>
      <trkpt lat="41.3697910" lon="2.1547970">
        <ele>65.4</ele>
        <time>2020-11-15T12:56:23Z</time>
      </trkpt>
      <trkpt lat="41.3697960" lon="2.1547670">
        <ele>65.3</ele>
        <time>2020-11-15T12:56:25Z</time>
      </trkpt>
      <trkpt lat="41.3697910" lon="2.1547420">
        <ele>65.3</ele>
        <time>2020-11-15T12:56:27Z</time>
      </trkpt>
      <trkpt lat="41.3697880" lon="2.1547260">
        <ele>65.3</ele>
        <time>2020-11-15T12:56:28Z</time>
      </trkpt>
      <trkpt lat="41.3697770" lon="2.1546850">
        <ele>65.3</ele>
        <time>2020-11-15T12:56:30Z</time>
      </trkpt>
      <trkpt lat="41.3697710" lon="2.1546730">
        <ele>65.3</ele>
        <time>2020-11-15T12:56:31Z</time>
      </trkpt>
      <trkpt lat="41.3697660" lon="2.1546580">
        <ele>65.2</ele>
        <time>2020-11-15T12:56:32Z</time>
      </trkpt>
      <trkpt lat="41.3697600" lon="2.1546430">
        <ele>65.2</ele>
        <time>2020-11-15T12:56:33Z</time>
      </trkpt>
      <trkpt lat="41.3697500" lon="2.1546130">
        <ele>65.1</ele>
        <time>2020-11-15T12:56:35Z</time>
      </trkpt>
      <trkpt lat="41.3697460" lon="2.1546040">
        <ele>65.1</ele>
        <time>2020-11-15T12:56:36Z</time>
      </trkpt>
      <trkpt lat="41.3697400" lon="2.1545820">
        <ele>65.0</ele>
        <time>2020-11-15T12:56:37Z</time>
      </trkpt>
      <trkpt lat="41.3697380" lon="2.1545670">
        <ele>65.0</ele>
        <time>2020-11-15T12:56:39Z</time>
      </trkpt>
      <trkpt lat="41.3697360" lon="2.1545410">
        <ele>64.9</ele>
        <time>2020-11-15T12:56:40Z</time>
      </trkpt>
      <trkpt lat="41.3697370" lon="2.1545310">
        <ele>64.8</ele>
        <time>2020-11-15T12:56:41Z</time>
      </trkpt>
      <trkpt lat="41.3697390" lon="2.1545100">
        <ele>64.8</ele>
        <time>2020-11-15T12:56:42Z</time>
      </trkpt>
      <trkpt lat="41.3697410" lon="2.1544920">
        <ele>64.7</ele>
        <time>2020-11-15T12:56:44Z</time>
      </trkpt>
      <trkpt lat="41.3697440" lon="2.1544670">
        <ele>64.6</ele>
        <time>2020-11-15T12:56:45Z</time>
      </trkpt>
      <trkpt lat="41.3697450" lon="2.1544550">
        <ele>64.6</ele>
        <time>2020-11-15T12:56:46Z</time>
      </trkpt>
      <trkpt lat="41.3697490" lon="2.1544340">
        <ele>64.5</ele>
        <time>2020-11-15T12:56:47Z</time>
      </trkpt>
      <trkpt lat="41.3697530" lon="2.1544150">
        <ele>64.5</ele>
        <time>2020-11-15T12:56:48Z</time>
      </trkpt>
      <trkpt lat="41.3697640" lon="2.1543800">
        <ele>64.4</ele>
        <time>2020-11-15T12:56:49Z</time>
      </trkpt>
      <trkpt lat="41.3697680" lon="2.1543650">
        <ele>64.3</ele>
        <time>2020-11-15T12:56:50Z</time>
      </trkpt>
      <trkpt lat="41.3697730" lon="2.1543550">
        <ele>64.3</ele>
        <time>2020-11-15T12:56:52Z</time>
      </trkpt>
      <trkpt lat="41.3697790" lon="2.1543420">
        <ele>64.2</ele>
        <time>2020-11-15T12:56:53Z</time>
      </trkpt>
      <trkpt lat="41.3697860" lon="2.1543300">
        <ele>64.2</ele>
        <time>2020-11-15T12:56:54Z</time>
      </trkpt>
      <trkpt lat="41.3697970" lon="2.1543140">
        <ele>64.1</ele>
        <time>2020-11-15T12:56:55Z</time>
      </trkpt>
      <trkpt lat="41.3698060" lon="2.1543010">
        <ele>64.0</ele>
        <time>2020-11-15T12:56:56Z</time>
      </trkpt>
      <trkpt lat="41.3698150" lon="2.1542880">
        <ele>64.0</ele>
        <time>2020-11-15T12:56:57Z</time>
      </trkpt>
      <trkpt lat="41.3698330" lon="2.1542640">
        <ele>63.9</ele>
        <time>2020-11-15T12:56:59Z</time>
      </trkpt>
      <trkpt lat="41.3698480" lon="2.1542420">
        <ele>63.8</ele>
        <time>2020-11-15T12:57:01Z</time>
      </trkpt>
      <trkpt lat="41.3698570" lon="2.1542330">
        <ele>63.8</ele>
        <time>2020-11-15T12:57:02Z</time>
      </trkpt>
      <trkpt lat="41.3698740" lon="2.1542130">
        <ele>63.7</ele>
        <time>2020-11-15T12:57:03Z</time>
      </trkpt>
      <trkpt lat="41.3698830" lon="2.1542030">
        <ele>63.6</ele>
        <time>2020-11-15T12:57:04Z</time>
      </trkpt>
      <trkpt lat="41.3698910" lon="2.1541930">
        <ele>63.6</ele>
        <time>2020-11-15T12:57:05Z</time>
      </trkpt>
      <trkpt lat="41.3699010" lon="2.1541770">
        <ele>63.6</ele>
        <time>2020-11-15T12:57:07Z</time>
      </trkpt>
      <trkpt lat="41.3699090" lon="2.1541620">
        <ele>63.5</ele>
        <time>2020-11-15T12:57:08Z</time>
      </trkpt>
      <trkpt lat="41.3699170" lon="2.1541450">
        <ele>63.5</ele>
        <time>2020-11-15T12:57:09Z</time>
      </trkpt>
      <trkpt lat="41.3699250" lon="2.1541220">
        <ele>63.4</ele>
        <time>2020-11-15T12:57:10Z</time>
      </trkpt>
      <trkpt lat="41.3699300" lon="2.1540940">
        <ele>63.3</ele>
        <time>2020-11-15T12:57:11Z</time>
      </trkpt>
      <trkpt lat="41.3699310" lon="2.1540820">
        <ele>63.3</ele>
        <time>2020-11-15T12:57:13Z</time>
      </trkpt>
      <trkpt lat="41.3699330" lon="2.1540700">
        <ele>63.3</ele>
        <time>2020-11-15T12:57:14Z</time>
      </trkpt>
      <trkpt lat="41.3699330" lon="2.1540360">
        <ele>63.2</ele>
        <time>2020-11-15T12:57:15Z</time>
      </trkpt>
      <trkpt lat="41.3699320" lon="2.1540200">
        <ele>63.2</ele>
        <time>2020-11-15T12:57:16Z</time>
      </trkpt>
      <trkpt lat="41.3699240" lon="2.1539950">
        <ele>63.2</ele>
        <time>2020-11-15T12:57:17Z</time>
      </trkpt>
      <trkpt lat="41.3699200" lon="2.1539830">
        <ele>63.2</ele>
        <time>2020-11-15T12:57:19Z</time>
      </trkpt>
      <trkpt lat="41.3699160" lon="2.1539720">
        <ele>63.3</ele>
        <time>2020-11-15T12:57:20Z</time>
      </trkpt>
      <trkpt lat="41.3699070" lon="2.1539500">
        <ele>63.3</ele>
        <time>2020-11-15T12:57:21Z</time>
      </trkpt>
      <trkpt lat="41.3699020" lon="2.1539400">
        <ele>63.3</ele>
        <time>2020-11-15T12:57:22Z</time>
      </trkpt>
      <trkpt lat="41.3698940" lon="2.1539210">
        <ele>63.4</ele>
        <time>2020-11-15T12:57:23Z</time>
      </trkpt>
      <trkpt lat="41.3698880" lon="2.1539020">
        <ele>63.4</ele>
        <time>2020-11-15T12:57:24Z</time>
      </trkpt>
      <trkpt lat="41.3698810" lon="2.1538810">
        <ele>63.5</ele>
        <time>2020-11-15T12:57:25Z</time>
      </trkpt>
      <trkpt lat="41.3698780" lon="2.1538660">
        <ele>63.5</ele>
        <time>2020-11-15T12:57:27Z</time>
      </trkpt>
      <trkpt lat="41.3698750" lon="2.1538530">
        <ele>63.5</ele>
        <time>2020-11-15T12:57:28Z</time>
      </trkpt>
      <trkpt lat="41.3698690" lon="2.1538310">
        <ele>63.5</ele>
        <time>2020-11-15T12:57:29Z</time>
      </trkpt>
      <trkpt lat="41.3698560" lon="2.1537940">
        <ele>63.5</ele>
        <time>2020-11-15T12:57:30Z</time>
      </trkpt>
      <trkpt lat="41.3698510" lon="2.1537830">
        <ele>63.6</ele>
        <time>2020-11-15T12:57:32Z</time>
      </trkpt>
      <trkpt lat="41.3698470" lon="2.1537710">
        <ele>63.6</ele>
        <time>2020-11-15T12:57:33Z</time>
      </trkpt>
      <trkpt lat="41.3698420" lon="2.1537600">
        <ele>63.6</ele>
        <time>2020-11-15T12:57:35Z</time>
      </trkpt>
      <trkpt lat="41.3698380" lon="2.1537480">
        <ele>63.6</ele>
        <time>2020-11-15T12:57:36Z</time>
      </trkpt>
      <trkpt lat="41.3698310" lon="2.1537330">
        <ele>63.6</ele>
        <time>2020-11-15T12:57:37Z</time>
      </trkpt>
      <trkpt lat="41.3698240" lon="2.1537190">
        <ele>63.6</ele>
        <time>2020-11-15T12:57:39Z</time>
      </trkpt>
      <trkpt lat="41.3698130" lon="2.1536900">
        <ele>63.7</ele>
        <time>2020-11-15T12:57:41Z</time>
      </trkpt>
      <trkpt lat="41.3698070" lon="2.1536730">
        <ele>63.7</ele>
        <time>2020-11-15T12:57:42Z</time>
      </trkpt>
      <trkpt lat="41.3698020" lon="2.1536570">
        <ele>63.7</ele>
        <time>2020-11-15T12:57:43Z</time>
      </trkpt>
      <trkpt lat="41.3697980" lon="2.1536410">
        <ele>63.7</ele>
        <time>2020-11-15T12:57:44Z</time>
      </trkpt>
      <trkpt lat="41.3697920" lon="2.1536230">
        <ele>63.7</ele>
        <time>2020-11-15T12:57:46Z</time>
      </trkpt>
      <trkpt lat="41.3697900" lon="2.1536140">
        <ele>63.7</ele>
        <time>2020-11-15T12:57:47Z</time>
      </trkpt>
      <trkpt lat="41.3697830" lon="2.1535930">
        <ele>63.8</ele>
        <time>2020-11-15T12:57:49Z</time>
      </trkpt>
      <trkpt lat="41.3697790" lon="2.1535820">
        <ele>63.8</ele>
        <time>2020-11-15T12:57:50Z</time>
      </trkpt>
      <trkpt lat="41.3697720" lon="2.1535640">
        <ele>63.8</ele>
        <time>2020-11-15T12:57:51Z</time>
      </trkpt>
      <trkpt lat="41.3697650" lon="2.1535510">
        <ele>63.8</ele>
        <time>2020-11-15T12:57:52Z</time>
      </trkpt>
      <trkpt lat="41.3697540" lon="2.1535270">
        <ele>63.8</ele>
        <time>2020-11-15T12:57:53Z</time>
      </trkpt>
      <trkpt lat="41.3697500" lon="2.1535180">
        <ele>63.8</ele>
        <time>2020-11-15T12:57:55Z</time>
      </trkpt>
      <trkpt lat="41.3697460" lon="2.1535090">
        <ele>63.8</ele>
        <time>2020-11-15T12:57:56Z</time>
      </trkpt>
      <trkpt lat="41.3697380" lon="2.1534870">
        <ele>63.9</ele>
        <time>2020-11-15T12:57:57Z</time>
      </trkpt>
      <trkpt lat="41.3697340" lon="2.1534730">
        <ele>63.9</ele>
        <time>2020-11-15T12:57:59Z</time>
      </trkpt>
      <trkpt lat="41.3697290" lon="2.1534580">
        <ele>63.9</ele>
        <time>2020-11-15T12:58:00Z</time>
      </trkpt>
      <trkpt lat="41.3697240" lon="2.1534390">
        <ele>63.9</ele>
        <time>2020-11-15T12:58:01Z</time>
      </trkpt>
      <trkpt lat="41.3697220" lon="2.1534270">
        <ele>63.9</ele>
        <time>2020-11-15T12:58:02Z</time>
      </trkpt>
      <trkpt lat="41.3697190" lon="2.1534130">
        <ele>63.9</ele>
        <time>2020-11-15T12:58:03Z</time>
      </trkpt>
      <trkpt lat="41.3697140" lon="2.1533980">
        <ele>63.9</ele>
        <time>2020-11-15T12:58:04Z</time>
      </trkpt>
      <trkpt lat="41.3697080" lon="2.1533790">
        <ele>63.9</ele>
        <time>2020-11-15T12:58:06Z</time>
      </trkpt>
      <trkpt lat="41.3697030" lon="2.1533590">
        <ele>64.0</ele>
        <time>2020-11-15T12:58:07Z</time>
      </trkpt>
      <trkpt lat="41.3697000" lon="2.1533280">
        <ele>64.0</ele>
        <time>2020-11-15T12:58:09Z</time>
      </trkpt>
      <trkpt lat="41.3697000" lon="2.1533130">
        <ele>64.0</ele>
        <time>2020-11-15T12:58:10Z</time>
      </trkpt>
      <trkpt lat="41.3697000" lon="2.1532990">
        <ele>64.0</ele>
        <time>2020-11-15T12:58:11Z</time>
      </trkpt>
      <trkpt lat="41.3697010" lon="2.1532840">
        <ele>64.0</ele>
        <time>2020-11-15T12:58:13Z</time>
      </trkpt>
      <trkpt lat="41.3697070" lon="2.1532500">
        <ele>64.0</ele>
        <time>2020-11-15T12:58:15Z</time>
      </trkpt>
      <trkpt lat="41.3697170" lon="2.1532250">
        <ele>64.0</ele>
        <time>2020-11-15T12:58:16Z</time>
      </trkpt>
      <trkpt lat="41.3697270" lon="2.1532220">
        <ele>64.1</ele>
        <time>2020-11-15T12:58:17Z</time>
      </trkpt>
      <trkpt lat="41.3697360" lon="2.1532120">
        <ele>64.1</ele>
        <time>2020-11-15T12:58:18Z</time>
      </trkpt>
      <trkpt lat="41.3697470" lon="2.1532010">
        <ele>64.1</ele>
        <time>2020-11-15T12:58:19Z</time>
      </trkpt>
      <trkpt lat="41.3697650" lon="2.1531850">
        <ele>64.1</ele>
        <time>2020-11-15T12:58:21Z</time>
      </trkpt>
      <trkpt lat="41.3697710" lon="2.1531800">
        <ele>64.1</ele>
        <time>2020-11-15T12:58:22Z</time>
      </trkpt>
      <trkpt lat="41.3697800" lon="2.1531670">
        <ele>64.1</ele>
        <time>2020-11-15T12:58:23Z</time>
      </trkpt>
      <trkpt lat="41.3697910" lon="2.1531510">
        <ele>64.2</ele>
        <time>2020-11-15T12:58:25Z</time>
      </trkpt>
      <trkpt lat="41.3698020" lon="2.1531360">
        <ele>64.2</ele>
        <time>2020-11-15T12:58:26Z</time>
      </trkpt>
      <trkpt lat="41.3698070" lon="2.1531190">
        <ele>64.2</ele>
        <time>2020-11-15T12:58:27Z</time>
      </trkpt>
      <trkpt lat="41.3698160" lon="2.1530900">
        <ele>62.7</ele>
        <time>2020-11-15T12:58:29Z</time>
      </trkpt>
      <trkpt lat="41.3698210" lon="2.1530770">
        <ele>62.5</ele>
        <time>2020-11-15T12:58:30Z</time>
      </trkpt>
      <trkpt lat="41.3698250" lon="2.1530650">
        <ele>62.3</ele>
        <time>2020-11-15T12:58:31Z</time>
      </trkpt>
      <trkpt lat="41.3698280" lon="2.1530500">
        <ele>62.0</ele>
        <time>2020-11-15T12:58:33Z</time>
      </trkpt>
      <trkpt lat="41.3698340" lon="2.1530290">
        <ele>61.6</ele>
        <time>2020-11-15T12:58:34Z</time>
      </trkpt>
      <trkpt lat="41.3698450" lon="2.1530120">
        <ele>61.3</ele>
        <time>2020-11-15T12:58:36Z</time>
      </trkpt>
      <trkpt lat="41.3698500" lon="2.1530050">
        <ele>61.1</ele>
        <time>2020-11-15T12:58:37Z</time>
      </trkpt>
      <trkpt lat="41.3698580" lon="2.1529990">
        <ele>60.8</ele>
        <time>2020-11-15T12:58:39Z</time>
      </trkpt>
      <trkpt lat="41.3698690" lon="2.1529910">
        <ele>60.5</ele>
        <time>2020-11-15T12:58:40Z</time>
      </trkpt>
      <trkpt lat="41.3698800" lon="2.1529800">
        <ele>60.2</ele>
        <time>2020-11-15T12:58:41Z</time>
      </trkpt>
      <trkpt lat="41.3698880" lon="2.1529730">
        <ele>59.9</ele>
        <time>2020-11-15T12:58:43Z</time>
      </trkpt>
      <trkpt lat="41.3698970" lon="2.1529650">
        <ele>59.6</ele>
        <time>2020-11-15T12:58:44Z</time>
      </trkpt>
      <trkpt lat="41.3699120" lon="2.1529510">
        <ele>59.2</ele>
        <time>2020-11-15T12:58:46Z</time>
      </trkpt>
      <trkpt lat="41.3699140" lon="2.1529470">
        <ele>59.1</ele>
        <time>2020-11-15T12:58:47Z</time>
      </trkpt>
      <trkpt lat="41.3699210" lon="2.1529370">
        <ele>58.8</ele>
        <time>2020-11-15T12:58:48Z</time>
      </trkpt>
      <trkpt lat="41.3699360" lon="2.1529120">
        <ele>58.2</ele>
        <time>2020-11-15T12:58:50Z</time>
      </trkpt>
      <trkpt lat="41.3699500" lon="2.1528910">
        <ele>57.7</ele>
        <time>2020-11-15T12:58:51Z</time>
      </trkpt>
      <trkpt lat="41.3699840" lon="2.1528600">
        <ele>56.6</ele>
        <time>2020-11-15T12:58:53Z</time>
      </trkpt>
      <trkpt lat="41.3700010" lon="2.1528280">
        <ele>55.9</ele>
        <time>2020-11-15T12:58:54Z</time>
      </trkpt>
      <trkpt lat="41.3700070" lon="2.1528130">
        <ele>55.6</ele>
        <time>2020-11-15T12:58:55Z</time>
      </trkpt>
      <trkpt lat="41.3700180" lon="2.1527950">
        <ele>55.1</ele>
        <time>2020-11-15T12:58:57Z</time>
      </trkpt>
      <trkpt lat="41.3700230" lon="2.1527860">
        <ele>54.9</ele>
        <time>2020-11-15T12:58:58Z</time>
      </trkpt>
      <trkpt lat="41.3700230" lon="2.1527740">
        <ele>54.7</ele>
        <time>2020-11-15T12:58:59Z</time>
      </trkpt>
      <trkpt lat="41.3700290" lon="2.1527640">
        <ele>54.5</ele>
        <time>2020-11-15T12:59:01Z</time>
      </trkpt>
      <trkpt lat="41.3700380" lon="2.1527530">
        <ele>54.4</ele>
        <time>2020-11-15T12:59:02Z</time>
      </trkpt>
      <trkpt lat="41.3700600" lon="2.1527350">
        <ele>54.2</ele>
        <time>2020-11-15T12:59:04Z</time>
      </trkpt>
      <trkpt lat="41.3700640" lon="2.1527300">
        <ele>54.2</ele>
        <time>2020-11-15T12:59:05Z</time>
      </trkpt>
      <trkpt lat="41.3700620" lon="2.1527260">
        <ele>54.2</ele>
        <time>2020-11-15T12:59:06Z</time>
      </trkpt>
      <trkpt lat="41.3700680" lon="2.1527170">
        <ele>54.1</ele>
        <time>2020-11-15T12:59:07Z</time>
      </trkpt>
      <trkpt lat="41.3700720" lon="2.1527140">
        <ele>54.1</ele>
        <time>2020-11-15T12:59:09Z</time>
      </trkpt>
      <trkpt lat="41.3700760" lon="2.1527100">
        <ele>54.0</ele>
        <time>2020-11-15T12:59:10Z</time>
      </trkpt>
      <trkpt lat="41.3700820" lon="2.1527000">
        <ele>54.0</ele>
        <time>2020-11-15T12:59:12Z</time>
      </trkpt>
      <trkpt lat="41.3700830" lon="2.1526970">
        <ele>54.0</ele>
        <time>2020-11-15T12:59:13Z</time>
      </trkpt>
      <trkpt lat="41.3700870" lon="2.1526930">
        <ele>53.9</ele>
        <time>2020-11-15T12:59:14Z</time>
      </trkpt>
      <trkpt lat="41.3700930" lon="2.1526840">
        <ele>53.9</ele>
        <time>2020-11-15T12:59:16Z</time>
      </trkpt>
      <trkpt lat="41.3701000" lon="2.1526730">
        <ele>53.8</ele>
        <time>2020-11-15T12:59:17Z</time>
      </trkpt>
      <trkpt lat="41.3701100" lon="2.1526650">
        <ele>53.7</ele>
        <time>2020-11-15T12:59:18Z</time>
      </trkpt>
      <trkpt lat="41.3701170" lon="2.1526580">
        <ele>53.7</ele>
        <time>2020-11-15T12:59:19Z</time>
      </trkpt>
      <trkpt lat="41.3701240" lon="2.1526510">
        <ele>53.6</ele>
        <time>2020-11-15T12:59:20Z</time>
      </trkpt>
      <trkpt lat="41.3701310" lon="2.1526440">
        <ele>53.6</ele>
        <time>2020-11-15T12:59:22Z</time>
      </trkpt>
      <trkpt lat="41.3701380" lon="2.1526370">
        <ele>53.5</ele>
        <time>2020-11-15T12:59:23Z</time>
      </trkpt>
      <trkpt lat="41.3701450" lon="2.1526300">
        <ele>53.5</ele>
        <time>2020-11-15T12:59:25Z</time>
      </trkpt>
      <trkpt lat="41.3701520" lon="2.1526230">
        <ele>53.5</ele>
        <time>2020-11-15T12:59:26Z</time>
      </trkpt>
      <trkpt lat="41.3701590" lon="2.1526160">
        <ele>53.4</ele>
        <time>2020-11-15T12:59:27Z</time>
      </trkpt>
      <trkpt lat="41.3701860" lon="2.1526160">
        <ele>53.3</ele>
        <time>2020-11-15T12:59:28Z</time>
      </trkpt>
      <trkpt lat="41.3701940" lon="2.1526150">
        <ele>53.3</ele>
        <time>2020-11-15T12:59:30Z</time>
      </trkpt>
      <trkpt lat="41.3702030" lon="2.1526140">
        <ele>53.2</ele>
        <time>2020-11-15T12:59:31Z</time>
      </trkpt>
      <trkpt lat="41.3702120" lon="2.1526130">
        <ele>53.2</ele>
        <time>2020-11-15T12:59:32Z</time>
      </trkpt>
      <trkpt lat="41.3702200" lon="2.1526110">
        <ele>53.2</ele>
        <time>2020-11-15T12:59:33Z</time>
      </trkpt>
      <trkpt lat="41.3702290" lon="2.1526100">
        <ele>53.1</ele>
        <time>2020-11-15T12:59:35Z</time>
      </trkpt>
      <trkpt lat="41.3702380" lon="2.1526090">
        <ele>53.1</ele>
        <time>2020-11-15T12:59:36Z</time>
      </trkpt>
      <trkpt lat="41.3702460" lon="2.1526080">
        <ele>53.1</ele>
        <time>2020-11-15T12:59:38Z</time>
      </trkpt>
      <trkpt lat="41.3702550" lon="2.1526070">
        <ele>53.0</ele>
        <time>2020-11-15T12:59:39Z</time>
      </trkpt>
      <trkpt lat="41.3702660" lon="2.1525850">
        <ele>53.0</ele>
        <time>2020-11-15T12:59:40Z</time>
      </trkpt>
      <trkpt lat="41.3702700" lon="2.1525710">
        <ele>52.9</ele>
        <time>2020-11-15T12:59:41Z</time>
      </trkpt>
      <trkpt lat="41.3702750" lon="2.1525570">
        <ele>52.9</ele>
        <time>2020-11-15T12:59:44Z</time>
      </trkpt>
      <trkpt lat="41.3702790" lon="2.1525430">
        <ele>52.9</ele>
        <time>2020-11-15T12:59:45Z</time>
      </trkpt>
      <trkpt lat="41.3702830" lon="2.1525290">
        <ele>52.8</ele>
        <time>2020-11-15T12:59:46Z</time>
      </trkpt>
      <trkpt lat="41.3702870" lon="2.1525150">
        <ele>52.8</ele>
        <time>2020-11-15T12:59:47Z</time>
      </trkpt>
      <trkpt lat="41.3702880" lon="2.1525020">
        <ele>52.8</ele>
        <time>2020-11-15T12:59:49Z</time>
      </trkpt>
      <trkpt lat="41.3702880" lon="2.1524930">
        <ele>52.7</ele>
        <time>2020-11-15T12:59:50Z</time>
      </trkpt>
      <trkpt lat="41.3702840" lon="2.1524840">
        <ele>52.7</ele>
        <time>2020-11-15T12:59:51Z</time>
      </trkpt>
      <trkpt lat="41.3702860" lon="2.1524700">
        <ele>52.7</ele>
        <time>2020-11-15T12:59:52Z</time>
      </trkpt>
      <trkpt lat="41.3702900" lon="2.1524560">
        <ele>52.6</ele>
        <time>2020-11-15T12:59:54Z</time>
      </trkpt>
      <trkpt lat="41.3702940" lon="2.1524440">
        <ele>52.6</ele>
        <time>2020-11-15T12:59:56Z</time>
      </trkpt>
      <trkpt lat="41.3702970" lon="2.1524330">
        <ele>52.6</ele>
        <time>2020-11-15T12:59:58Z</time>
      </trkpt>
      <trkpt lat="41.3703000" lon="2.1524220">
        <ele>52.5</ele>
        <time>2020-11-15T12:59:59Z</time>
      </trkpt>
      <trkpt lat="41.3703030" lon="2.1524110">
        <ele>52.5</ele>
        <time>2020-11-15T13:00:01Z</time>
      </trkpt>
      <trkpt lat="41.3703070" lon="2.1523990">
        <ele>52.5</ele>
        <time>2020-11-15T13:00:02Z</time>
      </trkpt>
      <trkpt lat="41.3703100" lon="2.1523880">
        <ele>52.5</ele>
        <time>2020-11-15T13:00:03Z</time>
      </trkpt>
      <trkpt lat="41.3703130" lon="2.1523770">
        <ele>52.4</ele>
        <time>2020-11-15T13:00:04Z</time>
      </trkpt>
      <trkpt lat="41.3703170" lon="2.1523650">
        <ele>52.4</ele>
        <time>2020-11-15T13:00:06Z</time>
      </trkpt>
      <trkpt lat="41.3703260" lon="2.1523380">
        <ele>52.3</ele>
        <time>2020-11-15T13:00:08Z</time>
      </trkpt>
      <trkpt lat="41.3703300" lon="2.1523320">
        <ele>52.3</ele>
        <time>2020-11-15T13:00:09Z</time>
      </trkpt>
      <trkpt lat="41.3703360" lon="2.1523210">
        <ele>52.3</ele>
        <time>2020-11-15T13:00:11Z</time>
      </trkpt>
      <trkpt lat="41.3703390" lon="2.1523170">
        <ele>52.3</ele>
        <time>2020-11-15T13:00:12Z</time>
      </trkpt>
      <trkpt lat="41.3703490" lon="2.1523120">
        <ele>52.2</ele>
        <time>2020-11-15T13:00:13Z</time>
      </trkpt>
      <trkpt lat="41.3703530" lon="2.1523120">
        <ele>52.2</ele>
        <time>2020-11-15T13:00:14Z</time>
      </trkpt>
      <trkpt lat="41.3703580" lon="2.1523130">
        <ele>52.2</ele>
        <time>2020-11-15T13:00:16Z</time>
      </trkpt>
      <trkpt lat="41.3703660" lon="2.1523100">
        <ele>52.2</ele>
        <time>2020-11-15T13:00:18Z</time>
      </trkpt>
      <trkpt lat="41.3703730" lon="2.1523080">
        <ele>52.1</ele>
        <time>2020-11-15T13:00:19Z</time>
      </trkpt>
      <trkpt lat="41.3703780" lon="2.1523060">
        <ele>52.1</ele>
        <time>2020-11-15T13:00:21Z</time>
      </trkpt>
      <trkpt lat="41.3703840" lon="2.1522930">
        <ele>52.1</ele>
        <time>2020-11-15T13:00:23Z</time>
      </trkpt>
      <trkpt lat="41.3703870" lon="2.1522880">
        <ele>52.1</ele>
        <time>2020-11-15T13:00:24Z</time>
      </trkpt>
      <trkpt lat="41.3703920" lon="2.1522840">
        <ele>52.1</ele>
        <time>2020-11-15T13:00:25Z</time>
      </trkpt>
      <trkpt lat="41.3704000" lon="2.1522810">
        <ele>52.0</ele>
        <time>2020-11-15T13:00:27Z</time>
      </trkpt>
      <trkpt lat="41.3704210" lon="2.1522730">
        <ele>52.0</ele>
        <time>2020-11-15T13:00:29Z</time>
      </trkpt>
      <trkpt lat="41.3704290" lon="2.1522750">
        <ele>51.6</ele>
        <time>2020-11-15T13:00:30Z</time>
      </trkpt>
      <trkpt lat="41.3704390" lon="2.1522800">
        <ele>51.5</ele>
        <time>2020-11-15T13:00:32Z</time>
      </trkpt>
      <trkpt lat="41.3704560" lon="2.1522880">
        <ele>51.4</ele>
        <time>2020-11-15T13:00:33Z</time>
      </trkpt>
      <trkpt lat="41.3704630" lon="2.1522960">
        <ele>51.4</ele>
        <time>2020-11-15T13:00:35Z</time>
      </trkpt>
      <trkpt lat="41.3704700" lon="2.1523050">
        <ele>51.3</ele>
        <time>2020-11-15T13:00:36Z</time>
      </trkpt>
      <trkpt lat="41.3704810" lon="2.1523220">
        <ele>51.3</ele>
        <time>2020-11-15T13:00:37Z</time>
      </trkpt>
      <trkpt lat="41.3704940" lon="2.1523320">
        <ele>51.2</ele>
        <time>2020-11-15T13:00:39Z</time>
      </trkpt>
      <trkpt lat="41.3705010" lon="2.1523380">
        <ele>51.2</ele>
        <time>2020-11-15T13:00:40Z</time>
      </trkpt>
      <trkpt lat="41.3705170" lon="2.1523490">
        <ele>51.1</ele>
        <time>2020-11-15T13:00:42Z</time>
      </trkpt>
      <trkpt lat="41.3705360" lon="2.1523560">
        <ele>51.0</ele>
        <time>2020-11-15T13:00:44Z</time>
      </trkpt>
      <trkpt lat="41.3705420" lon="2.1523570">
        <ele>51.0</ele>
        <time>2020-11-15T13:00:45Z</time>
      </trkpt>
      <trkpt lat="41.3705530" lon="2.1523580">
        <ele>51.0</ele>
        <time>2020-11-15T13:00:47Z</time>
      </trkpt>
      <trkpt lat="41.3705690" lon="2.1523570">
        <ele>50.9</ele>
        <time>2020-11-15T13:00:48Z</time>
      </trkpt>
      <trkpt lat="41.3705780" lon="2.1523570">
        <ele>50.9</ele>
        <time>2020-11-15T13:00:49Z</time>
      </trkpt>
      <trkpt lat="41.3705900" lon="2.1523590">
        <ele>50.8</ele>
        <time>2020-11-15T13:00:51Z</time>
      </trkpt>
      <trkpt lat="41.3705980" lon="2.1523600">
        <ele>50.8</ele>
        <time>2020-11-15T13:00:52Z</time>
      </trkpt>
      <trkpt lat="41.3706160" lon="2.1523640">
        <ele>50.7</ele>
        <time>2020-11-15T13:00:53Z</time>
      </trkpt>
      <trkpt lat="41.3706260" lon="2.1523670">
        <ele>50.7</ele>
        <time>2020-11-15T13:00:55Z</time>
      </trkpt>
      <trkpt lat="41.3706470" lon="2.1523710">
        <ele>50.6</ele>
        <time>2020-11-15T13:00:56Z</time>
      </trkpt>
      <trkpt lat="41.3706570" lon="2.1523710">
        <ele>50.5</ele>
        <time>2020-11-15T13:00:57Z</time>
      </trkpt>
      <trkpt lat="41.3706670" lon="2.1523720">
        <ele>50.5</ele>
        <time>2020-11-15T13:00:58Z</time>
      </trkpt>
      <trkpt lat="41.3706870" lon="2.1523680">
        <ele>50.4</ele>
        <time>2020-11-15T13:00:59Z</time>
      </trkpt>
      <trkpt lat="41.3706970" lon="2.1523670">
        <ele>50.3</ele>
        <time>2020-11-15T13:01:01Z</time>
      </trkpt>
      <trkpt lat="41.3707080" lon="2.1523650">
        <ele>50.3</ele>
        <time>2020-11-15T13:01:02Z</time>
      </trkpt>
      <trkpt lat="41.3707340" lon="2.1523550">
        <ele>50.1</ele>
        <time>2020-11-15T13:01:05Z</time>
      </trkpt>
      <trkpt lat="41.3707440" lon="2.1523480">
        <ele>50.0</ele>
        <time>2020-11-15T13:01:06Z</time>
      </trkpt>
      <trkpt lat="41.3707610" lon="2.1523320">
        <ele>49.9</ele>
        <time>2020-11-15T13:01:08Z</time>
      </trkpt>
      <trkpt lat="41.3707780" lon="2.1523210">
        <ele>49.7</ele>
        <time>2020-11-15T13:01:09Z</time>
      </trkpt>
      <trkpt lat="41.3707830" lon="2.1523120">
        <ele>49.7</ele>
        <time>2020-11-15T13:01:10Z</time>
      </trkpt>
      <trkpt lat="41.3707940" lon="2.1522960">
        <ele>49.5</ele>
        <time>2020-11-15T13:01:12Z</time>
      </trkpt>
      <trkpt lat="41.3708130" lon="2.1522630">
        <ele>49.2</ele>
        <time>2020-11-15T13:01:13Z</time>
      </trkpt>
      <trkpt lat="41.3708190" lon="2.1522520">
        <ele>49.1</ele>
        <time>2020-11-15T13:01:15Z</time>
      </trkpt>
      <trkpt lat="41.3708260" lon="2.1522400">
        <ele>49.0</ele>
        <time>2020-11-15T13:01:16Z</time>
      </trkpt>
      <trkpt lat="41.3708320" lon="2.1522290">
        <ele>48.9</ele>
        <time>2020-11-15T13:01:17Z</time>
      </trkpt>
      <trkpt lat="41.3708380" lon="2.1522170">
        <ele>48.8</ele>
        <time>2020-11-15T13:01:18Z</time>
      </trkpt>
      <trkpt lat="41.3708410" lon="2.1522120">
        <ele>48.8</ele>
        <time>2020-11-15T13:01:20Z</time>
      </trkpt>
      <trkpt lat="41.3708470" lon="2.1522030">
        <ele>48.7</ele>
        <time>2020-11-15T13:01:21Z</time>
      </trkpt>
      <trkpt lat="41.3708530" lon="2.1521940">
        <ele>48.6</ele>
        <time>2020-11-15T13:01:23Z</time>
      </trkpt>
      <trkpt lat="41.3708630" lon="2.1521830">
        <ele>48.4</ele>
        <time>2020-11-15T13:01:24Z</time>
      </trkpt>
      <trkpt lat="41.3708680" lon="2.1521770">
        <ele>48.4</ele>
        <time>2020-11-15T13:01:25Z</time>
      </trkpt>
      <trkpt lat="41.3708740" lon="2.1521670">
        <ele>48.3</ele>
        <time>2020-11-15T13:01:27Z</time>
      </trkpt>
      <trkpt lat="41.3708830" lon="2.1521510">
        <ele>48.1</ele>
        <time>2020-11-15T13:01:29Z</time>
      </trkpt>
      <trkpt lat="41.3708900" lon="2.1521410">
        <ele>48.0</ele>
        <time>2020-11-15T13:01:30Z</time>
      </trkpt>
      <trkpt lat="41.3708970" lon="2.1521310">
        <ele>47.9</ele>
        <time>2020-11-15T13:01:31Z</time>
      </trkpt>
      <trkpt lat="41.3709040" lon="2.1521210">
        <ele>47.8</ele>
        <time>2020-11-15T13:01:33Z</time>
      </trkpt>
      <trkpt lat="41.3709130" lon="2.1521100">
        <ele>47.6</ele>
        <time>2020-11-15T13:01:34Z</time>
      </trkpt>
      <trkpt lat="41.3709230" lon="2.1520980">
        <ele>47.5</ele>
        <time>2020-11-15T13:01:36Z</time>
      </trkpt>
      <trkpt lat="41.3709280" lon="2.1520870">
        <ele>47.5</ele>
        <time>2020-11-15T13:01:37Z</time>
      </trkpt>
      <trkpt lat="41.3709330" lon="2.1520590">
        <ele>47.3</ele>
        <time>2020-11-15T13:01:39Z</time>
      </trkpt>
      <trkpt lat="41.3709330" lon="2.1520480">
        <ele>47.3</ele>
        <time>2020-11-15T13:01:40Z</time>
      </trkpt>
      <trkpt lat="41.3709300" lon="2.1520220">
        <ele>47.1</ele>
        <time>2020-11-15T13:01:41Z</time>
      </trkpt>
      <trkpt lat="41.3709280" lon="2.1520080">
        <ele>47.1</ele>
        <time>2020-11-15T13:01:42Z</time>
      </trkpt>
      <trkpt lat="41.3709260" lon="2.1519950">
        <ele>47.1</ele>
        <time>2020-11-15T13:01:43Z</time>
      </trkpt>
      <trkpt lat="41.3709240" lon="2.1519810">
        <ele>46.9</ele>
        <time>2020-11-15T13:01:44Z</time>
      </trkpt>
      <trkpt lat="41.3709230" lon="2.1519660">
        <ele>46.9</ele>
        <time>2020-11-15T13:01:46Z</time>
      </trkpt>
      <trkpt lat="41.3709210" lon="2.1519520">
        <ele>46.9</ele>
        <time>2020-11-15T13:01:47Z</time>
      </trkpt>
      <trkpt lat="41.3709110" lon="2.1519110">
        <ele>46.9</ele>
        <time>2020-11-15T13:01:49Z</time>
      </trkpt>
      <trkpt lat="41.3709090" lon="2.1519050">
        <ele>46.9</ele>
        <time>2020-11-15T13:01:50Z</time>
      </trkpt>
      <trkpt lat="41.3708990" lon="2.1518770">
        <ele>46.7</ele>
        <time>2020-11-15T13:01:51Z</time>
      </trkpt>
      <trkpt lat="41.3708960" lon="2.1518670">
        <ele>46.7</ele>
        <time>2020-11-15T13:01:53Z</time>
      </trkpt>
      <trkpt lat="41.3708930" lon="2.1518560">
        <ele>46.5</ele>
        <time>2020-11-15T13:01:54Z</time>
      </trkpt>
      <trkpt lat="41.3708910" lon="2.1518360">
        <ele>46.5</ele>
        <time>2020-11-15T13:01:56Z</time>
      </trkpt>
      <trkpt lat="41.3708880" lon="2.1518230">
        <ele>46.5</ele>
        <time>2020-11-15T13:01:57Z</time>
      </trkpt>
      <trkpt lat="41.3708810" lon="2.1518140">
        <ele>46.5</ele>
        <time>2020-11-15T13:01:58Z</time>
      </trkpt>
      <trkpt lat="41.3708770" lon="2.1517930">
        <ele>46.5</ele>
        <time>2020-11-15T13:01:59Z</time>
      </trkpt>
      <trkpt lat="41.3708740" lon="2.1517810">
        <ele>46.5</ele>
        <time>2020-11-15T13:02:00Z</time>
      </trkpt>
      <trkpt lat="41.3708710" lon="2.1517720">
        <ele>46.4</ele>
        <time>2020-11-15T13:02:02Z</time>
      </trkpt>
      <trkpt lat="41.3708680" lon="2.1517620">
        <ele>46.4</ele>
        <time>2020-11-15T13:02:03Z</time>
      </trkpt>
      <trkpt lat="41.3708660" lon="2.1517390">
        <ele>46.3</ele>
        <time>2020-11-15T13:02:04Z</time>
      </trkpt>
      <trkpt lat="41.3708700" lon="2.1517280">
        <ele>46.2</ele>
        <time>2020-11-15T13:02:05Z</time>
      </trkpt>
      <trkpt lat="41.3708710" lon="2.1517110">
        <ele>46.2</ele>
        <time>2020-11-15T13:02:07Z</time>
      </trkpt>
      <trkpt lat="41.3708700" lon="2.1517020">
        <ele>46.2</ele>
        <time>2020-11-15T13:02:08Z</time>
      </trkpt>
      <trkpt lat="41.3708710" lon="2.1516870">
        <ele>46.0</ele>
        <time>2020-11-15T13:02:09Z</time>
      </trkpt>
      <trkpt lat="41.3708760" lon="2.1516650">
        <ele>46.0</ele>
        <time>2020-11-15T13:02:10Z</time>
      </trkpt>
      <trkpt lat="41.3708780" lon="2.1516520">
        <ele>46.0</ele>
        <time>2020-11-15T13:02:11Z</time>
      </trkpt>
      <trkpt lat="41.3708800" lon="2.1516400">
        <ele>45.8</ele>
        <time>2020-11-15T13:02:13Z</time>
      </trkpt>
      <trkpt lat="41.3708820" lon="2.1516270">
        <ele>45.8</ele>
        <time>2020-11-15T13:02:14Z</time>
      </trkpt>
      <trkpt lat="41.3708840" lon="2.1516150">
        <ele>45.6</ele>
        <time>2020-11-15T13:02:15Z</time>
      </trkpt>
      <trkpt lat="41.3708860" lon="2.1516020">
        <ele>45.4</ele>
        <time>2020-11-15T13:02:16Z</time>
      </trkpt>
      <trkpt lat="41.3708920" lon="2.1515690">
        <ele>45.4</ele>
        <time>2020-11-15T13:02:17Z</time>
      </trkpt>
      <trkpt lat="41.3708950" lon="2.1515510">
        <ele>45.3</ele>
        <time>2020-11-15T13:02:20Z</time>
      </trkpt>
      <trkpt lat="41.3708980" lon="2.1515340">
        <ele>45.3</ele>
        <time>2020-11-15T13:02:21Z</time>
      </trkpt>
      <trkpt lat="41.3709010" lon="2.1515160">
        <ele>45.1</ele>
        <time>2020-11-15T13:02:23Z</time>
      </trkpt>
      <trkpt lat="41.3709040" lon="2.1514980">
        <ele>45.1</ele>
        <time>2020-11-15T13:02:24Z</time>
      </trkpt>
      <trkpt lat="41.3709090" lon="2.1514880">
        <ele>45.1</ele>
        <time>2020-11-15T13:02:25Z</time>
      </trkpt>
      <trkpt lat="41.3709120" lon="2.1514750">
        <ele>45.1</ele>
        <time>2020-11-15T13:02:26Z</time>
      </trkpt>
      <trkpt lat="41.3709140" lon="2.1514600">
        <ele>45.0</ele>
        <time>2020-11-15T13:02:28Z</time>
      </trkpt>
      <trkpt lat="41.3709170" lon="2.1514380">
        <ele>44.8</ele>
        <time>2020-11-15T13:02:29Z</time>
      </trkpt>
      <trkpt lat="41.3709190" lon="2.1514250">
        <ele>44.6</ele>
        <time>2020-11-15T13:02:30Z</time>
      </trkpt>
      <trkpt lat="41.3709300" lon="2.1514010">
        <ele>44.6</ele>
        <time>2020-11-15T13:02:31Z</time>
      </trkpt>
      <trkpt lat="41.3709360" lon="2.1513920">
        <ele>44.6</ele>
        <time>2020-11-15T13:02:33Z</time>
      </trkpt>
      <trkpt lat="41.3709420" lon="2.1513820">
        <ele>44.5</ele>
        <time>2020-11-15T13:02:34Z</time>
      </trkpt>
      <trkpt lat="41.3709520" lon="2.1513750">
        <ele>44.3</ele>
        <time>2020-11-15T13:02:35Z</time>
      </trkpt>
      <trkpt lat="41.3709610" lon="2.1513670">
        <ele>44.3</ele>
        <time>2020-11-15T13:02:36Z</time>
      </trkpt>
      <trkpt lat="41.3709710" lon="2.1513580">
        <ele>44.3</ele>
        <time>2020-11-15T13:02:37Z</time>
      </trkpt>
      <trkpt lat="41.3709860" lon="2.1513420">
        <ele>44.0</ele>
        <time>2020-11-15T13:02:39Z</time>
      </trkpt>
      <trkpt lat="41.3709950" lon="2.1513310">
        <ele>44.0</ele>
        <time>2020-11-15T13:02:40Z</time>
      </trkpt>
      <trkpt lat="41.3710130" lon="2.1513140">
        <ele>43.9</ele>
        <time>2020-11-15T13:02:41Z</time>
      </trkpt>
      <trkpt lat="41.3710230" lon="2.1513050">
        <ele>43.9</ele>
        <time>2020-11-15T13:02:43Z</time>
      </trkpt>
      <trkpt lat="41.3710320" lon="2.1512970">
        <ele>43.8</ele>
        <time>2020-11-15T13:02:44Z</time>
      </trkpt>
      <trkpt lat="41.3710410" lon="2.1512870">
        <ele>43.8</ele>
        <time>2020-11-15T13:02:45Z</time>
      </trkpt>
      <trkpt lat="41.3710500" lon="2.1512790">
        <ele>43.6</ele>
        <time>2020-11-15T13:02:46Z</time>
      </trkpt>
      <trkpt lat="41.3710600" lon="2.1512690">
        <ele>43.6</ele>
        <time>2020-11-15T13:02:47Z</time>
      </trkpt>
      <trkpt lat="41.3710810" lon="2.1512540">
        <ele>43.4</ele>
        <time>2020-11-15T13:02:49Z</time>
      </trkpt>
      <trkpt lat="41.3710900" lon="2.1512490">
        <ele>43.3</ele>
        <time>2020-11-15T13:02:50Z</time>
      </trkpt>
      <trkpt lat="41.3711020" lon="2.1512270">
        <ele>43.3</ele>
        <time>2020-11-15T13:02:52Z</time>
      </trkpt>
      <trkpt lat="41.3711030" lon="2.1512130">
        <ele>43.3</ele>
        <time>2020-11-15T13:02:53Z</time>
      </trkpt>
      <trkpt lat="41.3711050" lon="2.1512000">
        <ele>43.2</ele>
        <time>2020-11-15T13:02:54Z</time>
      </trkpt>
      <trkpt lat="41.3710980" lon="2.1511780">
        <ele>43.2</ele>
        <time>2020-11-15T13:02:56Z</time>
      </trkpt>
      <trkpt lat="41.3710930" lon="2.1511610">
        <ele>43.1</ele>
        <time>2020-11-15T13:02:57Z</time>
      </trkpt>
      <trkpt lat="41.3710870" lon="2.1511440">
        <ele>43.1</ele>
        <time>2020-11-15T13:02:58Z</time>
      </trkpt>
      <trkpt lat="41.3710790" lon="2.1511210">
        <ele>43.0</ele>
        <time>2020-11-15T13:02:59Z</time>
      </trkpt>
      <trkpt lat="41.3710690" lon="2.1510970">
        <ele>43.2</ele>
        <time>2020-11-15T13:03:00Z</time>
      </trkpt>
      <trkpt lat="41.3710650" lon="2.1510870">
        <ele>43.1</ele>
        <time>2020-11-15T13:03:02Z</time>
      </trkpt>
      <trkpt lat="41.3710610" lon="2.1510780">
        <ele>43.1</ele>
        <time>2020-11-15T13:03:03Z</time>
      </trkpt>
      <trkpt lat="41.3710430" lon="2.1510590">
        <ele>43.3</ele>
        <time>2020-11-15T13:03:05Z</time>
      </trkpt>
      <trkpt lat="41.3710350" lon="2.1510490">
        <ele>43.3</ele>
        <time>2020-11-15T13:03:06Z</time>
      </trkpt>
      <trkpt lat="41.3710260" lon="2.1510350">
        <ele>43.2</ele>
        <time>2020-11-15T13:03:07Z</time>
      </trkpt>
      <trkpt lat="41.3710140" lon="2.1510150">
        <ele>43.1</ele>
        <time>2020-11-15T13:03:09Z</time>
      </trkpt>
      <trkpt lat="41.3710090" lon="2.1510050">
        <ele>43.3</ele>
        <time>2020-11-15T13:03:10Z</time>
      </trkpt>
      <trkpt lat="41.3710040" lon="2.1509840">
        <ele>43.2</ele>
        <time>2020-11-15T13:03:11Z</time>
      </trkpt>
      <trkpt lat="41.3709990" lon="2.1509620">
        <ele>43.2</ele>
        <time>2020-11-15T13:03:13Z</time>
      </trkpt>
      <trkpt lat="41.3709980" lon="2.1509440">
        <ele>43.1</ele>
        <time>2020-11-15T13:03:14Z</time>
      </trkpt>
      <trkpt lat="41.3709980" lon="2.1509190">
        <ele>43.1</ele>
        <time>2020-11-15T13:03:15Z</time>
      </trkpt>
      <trkpt lat="41.3710020" lon="2.1509070">
        <ele>43.0</ele>
        <time>2020-11-15T13:03:16Z</time>
      </trkpt>
      <trkpt lat="41.3710080" lon="2.1508930">
        <ele>43.0</ele>
        <time>2020-11-15T13:03:17Z</time>
      </trkpt>
      <trkpt lat="41.3710160" lon="2.1508780">
        <ele>42.8</ele>
        <time>2020-11-15T13:03:19Z</time>
      </trkpt>
      <trkpt lat="41.3710250" lon="2.1508560">
        <ele>42.7</ele>
        <time>2020-11-15T13:03:20Z</time>
      </trkpt>
      <trkpt lat="41.3710300" lon="2.1508410">
        <ele>42.7</ele>
        <time>2020-11-15T13:03:21Z</time>
      </trkpt>
      <trkpt lat="41.3710320" lon="2.1508250">
        <ele>42.6</ele>
        <time>2020-11-15T13:03:22Z</time>
      </trkpt>
      <trkpt lat="41.3710310" lon="2.1508110">
        <ele>42.6</ele>
        <time>2020-11-15T13:03:23Z</time>
      </trkpt>
      <trkpt lat="41.3710270" lon="2.1507820">
        <ele>42.5</ele>
        <time>2020-11-15T13:03:26Z</time>
      </trkpt>
      <trkpt lat="41.3710250" lon="2.1507690">
        <ele>42.5</ele>
        <time>2020-11-15T13:03:27Z</time>
      </trkpt>
      <trkpt lat="41.3710210" lon="2.1507500">
        <ele>42.5</ele>
        <time>2020-11-15T13:03:28Z</time>
      </trkpt>
      <trkpt lat="41.3710190" lon="2.1507300">
        <ele>42.3</ele>
        <time>2020-11-15T13:03:30Z</time>
      </trkpt>
      <trkpt lat="41.3710190" lon="2.1507100">
        <ele>42.3</ele>
        <time>2020-11-15T13:03:31Z</time>
      </trkpt>
      <trkpt lat="41.3710190" lon="2.1506920">
        <ele>42.2</ele>
        <time>2020-11-15T13:03:33Z</time>
      </trkpt>
      <trkpt lat="41.3710210" lon="2.1506700">
        <ele>42.2</ele>
        <time>2020-11-15T13:03:34Z</time>
      </trkpt>
      <trkpt lat="41.3710250" lon="2.1506590">
        <ele>42.0</ele>
        <time>2020-11-15T13:03:35Z</time>
      </trkpt>
      <trkpt lat="41.3710340" lon="2.1506480">
        <ele>42.0</ele>
        <time>2020-11-15T13:03:36Z</time>
      </trkpt>
      <trkpt lat="41.3710570" lon="2.1506390">
        <ele>42.0</ele>
        <time>2020-11-15T13:03:38Z</time>
      </trkpt>
      <trkpt lat="41.3710670" lon="2.1506350">
        <ele>42.0</ele>
        <time>2020-11-15T13:03:39Z</time>
      </trkpt>
      <trkpt lat="41.3710780" lon="2.1506320">
        <ele>42.0</ele>
        <time>2020-11-15T13:03:40Z</time>
      </trkpt>
      <trkpt lat="41.3710910" lon="2.1506320">
        <ele>42.0</ele>
        <time>2020-11-15T13:03:42Z</time>
      </trkpt>
      <trkpt lat="41.3710980" lon="2.1506320">
        <ele>42.0</ele>
        <time>2020-11-15T13:03:43Z</time>
      </trkpt>
      <trkpt lat="41.3711140" lon="2.1506290">
        <ele>42.0</ele>
        <time>2020-11-15T13:03:44Z</time>
      </trkpt>
      <trkpt lat="41.3711190" lon="2.1506260">
        <ele>42.0</ele>
        <time>2020-11-15T13:03:45Z</time>
      </trkpt>
      <trkpt lat="41.3711250" lon="2.1506190">
        <ele>42.0</ele>
        <time>2020-11-15T13:03:47Z</time>
      </trkpt>
      <trkpt lat="41.3711290" lon="2.1506100">
        <ele>42.0</ele>
        <time>2020-11-15T13:03:48Z</time>
      </trkpt>
      <trkpt lat="41.3711380" lon="2.1505950">
        <ele>42.0</ele>
        <time>2020-11-15T13:03:49Z</time>
      </trkpt>
      <trkpt lat="41.3711460" lon="2.1505800">
        <ele>42.0</ele>
        <time>2020-11-15T13:03:51Z</time>
      </trkpt>
      <trkpt lat="41.3711500" lon="2.1505690">
        <ele>42.0</ele>
        <time>2020-11-15T13:03:52Z</time>
      </trkpt>
      <trkpt lat="41.3711550" lon="2.1505590">
        <ele>42.0</ele>
        <time>2020-11-15T13:03:54Z</time>
      </trkpt>
      <trkpt lat="41.3711590" lon="2.1505480">
        <ele>42.0</ele>
        <time>2020-11-15T13:03:55Z</time>
      </trkpt>
      <trkpt lat="41.3711620" lon="2.1505150">
        <ele>42.0</ele>
        <time>2020-11-15T13:03:57Z</time>
      </trkpt>
      <trkpt lat="41.3711630" lon="2.1504970">
        <ele>42.1</ele>
        <time>2020-11-15T13:03:58Z</time>
      </trkpt>
      <trkpt lat="41.3711630" lon="2.1504790">
        <ele>42.1</ele>
        <time>2020-11-15T13:03:59Z</time>
      </trkpt>
      <trkpt lat="41.3711610" lon="2.1504650">
        <ele>42.1</ele>
        <time>2020-11-15T13:04:00Z</time>
      </trkpt>
      <trkpt lat="41.3711570" lon="2.1504490">
        <ele>42.1</ele>
        <time>2020-11-15T13:04:02Z</time>
      </trkpt>
      <trkpt lat="41.3711470" lon="2.1504260">
        <ele>42.1</ele>
        <time>2020-11-15T13:04:04Z</time>
      </trkpt>
      <trkpt lat="41.3711400" lon="2.1504050">
        <ele>42.1</ele>
        <time>2020-11-15T13:04:05Z</time>
      </trkpt>
      <trkpt lat="41.3711350" lon="2.1503890">
        <ele>42.1</ele>
        <time>2020-11-15T13:04:06Z</time>
      </trkpt>
      <trkpt lat="41.3711320" lon="2.1503740">
        <ele>42.2</ele>
        <time>2020-11-15T13:04:08Z</time>
      </trkpt>
      <trkpt lat="41.3711440" lon="2.1503420">
        <ele>42.0</ele>
        <time>2020-11-15T13:04:10Z</time>
      </trkpt>
      <trkpt lat="41.3711510" lon="2.1503370">
        <ele>42.0</ele>
        <time>2020-11-15T13:04:11Z</time>
      </trkpt>
      <trkpt lat="41.3711670" lon="2.1503370">
        <ele>41.9</ele>
        <time>2020-11-15T13:04:13Z</time>
      </trkpt>
      <trkpt lat="41.3711760" lon="2.1503350">
        <ele>41.9</ele>
        <time>2020-11-15T13:04:14Z</time>
      </trkpt>
      <trkpt lat="41.3711920" lon="2.1503260">
        <ele>41.8</ele>
        <time>2020-11-15T13:04:15Z</time>
      </trkpt>
      <trkpt lat="41.3712000" lon="2.1503220">
        <ele>41.8</ele>
        <time>2020-11-15T13:04:16Z</time>
      </trkpt>
      <trkpt lat="41.3712090" lon="2.1503170">
        <ele>41.7</ele>
        <time>2020-11-15T13:04:17Z</time>
      </trkpt>
      <trkpt lat="41.3712190" lon="2.1503100">
        <ele>41.7</ele>
        <time>2020-11-15T13:04:19Z</time>
      </trkpt>
      <trkpt lat="41.3712330" lon="2.1502980">
        <ele>41.7</ele>
        <time>2020-11-15T13:04:20Z</time>
      </trkpt>
      <trkpt lat="41.3712510" lon="2.1502830">
        <ele>41.7</ele>
        <time>2020-11-15T13:04:21Z</time>
      </trkpt>
      <trkpt lat="41.3712570" lon="2.1502770">
        <ele>41.7</ele>
        <time>2020-11-15T13:04:23Z</time>
      </trkpt>
      <trkpt lat="41.3712640" lon="2.1502720">
        <ele>41.8</ele>
        <time>2020-11-15T13:04:24Z</time>
      </trkpt>
      <trkpt lat="41.3712770" lon="2.1502590">
        <ele>41.8</ele>
        <time>2020-11-15T13:04:25Z</time>
      </trkpt>
      <trkpt lat="41.3712840" lon="2.1502500">
        <ele>41.8</ele>
        <time>2020-11-15T13:04:26Z</time>
      </trkpt>
      <trkpt lat="41.3712930" lon="2.1502420">
        <ele>41.9</ele>
        <time>2020-11-15T13:04:27Z</time>
      </trkpt>
      <trkpt lat="41.3713040" lon="2.1502320">
        <ele>41.9</ele>
        <time>2020-11-15T13:04:29Z</time>
      </trkpt>
      <trkpt lat="41.3713180" lon="2.1502200">
        <ele>41.9</ele>
        <time>2020-11-15T13:04:30Z</time>
      </trkpt>
      <trkpt lat="41.3713240" lon="2.1502170">
        <ele>42.0</ele>
        <time>2020-11-15T13:04:31Z</time>
      </trkpt>
      <trkpt lat="41.3713340" lon="2.1502160">
        <ele>42.0</ele>
        <time>2020-11-15T13:04:32Z</time>
      </trkpt>
      <trkpt lat="41.3713500" lon="2.1502120">
        <ele>42.0</ele>
        <time>2020-11-15T13:04:34Z</time>
      </trkpt>
      <trkpt lat="41.3713650" lon="2.1502100">
        <ele>42.0</ele>
        <time>2020-11-15T13:04:35Z</time>
      </trkpt>
      <trkpt lat="41.3713740" lon="2.1502110">
        <ele>42.0</ele>
        <time>2020-11-15T13:04:36Z</time>
      </trkpt>
      <trkpt lat="41.3713850" lon="2.1502120">
        <ele>42.0</ele>
        <time>2020-11-15T13:04:37Z</time>
      </trkpt>
      <trkpt lat="41.3713950" lon="2.1502100">
        <ele>41.9</ele>
        <time>2020-11-15T13:04:38Z</time>
      </trkpt>
      <trkpt lat="41.3714160" lon="2.1502010">
        <ele>41.9</ele>
        <time>2020-11-15T13:04:40Z</time>
      </trkpt>
      <trkpt lat="41.3714260" lon="2.1501950">
        <ele>41.9</ele>
        <time>2020-11-15T13:04:41Z</time>
      </trkpt>
      <trkpt lat="41.3714350" lon="2.1501890">
        <ele>41.9</ele>
        <time>2020-11-15T13:04:43Z</time>
      </trkpt>
      <trkpt lat="41.3714450" lon="2.1501820">
        <ele>41.8</ele>
        <time>2020-11-15T13:04:44Z</time>
      </trkpt>
      <trkpt lat="41.3714600" lon="2.1501700">
        <ele>41.8</ele>
        <time>2020-11-15T13:04:45Z</time>
      </trkpt>
      <trkpt lat="41.3714730" lon="2.1501550">
        <ele>41.8</ele>
        <time>2020-11-15T13:04:46Z</time>
      </trkpt>
      <trkpt lat="41.3714830" lon="2.1501450">
        <ele>41.7</ele>
        <time>2020-11-15T13:04:48Z</time>
      </trkpt>
      <trkpt lat="41.3714930" lon="2.1501340">
        <ele>41.7</ele>
        <time>2020-11-15T13:04:49Z</time>
      </trkpt>
      <trkpt lat="41.3715130" lon="2.1501120">
        <ele>41.7</ele>
        <time>2020-11-15T13:04:51Z</time>
      </trkpt>
      <trkpt lat="41.3715240" lon="2.1500940">
        <ele>41.6</ele>
        <time>2020-11-15T13:04:52Z</time>
      </trkpt>
      <trkpt lat="41.3715330" lon="2.1500790">
        <ele>41.6</ele>
        <time>2020-11-15T13:04:53Z</time>
      </trkpt>
      <trkpt lat="41.3715570" lon="2.1500300">
        <ele>41.5</ele>
        <time>2020-11-15T13:04:55Z</time>
      </trkpt>
      <trkpt lat="41.3715620" lon="2.1500160">
        <ele>41.5</ele>
        <time>2020-11-15T13:04:56Z</time>
      </trkpt>
      <trkpt lat="41.3715670" lon="2.1500010">
        <ele>41.4</ele>
        <time>2020-11-15T13:04:58Z</time>
      </trkpt>
      <trkpt lat="41.3715720" lon="2.1499860">
        <ele>41.4</ele>
        <time>2020-11-15T13:04:59Z</time>
      </trkpt>
      <trkpt lat="41.3715820" lon="2.1499630">
        <ele>41.3</ele>
        <time>2020-11-15T13:05:00Z</time>
      </trkpt>
      <trkpt lat="41.3715880" lon="2.1499540">
        <ele>41.3</ele>
        <time>2020-11-15T13:05:02Z</time>
      </trkpt>
      <trkpt lat="41.3715930" lon="2.1499440">
        <ele>41.3</ele>
        <time>2020-11-15T13:05:03Z</time>
      </trkpt>
      <trkpt lat="41.3716160" lon="2.1499090">
        <ele>41.2</ele>
        <time>2020-11-15T13:05:05Z</time>
      </trkpt>
      <trkpt lat="41.3716220" lon="2.1498980">
        <ele>41.2</ele>
        <time>2020-11-15T13:05:06Z</time>
      </trkpt>
      <trkpt lat="41.3716310" lon="2.1498850">
        <ele>41.1</ele>
        <time>2020-11-15T13:05:07Z</time>
      </trkpt>
      <trkpt lat="41.3716440" lon="2.1498710">
        <ele>41.1</ele>
        <time>2020-11-15T13:05:09Z</time>
      </trkpt>
      <trkpt lat="41.3716540" lon="2.1498560">
        <ele>41.0</ele>
        <time>2020-11-15T13:05:10Z</time>
      </trkpt>
      <trkpt lat="41.3716550" lon="2.1498470">
        <ele>41.0</ele>
        <time>2020-11-15T13:05:11Z</time>
      </trkpt>
      <trkpt lat="41.3716560" lon="2.1498370">
        <ele>41.0</ele>
        <time>2020-11-15T13:05:12Z</time>
      </trkpt>
      <trkpt lat="41.3716580" lon="2.1498250">
        <ele>40.9</ele>
        <time>2020-11-15T13:05:13Z</time>
      </trkpt>
      <trkpt lat="41.3716640" lon="2.1498070">
        <ele>40.9</ele>
        <time>2020-11-15T13:05:15Z</time>
      </trkpt>
      <trkpt lat="41.3716660" lon="2.1497990">
        <ele>40.9</ele>
        <time>2020-11-15T13:05:16Z</time>
      </trkpt>
      <trkpt lat="41.3716770" lon="2.1497770">
        <ele>40.8</ele>
        <time>2020-11-15T13:05:18Z</time>
      </trkpt>
      <trkpt lat="41.3716840" lon="2.1497660">
        <ele>40.8</ele>
        <time>2020-11-15T13:05:19Z</time>
      </trkpt>
      <trkpt lat="41.3716970" lon="2.1497420">
        <ele>40.7</ele>
        <time>2020-11-15T13:05:20Z</time>
      </trkpt>
      <trkpt lat="41.3717010" lon="2.1497330">
        <ele>40.7</ele>
        <time>2020-11-15T13:05:21Z</time>
      </trkpt>
      <trkpt lat="41.3717120" lon="2.1497100">
        <ele>40.6</ele>
        <time>2020-11-15T13:05:22Z</time>
      </trkpt>
      <trkpt lat="41.3717170" lon="2.1496990">
        <ele>40.6</ele>
        <time>2020-11-15T13:05:24Z</time>
      </trkpt>
      <trkpt lat="41.3717210" lon="2.1496890">
        <ele>40.6</ele>
        <time>2020-11-15T13:05:25Z</time>
      </trkpt>
      <trkpt lat="41.3717190" lon="2.1496860">
        <ele>40.6</ele>
        <time>2020-11-15T13:05:26Z</time>
      </trkpt>
      <trkpt lat="41.3717250" lon="2.1496690">
        <ele>40.5</ele>
        <time>2020-11-15T13:05:27Z</time>
      </trkpt>
      <trkpt lat="41.3717330" lon="2.1496570">
        <ele>40.5</ele>
        <time>2020-11-15T13:05:29Z</time>
      </trkpt>
      <trkpt lat="41.3717530" lon="2.1496260">
        <ele>40.4</ele>
        <time>2020-11-15T13:05:31Z</time>
      </trkpt>
      <trkpt lat="41.3717620" lon="2.1496150">
        <ele>40.3</ele>
        <time>2020-11-15T13:05:32Z</time>
      </trkpt>
      <trkpt lat="41.3717770" lon="2.1496000">
        <ele>40.3</ele>
        <time>2020-11-15T13:05:33Z</time>
      </trkpt>
      <trkpt lat="41.3718010" lon="2.1495720">
        <ele>40.1</ele>
        <time>2020-11-15T13:05:35Z</time>
      </trkpt>
      <trkpt lat="41.3718060" lon="2.1495660">
        <ele>40.1</ele>
        <time>2020-11-15T13:05:36Z</time>
      </trkpt>
      <trkpt lat="41.3718200" lon="2.1495450">
        <ele>40.0</ele>
        <time>2020-11-15T13:05:37Z</time>
      </trkpt>
      <trkpt lat="41.3718270" lon="2.1495340">
        <ele>40.0</ele>
        <time>2020-11-15T13:05:39Z</time>
      </trkpt>
      <trkpt lat="41.3718340" lon="2.1495230">
        <ele>40.0</ele>
        <time>2020-11-15T13:05:40Z</time>
      </trkpt>
      <trkpt lat="41.3718500" lon="2.1495060">
        <ele>39.9</ele>
        <time>2020-11-15T13:05:41Z</time>
      </trkpt>
      <trkpt lat="41.3718560" lon="2.1494970">
        <ele>39.9</ele>
        <time>2020-11-15T13:05:42Z</time>
      </trkpt>
      <trkpt lat="41.3718630" lon="2.1494890">
        <ele>39.8</ele>
        <time>2020-11-15T13:05:43Z</time>
      </trkpt>
      <trkpt lat="41.3718810" lon="2.1494670">
        <ele>39.8</ele>
        <time>2020-11-15T13:05:45Z</time>
      </trkpt>
      <trkpt lat="41.3718880" lon="2.1494580">
        <ele>39.7</ele>
        <time>2020-11-15T13:05:46Z</time>
      </trkpt>
      <trkpt lat="41.3718870" lon="2.1494330">
        <ele>39.7</ele>
        <time>2020-11-15T13:05:48Z</time>
      </trkpt>
      <trkpt lat="41.3718900" lon="2.1494130">
        <ele>39.6</ele>
        <time>2020-11-15T13:05:50Z</time>
      </trkpt>
      <trkpt lat="41.3719200" lon="2.1494240">
        <ele>39.5</ele>
        <time>2020-11-15T13:05:51Z</time>
      </trkpt>
      <trkpt lat="41.3719590" lon="2.1494260">
        <ele>39.4</ele>
        <time>2020-11-15T13:05:53Z</time>
      </trkpt>
      <trkpt lat="41.3719900" lon="2.1494160">
        <ele>39.3</ele>
        <time>2020-11-15T13:05:54Z</time>
      </trkpt>
      <trkpt lat="41.3719980" lon="2.1494110">
        <ele>39.3</ele>
        <time>2020-11-15T13:05:55Z</time>
      </trkpt>
      <trkpt lat="41.3720120" lon="2.1493950">
        <ele>39.2</ele>
        <time>2020-11-15T13:05:56Z</time>
      </trkpt>
      <trkpt lat="41.3720300" lon="2.1493620">
        <ele>39.1</ele>
        <time>2020-11-15T13:05:58Z</time>
      </trkpt>
      <trkpt lat="41.3720410" lon="2.1493380">
        <ele>39.1</ele>
        <time>2020-11-15T13:05:59Z</time>
      </trkpt>
      <trkpt lat="41.3720570" lon="2.1493200">
        <ele>39.0</ele>
        <time>2020-11-15T13:06:01Z</time>
      </trkpt>
      <trkpt lat="41.3720780" lon="2.1493010">
        <ele>39.0</ele>
        <time>2020-11-15T13:06:02Z</time>
      </trkpt>
      <trkpt lat="41.3720870" lon="2.1492900">
        <ele>38.9</ele>
        <time>2020-11-15T13:06:03Z</time>
      </trkpt>
      <trkpt lat="41.3721010" lon="2.1492750">
        <ele>38.9</ele>
        <time>2020-11-15T13:06:04Z</time>
      </trkpt>
      <trkpt lat="41.3721140" lon="2.1492600">
        <ele>38.9</ele>
        <time>2020-11-15T13:06:05Z</time>
      </trkpt>
      <trkpt lat="41.3721410" lon="2.1492320">
        <ele>38.7</ele>
        <time>2020-11-15T13:06:07Z</time>
      </trkpt>
      <trkpt lat="41.3721510" lon="2.1492210">
        <ele>38.7</ele>
        <time>2020-11-15T13:06:08Z</time>
      </trkpt>
      <trkpt lat="41.3721620" lon="2.1492100">
        <ele>38.6</ele>
        <time>2020-11-15T13:06:09Z</time>
      </trkpt>
      <trkpt lat="41.3721740" lon="2.1491940">
        <ele>38.5</ele>
        <time>2020-11-15T13:06:11Z</time>
      </trkpt>
      <trkpt lat="41.3721840" lon="2.1491800">
        <ele>38.5</ele>
        <time>2020-11-15T13:06:12Z</time>
      </trkpt>
      <trkpt lat="41.3721880" lon="2.1491690">
        <ele>38.5</ele>
        <time>2020-11-15T13:06:13Z</time>
      </trkpt>
      <trkpt lat="41.3721870" lon="2.1491610">
        <ele>38.4</ele>
        <time>2020-11-15T13:06:14Z</time>
      </trkpt>
      <trkpt lat="41.3721950" lon="2.1491450">
        <ele>38.4</ele>
        <time>2020-11-15T13:06:15Z</time>
      </trkpt>
      <trkpt lat="41.3722030" lon="2.1491260">
        <ele>38.3</ele>
        <time>2020-11-15T13:06:16Z</time>
      </trkpt>
      <trkpt lat="41.3722350" lon="2.1490890">
        <ele>38.2</ele>
        <time>2020-11-15T13:06:18Z</time>
      </trkpt>
      <trkpt lat="41.3722450" lon="2.1490790">
        <ele>38.1</ele>
        <time>2020-11-15T13:06:20Z</time>
      </trkpt>
      <trkpt lat="41.3722540" lon="2.1490700">
        <ele>38.1</ele>
        <time>2020-11-15T13:06:21Z</time>
      </trkpt>
      <trkpt lat="41.3722640" lon="2.1490600">
        <ele>38.0</ele>
        <time>2020-11-15T13:06:22Z</time>
      </trkpt>
      <trkpt lat="41.3722790" lon="2.1490440">
        <ele>38.0</ele>
        <time>2020-11-15T13:06:23Z</time>
      </trkpt>
      <trkpt lat="41.3722860" lon="2.1490350">
        <ele>37.9</ele>
        <time>2020-11-15T13:06:25Z</time>
      </trkpt>
      <trkpt lat="41.3722940" lon="2.1490240">
        <ele>37.9</ele>
        <time>2020-11-15T13:06:26Z</time>
      </trkpt>
      <trkpt lat="41.3723140" lon="2.1489990">
        <ele>37.8</ele>
        <time>2020-11-15T13:06:28Z</time>
      </trkpt>
      <trkpt lat="41.3723260" lon="2.1489800">
        <ele>37.7</ele>
        <time>2020-11-15T13:06:30Z</time>
      </trkpt>
      <trkpt lat="41.3723320" lon="2.1489650">
        <ele>37.7</ele>
        <time>2020-11-15T13:06:31Z</time>
      </trkpt>
      <trkpt lat="41.3723420" lon="2.1489430">
        <ele>37.6</ele>
        <time>2020-11-15T13:06:32Z</time>
      </trkpt>
      <trkpt lat="41.3723510" lon="2.1489320">
        <ele>37.6</ele>
        <time>2020-11-15T13:06:34Z</time>
      </trkpt>
      <trkpt lat="41.3723580" lon="2.1489220">
        <ele>37.5</ele>
        <time>2020-11-15T13:06:35Z</time>
      </trkpt>
      <trkpt lat="41.3723720" lon="2.1489050">
        <ele>37.5</ele>
        <time>2020-11-15T13:06:36Z</time>
      </trkpt>
      <trkpt lat="41.3723720" lon="2.1489110">
        <ele>37.4</ele>
        <time>2020-11-15T13:06:37Z</time>
      </trkpt>
      <trkpt lat="41.3723830" lon="2.1489000">
        <ele>37.4</ele>
        <time>2020-11-15T13:06:39Z</time>
      </trkpt>
      <trkpt lat="41.3723900" lon="2.1488910">
        <ele>37.4</ele>
        <time>2020-11-15T13:06:40Z</time>
      </trkpt>
      <trkpt lat="41.3724060" lon="2.1488710">
        <ele>37.3</ele>
        <time>2020-11-15T13:06:42Z</time>
      </trkpt>
      <trkpt lat="41.3724350" lon="2.1488440">
        <ele>37.2</ele>
        <time>2020-11-15T13:06:43Z</time>
      </trkpt>
      <trkpt lat="41.3724420" lon="2.1488370">
        <ele>37.1</ele>
        <time>2020-11-15T13:06:44Z</time>
      </trkpt>
      <trkpt lat="41.3724560" lon="2.1488250">
        <ele>37.1</ele>
        <time>2020-11-15T13:06:45Z</time>
      </trkpt>
      <trkpt lat="41.3724730" lon="2.1488100">
        <ele>37.0</ele>
        <time>2020-11-15T13:06:47Z</time>
      </trkpt>
      <trkpt lat="41.3725010" lon="2.1487810">
        <ele>36.9</ele>
        <time>2020-11-15T13:06:49Z</time>
      </trkpt>
      <trkpt lat="41.3725120" lon="2.1487690">
        <ele>36.8</ele>
        <time>2020-11-15T13:06:50Z</time>
      </trkpt>
      <trkpt lat="41.3725290" lon="2.1487560">
        <ele>36.8</ele>
        <time>2020-11-15T13:06:51Z</time>
      </trkpt>
      <trkpt lat="41.3725510" lon="2.1487400">
        <ele>36.7</ele>
        <time>2020-11-15T13:06:52Z</time>
      </trkpt>
      <trkpt lat="41.3725630" lon="2.1487320">
        <ele>36.6</ele>
        <time>2020-11-15T13:06:54Z</time>
      </trkpt>
      <trkpt lat="41.3725740" lon="2.1487250">
        <ele>36.6</ele>
        <time>2020-11-15T13:06:55Z</time>
      </trkpt>
      <trkpt lat="41.3725860" lon="2.1487170">
        <ele>36.6</ele>
        <time>2020-11-15T13:06:56Z</time>
      </trkpt>
      <trkpt lat="41.3725970" lon="2.1487090">
        <ele>36.5</ele>
        <time>2020-11-15T13:06:57Z</time>
      </trkpt>
      <trkpt lat="41.3726120" lon="2.1486910">
        <ele>36.5</ele>
        <time>2020-11-15T13:06:58Z</time>
      </trkpt>
      <trkpt lat="41.3726210" lon="2.1486780">
        <ele>36.4</ele>
        <time>2020-11-15T13:06:59Z</time>
      </trkpt>
      <trkpt lat="41.3726310" lon="2.1486650">
        <ele>36.4</ele>
        <time>2020-11-15T13:07:00Z</time>
      </trkpt>
      <trkpt lat="41.3726400" lon="2.1486560">
        <ele>36.4</ele>
        <time>2020-11-15T13:07:02Z</time>
      </trkpt>
      <trkpt lat="41.3726590" lon="2.1486350">
        <ele>36.3</ele>
        <time>2020-11-15T13:07:04Z</time>
      </trkpt>
      <trkpt lat="41.3726630" lon="2.1486310">
        <ele>36.3</ele>
        <time>2020-11-15T13:07:05Z</time>
      </trkpt>
      <trkpt lat="41.3726700" lon="2.1486250">
        <ele>36.3</ele>
        <time>2020-11-15T13:07:06Z</time>
      </trkpt>
      <trkpt lat="41.3726760" lon="2.1486160">
        <ele>36.2</ele>
        <time>2020-11-15T13:07:07Z</time>
      </trkpt>
      <trkpt lat="41.3726940" lon="2.1485930">
        <ele>36.2</ele>
        <time>2020-11-15T13:07:09Z</time>
      </trkpt>
      <trkpt lat="41.3727080" lon="2.1485780">
        <ele>36.1</ele>
        <time>2020-11-15T13:07:10Z</time>
      </trkpt>
      <trkpt lat="41.3727160" lon="2.1485710">
        <ele>36.1</ele>
        <time>2020-11-15T13:07:11Z</time>
      </trkpt>
      <trkpt lat="41.3727240" lon="2.1485630">
        <ele>36.1</ele>
        <time>2020-11-15T13:07:12Z</time>
      </trkpt>
      <trkpt lat="41.3727490" lon="2.1485340">
        <ele>36.2</ele>
        <time>2020-11-15T13:07:13Z</time>
      </trkpt>
      <trkpt lat="41.3727600" lon="2.1485210">
        <ele>36.2</ele>
        <time>2020-11-15T13:07:14Z</time>
      </trkpt>
      <trkpt lat="41.3727750" lon="2.1485010">
        <ele>36.2</ele>
        <time>2020-11-15T13:07:16Z</time>
      </trkpt>
      <trkpt lat="41.3727940" lon="2.1484740">
        <ele>36.2</ele>
        <time>2020-11-15T13:07:18Z</time>
      </trkpt>
      <trkpt lat="41.3728090" lon="2.1484520">
        <ele>36.1</ele>
        <time>2020-11-15T13:07:19Z</time>
      </trkpt>
      <trkpt lat="41.3728140" lon="2.1484410">
        <ele>36.1</ele>
        <time>2020-11-15T13:07:20Z</time>
      </trkpt>
      <trkpt lat="41.3728260" lon="2.1484250">
        <ele>36.0</ele>
        <time>2020-11-15T13:07:21Z</time>
      </trkpt>
      <trkpt lat="41.3728360" lon="2.1484120">
        <ele>35.9</ele>
        <time>2020-11-15T13:07:23Z</time>
      </trkpt>
      <trkpt lat="41.3728480" lon="2.1483930">
        <ele>35.8</ele>
        <time>2020-11-15T13:07:24Z</time>
      </trkpt>
      <trkpt lat="41.3728540" lon="2.1483700">
        <ele>35.8</ele>
        <time>2020-11-15T13:07:26Z</time>
      </trkpt>
      <trkpt lat="41.3728690" lon="2.1483390">
        <ele>35.6</ele>
        <time>2020-11-15T13:07:27Z</time>
      </trkpt>
      <trkpt lat="41.3728780" lon="2.1483220">
        <ele>35.5</ele>
        <time>2020-11-15T13:07:28Z</time>
      </trkpt>
      <trkpt lat="41.3728830" lon="2.1483120">
        <ele>35.5</ele>
        <time>2020-11-15T13:07:30Z</time>
      </trkpt>
      <trkpt lat="41.3728890" lon="2.1483010">
        <ele>35.4</ele>
        <time>2020-11-15T13:07:31Z</time>
      </trkpt>
      <trkpt lat="41.3729050" lon="2.1482710">
        <ele>35.3</ele>
        <time>2020-11-15T13:07:33Z</time>
      </trkpt>
      <trkpt lat="41.3729150" lon="2.1482550">
        <ele>35.2</ele>
        <time>2020-11-15T13:07:34Z</time>
      </trkpt>
      <trkpt lat="41.3729190" lon="2.1482480">
        <ele>35.2</ele>
        <time>2020-11-15T13:07:35Z</time>
      </trkpt>
      <trkpt lat="41.3729280" lon="2.1482370">
        <ele>35.1</ele>
        <time>2020-11-15T13:07:36Z</time>
      </trkpt>
      <trkpt lat="41.3729390" lon="2.1482260">
        <ele>35.0</ele>
        <time>2020-11-15T13:07:37Z</time>
      </trkpt>
      <trkpt lat="41.3729500" lon="2.1482040">
        <ele>34.9</ele>
        <time>2020-11-15T13:07:39Z</time>
      </trkpt>
      <trkpt lat="41.3729480" lon="2.1482080">
        <ele>34.9</ele>
        <time>2020-11-15T13:07:40Z</time>
      </trkpt>
      <trkpt lat="41.3729510" lon="2.1481990">
        <ele>34.9</ele>
        <time>2020-11-15T13:07:41Z</time>
      </trkpt>
      <trkpt lat="41.3729630" lon="2.1481810">
        <ele>34.8</ele>
        <time>2020-11-15T13:07:42Z</time>
      </trkpt>
      <trkpt lat="41.3729750" lon="2.1481580">
        <ele>34.6</ele>
        <time>2020-11-15T13:07:44Z</time>
      </trkpt>
      <trkpt lat="41.3729810" lon="2.1481440">
        <ele>34.6</ele>
        <time>2020-11-15T13:07:45Z</time>
      </trkpt>
      <trkpt lat="41.3729880" lon="2.1481350">
        <ele>34.5</ele>
        <time>2020-11-15T13:07:46Z</time>
      </trkpt>
      <trkpt lat="41.3729940" lon="2.1481270">
        <ele>34.5</ele>
        <time>2020-11-15T13:07:47Z</time>
      </trkpt>
      <trkpt lat="41.3730010" lon="2.1481180">
        <ele>34.4</ele>
        <time>2020-11-15T13:07:49Z</time>
      </trkpt>
      <trkpt lat="41.3730070" lon="2.1481100">
        <ele>34.4</ele>
        <time>2020-11-15T13:07:50Z</time>
      </trkpt>
      <trkpt lat="41.3730130" lon="2.1481010">
        <ele>34.3</ele>
        <time>2020-11-15T13:07:52Z</time>
      </trkpt>
      <trkpt lat="41.3730200" lon="2.1480930">
        <ele>34.3</ele>
        <time>2020-11-15T13:07:53Z</time>
      </trkpt>
      <trkpt lat="41.3730260" lon="2.1480840">
        <ele>34.2</ele>
        <time>2020-11-15T13:07:54Z</time>
      </trkpt>
      <trkpt lat="41.3730370" lon="2.1480640">
        <ele>34.1</ele>
        <time>2020-11-15T13:07:55Z</time>
      </trkpt>
      <trkpt lat="41.3730450" lon="2.1480480">
        <ele>34.0</ele>
        <time>2020-11-15T13:07:56Z</time>
      </trkpt>
      <trkpt lat="41.3730520" lon="2.1480350">
        <ele>33.9</ele>
        <time>2020-11-15T13:07:58Z</time>
      </trkpt>
      <trkpt lat="41.3730640" lon="2.1480130">
        <ele>33.8</ele>
        <time>2020-11-15T13:07:59Z</time>
      </trkpt>
      <trkpt lat="41.3730700" lon="2.1480000">
        <ele>33.8</ele>
        <time>2020-11-15T13:08:00Z</time>
      </trkpt>
      <trkpt lat="41.3730760" lon="2.1479870">
        <ele>33.7</ele>
        <time>2020-11-15T13:08:01Z</time>
      </trkpt>
      <trkpt lat="41.3730830" lon="2.1479740">
        <ele>33.6</ele>
        <time>2020-11-15T13:08:02Z</time>
      </trkpt>
      <trkpt lat="41.3730970" lon="2.1479510">
        <ele>33.5</ele>
        <time>2020-11-15T13:08:04Z</time>
      </trkpt>
      <trkpt lat="41.3731040" lon="2.1479420">
        <ele>33.4</ele>
        <time>2020-11-15T13:08:05Z</time>
      </trkpt>
      <trkpt lat="41.3731150" lon="2.1479290">
        <ele>33.3</ele>
        <time>2020-11-15T13:08:06Z</time>
      </trkpt>
      <trkpt lat="41.3731230" lon="2.1479190">
        <ele>33.3</ele>
        <time>2020-11-15T13:08:08Z</time>
      </trkpt>
      <trkpt lat="41.3731430" lon="2.1478940">
        <ele>33.1</ele>
        <time>2020-11-15T13:08:10Z</time>
      </trkpt>
      <trkpt lat="41.3731520" lon="2.1478830">
        <ele>33.1</ele>
        <time>2020-11-15T13:08:11Z</time>
      </trkpt>
      <trkpt lat="41.3731650" lon="2.1478640">
        <ele>32.9</ele>
        <time>2020-11-15T13:08:12Z</time>
      </trkpt>
      <trkpt lat="41.3731740" lon="2.1478520">
        <ele>32.9</ele>
        <time>2020-11-15T13:08:14Z</time>
      </trkpt>
      <trkpt lat="41.3731860" lon="2.1478350">
        <ele>32.8</ele>
        <time>2020-11-15T13:08:15Z</time>
      </trkpt>
      <trkpt lat="41.3731970" lon="2.1478250">
        <ele>32.7</ele>
        <time>2020-11-15T13:08:17Z</time>
      </trkpt>
      <trkpt lat="41.3732090" lon="2.1478120">
        <ele>32.6</ele>
        <time>2020-11-15T13:08:18Z</time>
      </trkpt>
      <trkpt lat="41.3732340" lon="2.1477870">
        <ele>32.4</ele>
        <time>2020-11-15T13:08:20Z</time>
      </trkpt>
      <trkpt lat="41.3732410" lon="2.1477780">
        <ele>32.4</ele>
        <time>2020-11-15T13:08:21Z</time>
      </trkpt>
      <trkpt lat="41.3732620" lon="2.1477530">
        <ele>32.2</ele>
        <time>2020-11-15T13:08:23Z</time>
      </trkpt>
      <trkpt lat="41.3732700" lon="2.1477420">
        <ele>32.2</ele>
        <time>2020-11-15T13:08:24Z</time>
      </trkpt>
      <trkpt lat="41.3732760" lon="2.1477360">
        <ele>32.1</ele>
        <time>2020-11-15T13:08:25Z</time>
      </trkpt>
      <trkpt lat="41.3732910" lon="2.1477110">
        <ele>32.0</ele>
        <time>2020-11-15T13:08:27Z</time>
      </trkpt>
      <trkpt lat="41.3733010" lon="2.1476980">
        <ele>31.9</ele>
        <time>2020-11-15T13:08:29Z</time>
      </trkpt>
      <trkpt lat="41.3733090" lon="2.1476890">
        <ele>31.9</ele>
        <time>2020-11-15T13:08:30Z</time>
      </trkpt>
      <trkpt lat="41.3733120" lon="2.1476860">
        <ele>31.9</ele>
        <time>2020-11-15T13:08:31Z</time>
      </trkpt>
      <trkpt lat="41.3733240" lon="2.1476710">
        <ele>31.8</ele>
        <time>2020-11-15T13:08:32Z</time>
      </trkpt>
      <trkpt lat="41.3733300" lon="2.1476630">
        <ele>31.7</ele>
        <time>2020-11-15T13:08:33Z</time>
      </trkpt>
      <trkpt lat="41.3733370" lon="2.1476540">
        <ele>31.7</ele>
        <time>2020-11-15T13:08:35Z</time>
      </trkpt>
      <trkpt lat="41.3733440" lon="2.1476460">
        <ele>31.7</ele>
        <time>2020-11-15T13:08:36Z</time>
      </trkpt>
      <trkpt lat="41.3733510" lon="2.1476370">
        <ele>31.6</ele>
        <time>2020-11-15T13:08:37Z</time>
      </trkpt>
      <trkpt lat="41.3733570" lon="2.1476290">
        <ele>31.6</ele>
        <time>2020-11-15T13:08:39Z</time>
      </trkpt>
      <trkpt lat="41.3733640" lon="2.1476200">
        <ele>31.5</ele>
        <time>2020-11-15T13:08:40Z</time>
      </trkpt>
      <trkpt lat="41.3733690" lon="2.1476140">
        <ele>31.5</ele>
        <time>2020-11-15T13:08:41Z</time>
      </trkpt>
      <trkpt lat="41.3733750" lon="2.1476060">
        <ele>31.4</ele>
        <time>2020-11-15T13:08:42Z</time>
      </trkpt>
      <trkpt lat="41.3733780" lon="2.1476040">
        <ele>31.4</ele>
        <time>2020-11-15T13:08:44Z</time>
      </trkpt>
      <trkpt lat="41.3733700" lon="2.1476260">
        <ele>31.4</ele>
        <time>2020-11-15T13:08:45Z</time>
      </trkpt>
      <trkpt lat="41.3733690" lon="2.1476300">
        <ele>31.3</ele>
        <time>2020-11-15T13:08:46Z</time>
      </trkpt>
      <trkpt lat="41.3733730" lon="2.1476280">
        <ele>31.3</ele>
        <time>2020-11-15T13:08:47Z</time>
      </trkpt>
      <trkpt lat="41.3733800" lon="2.1476210">
        <ele>31.3</ele>
        <time>2020-11-15T13:08:49Z</time>
      </trkpt>
      <trkpt lat="41.3734040" lon="2.1475850">
        <ele>31.1</ele>
        <time>2020-11-15T13:08:51Z</time>
      </trkpt>
      <trkpt lat="41.3734130" lon="2.1475720">
        <ele>31.1</ele>
        <time>2020-11-15T13:08:52Z</time>
      </trkpt>
      <trkpt lat="41.3734240" lon="2.1475560">
        <ele>31.0</ele>
        <time>2020-11-15T13:08:53Z</time>
      </trkpt>
      <trkpt lat="41.3734350" lon="2.1475380">
        <ele>30.9</ele>
        <time>2020-11-15T13:08:54Z</time>
      </trkpt>
      <trkpt lat="41.3734390" lon="2.1475290">
        <ele>30.9</ele>
        <time>2020-11-15T13:08:56Z</time>
      </trkpt>
      <trkpt lat="41.3734430" lon="2.1475240">
        <ele>30.9</ele>
        <time>2020-11-15T13:08:57Z</time>
      </trkpt>
      <trkpt lat="41.3734470" lon="2.1475280">
        <ele>30.9</ele>
        <time>2020-11-15T13:08:58Z</time>
      </trkpt>
      <trkpt lat="41.3734560" lon="2.1475240">
        <ele>30.8</ele>
        <time>2020-11-15T13:08:59Z</time>
      </trkpt>
      <trkpt lat="41.3734600" lon="2.1475210">
        <ele>30.8</ele>
        <time>2020-11-15T13:09:00Z</time>
      </trkpt>
      <trkpt lat="41.3734630" lon="2.1475120">
        <ele>30.8</ele>
        <time>2020-11-15T13:09:02Z</time>
      </trkpt>
      <trkpt lat="41.3734650" lon="2.1475010">
        <ele>30.8</ele>
        <time>2020-11-15T13:09:03Z</time>
      </trkpt>
      <trkpt lat="41.3734660" lon="2.1474900">
        <ele>30.7</ele>
        <time>2020-11-15T13:09:04Z</time>
      </trkpt>
      <trkpt lat="41.3734670" lon="2.1474590">
        <ele>30.6</ele>
        <time>2020-11-15T13:09:05Z</time>
      </trkpt>
      <trkpt lat="41.3734610" lon="2.1474420">
        <ele>30.5</ele>
        <time>2020-11-15T13:09:06Z</time>
      </trkpt>
      <trkpt lat="41.3734520" lon="2.1474170">
        <ele>30.4</ele>
        <time>2020-11-15T13:09:07Z</time>
      </trkpt>
      <trkpt lat="41.3734400" lon="2.1473790">
        <ele>30.4</ele>
        <time>2020-11-15T13:09:09Z</time>
      </trkpt>
      <trkpt lat="41.3734350" lon="2.1473640">
        <ele>30.4</ele>
        <time>2020-11-15T13:09:10Z</time>
      </trkpt>
      <trkpt lat="41.3734080" lon="2.1473320">
        <ele>30.4</ele>
        <time>2020-11-15T13:09:11Z</time>
      </trkpt>
      <trkpt lat="41.3733990" lon="2.1473220">
        <ele>30.3</ele>
        <time>2020-11-15T13:09:12Z</time>
      </trkpt>
      <trkpt lat="41.3733670" lon="2.1472840">
        <ele>30.3</ele>
        <time>2020-11-15T13:09:13Z</time>
      </trkpt>
      <trkpt lat="41.3733560" lon="2.1472680">
        <ele>30.3</ele>
        <time>2020-11-15T13:09:14Z</time>
      </trkpt>
      <trkpt lat="41.3733460" lon="2.1472570">
        <ele>30.3</ele>
        <time>2020-11-15T13:09:16Z</time>
      </trkpt>
      <trkpt lat="41.3733350" lon="2.1472450">
        <ele>30.3</ele>
        <time>2020-11-15T13:09:17Z</time>
      </trkpt>
      <trkpt lat="41.3733000" lon="2.1472110">
        <ele>30.2</ele>
        <time>2020-11-15T13:09:19Z</time>
      </trkpt>
      <trkpt lat="41.3732910" lon="2.1471980">
        <ele>30.2</ele>
        <time>2020-11-15T13:09:20Z</time>
      </trkpt>
      <trkpt lat="41.3732820" lon="2.1471840">
        <ele>30.2</ele>
        <time>2020-11-15T13:09:21Z</time>
      </trkpt>
      <trkpt lat="41.3732670" lon="2.1471640">
        <ele>30.2</ele>
        <time>2020-11-15T13:09:23Z</time>
      </trkpt>
      <trkpt lat="41.3732620" lon="2.1471560">
        <ele>30.2</ele>
        <time>2020-11-15T13:09:24Z</time>
      </trkpt>
      <trkpt lat="41.3732560" lon="2.1471490">
        <ele>30.2</ele>
        <time>2020-11-15T13:09:25Z</time>
      </trkpt>
      <trkpt lat="41.3732400" lon="2.1471240">
        <ele>30.2</ele>
        <time>2020-11-15T13:09:27Z</time>
      </trkpt>
      <trkpt lat="41.3732330" lon="2.1471140">
        <ele>30.2</ele>
        <time>2020-11-15T13:09:28Z</time>
      </trkpt>
      <trkpt lat="41.3732260" lon="2.1471030">
        <ele>30.2</ele>
        <time>2020-11-15T13:09:29Z</time>
      </trkpt>
      <trkpt lat="41.3732180" lon="2.1470900">
        <ele>30.2</ele>
        <time>2020-11-15T13:09:30Z</time>
      </trkpt>
      <trkpt lat="41.3732050" lon="2.1470720">
        <ele>30.2</ele>
        <time>2020-11-15T13:09:32Z</time>
      </trkpt>
      <trkpt lat="41.3731950" lon="2.1470600">
        <ele>30.2</ele>
        <time>2020-11-15T13:09:33Z</time>
      </trkpt>
      <trkpt lat="41.3731820" lon="2.1470410">
        <ele>30.2</ele>
        <time>2020-11-15T13:09:34Z</time>
      </trkpt>
      <trkpt lat="41.3731780" lon="2.1470340">
        <ele>30.2</ele>
        <time>2020-11-15T13:09:35Z</time>
      </trkpt>
      <trkpt lat="41.3731690" lon="2.1470250">
        <ele>30.2</ele>
        <time>2020-11-15T13:09:36Z</time>
      </trkpt>
      <trkpt lat="41.3731600" lon="2.1470140">
        <ele>30.1</ele>
        <time>2020-11-15T13:09:37Z</time>
      </trkpt>
      <trkpt lat="41.3731510" lon="2.1470010">
        <ele>30.1</ele>
        <time>2020-11-15T13:09:39Z</time>
      </trkpt>
      <trkpt lat="41.3731420" lon="2.1469830">
        <ele>30.1</ele>
        <time>2020-11-15T13:09:40Z</time>
      </trkpt>
      <trkpt lat="41.3731280" lon="2.1469670">
        <ele>30.1</ele>
        <time>2020-11-15T13:09:41Z</time>
      </trkpt>
      <trkpt lat="41.3731210" lon="2.1469600">
        <ele>30.1</ele>
        <time>2020-11-15T13:09:42Z</time>
      </trkpt>
      <trkpt lat="41.3731140" lon="2.1469530">
        <ele>30.1</ele>
        <time>2020-11-15T13:09:43Z</time>
      </trkpt>
      <trkpt lat="41.3730980" lon="2.1469290">
        <ele>30.1</ele>
        <time>2020-11-15T13:09:44Z</time>
      </trkpt>
      <trkpt lat="41.3730930" lon="2.1469190">
        <ele>30.1</ele>
        <time>2020-11-15T13:09:45Z</time>
      </trkpt>
      <trkpt lat="41.3730810" lon="2.1469020">
        <ele>30.1</ele>
        <time>2020-11-15T13:09:47Z</time>
      </trkpt>
      <trkpt lat="41.3730700" lon="2.1468890">
        <ele>30.1</ele>
        <time>2020-11-15T13:09:48Z</time>
      </trkpt>
      <trkpt lat="41.3730600" lon="2.1468780">
        <ele>30.1</ele>
        <time>2020-11-15T13:09:49Z</time>
      </trkpt>
      <trkpt lat="41.3730490" lon="2.1468640">
        <ele>30.1</ele>
        <time>2020-11-15T13:09:50Z</time>
      </trkpt>
      <trkpt lat="41.3730430" lon="2.1468570">
        <ele>30.1</ele>
        <time>2020-11-15T13:09:51Z</time>
      </trkpt>
      <trkpt lat="41.3730350" lon="2.1468470">
        <ele>30.1</ele>
        <time>2020-11-15T13:09:52Z</time>
      </trkpt>
      <trkpt lat="41.3730240" lon="2.1468330">
        <ele>30.1</ele>
        <time>2020-11-15T13:09:53Z</time>
      </trkpt>
      <trkpt lat="41.3730090" lon="2.1468120">
        <ele>30.1</ele>
        <time>2020-11-15T13:09:54Z</time>
      </trkpt>
      <trkpt lat="41.3730050" lon="2.1468050">
        <ele>30.1</ele>
        <time>2020-11-15T13:09:56Z</time>
      </trkpt>
      <trkpt lat="41.3729970" lon="2.1467940">
        <ele>30.1</ele>
        <time>2020-11-15T13:09:57Z</time>
      </trkpt>
      <trkpt lat="41.3729780" lon="2.1467760">
        <ele>30.1</ele>
        <time>2020-11-15T13:09:59Z</time>
      </trkpt>
      <trkpt lat="41.3729610" lon="2.1467550">
        <ele>30.1</ele>
        <time>2020-11-15T13:10:00Z</time>
      </trkpt>
      <trkpt lat="41.3729510" lon="2.1467440">
        <ele>30.1</ele>
        <time>2020-11-15T13:10:01Z</time>
      </trkpt>
      <trkpt lat="41.3729380" lon="2.1467300">
        <ele>30.1</ele>
        <time>2020-11-15T13:10:03Z</time>
      </trkpt>
      <trkpt lat="41.3729280" lon="2.1467180">
        <ele>30.1</ele>
        <time>2020-11-15T13:10:04Z</time>
      </trkpt>
      <trkpt lat="41.3729130" lon="2.1467020">
        <ele>30.1</ele>
        <time>2020-11-15T13:10:05Z</time>
      </trkpt>
      <trkpt lat="41.3729110" lon="2.1467020">
        <ele>30.1</ele>
        <time>2020-11-15T13:10:06Z</time>
      </trkpt>
      <trkpt lat="41.3729060" lon="2.1466970">
        <ele>30.1</ele>
        <time>2020-11-15T13:10:07Z</time>
      </trkpt>
      <trkpt lat="41.3728990" lon="2.1466900">
        <ele>30.1</ele>
        <time>2020-11-15T13:10:08Z</time>
      </trkpt>
      <trkpt lat="41.3728800" lon="2.1466650">
        <ele>30.0</ele>
        <time>2020-11-15T13:10:09Z</time>
      </trkpt>
      <trkpt lat="41.3728650" lon="2.1466420">
        <ele>30.0</ele>
        <time>2020-11-15T13:10:11Z</time>
      </trkpt>
      <trkpt lat="41.3728530" lon="2.1466250">
        <ele>30.0</ele>
        <time>2020-11-15T13:10:12Z</time>
      </trkpt>
      <trkpt lat="41.3728420" lon="2.1466120">
        <ele>30.0</ele>
        <time>2020-11-15T13:10:13Z</time>
      </trkpt>
      <trkpt lat="41.3728310" lon="2.1465980">
        <ele>30.0</ele>
        <time>2020-11-15T13:10:14Z</time>
      </trkpt>
      <trkpt lat="41.3728280" lon="2.1465920">
        <ele>30.0</ele>
        <time>2020-11-15T13:10:15Z</time>
      </trkpt>
      <trkpt lat="41.3728260" lon="2.1465870">
        <ele>30.0</ele>
        <time>2020-11-15T13:10:16Z</time>
      </trkpt>
      <trkpt lat="41.3728210" lon="2.1465760">
        <ele>30.0</ele>
        <time>2020-11-15T13:10:18Z</time>
      </trkpt>
      <trkpt lat="41.3728140" lon="2.1465640">
        <ele>30.0</ele>
        <time>2020-11-15T13:10:19Z</time>
      </trkpt>
      <trkpt lat="41.3727980" lon="2.1465420">
        <ele>30.0</ele>
        <time>2020-11-15T13:10:20Z</time>
      </trkpt>
      <trkpt lat="41.3727870" lon="2.1465280">
        <ele>30.0</ele>
        <time>2020-11-15T13:10:21Z</time>
      </trkpt>
      <trkpt lat="41.3727730" lon="2.1465110">
        <ele>30.0</ele>
        <time>2020-11-15T13:10:22Z</time>
      </trkpt>
      <trkpt lat="41.3727620" lon="2.1464960">
        <ele>30.0</ele>
        <time>2020-11-15T13:10:24Z</time>
      </trkpt>
      <trkpt lat="41.3727570" lon="2.1464660">
        <ele>30.0</ele>
        <time>2020-11-15T13:10:26Z</time>
      </trkpt>
      <trkpt lat="41.3727640" lon="2.1464570">
        <ele>30.0</ele>
        <time>2020-11-15T13:10:27Z</time>
      </trkpt>
      <trkpt lat="41.3727810" lon="2.1464420">
        <ele>29.9</ele>
        <time>2020-11-15T13:10:28Z</time>
      </trkpt>
      <trkpt lat="41.3728020" lon="2.1464120">
        <ele>29.9</ele>
        <time>2020-11-15T13:10:29Z</time>
      </trkpt>
      <trkpt lat="41.3728100" lon="2.1463970">
        <ele>29.9</ele>
        <time>2020-11-15T13:10:30Z</time>
      </trkpt>
      <trkpt lat="41.3728350" lon="2.1463720">
        <ele>30.1</ele>
        <time>2020-11-15T13:10:31Z</time>
      </trkpt>
      <trkpt lat="41.3728460" lon="2.1463600">
        <ele>30.2</ele>
        <time>2020-11-15T13:10:33Z</time>
      </trkpt>
      <trkpt lat="41.3728580" lon="2.1463490">
        <ele>30.2</ele>
        <time>2020-11-15T13:10:34Z</time>
      </trkpt>
      <trkpt lat="41.3728690" lon="2.1463370">
        <ele>30.3</ele>
        <time>2020-11-15T13:10:35Z</time>
      </trkpt>
      <trkpt lat="41.3728980" lon="2.1463250">
        <ele>30.5</ele>
        <time>2020-11-15T13:10:36Z</time>
      </trkpt>
      <trkpt lat="41.3729070" lon="2.1463210">
        <ele>30.5</ele>
        <time>2020-11-15T13:10:37Z</time>
      </trkpt>
      <trkpt lat="41.3729320" lon="2.1463100">
        <ele>30.6</ele>
        <time>2020-11-15T13:10:38Z</time>
      </trkpt>
      <trkpt lat="41.3729410" lon="2.1463070">
        <ele>30.6</ele>
        <time>2020-11-15T13:10:39Z</time>
      </trkpt>
      <trkpt lat="41.3729660" lon="2.1462930">
        <ele>30.6</ele>
        <time>2020-11-15T13:10:40Z</time>
      </trkpt>
      <trkpt lat="41.3729810" lon="2.1462850">
        <ele>30.6</ele>
        <time>2020-11-15T13:10:42Z</time>
      </trkpt>
      <trkpt lat="41.3729940" lon="2.1462780">
        <ele>30.6</ele>
        <time>2020-11-15T13:10:43Z</time>
      </trkpt>
      <trkpt lat="41.3730100" lon="2.1462690">
        <ele>30.6</ele>
        <time>2020-11-15T13:10:44Z</time>
      </trkpt>
      <trkpt lat="41.3730440" lon="2.1462540">
        <ele>31.0</ele>
        <time>2020-11-15T13:10:45Z</time>
      </trkpt>
      <trkpt lat="41.3730540" lon="2.1462520">
        <ele>31.0</ele>
        <time>2020-11-15T13:10:46Z</time>
      </trkpt>
      <trkpt lat="41.3730690" lon="2.1462440">
        <ele>31.0</ele>
        <time>2020-11-15T13:10:47Z</time>
      </trkpt>
      <trkpt lat="41.3730790" lon="2.1462330">
        <ele>31.0</ele>
        <time>2020-11-15T13:10:49Z</time>
      </trkpt>
      <trkpt lat="41.3730960" lon="2.1462130">
        <ele>31.1</ele>
        <time>2020-11-15T13:10:50Z</time>
      </trkpt>
      <trkpt lat="41.3731070" lon="2.1461930">
        <ele>31.1</ele>
        <time>2020-11-15T13:10:52Z</time>
      </trkpt>
      <trkpt lat="41.3731280" lon="2.1461630">
        <ele>31.0</ele>
        <time>2020-11-15T13:10:54Z</time>
      </trkpt>
      <trkpt lat="41.3731350" lon="2.1461570">
        <ele>30.9</ele>
        <time>2020-11-15T13:10:55Z</time>
      </trkpt>
      <trkpt lat="41.3731360" lon="2.1461610">
        <ele>30.9</ele>
        <time>2020-11-15T13:10:56Z</time>
      </trkpt>
      <trkpt lat="41.3731440" lon="2.1461540">
        <ele>30.8</ele>
        <time>2020-11-15T13:10:58Z</time>
      </trkpt>
      <trkpt lat="41.3731530" lon="2.1461390">
        <ele>30.8</ele>
        <time>2020-11-15T13:10:59Z</time>
      </trkpt>
      <trkpt lat="41.3731580" lon="2.1461290">
        <ele>30.8</ele>
        <time>2020-11-15T13:11:00Z</time>
      </trkpt>
      <trkpt lat="41.3731640" lon="2.1461210">
        <ele>30.8</ele>
        <time>2020-11-15T13:11:01Z</time>
      </trkpt>
      <trkpt lat="41.3731730" lon="2.1461100">
        <ele>30.8</ele>
        <time>2020-11-15T13:11:03Z</time>
      </trkpt>
      <trkpt lat="41.3731810" lon="2.1461000">
        <ele>30.8</ele>
        <time>2020-11-15T13:11:04Z</time>
      </trkpt>
      <trkpt lat="41.3732000" lon="2.1460760">
        <ele>30.7</ele>
        <time>2020-11-15T13:11:05Z</time>
      </trkpt>
      <trkpt lat="41.3732230" lon="2.1460590">
        <ele>30.7</ele>
        <time>2020-11-15T13:11:08Z</time>
      </trkpt>
      <trkpt lat="41.3732410" lon="2.1460480">
        <ele>30.7</ele>
        <time>2020-11-15T13:11:10Z</time>
      </trkpt>
      <trkpt lat="41.3732540" lon="2.1460340">
        <ele>30.7</ele>
        <time>2020-11-15T13:11:11Z</time>
      </trkpt>
      <trkpt lat="41.3732570" lon="2.1460240">
        <ele>30.7</ele>
        <time>2020-11-15T13:11:12Z</time>
      </trkpt>
      <trkpt lat="41.3732640" lon="2.1460130">
        <ele>30.6</ele>
        <time>2020-11-15T13:11:13Z</time>
      </trkpt>
      <trkpt lat="41.3732730" lon="2.1460000">
        <ele>30.6</ele>
        <time>2020-11-15T13:11:14Z</time>
      </trkpt>
      <trkpt lat="41.3732870" lon="2.1459810">
        <ele>30.6</ele>
        <time>2020-11-15T13:11:15Z</time>
      </trkpt>
      <trkpt lat="41.3732900" lon="2.1459740">
        <ele>30.6</ele>
        <time>2020-11-15T13:11:16Z</time>
      </trkpt>
      <trkpt lat="41.3732970" lon="2.1459610">
        <ele>30.6</ele>
        <time>2020-11-15T13:11:18Z</time>
      </trkpt>
      <trkpt lat="41.3733250" lon="2.1459550">
        <ele>30.5</ele>
        <time>2020-11-15T13:11:20Z</time>
      </trkpt>
      <trkpt lat="41.3733380" lon="2.1459620">
        <ele>30.5</ele>
        <time>2020-11-15T13:11:21Z</time>
      </trkpt>
      <trkpt lat="41.3733500" lon="2.1459680">
        <ele>30.5</ele>
        <time>2020-11-15T13:11:22Z</time>
      </trkpt>
      <trkpt lat="41.3733640" lon="2.1459690">
        <ele>30.5</ele>
        <time>2020-11-15T13:11:23Z</time>
      </trkpt>
      <trkpt lat="41.3733880" lon="2.1459720">
        <ele>30.5</ele>
        <time>2020-11-15T13:11:25Z</time>
      </trkpt>
      <trkpt lat="41.3734050" lon="2.1459750">
        <ele>30.4</ele>
        <time>2020-11-15T13:11:26Z</time>
      </trkpt>
      <trkpt lat="41.3734240" lon="2.1459780">
        <ele>30.4</ele>
        <time>2020-11-15T13:11:28Z</time>
      </trkpt>
      <trkpt lat="41.3734390" lon="2.1459810">
        <ele>30.4</ele>
        <time>2020-11-15T13:11:29Z</time>
      </trkpt>
      <trkpt lat="41.3734560" lon="2.1459820">
        <ele>30.4</ele>
        <time>2020-11-15T13:11:30Z</time>
      </trkpt>
      <trkpt lat="41.3734640" lon="2.1459820">
        <ele>30.4</ele>
        <time>2020-11-15T13:11:31Z</time>
      </trkpt>
      <trkpt lat="41.3734740" lon="2.1459820">
        <ele>30.4</ele>
        <time>2020-11-15T13:11:32Z</time>
      </trkpt>
      <trkpt lat="41.3734840" lon="2.1459830">
        <ele>30.4</ele>
        <time>2020-11-15T13:11:33Z</time>
      </trkpt>
      <trkpt lat="41.3734950" lon="2.1459840">
        <ele>30.4</ele>
        <time>2020-11-15T13:11:34Z</time>
      </trkpt>
      <trkpt lat="41.3735150" lon="2.1459740">
        <ele>30.3</ele>
        <time>2020-11-15T13:11:36Z</time>
      </trkpt>
      <trkpt lat="41.3735290" lon="2.1459670">
        <ele>30.3</ele>
        <time>2020-11-15T13:11:37Z</time>
      </trkpt>
      <trkpt lat="41.3735460" lon="2.1459630">
        <ele>30.3</ele>
        <time>2020-11-15T13:11:38Z</time>
      </trkpt>
      <trkpt lat="41.3735700" lon="2.1459580">
        <ele>30.3</ele>
        <time>2020-11-15T13:11:39Z</time>
      </trkpt>
      <trkpt lat="41.3735800" lon="2.1459550">
        <ele>30.3</ele>
        <time>2020-11-15T13:11:41Z</time>
      </trkpt>
      <trkpt lat="41.3735910" lon="2.1459510">
        <ele>30.3</ele>
        <time>2020-11-15T13:11:42Z</time>
      </trkpt>
      <trkpt lat="41.3736010" lon="2.1459480">
        <ele>30.3</ele>
        <time>2020-11-15T13:11:43Z</time>
      </trkpt>
      <trkpt lat="41.3736120" lon="2.1459450">
        <ele>30.5</ele>
        <time>2020-11-15T13:11:44Z</time>
      </trkpt>
      <trkpt lat="41.3736300" lon="2.1459090">
        <ele>30.8</ele>
        <time>2020-11-15T13:11:45Z</time>
      </trkpt>
      <trkpt lat="41.3736300" lon="2.1458930">
        <ele>30.8</ele>
        <time>2020-11-15T13:11:46Z</time>
      </trkpt>
      <trkpt lat="41.3736420" lon="2.1458540">
        <ele>30.8</ele>
        <time>2020-11-15T13:11:47Z</time>
      </trkpt>
      <trkpt lat="41.3736490" lon="2.1458350">
        <ele>30.9</ele>
        <time>2020-11-15T13:11:49Z</time>
      </trkpt>
      <trkpt lat="41.3736550" lon="2.1458170">
        <ele>30.9</ele>
        <time>2020-11-15T13:11:50Z</time>
      </trkpt>
      <trkpt lat="41.3736610" lon="2.1457980">
        <ele>30.9</ele>
        <time>2020-11-15T13:11:51Z</time>
      </trkpt>
      <trkpt lat="41.3736630" lon="2.1457530">
        <ele>30.9</ele>
        <time>2020-11-15T13:11:52Z</time>
      </trkpt>
      <trkpt lat="41.3736660" lon="2.1457440">
        <ele>30.9</ele>
        <time>2020-11-15T13:11:53Z</time>
      </trkpt>
      <trkpt lat="41.3736770" lon="2.1457290">
        <ele>30.9</ele>
        <time>2020-11-15T13:11:54Z</time>
      </trkpt>
      <trkpt lat="41.3736950" lon="2.1457190">
        <ele>31.0</ele>
        <time>2020-11-15T13:11:55Z</time>
      </trkpt>
      <trkpt lat="41.3737010" lon="2.1457290">
        <ele>31.0</ele>
        <time>2020-11-15T13:11:57Z</time>
      </trkpt>
      <trkpt lat="41.3737100" lon="2.1457310">
        <ele>31.0</ele>
        <time>2020-11-15T13:11:58Z</time>
      </trkpt>
      <trkpt lat="41.3737220" lon="2.1457350">
        <ele>31.0</ele>
        <time>2020-11-15T13:11:59Z</time>
      </trkpt>
      <trkpt lat="41.3737480" lon="2.1457500">
        <ele>31.1</ele>
        <time>2020-11-15T13:12:00Z</time>
      </trkpt>
      <trkpt lat="41.3737560" lon="2.1457560">
        <ele>31.1</ele>
        <time>2020-11-15T13:12:01Z</time>
      </trkpt>
      <trkpt lat="41.3737650" lon="2.1457620">
        <ele>31.2</ele>
        <time>2020-11-15T13:12:03Z</time>
      </trkpt>
      <trkpt lat="41.3737740" lon="2.1457690">
        <ele>31.2</ele>
        <time>2020-11-15T13:12:04Z</time>
      </trkpt>
      <trkpt lat="41.3737820" lon="2.1457750">
        <ele>31.2</ele>
        <time>2020-11-15T13:12:05Z</time>
      </trkpt>
      <trkpt lat="41.3737910" lon="2.1457810">
        <ele>31.3</ele>
        <time>2020-11-15T13:12:06Z</time>
      </trkpt>
      <trkpt lat="41.3738040" lon="2.1457730">
        <ele>31.3</ele>
        <time>2020-11-15T13:12:08Z</time>
      </trkpt>
      <trkpt lat="41.3738170" lon="2.1457690">
        <ele>31.3</ele>
        <time>2020-11-15T13:12:09Z</time>
      </trkpt>
      <trkpt lat="41.3738620" lon="2.1457500">
        <ele>31.5</ele>
        <time>2020-11-15T13:12:11Z</time>
      </trkpt>
      <trkpt lat="41.3738760" lon="2.1457440">
        <ele>31.5</ele>
        <time>2020-11-15T13:12:12Z</time>
      </trkpt>
      <trkpt lat="41.3738890" lon="2.1457370">
        <ele>31.6</ele>
        <time>2020-11-15T13:12:13Z</time>
      </trkpt>
      <trkpt lat="41.3739020" lon="2.1457330">
        <ele>31.6</ele>
        <time>2020-11-15T13:12:15Z</time>
      </trkpt>
      <trkpt lat="41.3739210" lon="2.1457260">
        <ele>31.7</ele>
        <time>2020-11-15T13:12:16Z</time>
      </trkpt>
      <trkpt lat="41.3739420" lon="2.1457200">
        <ele>31.8</ele>
        <time>2020-11-15T13:12:17Z</time>
      </trkpt>
      <trkpt lat="41.3739510" lon="2.1457190">
        <ele>31.8</ele>
        <time>2020-11-15T13:12:18Z</time>
      </trkpt>
      <trkpt lat="41.3739590" lon="2.1457170">
        <ele>31.8</ele>
        <time>2020-11-15T13:12:19Z</time>
      </trkpt>
      <trkpt lat="41.3739710" lon="2.1457160">
        <ele>31.9</ele>
        <time>2020-11-15T13:12:20Z</time>
      </trkpt>
      <trkpt lat="41.3739760" lon="2.1457140">
        <ele>31.9</ele>
        <time>2020-11-15T13:12:22Z</time>
      </trkpt>
      <trkpt lat="41.3739930" lon="2.1457110">
        <ele>32.0</ele>
        <time>2020-11-15T13:12:23Z</time>
      </trkpt>
      <trkpt lat="41.3740060" lon="2.1457090">
        <ele>32.0</ele>
        <time>2020-11-15T13:12:25Z</time>
      </trkpt>
      <trkpt lat="41.3740250" lon="2.1457110">
        <ele>32.1</ele>
        <time>2020-11-15T13:12:26Z</time>
      </trkpt>
      <trkpt lat="41.3740570" lon="2.1456990">
        <ele>32.2</ele>
        <time>2020-11-15T13:12:27Z</time>
      </trkpt>
      <trkpt lat="41.3740640" lon="2.1456860">
        <ele>32.2</ele>
        <time>2020-11-15T13:12:29Z</time>
      </trkpt>
      <trkpt lat="41.3740720" lon="2.1456720">
        <ele>32.3</ele>
        <time>2020-11-15T13:12:30Z</time>
      </trkpt>
      <trkpt lat="41.3740790" lon="2.1456580">
        <ele>32.3</ele>
        <time>2020-11-15T13:12:31Z</time>
      </trkpt>
      <trkpt lat="41.3740780" lon="2.1456110">
        <ele>32.4</ele>
        <time>2020-11-15T13:12:32Z</time>
      </trkpt>
      <trkpt lat="41.3740770" lon="2.1455460">
        <ele>32.5</ele>
        <time>2020-11-15T13:12:34Z</time>
      </trkpt>
      <trkpt lat="41.3740750" lon="2.1455180">
        <ele>32.6</ele>
        <time>2020-11-15T13:12:36Z</time>
      </trkpt>
      <trkpt lat="41.3740730" lon="2.1454900">
        <ele>32.7</ele>
        <time>2020-11-15T13:12:37Z</time>
      </trkpt>
      <trkpt lat="41.3740710" lon="2.1454620">
        <ele>32.7</ele>
        <time>2020-11-15T13:12:38Z</time>
      </trkpt>
      <trkpt lat="41.3740750" lon="2.1454420">
        <ele>32.8</ele>
        <time>2020-11-15T13:12:40Z</time>
      </trkpt>
      <trkpt lat="41.3740790" lon="2.1454220">
        <ele>32.8</ele>
        <time>2020-11-15T13:12:41Z</time>
      </trkpt>
      <trkpt lat="41.3740950" lon="2.1454050">
        <ele>32.8</ele>
        <time>2020-11-15T13:12:42Z</time>
      </trkpt>
      <trkpt lat="41.3741030" lon="2.1454010">
        <ele>32.8</ele>
        <time>2020-11-15T13:12:43Z</time>
      </trkpt>
      <trkpt lat="41.3741110" lon="2.1453970">
        <ele>32.7</ele>
        <time>2020-11-15T13:12:44Z</time>
      </trkpt>
      <trkpt lat="41.3741450" lon="2.1454180">
        <ele>32.7</ele>
        <time>2020-11-15T13:12:45Z</time>
      </trkpt>
      <trkpt lat="41.3741780" lon="2.1454650">
        <ele>32.7</ele>
        <time>2020-11-15T13:12:46Z</time>
      </trkpt>
      <trkpt lat="41.3742000" lon="2.1454870">
        <ele>32.8</ele>
        <time>2020-11-15T13:12:48Z</time>
      </trkpt>
      <trkpt lat="41.3742170" lon="2.1454970">
        <ele>32.8</ele>
        <time>2020-11-15T13:12:49Z</time>
      </trkpt>
      <trkpt lat="41.3742320" lon="2.1455020">
        <ele>32.9</ele>
        <time>2020-11-15T13:12:50Z</time>
      </trkpt>
      <trkpt lat="41.3742620" lon="2.1455170">
        <ele>33.0</ele>
        <time>2020-11-15T13:12:51Z</time>
      </trkpt>
      <trkpt lat="41.3742790" lon="2.1455240">
        <ele>33.0</ele>
        <time>2020-11-15T13:12:52Z</time>
      </trkpt>
      <trkpt lat="41.3742940" lon="2.1455270">
        <ele>33.1</ele>
        <time>2020-11-15T13:12:53Z</time>
      </trkpt>
      <trkpt lat="41.3743070" lon="2.1455290">
        <ele>33.1</ele>
        <time>2020-11-15T13:12:54Z</time>
      </trkpt>
      <trkpt lat="41.3743250" lon="2.1455320">
        <ele>33.2</ele>
        <time>2020-11-15T13:12:56Z</time>
      </trkpt>
      <trkpt lat="41.3743470" lon="2.1455350">
        <ele>33.3</ele>
        <time>2020-11-15T13:12:57Z</time>
      </trkpt>
      <trkpt lat="41.3743620" lon="2.1455330">
        <ele>33.3</ele>
        <time>2020-11-15T13:12:59Z</time>
      </trkpt>
      <trkpt lat="41.3743760" lon="2.1455310">
        <ele>33.3</ele>
        <time>2020-11-15T13:13:00Z</time>
      </trkpt>
      <trkpt lat="41.3743910" lon="2.1455370">
        <ele>33.4</ele>
        <time>2020-11-15T13:13:01Z</time>
      </trkpt>
      <trkpt lat="41.3744020" lon="2.1455390">
        <ele>33.4</ele>
        <time>2020-11-15T13:13:02Z</time>
      </trkpt>
      <trkpt lat="41.3744130" lon="2.1455380">
        <ele>33.5</ele>
        <time>2020-11-15T13:13:03Z</time>
      </trkpt>
      <trkpt lat="41.3744230" lon="2.1455370">
        <ele>33.5</ele>
        <time>2020-11-15T13:13:04Z</time>
      </trkpt>
      <trkpt lat="41.3744460" lon="2.1455300">
        <ele>33.5</ele>
        <time>2020-11-15T13:13:06Z</time>
      </trkpt>
      <trkpt lat="41.3744570" lon="2.1455280">
        <ele>33.6</ele>
        <time>2020-11-15T13:13:07Z</time>
      </trkpt>
      <trkpt lat="41.3744690" lon="2.1455260">
        <ele>33.6</ele>
        <time>2020-11-15T13:13:08Z</time>
      </trkpt>
      <trkpt lat="41.3744810" lon="2.1455250">
        <ele>33.9</ele>
        <time>2020-11-15T13:13:09Z</time>
      </trkpt>
      <trkpt lat="41.3744950" lon="2.1455210">
        <ele>34.0</ele>
        <time>2020-11-15T13:13:11Z</time>
      </trkpt>
      <trkpt lat="41.3745150" lon="2.1455150">
        <ele>34.1</ele>
        <time>2020-11-15T13:13:12Z</time>
      </trkpt>
      <trkpt lat="41.3745230" lon="2.1455140">
        <ele>34.1</ele>
        <time>2020-11-15T13:13:13Z</time>
      </trkpt>
      <trkpt lat="41.3745320" lon="2.1455120">
        <ele>34.2</ele>
        <time>2020-11-15T13:13:14Z</time>
      </trkpt>
      <trkpt lat="41.3745620" lon="2.1454880">
        <ele>34.3</ele>
        <time>2020-11-15T13:13:16Z</time>
      </trkpt>
      <trkpt lat="41.3745710" lon="2.1454760">
        <ele>34.4</ele>
        <time>2020-11-15T13:13:17Z</time>
      </trkpt>
      <trkpt lat="41.3745930" lon="2.1454500">
        <ele>34.5</ele>
        <time>2020-11-15T13:13:18Z</time>
      </trkpt>
      <trkpt lat="41.3746020" lon="2.1454370">
        <ele>34.5</ele>
        <time>2020-11-15T13:13:20Z</time>
      </trkpt>
      <trkpt lat="41.3746120" lon="2.1454230">
        <ele>34.5</ele>
        <time>2020-11-15T13:13:21Z</time>
      </trkpt>
      <trkpt lat="41.3746210" lon="2.1454090">
        <ele>34.5</ele>
        <time>2020-11-15T13:13:22Z</time>
      </trkpt>
      <trkpt lat="41.3746400" lon="2.1453870">
        <ele>34.5</ele>
        <time>2020-11-15T13:13:24Z</time>
      </trkpt>
      <trkpt lat="41.3746500" lon="2.1453760">
        <ele>34.6</ele>
        <time>2020-11-15T13:13:25Z</time>
      </trkpt>
      <trkpt lat="41.3746600" lon="2.1453660">
        <ele>34.6</ele>
        <time>2020-11-15T13:13:26Z</time>
      </trkpt>
      <trkpt lat="41.3746700" lon="2.1453570">
        <ele>34.6</ele>
        <time>2020-11-15T13:13:27Z</time>
      </trkpt>
      <trkpt lat="41.3746790" lon="2.1453480">
        <ele>34.6</ele>
        <time>2020-11-15T13:13:29Z</time>
      </trkpt>
      <trkpt lat="41.3746880" lon="2.1453420">
        <ele>34.7</ele>
        <time>2020-11-15T13:13:30Z</time>
      </trkpt>
      <trkpt lat="41.3747040" lon="2.1453320">
        <ele>34.7</ele>
        <time>2020-11-15T13:13:31Z</time>
      </trkpt>
      <trkpt lat="41.3747120" lon="2.1453250">
        <ele>34.7</ele>
        <time>2020-11-15T13:13:32Z</time>
      </trkpt>
      <trkpt lat="41.3747280" lon="2.1453160">
        <ele>34.8</ele>
        <time>2020-11-15T13:13:33Z</time>
      </trkpt>
      <trkpt lat="41.3747390" lon="2.1453090">
        <ele>34.9</ele>
        <time>2020-11-15T13:13:34Z</time>
      </trkpt>
      <trkpt lat="41.3747710" lon="2.1453000">
        <ele>35.0</ele>
        <time>2020-11-15T13:13:36Z</time>
      </trkpt>
      <trkpt lat="41.3747780" lon="2.1452980">
        <ele>35.0</ele>
        <time>2020-11-15T13:13:37Z</time>
      </trkpt>
      <trkpt lat="41.3747900" lon="2.1452960">
        <ele>35.0</ele>
        <time>2020-11-15T13:13:38Z</time>
      </trkpt>
      <trkpt lat="41.3748050" lon="2.1452920">
        <ele>35.1</ele>
        <time>2020-11-15T13:13:39Z</time>
      </trkpt>
      <trkpt lat="41.3748370" lon="2.1452820">
        <ele>35.2</ele>
        <time>2020-11-15T13:13:41Z</time>
      </trkpt>
      <trkpt lat="41.3748430" lon="2.1452790">
        <ele>35.2</ele>
        <time>2020-11-15T13:13:42Z</time>
      </trkpt>
      <trkpt lat="41.3748620" lon="2.1452740">
        <ele>35.3</ele>
        <time>2020-11-15T13:13:43Z</time>
      </trkpt>
      <trkpt lat="41.3748760" lon="2.1452710">
        <ele>35.4</ele>
        <time>2020-11-15T13:13:44Z</time>
      </trkpt>
      <trkpt lat="41.3748980" lon="2.1452650">
        <ele>35.4</ele>
        <time>2020-11-15T13:13:46Z</time>
      </trkpt>
      <trkpt lat="41.3749080" lon="2.1452630">
        <ele>35.5</ele>
        <time>2020-11-15T13:13:47Z</time>
      </trkpt>
      <trkpt lat="41.3749270" lon="2.1452640">
        <ele>35.5</ele>
        <time>2020-11-15T13:13:48Z</time>
      </trkpt>
      <trkpt lat="41.3749360" lon="2.1452650">
        <ele>35.6</ele>
        <time>2020-11-15T13:13:49Z</time>
      </trkpt>
      <trkpt lat="41.3749450" lon="2.1452650">
        <ele>35.6</ele>
        <time>2020-11-15T13:13:50Z</time>
      </trkpt>
      <trkpt lat="41.3749600" lon="2.1452660">
        <ele>35.6</ele>
        <time>2020-11-15T13:13:51Z</time>
      </trkpt>
      <trkpt lat="41.3749660" lon="2.1452690">
        <ele>35.7</ele>
        <time>2020-11-15T13:13:53Z</time>
      </trkpt>
      <trkpt lat="41.3749750" lon="2.1452720">
        <ele>35.7</ele>
        <time>2020-11-15T13:13:54Z</time>
      </trkpt>
      <trkpt lat="41.3749850" lon="2.1452730">
        <ele>35.7</ele>
        <time>2020-11-15T13:13:55Z</time>
      </trkpt>
      <trkpt lat="41.3750030" lon="2.1452670">
        <ele>35.8</ele>
        <time>2020-11-15T13:13:56Z</time>
      </trkpt>
      <trkpt lat="41.3750130" lon="2.1452630">
        <ele>35.8</ele>
        <time>2020-11-15T13:13:57Z</time>
      </trkpt>
      <trkpt lat="41.3750230" lon="2.1452610">
        <ele>35.9</ele>
        <time>2020-11-15T13:13:59Z</time>
      </trkpt>
      <trkpt lat="41.3750340" lon="2.1452590">
        <ele>35.9</ele>
        <time>2020-11-15T13:14:00Z</time>
      </trkpt>
      <trkpt lat="41.3750470" lon="2.1452530">
        <ele>35.9</ele>
        <time>2020-11-15T13:14:01Z</time>
      </trkpt>
      <trkpt lat="41.3750450" lon="2.1452440">
        <ele>36.0</ele>
        <time>2020-11-15T13:14:02Z</time>
      </trkpt>
      <trkpt lat="41.3750520" lon="2.1452390">
        <ele>36.0</ele>
        <time>2020-11-15T13:14:03Z</time>
      </trkpt>
      <trkpt lat="41.3750620" lon="2.1452350">
        <ele>36.0</ele>
        <time>2020-11-15T13:14:04Z</time>
      </trkpt>
      <trkpt lat="41.3750820" lon="2.1452210">
        <ele>36.1</ele>
        <time>2020-11-15T13:14:06Z</time>
      </trkpt>
      <trkpt lat="41.3750930" lon="2.1452080">
        <ele>36.2</ele>
        <time>2020-11-15T13:14:08Z</time>
      </trkpt>
      <trkpt lat="41.3751170" lon="2.1451940">
        <ele>36.2</ele>
        <time>2020-11-15T13:14:09Z</time>
      </trkpt>
      <trkpt lat="41.3751270" lon="2.1451900">
        <ele>36.3</ele>
        <time>2020-11-15T13:14:10Z</time>
      </trkpt>
      <trkpt lat="41.3751360" lon="2.1451850">
        <ele>36.3</ele>
        <time>2020-11-15T13:14:11Z</time>
      </trkpt>
      <trkpt lat="41.3751490" lon="2.1451790">
        <ele>36.4</ele>
        <time>2020-11-15T13:14:13Z</time>
      </trkpt>
      <trkpt lat="41.3751600" lon="2.1451760">
        <ele>36.4</ele>
        <time>2020-11-15T13:14:14Z</time>
      </trkpt>
      <trkpt lat="41.3751710" lon="2.1451730">
        <ele>36.4</ele>
        <time>2020-11-15T13:14:15Z</time>
      </trkpt>
      <trkpt lat="41.3751810" lon="2.1451700">
        <ele>36.5</ele>
        <time>2020-11-15T13:14:16Z</time>
      </trkpt>
      <trkpt lat="41.3751850" lon="2.1451650">
        <ele>36.5</ele>
        <time>2020-11-15T13:14:17Z</time>
      </trkpt>
      <trkpt lat="41.3751900" lon="2.1451580">
        <ele>36.5</ele>
        <time>2020-11-15T13:14:19Z</time>
      </trkpt>
      <trkpt lat="41.3751950" lon="2.1451390">
        <ele>36.5</ele>
        <time>2020-11-15T13:14:20Z</time>
      </trkpt>
      <trkpt lat="41.3751960" lon="2.1451180">
        <ele>36.6</ele>
        <time>2020-11-15T13:14:21Z</time>
      </trkpt>
      <trkpt lat="41.3751910" lon="2.1450990">
        <ele>36.6</ele>
        <time>2020-11-15T13:14:22Z</time>
      </trkpt>
      <trkpt lat="41.3751900" lon="2.1450690">
        <ele>36.6</ele>
        <time>2020-11-15T13:14:23Z</time>
      </trkpt>
      <trkpt lat="41.3751930" lon="2.1450590">
        <ele>36.6</ele>
        <time>2020-11-15T13:14:25Z</time>
      </trkpt>
      <trkpt lat="41.3751960" lon="2.1450480">
        <ele>36.6</ele>
        <time>2020-11-15T13:14:26Z</time>
      </trkpt>
      <trkpt lat="41.3752010" lon="2.1450470">
        <ele>36.6</ele>
        <time>2020-11-15T13:14:28Z</time>
      </trkpt>
      <trkpt lat="41.3752060" lon="2.1450390">
        <ele>36.6</ele>
        <time>2020-11-15T13:14:29Z</time>
      </trkpt>
      <trkpt lat="41.3752070" lon="2.1450240">
        <ele>36.6</ele>
        <time>2020-11-15T13:14:30Z</time>
      </trkpt>
      <trkpt lat="41.3752060" lon="2.1450030">
        <ele>36.6</ele>
        <time>2020-11-15T13:14:31Z</time>
      </trkpt>
      <trkpt lat="41.3752110" lon="2.1449500">
        <ele>36.6</ele>
        <time>2020-11-15T13:14:32Z</time>
      </trkpt>
      <trkpt lat="41.3752110" lon="2.1449100">
        <ele>36.6</ele>
        <time>2020-11-15T13:14:33Z</time>
      </trkpt>
      <trkpt lat="41.3752110" lon="2.1448970">
        <ele>36.6</ele>
        <time>2020-11-15T13:14:34Z</time>
      </trkpt>
      <trkpt lat="41.3752100" lon="2.1448740">
        <ele>36.6</ele>
        <time>2020-11-15T13:14:35Z</time>
      </trkpt>
      <trkpt lat="41.3752130" lon="2.1448350">
        <ele>36.6</ele>
        <time>2020-11-15T13:14:37Z</time>
      </trkpt>
      <trkpt lat="41.3752140" lon="2.1447950">
        <ele>36.5</ele>
        <time>2020-11-15T13:14:38Z</time>
      </trkpt>
      <trkpt lat="41.3752120" lon="2.1447780">
        <ele>36.5</ele>
        <time>2020-11-15T13:14:39Z</time>
      </trkpt>
      <trkpt lat="41.3752120" lon="2.1447430">
        <ele>36.5</ele>
        <time>2020-11-15T13:14:41Z</time>
      </trkpt>
      <trkpt lat="41.3752130" lon="2.1447270">
        <ele>36.5</ele>
        <time>2020-11-15T13:14:42Z</time>
      </trkpt>
      <trkpt lat="41.3752100" lon="2.1446990">
        <ele>36.5</ele>
        <time>2020-11-15T13:14:43Z</time>
      </trkpt>
      <trkpt lat="41.3752080" lon="2.1446870">
        <ele>36.5</ele>
        <time>2020-11-15T13:14:44Z</time>
      </trkpt>
      <trkpt lat="41.3752060" lon="2.1446740">
        <ele>36.5</ele>
        <time>2020-11-15T13:14:45Z</time>
      </trkpt>
      <trkpt lat="41.3752040" lon="2.1446440">
        <ele>36.5</ele>
        <time>2020-11-15T13:14:46Z</time>
      </trkpt>
      <trkpt lat="41.3752020" lon="2.1446320">
        <ele>36.5</ele>
        <time>2020-11-15T13:14:48Z</time>
      </trkpt>
      <trkpt lat="41.3751990" lon="2.1446190">
        <ele>36.5</ele>
        <time>2020-11-15T13:14:49Z</time>
      </trkpt>
      <trkpt lat="41.3751910" lon="2.1445930">
        <ele>36.5</ele>
        <time>2020-11-15T13:14:51Z</time>
      </trkpt>
      <trkpt lat="41.3751850" lon="2.1445720">
        <ele>36.5</ele>
        <time>2020-11-15T13:14:52Z</time>
      </trkpt>
      <trkpt lat="41.3751880" lon="2.1445730">
        <ele>36.5</ele>
        <time>2020-11-15T13:14:53Z</time>
      </trkpt>
      <trkpt lat="41.3751880" lon="2.1445620">
        <ele>36.4</ele>
        <time>2020-11-15T13:14:54Z</time>
      </trkpt>
      <trkpt lat="41.3751850" lon="2.1445490">
        <ele>36.4</ele>
        <time>2020-11-15T13:14:55Z</time>
      </trkpt>
      <trkpt lat="41.3751810" lon="2.1445220">
        <ele>36.4</ele>
        <time>2020-11-15T13:14:57Z</time>
      </trkpt>
      <trkpt lat="41.3751820" lon="2.1445090">
        <ele>36.4</ele>
        <time>2020-11-15T13:14:58Z</time>
      </trkpt>
      <trkpt lat="41.3751830" lon="2.1444830">
        <ele>36.4</ele>
        <time>2020-11-15T13:14:59Z</time>
      </trkpt>
      <trkpt lat="41.3751850" lon="2.1444690">
        <ele>36.4</ele>
        <time>2020-11-15T13:15:00Z</time>
      </trkpt>
      <trkpt lat="41.3751860" lon="2.1444540">
        <ele>36.4</ele>
        <time>2020-11-15T13:15:01Z</time>
      </trkpt>
      <trkpt lat="41.3752130" lon="2.1444200">
        <ele>36.4</ele>
        <time>2020-11-15T13:15:03Z</time>
      </trkpt>
      <trkpt lat="41.3752130" lon="2.1444030">
        <ele>36.4</ele>
        <time>2020-11-15T13:15:05Z</time>
      </trkpt>
      <trkpt lat="41.3752130" lon="2.1443870">
        <ele>36.4</ele>
        <time>2020-11-15T13:15:06Z</time>
      </trkpt>
      <trkpt lat="41.3752130" lon="2.1443710">
        <ele>36.4</ele>
        <time>2020-11-15T13:15:07Z</time>
      </trkpt>
      <trkpt lat="41.3752070" lon="2.1443450">
        <ele>36.4</ele>
        <time>2020-11-15T13:15:08Z</time>
      </trkpt>
      <trkpt lat="41.3752040" lon="2.1443330">
        <ele>36.4</ele>
        <time>2020-11-15T13:15:10Z</time>
      </trkpt>
      <trkpt lat="41.3752020" lon="2.1443220">
        <ele>36.4</ele>
        <time>2020-11-15T13:15:11Z</time>
      </trkpt>
      <trkpt lat="41.3752070" lon="2.1442930">
        <ele>36.4</ele>
        <time>2020-11-15T13:15:12Z</time>
      </trkpt>
      <trkpt lat="41.3752090" lon="2.1442760">
        <ele>36.4</ele>
        <time>2020-11-15T13:15:13Z</time>
      </trkpt>
      <trkpt lat="41.3752090" lon="2.1442600">
        <ele>36.4</ele>
        <time>2020-11-15T13:15:14Z</time>
      </trkpt>
      <trkpt lat="41.3752090" lon="2.1442400">
        <ele>36.4</ele>
        <time>2020-11-15T13:15:15Z</time>
      </trkpt>
      <trkpt lat="41.3752100" lon="2.1442010">
        <ele>36.4</ele>
        <time>2020-11-15T13:15:16Z</time>
      </trkpt>
      <trkpt lat="41.3752130" lon="2.1441780">
        <ele>36.4</ele>
        <time>2020-11-15T13:15:18Z</time>
      </trkpt>
      <trkpt lat="41.3752150" lon="2.1441590">
        <ele>36.4</ele>
        <time>2020-11-15T13:15:19Z</time>
      </trkpt>
      <trkpt lat="41.3752200" lon="2.1441270">
        <ele>36.3</ele>
        <time>2020-11-15T13:15:20Z</time>
      </trkpt>
      <trkpt lat="41.3752230" lon="2.1441110">
        <ele>36.3</ele>
        <time>2020-11-15T13:15:21Z</time>
      </trkpt>
      <trkpt lat="41.3752270" lon="2.1440950">
        <ele>36.3</ele>
        <time>2020-11-15T13:15:22Z</time>
      </trkpt>
      <trkpt lat="41.3752350" lon="2.1440680">
        <ele>36.3</ele>
        <time>2020-11-15T13:15:23Z</time>
      </trkpt>
      <trkpt lat="41.3752370" lon="2.1440570">
        <ele>36.3</ele>
        <time>2020-11-15T13:15:25Z</time>
      </trkpt>
      <trkpt lat="41.3752390" lon="2.1440460">
        <ele>36.3</ele>
        <time>2020-11-15T13:15:26Z</time>
      </trkpt>
      <trkpt lat="41.3752450" lon="2.1440240">
        <ele>36.3</ele>
        <time>2020-11-15T13:15:27Z</time>
      </trkpt>
      <trkpt lat="41.3752560" lon="2.1440020">
        <ele>36.3</ele>
        <time>2020-11-15T13:15:29Z</time>
      </trkpt>
      <trkpt lat="41.3752620" lon="2.1439720">
        <ele>36.3</ele>
        <time>2020-11-15T13:15:30Z</time>
      </trkpt>
      <trkpt lat="41.3752640" lon="2.1439570">
        <ele>36.3</ele>
        <time>2020-11-15T13:15:31Z</time>
      </trkpt>
      <trkpt lat="41.3752660" lon="2.1439430">
        <ele>36.3</ele>
        <time>2020-11-15T13:15:32Z</time>
      </trkpt>
      <trkpt lat="41.3752670" lon="2.1439260">
        <ele>36.3</ele>
        <time>2020-11-15T13:15:33Z</time>
      </trkpt>
      <trkpt lat="41.3752670" lon="2.1439090">
        <ele>36.3</ele>
        <time>2020-11-15T13:15:34Z</time>
      </trkpt>
      <trkpt lat="41.3752670" lon="2.1438930">
        <ele>36.3</ele>
        <time>2020-11-15T13:15:36Z</time>
      </trkpt>
      <trkpt lat="41.3752670" lon="2.1438630">
        <ele>36.3</ele>
        <time>2020-11-15T13:15:37Z</time>
      </trkpt>
      <trkpt lat="41.3752640" lon="2.1438480">
        <ele>36.3</ele>
        <time>2020-11-15T13:15:38Z</time>
      </trkpt>
      <trkpt lat="41.3752620" lon="2.1438210">
        <ele>36.3</ele>
        <time>2020-11-15T13:15:39Z</time>
      </trkpt>
      <trkpt lat="41.3752610" lon="2.1438100">
        <ele>36.3</ele>
        <time>2020-11-15T13:15:40Z</time>
      </trkpt>
      <trkpt lat="41.3752600" lon="2.1437980">
        <ele>36.3</ele>
        <time>2020-11-15T13:15:41Z</time>
      </trkpt>
      <trkpt lat="41.3752580" lon="2.1437550">
        <ele>36.3</ele>
        <time>2020-11-15T13:15:43Z</time>
      </trkpt>
      <trkpt lat="41.3752570" lon="2.1437460">
        <ele>36.3</ele>
        <time>2020-11-15T13:15:44Z</time>
      </trkpt>
      <trkpt lat="41.3752530" lon="2.1437220">
        <ele>36.3</ele>
        <time>2020-11-15T13:15:45Z</time>
      </trkpt>
      <trkpt lat="41.3752520" lon="2.1436860">
        <ele>36.3</ele>
        <time>2020-11-15T13:15:47Z</time>
      </trkpt>
      <trkpt lat="41.3752560" lon="2.1436620">
        <ele>36.3</ele>
        <time>2020-11-15T13:15:48Z</time>
      </trkpt>
      <trkpt lat="41.3752550" lon="2.1436290">
        <ele>36.3</ele>
        <time>2020-11-15T13:15:50Z</time>
      </trkpt>
      <trkpt lat="41.3752490" lon="2.1435930">
        <ele>36.3</ele>
        <time>2020-11-15T13:15:51Z</time>
      </trkpt>
      <trkpt lat="41.3752460" lon="2.1435730">
        <ele>36.3</ele>
        <time>2020-11-15T13:15:52Z</time>
      </trkpt>
      <trkpt lat="41.3752430" lon="2.1435270">
        <ele>36.3</ele>
        <time>2020-11-15T13:15:53Z</time>
      </trkpt>
      <trkpt lat="41.3752380" lon="2.1435080">
        <ele>36.3</ele>
        <time>2020-11-15T13:15:55Z</time>
      </trkpt>
      <trkpt lat="41.3752330" lon="2.1434910">
        <ele>36.3</ele>
        <time>2020-11-15T13:15:56Z</time>
      </trkpt>
      <trkpt lat="41.3752350" lon="2.1434620">
        <ele>36.3</ele>
        <time>2020-11-15T13:15:57Z</time>
      </trkpt>
      <trkpt lat="41.3752460" lon="2.1434240">
        <ele>36.3</ele>
        <time>2020-11-15T13:15:59Z</time>
      </trkpt>
      <trkpt lat="41.3752470" lon="2.1434170">
        <ele>36.3</ele>
        <time>2020-11-15T13:16:00Z</time>
      </trkpt>
      <trkpt lat="41.3752390" lon="2.1434050">
        <ele>36.3</ele>
        <time>2020-11-15T13:16:02Z</time>
      </trkpt>
      <trkpt lat="41.3752400" lon="2.1433890">
        <ele>36.3</ele>
        <time>2020-11-15T13:16:03Z</time>
      </trkpt>
      <trkpt lat="41.3752390" lon="2.1433760">
        <ele>36.3</ele>
        <time>2020-11-15T13:16:05Z</time>
      </trkpt>
      <trkpt lat="41.3752370" lon="2.1433620">
        <ele>36.3</ele>
        <time>2020-11-15T13:16:06Z</time>
      </trkpt>
      <trkpt lat="41.3752300" lon="2.1433440">
        <ele>36.3</ele>
        <time>2020-11-15T13:16:07Z</time>
      </trkpt>
      <trkpt lat="41.3752230" lon="2.1433280">
        <ele>36.3</ele>
        <time>2020-11-15T13:16:08Z</time>
      </trkpt>
      <trkpt lat="41.3752210" lon="2.1433150">
        <ele>36.3</ele>
        <time>2020-11-15T13:16:09Z</time>
      </trkpt>
      <trkpt lat="41.3752200" lon="2.1433030">
        <ele>36.3</ele>
        <time>2020-11-15T13:16:10Z</time>
      </trkpt>
      <trkpt lat="41.3752180" lon="2.1432900">
        <ele>36.3</ele>
        <time>2020-11-15T13:16:13Z</time>
      </trkpt>
      <trkpt lat="41.3752170" lon="2.1432770">
        <ele>36.3</ele>
        <time>2020-11-15T13:16:14Z</time>
      </trkpt>
      <trkpt lat="41.3752150" lon="2.1432640">
        <ele>36.3</ele>
        <time>2020-11-15T13:16:15Z</time>
      </trkpt>
      <trkpt lat="41.3752140" lon="2.1432520">
        <ele>36.3</ele>
        <time>2020-11-15T13:16:16Z</time>
      </trkpt>
      <trkpt lat="41.3752120" lon="2.1432390">
        <ele>36.3</ele>
        <time>2020-11-15T13:16:17Z</time>
      </trkpt>
      <trkpt lat="41.3752100" lon="2.1432260">
        <ele>36.3</ele>
        <time>2020-11-15T13:16:19Z</time>
      </trkpt>
      <trkpt lat="41.3752120" lon="2.1432160">
        <ele>36.3</ele>
        <time>2020-11-15T13:16:20Z</time>
      </trkpt>
      <trkpt lat="41.3752140" lon="2.1432010">
        <ele>36.3</ele>
        <time>2020-11-15T13:16:21Z</time>
      </trkpt>
      <trkpt lat="41.3752220" lon="2.1431630">
        <ele>36.3</ele>
        <time>2020-11-15T13:16:22Z</time>
      </trkpt>
      <trkpt lat="41.3752240" lon="2.1431540">
        <ele>36.3</ele>
        <time>2020-11-15T13:16:23Z</time>
      </trkpt>
      <trkpt lat="41.3752290" lon="2.1431370">
        <ele>36.3</ele>
        <time>2020-11-15T13:16:25Z</time>
      </trkpt>
      <trkpt lat="41.3752320" lon="2.1431190">
        <ele>36.3</ele>
        <time>2020-11-15T13:16:26Z</time>
      </trkpt>
      <trkpt lat="41.3752400" lon="2.1430790">
        <ele>36.3</ele>
        <time>2020-11-15T13:16:27Z</time>
      </trkpt>
      <trkpt lat="41.3752430" lon="2.1430670">
        <ele>36.3</ele>
        <time>2020-11-15T13:16:28Z</time>
      </trkpt>
      <trkpt lat="41.3752460" lon="2.1430490">
        <ele>36.3</ele>
        <time>2020-11-15T13:16:29Z</time>
      </trkpt>
      <trkpt lat="41.3752510" lon="2.1430320">
        <ele>36.3</ele>
        <time>2020-11-15T13:16:30Z</time>
      </trkpt>
      <trkpt lat="41.3752550" lon="2.1430150">
        <ele>36.2</ele>
        <time>2020-11-15T13:16:32Z</time>
      </trkpt>
      <trkpt lat="41.3752610" lon="2.1429930">
        <ele>36.2</ele>
        <time>2020-11-15T13:16:33Z</time>
      </trkpt>
      <trkpt lat="41.3752630" lon="2.1429800">
        <ele>36.2</ele>
        <time>2020-11-15T13:16:34Z</time>
      </trkpt>
      <trkpt lat="41.3752670" lon="2.1429520">
        <ele>36.2</ele>
        <time>2020-11-15T13:16:36Z</time>
      </trkpt>
      <trkpt lat="41.3752700" lon="2.1429240">
        <ele>36.2</ele>
        <time>2020-11-15T13:16:37Z</time>
      </trkpt>
      <trkpt lat="41.3752710" lon="2.1429080">
        <ele>36.2</ele>
        <time>2020-11-15T13:16:38Z</time>
      </trkpt>
      <trkpt lat="41.3752740" lon="2.1428750">
        <ele>36.1</ele>
        <time>2020-11-15T13:16:39Z</time>
      </trkpt>
      <trkpt lat="41.3752760" lon="2.1428610">
        <ele>36.1</ele>
        <time>2020-11-15T13:16:41Z</time>
      </trkpt>
      <trkpt lat="41.3752770" lon="2.1428460">
        <ele>36.1</ele>
        <time>2020-11-15T13:16:42Z</time>
      </trkpt>
      <trkpt lat="41.3752800" lon="2.1428330">
        <ele>36.1</ele>
        <time>2020-11-15T13:16:43Z</time>
      </trkpt>
      <trkpt lat="41.3752830" lon="2.1428170">
        <ele>36.1</ele>
        <time>2020-11-15T13:16:44Z</time>
      </trkpt>
      <trkpt lat="41.3752870" lon="2.1427870">
        <ele>36.1</ele>
        <time>2020-11-15T13:16:46Z</time>
      </trkpt>
      <trkpt lat="41.3752860" lon="2.1427590">
        <ele>36.1</ele>
        <time>2020-11-15T13:16:48Z</time>
      </trkpt>
      <trkpt lat="41.3752810" lon="2.1427470">
        <ele>36.1</ele>
        <time>2020-11-15T13:16:49Z</time>
      </trkpt>
      <trkpt lat="41.3752780" lon="2.1427190">
        <ele>36.1</ele>
        <time>2020-11-15T13:16:50Z</time>
      </trkpt>
      <trkpt lat="41.3752760" lon="2.1427010">
        <ele>36.0</ele>
        <time>2020-11-15T13:16:51Z</time>
      </trkpt>
      <trkpt lat="41.3752750" lon="2.1426840">
        <ele>36.0</ele>
        <time>2020-11-15T13:16:52Z</time>
      </trkpt>
      <trkpt lat="41.3752650" lon="2.1426660">
        <ele>36.0</ele>
        <time>2020-11-15T13:16:54Z</time>
      </trkpt>
      <trkpt lat="41.3752600" lon="2.1426560">
        <ele>36.0</ele>
        <time>2020-11-15T13:16:55Z</time>
      </trkpt>
      <trkpt lat="41.3752550" lon="2.1426450">
        <ele>36.0</ele>
        <time>2020-11-15T13:16:56Z</time>
      </trkpt>
      <trkpt lat="41.3752320" lon="2.1426190">
        <ele>36.0</ele>
        <time>2020-11-15T13:16:57Z</time>
      </trkpt>
      <trkpt lat="41.3752250" lon="2.1426110">
        <ele>36.0</ele>
        <time>2020-11-15T13:16:59Z</time>
      </trkpt>
      <trkpt lat="41.3752190" lon="2.1426040">
        <ele>36.0</ele>
        <time>2020-11-15T13:17:00Z</time>
      </trkpt>
      <trkpt lat="41.3752120" lon="2.1425960">
        <ele>36.0</ele>
        <time>2020-11-15T13:17:01Z</time>
      </trkpt>
      <trkpt lat="41.3752050" lon="2.1425880">
        <ele>36.0</ele>
        <time>2020-11-15T13:17:02Z</time>
      </trkpt>
      <trkpt lat="41.3751970" lon="2.1425610">
        <ele>36.0</ele>
        <time>2020-11-15T13:17:03Z</time>
      </trkpt>
      <trkpt lat="41.3751910" lon="2.1425480">
        <ele>36.0</ele>
        <time>2020-11-15T13:17:04Z</time>
      </trkpt>
      <trkpt lat="41.3751830" lon="2.1425350">
        <ele>36.0</ele>
        <time>2020-11-15T13:17:06Z</time>
      </trkpt>
      <trkpt lat="41.3751910" lon="2.1424980">
        <ele>36.0</ele>
        <time>2020-11-15T13:17:08Z</time>
      </trkpt>
      <trkpt lat="41.3751970" lon="2.1424980">
        <ele>36.0</ele>
        <time>2020-11-15T13:17:09Z</time>
      </trkpt>
      <trkpt lat="41.3752010" lon="2.1424880">
        <ele>36.0</ele>
        <time>2020-11-15T13:17:10Z</time>
      </trkpt>
      <trkpt lat="41.3752040" lon="2.1424780">
        <ele>36.0</ele>
        <time>2020-11-15T13:17:11Z</time>
      </trkpt>
      <trkpt lat="41.3752070" lon="2.1424680">
        <ele>36.0</ele>
        <time>2020-11-15T13:17:12Z</time>
      </trkpt>
      <trkpt lat="41.3752110" lon="2.1424570">
        <ele>36.0</ele>
        <time>2020-11-15T13:17:13Z</time>
      </trkpt>
      <trkpt lat="41.3752140" lon="2.1424470">
        <ele>36.0</ele>
        <time>2020-11-15T13:17:15Z</time>
      </trkpt>
      <trkpt lat="41.3752170" lon="2.1424370">
        <ele>36.0</ele>
        <time>2020-11-15T13:17:16Z</time>
      </trkpt>
      <trkpt lat="41.3752210" lon="2.1424270">
        <ele>36.0</ele>
        <time>2020-11-15T13:17:17Z</time>
      </trkpt>
      <trkpt lat="41.3752240" lon="2.1424170">
        <ele>36.0</ele>
        <time>2020-11-15T13:17:18Z</time>
      </trkpt>
      <trkpt lat="41.3752360" lon="2.1424070">
        <ele>36.0</ele>
        <time>2020-11-15T13:17:19Z</time>
      </trkpt>
      <trkpt lat="41.3752420" lon="2.1423880">
        <ele>36.0</ele>
        <time>2020-11-15T13:17:21Z</time>
      </trkpt>
      <trkpt lat="41.3752450" lon="2.1423740">
        <ele>36.0</ele>
        <time>2020-11-15T13:17:22Z</time>
      </trkpt>
      <trkpt lat="41.3752510" lon="2.1423550">
        <ele>36.0</ele>
        <time>2020-11-15T13:17:23Z</time>
      </trkpt>
      <trkpt lat="41.3752540" lon="2.1423430">
        <ele>36.0</ele>
        <time>2020-11-15T13:17:24Z</time>
      </trkpt>
      <trkpt lat="41.3752570" lon="2.1423290">
        <ele>35.9</ele>
        <time>2020-11-15T13:17:25Z</time>
      </trkpt>
      <trkpt lat="41.3752580" lon="2.1423120">
        <ele>35.9</ele>
        <time>2020-11-15T13:17:26Z</time>
      </trkpt>
      <trkpt lat="41.3752600" lon="2.1422860">
        <ele>35.9</ele>
        <time>2020-11-15T13:17:28Z</time>
      </trkpt>
      <trkpt lat="41.3752580" lon="2.1422750">
        <ele>35.9</ele>
        <time>2020-11-15T13:17:29Z</time>
      </trkpt>
      <trkpt lat="41.3752570" lon="2.1422610">
        <ele>35.9</ele>
        <time>2020-11-15T13:17:30Z</time>
      </trkpt>
      <trkpt lat="41.3752550" lon="2.1422460">
        <ele>35.9</ele>
        <time>2020-11-15T13:17:31Z</time>
      </trkpt>
      <trkpt lat="41.3752600" lon="2.1422070">
        <ele>35.9</ele>
        <time>2020-11-15T13:17:33Z</time>
      </trkpt>
      <trkpt lat="41.3752650" lon="2.1421980">
        <ele>35.9</ele>
        <time>2020-11-15T13:17:34Z</time>
      </trkpt>
      <trkpt lat="41.3752660" lon="2.1421720">
        <ele>35.9</ele>
        <time>2020-11-15T13:17:36Z</time>
      </trkpt>
      <trkpt lat="41.3752710" lon="2.1421350">
        <ele>35.9</ele>
        <time>2020-11-15T13:17:37Z</time>
      </trkpt>
      <trkpt lat="41.3752770" lon="2.1421230">
        <ele>35.9</ele>
        <time>2020-11-15T13:17:39Z</time>
      </trkpt>
      <trkpt lat="41.3752780" lon="2.1421090">
        <ele>35.9</ele>
        <time>2020-11-15T13:17:40Z</time>
      </trkpt>
      <trkpt lat="41.3752720" lon="2.1420820">
        <ele>35.9</ele>
        <time>2020-11-15T13:17:42Z</time>
      </trkpt>
      <trkpt lat="41.3752690" lon="2.1420580">
        <ele>35.8</ele>
        <time>2020-11-15T13:17:43Z</time>
      </trkpt>
      <trkpt lat="41.3752680" lon="2.1420410">
        <ele>35.8</ele>
        <time>2020-11-15T13:17:44Z</time>
      </trkpt>
      <trkpt lat="41.3752620" lon="2.1420110">
        <ele>35.8</ele>
        <time>2020-11-15T13:17:45Z</time>
      </trkpt>
      <trkpt lat="41.3752600" lon="2.1419960">
        <ele>35.8</ele>
        <time>2020-11-15T13:17:47Z</time>
      </trkpt>
      <trkpt lat="41.3752570" lon="2.1419800">
        <ele>35.8</ele>
        <time>2020-11-15T13:17:48Z</time>
      </trkpt>
      <trkpt lat="41.3752610" lon="2.1419710">
        <ele>35.8</ele>
        <time>2020-11-15T13:17:49Z</time>
      </trkpt>
      <trkpt lat="41.3752620" lon="2.1419610">
        <ele>35.8</ele>
        <time>2020-11-15T13:17:50Z</time>
      </trkpt>
      <trkpt lat="41.3752590" lon="2.1419390">
        <ele>35.8</ele>
        <time>2020-11-15T13:17:52Z</time>
      </trkpt>
      <trkpt lat="41.3752640" lon="2.1419060">
        <ele>35.8</ele>
        <time>2020-11-15T13:17:54Z</time>
      </trkpt>
      <trkpt lat="41.3752630" lon="2.1418910">
        <ele>35.8</ele>
        <time>2020-11-15T13:17:55Z</time>
      </trkpt>
      <trkpt lat="41.3752600" lon="2.1418770">
        <ele>35.8</ele>
        <time>2020-11-15T13:17:56Z</time>
      </trkpt>
      <trkpt lat="41.3752630" lon="2.1418410">
        <ele>35.7</ele>
        <time>2020-11-15T13:17:58Z</time>
      </trkpt>
      <trkpt lat="41.3752750" lon="2.1418190">
        <ele>35.7</ele>
        <time>2020-11-15T13:17:59Z</time>
      </trkpt>
      <trkpt lat="41.3752780" lon="2.1418080">
        <ele>35.7</ele>
        <time>2020-11-15T13:18:00Z</time>
      </trkpt>
      <trkpt lat="41.3752800" lon="2.1417980">
        <ele>35.7</ele>
        <time>2020-11-15T13:18:01Z</time>
      </trkpt>
      <trkpt lat="41.3752880" lon="2.1417540">
        <ele>35.7</ele>
        <time>2020-11-15T13:18:03Z</time>
      </trkpt>
      <trkpt lat="41.3752910" lon="2.1417430">
        <ele>35.7</ele>
        <time>2020-11-15T13:18:04Z</time>
      </trkpt>
      <trkpt lat="41.3752940" lon="2.1417120">
        <ele>35.7</ele>
        <time>2020-11-15T13:18:06Z</time>
      </trkpt>
      <trkpt lat="41.3752960" lon="2.1416960">
        <ele>35.7</ele>
        <time>2020-11-15T13:18:07Z</time>
      </trkpt>
      <trkpt lat="41.3752970" lon="2.1416810">
        <ele>35.7</ele>
        <time>2020-11-15T13:18:08Z</time>
      </trkpt>
      <trkpt lat="41.3752980" lon="2.1416670">
        <ele>35.7</ele>
        <time>2020-11-15T13:18:09Z</time>
      </trkpt>
      <trkpt lat="41.3753000" lon="2.1416390">
        <ele>35.7</ele>
        <time>2020-11-15T13:18:10Z</time>
      </trkpt>
      <trkpt lat="41.3753010" lon="2.1416210">
        <ele>35.6</ele>
        <time>2020-11-15T13:18:11Z</time>
      </trkpt>
      <trkpt lat="41.3753020" lon="2.1415940">
        <ele>35.6</ele>
        <time>2020-11-15T13:18:13Z</time>
      </trkpt>
      <trkpt lat="41.3753020" lon="2.1415850">
        <ele>35.6</ele>
        <time>2020-11-15T13:18:14Z</time>
      </trkpt>
      <trkpt lat="41.3753010" lon="2.1415690">
        <ele>35.6</ele>
        <time>2020-11-15T13:18:15Z</time>
      </trkpt>
      <trkpt lat="41.3753000" lon="2.1415510">
        <ele>35.6</ele>
        <time>2020-11-15T13:18:16Z</time>
      </trkpt>
      <trkpt lat="41.3752990" lon="2.1415170">
        <ele>35.6</ele>
        <time>2020-11-15T13:18:18Z</time>
      </trkpt>
      <trkpt lat="41.3752960" lon="2.1415110">
        <ele>35.6</ele>
        <time>2020-11-15T13:18:19Z</time>
      </trkpt>
      <trkpt lat="41.3752950" lon="2.1414980">
        <ele>35.6</ele>
        <time>2020-11-15T13:18:20Z</time>
      </trkpt>
      <trkpt lat="41.3752930" lon="2.1414830">
        <ele>35.6</ele>
        <time>2020-11-15T13:18:21Z</time>
      </trkpt>
      <trkpt lat="41.3752910" lon="2.1414670">
        <ele>35.6</ele>
        <time>2020-11-15T13:18:22Z</time>
      </trkpt>
      <trkpt lat="41.3752910" lon="2.1414540">
        <ele>35.6</ele>
        <time>2020-11-15T13:18:23Z</time>
      </trkpt>
      <trkpt lat="41.3752900" lon="2.1414500">
        <ele>35.6</ele>
        <time>2020-11-15T13:18:24Z</time>
      </trkpt>
      <trkpt lat="41.3752870" lon="2.1414300">
        <ele>35.6</ele>
        <time>2020-11-15T13:18:26Z</time>
      </trkpt>
      <trkpt lat="41.3752860" lon="2.1414090">
        <ele>35.6</ele>
        <time>2020-11-15T13:18:28Z</time>
      </trkpt>
      <trkpt lat="41.3752900" lon="2.1414070">
        <ele>35.6</ele>
        <time>2020-11-15T13:18:29Z</time>
      </trkpt>
      <trkpt lat="41.3752920" lon="2.1413920">
        <ele>35.6</ele>
        <time>2020-11-15T13:18:30Z</time>
      </trkpt>
      <trkpt lat="41.3752930" lon="2.1413770">
        <ele>35.6</ele>
        <time>2020-11-15T13:18:32Z</time>
      </trkpt>
      <trkpt lat="41.3752970" lon="2.1413280">
        <ele>35.6</ele>
        <time>2020-11-15T13:18:34Z</time>
      </trkpt>
      <trkpt lat="41.3753040" lon="2.1412910">
        <ele>35.6</ele>
        <time>2020-11-15T13:18:35Z</time>
      </trkpt>
      <trkpt lat="41.3753060" lon="2.1412780">
        <ele>35.6</ele>
        <time>2020-11-15T13:18:36Z</time>
      </trkpt>
      <trkpt lat="41.3753070" lon="2.1412590">
        <ele>35.6</ele>
        <time>2020-11-15T13:18:37Z</time>
      </trkpt>
      <trkpt lat="41.3753090" lon="2.1412320">
        <ele>35.6</ele>
        <time>2020-11-15T13:18:38Z</time>
      </trkpt>
      <trkpt lat="41.3753110" lon="2.1412190">
        <ele>35.6</ele>
        <time>2020-11-15T13:18:40Z</time>
      </trkpt>
      <trkpt lat="41.3753120" lon="2.1412040">
        <ele>35.6</ele>
        <time>2020-11-15T13:18:41Z</time>
      </trkpt>
      <trkpt lat="41.3753130" lon="2.1411650">
        <ele>35.6</ele>
        <time>2020-11-15T13:18:43Z</time>
      </trkpt>
      <trkpt lat="41.3753150" lon="2.1411470">
        <ele>35.6</ele>
        <time>2020-11-15T13:18:44Z</time>
      </trkpt>
      <trkpt lat="41.3753170" lon="2.1411280">
        <ele>35.6</ele>
        <time>2020-11-15T13:18:46Z</time>
      </trkpt>
      <trkpt lat="41.3753180" lon="2.1411100">
        <ele>35.6</ele>
        <time>2020-11-15T13:18:47Z</time>
      </trkpt>
      <trkpt lat="41.3753150" lon="2.1410820">
        <ele>35.6</ele>
        <time>2020-11-15T13:18:48Z</time>
      </trkpt>
      <trkpt lat="41.3753130" lon="2.1410640">
        <ele>35.7</ele>
        <time>2020-11-15T13:18:49Z</time>
      </trkpt>
      <trkpt lat="41.3753120" lon="2.1410460">
        <ele>35.7</ele>
        <time>2020-11-15T13:18:50Z</time>
      </trkpt>
      <trkpt lat="41.3753110" lon="2.1410290">
        <ele>35.7</ele>
        <time>2020-11-15T13:18:52Z</time>
      </trkpt>
      <trkpt lat="41.3753120" lon="2.1410070">
        <ele>35.7</ele>
        <time>2020-11-15T13:18:53Z</time>
      </trkpt>
      <trkpt lat="41.3753130" lon="2.1410030">
        <ele>35.7</ele>
        <time>2020-11-15T13:18:54Z</time>
      </trkpt>
      <trkpt lat="41.3753120" lon="2.1409830">
        <ele>35.7</ele>
        <time>2020-11-15T13:18:56Z</time>
      </trkpt>
      <trkpt lat="41.3753110" lon="2.1409680">
        <ele>35.7</ele>
        <time>2020-11-15T13:18:57Z</time>
      </trkpt>
      <trkpt lat="41.3753060" lon="2.1409500">
        <ele>35.7</ele>
        <time>2020-11-15T13:18:59Z</time>
      </trkpt>
      <trkpt lat="41.3753030" lon="2.1409420">
        <ele>35.7</ele>
        <time>2020-11-15T13:19:00Z</time>
      </trkpt>
      <trkpt lat="41.3753000" lon="2.1409260">
        <ele>35.7</ele>
        <time>2020-11-15T13:19:01Z</time>
      </trkpt>
      <trkpt lat="41.3752970" lon="2.1409100">
        <ele>35.7</ele>
        <time>2020-11-15T13:19:02Z</time>
      </trkpt>
      <trkpt lat="41.3753040" lon="2.1408910">
        <ele>35.7</ele>
        <time>2020-11-15T13:19:04Z</time>
      </trkpt>
      <trkpt lat="41.3753070" lon="2.1408800">
        <ele>35.7</ele>
        <time>2020-11-15T13:19:05Z</time>
      </trkpt>
      <trkpt lat="41.3753090" lon="2.1408640">
        <ele>35.7</ele>
        <time>2020-11-15T13:19:06Z</time>
      </trkpt>
      <trkpt lat="41.3753090" lon="2.1408470">
        <ele>35.7</ele>
        <time>2020-11-15T13:19:07Z</time>
      </trkpt>
      <trkpt lat="41.3753090" lon="2.1408290">
        <ele>35.8</ele>
        <time>2020-11-15T13:19:08Z</time>
      </trkpt>
      <trkpt lat="41.3753090" lon="2.1408150">
        <ele>35.8</ele>
        <time>2020-11-15T13:19:10Z</time>
      </trkpt>
      <trkpt lat="41.3753080" lon="2.1408010">
        <ele>35.8</ele>
        <time>2020-11-15T13:19:11Z</time>
      </trkpt>
      <trkpt lat="41.3753080" lon="2.1407610">
        <ele>35.8</ele>
        <time>2020-11-15T13:19:12Z</time>
      </trkpt>
      <trkpt lat="41.3753090" lon="2.1407390">
        <ele>35.8</ele>
        <time>2020-11-15T13:19:13Z</time>
      </trkpt>
      <trkpt lat="41.3753090" lon="2.1407150">
        <ele>35.8</ele>
        <time>2020-11-15T13:19:14Z</time>
      </trkpt>
      <trkpt lat="41.3753080" lon="2.1406930">
        <ele>35.8</ele>
        <time>2020-11-15T13:19:16Z</time>
      </trkpt>
      <trkpt lat="41.3753060" lon="2.1406670">
        <ele>35.9</ele>
        <time>2020-11-15T13:19:17Z</time>
      </trkpt>
      <trkpt lat="41.3753090" lon="2.1406340">
        <ele>35.9</ele>
        <time>2020-11-15T13:19:19Z</time>
      </trkpt>
      <trkpt lat="41.3753140" lon="2.1406030">
        <ele>35.9</ele>
        <time>2020-11-15T13:19:21Z</time>
      </trkpt>
      <trkpt lat="41.3753150" lon="2.1405860">
        <ele>35.9</ele>
        <time>2020-11-15T13:19:22Z</time>
      </trkpt>
      <trkpt lat="41.3753220" lon="2.1405550">
        <ele>35.9</ele>
        <time>2020-11-15T13:19:23Z</time>
      </trkpt>
      <trkpt lat="41.3753360" lon="2.1405270">
        <ele>36.0</ele>
        <time>2020-11-15T13:19:25Z</time>
      </trkpt>
      <trkpt lat="41.3753390" lon="2.1404820">
        <ele>36.0</ele>
        <time>2020-11-15T13:19:27Z</time>
      </trkpt>
      <trkpt lat="41.3753390" lon="2.1404670">
        <ele>36.0</ele>
        <time>2020-11-15T13:19:28Z</time>
      </trkpt>
      <trkpt lat="41.3753390" lon="2.1404460">
        <ele>36.0</ele>
        <time>2020-11-15T13:19:29Z</time>
      </trkpt>
      <trkpt lat="41.3753370" lon="2.1404280">
        <ele>36.0</ele>
        <time>2020-11-15T13:19:30Z</time>
      </trkpt>
      <trkpt lat="41.3753360" lon="2.1404100">
        <ele>36.0</ele>
        <time>2020-11-15T13:19:31Z</time>
      </trkpt>
      <trkpt lat="41.3753350" lon="2.1403780">
        <ele>36.1</ele>
        <time>2020-11-15T13:19:33Z</time>
      </trkpt>
      <trkpt lat="41.3753360" lon="2.1403620">
        <ele>36.1</ele>
        <time>2020-11-15T13:19:34Z</time>
      </trkpt>
      <trkpt lat="41.3753380" lon="2.1403410">
        <ele>36.1</ele>
        <time>2020-11-15T13:19:36Z</time>
      </trkpt>
      <trkpt lat="41.3753380" lon="2.1403250">
        <ele>36.1</ele>
        <time>2020-11-15T13:19:37Z</time>
      </trkpt>
      <trkpt lat="41.3753370" lon="2.1402970">
        <ele>36.2</ele>
        <time>2020-11-15T13:19:38Z</time>
      </trkpt>
      <trkpt lat="41.3753360" lon="2.1402870">
        <ele>36.2</ele>
        <time>2020-11-15T13:19:39Z</time>
      </trkpt>
      <trkpt lat="41.3753340" lon="2.1402740">
        <ele>36.2</ele>
        <time>2020-11-15T13:19:40Z</time>
      </trkpt>
      <trkpt lat="41.3753330" lon="2.1402620">
        <ele>36.2</ele>
        <time>2020-11-15T13:19:41Z</time>
      </trkpt>
      <trkpt lat="41.3753300" lon="2.1402330">
        <ele>36.2</ele>
        <time>2020-11-15T13:19:43Z</time>
      </trkpt>
      <trkpt lat="41.3753300" lon="2.1402250">
        <ele>36.3</ele>
        <time>2020-11-15T13:19:45Z</time>
      </trkpt>
      <trkpt lat="41.3753290" lon="2.1402150">
        <ele>36.3</ele>
        <time>2020-11-15T13:19:46Z</time>
      </trkpt>
      <trkpt lat="41.3753280" lon="2.1402040">
        <ele>36.3</ele>
        <time>2020-11-15T13:19:47Z</time>
      </trkpt>
      <trkpt lat="41.3753230" lon="2.1401720">
        <ele>36.3</ele>
        <time>2020-11-15T13:19:49Z</time>
      </trkpt>
      <trkpt lat="41.3753160" lon="2.1401590">
        <ele>36.3</ele>
        <time>2020-11-15T13:19:51Z</time>
      </trkpt>
      <trkpt lat="41.3753130" lon="2.1401470">
        <ele>36.4</ele>
        <time>2020-11-15T13:19:52Z</time>
      </trkpt>
      <trkpt lat="41.3753120" lon="2.1401300">
        <ele>36.4</ele>
        <time>2020-11-15T13:19:53Z</time>
      </trkpt>
      <trkpt lat="41.3753190" lon="2.1401120">
        <ele>36.4</ele>
        <time>2020-11-15T13:19:54Z</time>
      </trkpt>
      <trkpt lat="41.3753190" lon="2.1401000">
        <ele>36.4</ele>
        <time>2020-11-15T13:19:56Z</time>
      </trkpt>
      <trkpt lat="41.3753200" lon="2.1400870">
        <ele>36.4</ele>
        <time>2020-11-15T13:19:57Z</time>
      </trkpt>
      <trkpt lat="41.3753200" lon="2.1400750">
        <ele>36.4</ele>
        <time>2020-11-15T13:19:58Z</time>
      </trkpt>
      <trkpt lat="41.3753200" lon="2.1400620">
        <ele>36.4</ele>
        <time>2020-11-15T13:19:59Z</time>
      </trkpt>
      <trkpt lat="41.3753190" lon="2.1400480">
        <ele>36.5</ele>
        <time>2020-11-15T13:20:00Z</time>
      </trkpt>
      <trkpt lat="41.3753170" lon="2.1400330">
        <ele>36.5</ele>
        <time>2020-11-15T13:20:02Z</time>
      </trkpt>
      <trkpt lat="41.3753160" lon="2.1400190">
        <ele>36.5</ele>
        <time>2020-11-15T13:20:03Z</time>
      </trkpt>
      <trkpt lat="41.3753150" lon="2.1400040">
        <ele>36.5</ele>
        <time>2020-11-15T13:20:04Z</time>
      </trkpt>
      <trkpt lat="41.3753070" lon="2.1399440">
        <ele>36.6</ele>
        <time>2020-11-15T13:20:06Z</time>
      </trkpt>
      <trkpt lat="41.3753050" lon="2.1399270">
        <ele>36.6</ele>
        <time>2020-11-15T13:20:07Z</time>
      </trkpt>
      <trkpt lat="41.3753040" lon="2.1399100">
        <ele>36.6</ele>
        <time>2020-11-15T13:20:08Z</time>
      </trkpt>
      <trkpt lat="41.3753090" lon="2.1399010">
        <ele>36.6</ele>
        <time>2020-11-15T13:20:09Z</time>
      </trkpt>
      <trkpt lat="41.3753100" lon="2.1398870">
        <ele>36.6</ele>
        <time>2020-11-15T13:20:11Z</time>
      </trkpt>
      <trkpt lat="41.3753090" lon="2.1398720">
        <ele>36.6</ele>
        <time>2020-11-15T13:20:12Z</time>
      </trkpt>
      <trkpt lat="41.3753110" lon="2.1398430">
        <ele>36.7</ele>
        <time>2020-11-15T13:20:13Z</time>
      </trkpt>
      <trkpt lat="41.3753170" lon="2.1398320">
        <ele>36.7</ele>
        <time>2020-11-15T13:20:14Z</time>
      </trkpt>
      <trkpt lat="41.3753200" lon="2.1398180">
        <ele>36.7</ele>
        <time>2020-11-15T13:20:16Z</time>
      </trkpt>
      <trkpt lat="41.3753230" lon="2.1397960">
        <ele>36.7</ele>
        <time>2020-11-15T13:20:17Z</time>
      </trkpt>
      <trkpt lat="41.3753270" lon="2.1397690">
        <ele>36.8</ele>
        <time>2020-11-15T13:20:19Z</time>
      </trkpt>
      <trkpt lat="41.3753290" lon="2.1397540">
        <ele>36.8</ele>
        <time>2020-11-15T13:20:20Z</time>
      </trkpt>
      <trkpt lat="41.3753310" lon="2.1397370">
        <ele>36.8</ele>
        <time>2020-11-15T13:20:21Z</time>
      </trkpt>
      <trkpt lat="41.3753330" lon="2.1397200">
        <ele>36.8</ele>
        <time>2020-11-15T13:20:22Z</time>
      </trkpt>
      <trkpt lat="41.3753370" lon="2.1396950">
        <ele>36.9</ele>
        <time>2020-11-15T13:20:24Z</time>
      </trkpt>
      <trkpt lat="41.3753390" lon="2.1396890">
        <ele>36.9</ele>
        <time>2020-11-15T13:20:25Z</time>
      </trkpt>
      <trkpt lat="41.3753400" lon="2.1396770">
        <ele>36.9</ele>
        <time>2020-11-15T13:20:26Z</time>
      </trkpt>
      <trkpt lat="41.3753420" lon="2.1396650">
        <ele>36.9</ele>
        <time>2020-11-15T13:20:27Z</time>
      </trkpt>
      <trkpt lat="41.3753470" lon="2.1396340">
        <ele>36.9</ele>
        <time>2020-11-15T13:20:29Z</time>
      </trkpt>
      <trkpt lat="41.3753560" lon="2.1396210">
        <ele>37.0</ele>
        <time>2020-11-15T13:20:30Z</time>
      </trkpt>
      <trkpt lat="41.3753600" lon="2.1396090">
        <ele>37.0</ele>
        <time>2020-11-15T13:20:31Z</time>
      </trkpt>
      <trkpt lat="41.3753650" lon="2.1395980">
        <ele>37.0</ele>
        <time>2020-11-15T13:20:32Z</time>
      </trkpt>
      <trkpt lat="41.3753690" lon="2.1395860">
        <ele>37.0</ele>
        <time>2020-11-15T13:20:33Z</time>
      </trkpt>
      <trkpt lat="41.3753690" lon="2.1395750">
        <ele>37.0</ele>
        <time>2020-11-15T13:20:35Z</time>
      </trkpt>
      <trkpt lat="41.3753690" lon="2.1395630">
        <ele>37.1</ele>
        <time>2020-11-15T13:20:36Z</time>
      </trkpt>
      <trkpt lat="41.3753690" lon="2.1395460">
        <ele>37.1</ele>
        <time>2020-11-15T13:20:37Z</time>
      </trkpt>
      <trkpt lat="41.3753660" lon="2.1395220">
        <ele>37.1</ele>
        <time>2020-11-15T13:20:38Z</time>
      </trkpt>
      <trkpt lat="41.3753590" lon="2.1395150">
        <ele>37.1</ele>
        <time>2020-11-15T13:20:39Z</time>
      </trkpt>
      <trkpt lat="41.3753560" lon="2.1395010">
        <ele>37.2</ele>
        <time>2020-11-15T13:20:41Z</time>
      </trkpt>
      <trkpt lat="41.3753540" lon="2.1394890">
        <ele>37.2</ele>
        <time>2020-11-15T13:20:42Z</time>
      </trkpt>
      <trkpt lat="41.3753490" lon="2.1394550">
        <ele>37.2</ele>
        <time>2020-11-15T13:20:43Z</time>
      </trkpt>
      <trkpt lat="41.3753410" lon="2.1394380">
        <ele>37.2</ele>
        <time>2020-11-15T13:20:44Z</time>
      </trkpt>
      <trkpt lat="41.3753370" lon="2.1394200">
        <ele>37.3</ele>
        <time>2020-11-15T13:20:46Z</time>
      </trkpt>
      <trkpt lat="41.3753350" lon="2.1394040">
        <ele>37.3</ele>
        <time>2020-11-15T13:20:47Z</time>
      </trkpt>
      <trkpt lat="41.3753340" lon="2.1393890">
        <ele>37.3</ele>
        <time>2020-11-15T13:20:48Z</time>
      </trkpt>
      <trkpt lat="41.3753380" lon="2.1393490">
        <ele>37.4</ele>
        <time>2020-11-15T13:20:50Z</time>
      </trkpt>
      <trkpt lat="41.3753400" lon="2.1393180">
        <ele>37.4</ele>
        <time>2020-11-15T13:20:51Z</time>
      </trkpt>
      <trkpt lat="41.3753410" lon="2.1393010">
        <ele>37.4</ele>
        <time>2020-11-15T13:20:52Z</time>
      </trkpt>
      <trkpt lat="41.3753420" lon="2.1392840">
        <ele>37.5</ele>
        <time>2020-11-15T13:20:53Z</time>
      </trkpt>
      <trkpt lat="41.3753420" lon="2.1392720">
        <ele>37.5</ele>
        <time>2020-11-15T13:20:54Z</time>
      </trkpt>
      <trkpt lat="41.3753420" lon="2.1392600">
        <ele>37.5</ele>
        <time>2020-11-15T13:20:56Z</time>
      </trkpt>
      <trkpt lat="41.3753420" lon="2.1392450">
        <ele>37.5</ele>
        <time>2020-11-15T13:20:57Z</time>
      </trkpt>
      <trkpt lat="41.3753470" lon="2.1391960">
        <ele>37.6</ele>
        <time>2020-11-15T13:20:59Z</time>
      </trkpt>
      <trkpt lat="41.3753480" lon="2.1391840">
        <ele>37.6</ele>
        <time>2020-11-15T13:21:00Z</time>
      </trkpt>
      <trkpt lat="41.3753490" lon="2.1391720">
        <ele>37.6</ele>
        <time>2020-11-15T13:21:01Z</time>
      </trkpt>
      <trkpt lat="41.3753500" lon="2.1391600">
        <ele>37.6</ele>
        <time>2020-11-15T13:21:02Z</time>
      </trkpt>
      <trkpt lat="41.3753510" lon="2.1391480">
        <ele>37.7</ele>
        <time>2020-11-15T13:21:03Z</time>
      </trkpt>
      <trkpt lat="41.3753500" lon="2.1391320">
        <ele>37.7</ele>
        <time>2020-11-15T13:21:04Z</time>
      </trkpt>
      <trkpt lat="41.3753500" lon="2.1391160">
        <ele>37.7</ele>
        <time>2020-11-15T13:21:06Z</time>
      </trkpt>
      <trkpt lat="41.3753490" lon="2.1391030">
        <ele>37.7</ele>
        <time>2020-11-15T13:21:07Z</time>
      </trkpt>
      <trkpt lat="41.3753450" lon="2.1390640">
        <ele>37.8</ele>
        <time>2020-11-15T13:21:09Z</time>
      </trkpt>
      <trkpt lat="41.3753380" lon="2.1390420">
        <ele>37.8</ele>
        <time>2020-11-15T13:21:10Z</time>
      </trkpt>
      <trkpt lat="41.3753350" lon="2.1390250">
        <ele>37.8</ele>
        <time>2020-11-15T13:21:11Z</time>
      </trkpt>
      <trkpt lat="41.3753300" lon="2.1389880">
        <ele>37.9</ele>
        <time>2020-11-15T13:21:12Z</time>
      </trkpt>
      <trkpt lat="41.3753260" lon="2.1389700">
        <ele>37.9</ele>
        <time>2020-11-15T13:21:13Z</time>
      </trkpt>
      <trkpt lat="41.3753140" lon="2.1389480">
        <ele>38.0</ele>
        <time>2020-11-15T13:21:15Z</time>
      </trkpt>
      <trkpt lat="41.3753080" lon="2.1389280">
        <ele>38.0</ele>
        <time>2020-11-15T13:21:16Z</time>
      </trkpt>
      <trkpt lat="41.3753080" lon="2.1388850">
        <ele>38.1</ele>
        <time>2020-11-15T13:21:18Z</time>
      </trkpt>
      <trkpt lat="41.3753110" lon="2.1388710">
        <ele>38.1</ele>
        <time>2020-11-15T13:21:19Z</time>
      </trkpt>
      <trkpt lat="41.3753280" lon="2.1388430">
        <ele>38.1</ele>
        <time>2020-11-15T13:21:20Z</time>
      </trkpt>
      <trkpt lat="41.3753330" lon="2.1388300">
        <ele>38.2</ele>
        <time>2020-11-15T13:21:21Z</time>
      </trkpt>
      <trkpt lat="41.3753370" lon="2.1388130">
        <ele>38.2</ele>
        <time>2020-11-15T13:21:23Z</time>
      </trkpt>
      <trkpt lat="41.3753430" lon="2.1387890">
        <ele>38.2</ele>
        <time>2020-11-15T13:21:24Z</time>
      </trkpt>
      <trkpt lat="41.3753520" lon="2.1387860">
        <ele>38.2</ele>
        <time>2020-11-15T13:21:25Z</time>
      </trkpt>
      <trkpt lat="41.3753590" lon="2.1387710">
        <ele>38.3</ele>
        <time>2020-11-15T13:21:26Z</time>
      </trkpt>
      <trkpt lat="41.3753610" lon="2.1387570">
        <ele>38.3</ele>
        <time>2020-11-15T13:21:28Z</time>
      </trkpt>
      <trkpt lat="41.3753610" lon="2.1387430">
        <ele>38.3</ele>
        <time>2020-11-15T13:21:29Z</time>
      </trkpt>
      <trkpt lat="41.3753600" lon="2.1387360">
        <ele>38.3</ele>
        <time>2020-11-15T13:21:31Z</time>
      </trkpt>
      <trkpt lat="41.3753600" lon="2.1387270">
        <ele>38.3</ele>
        <time>2020-11-15T13:21:32Z</time>
      </trkpt>
      <trkpt lat="41.3753590" lon="2.1387120">
        <ele>38.3</ele>
        <time>2020-11-15T13:21:33Z</time>
      </trkpt>
      <trkpt lat="41.3753550" lon="2.1386720">
        <ele>38.4</ele>
        <time>2020-11-15T13:21:34Z</time>
      </trkpt>
      <trkpt lat="41.3753550" lon="2.1386550">
        <ele>38.4</ele>
        <time>2020-11-15T13:21:36Z</time>
      </trkpt>
      <trkpt lat="41.3753560" lon="2.1386390">
        <ele>38.4</ele>
        <time>2020-11-15T13:21:37Z</time>
      </trkpt>
      <trkpt lat="41.3753570" lon="2.1386250">
        <ele>38.5</ele>
        <time>2020-11-15T13:21:38Z</time>
      </trkpt>
      <trkpt lat="41.3753570" lon="2.1385990">
        <ele>38.5</ele>
        <time>2020-11-15T13:21:39Z</time>
      </trkpt>
      <trkpt lat="41.3753520" lon="2.1385870">
        <ele>38.5</ele>
        <time>2020-11-15T13:21:40Z</time>
      </trkpt>
      <trkpt lat="41.3753500" lon="2.1385550">
        <ele>38.6</ele>
        <time>2020-11-15T13:21:42Z</time>
      </trkpt>
      <trkpt lat="41.3753500" lon="2.1385400">
        <ele>38.6</ele>
        <time>2020-11-15T13:21:43Z</time>
      </trkpt>
      <trkpt lat="41.3753500" lon="2.1385250">
        <ele>38.6</ele>
        <time>2020-11-15T13:21:44Z</time>
      </trkpt>
      <trkpt lat="41.3753500" lon="2.1385140">
        <ele>38.6</ele>
        <time>2020-11-15T13:21:45Z</time>
      </trkpt>
      <trkpt lat="41.3753490" lon="2.1384990">
        <ele>38.7</ele>
        <time>2020-11-15T13:21:46Z</time>
      </trkpt>
      <trkpt lat="41.3753490" lon="2.1384830">
        <ele>38.7</ele>
        <time>2020-11-15T13:21:48Z</time>
      </trkpt>
      <trkpt lat="41.3753510" lon="2.1384540">
        <ele>38.7</ele>
        <time>2020-11-15T13:21:49Z</time>
      </trkpt>
      <trkpt lat="41.3753570" lon="2.1384360">
        <ele>38.8</ele>
        <time>2020-11-15T13:21:51Z</time>
      </trkpt>
      <trkpt lat="41.3753630" lon="2.1384100">
        <ele>38.8</ele>
        <time>2020-11-15T13:21:52Z</time>
      </trkpt>
      <trkpt lat="41.3753670" lon="2.1383970">
        <ele>38.8</ele>
        <time>2020-11-15T13:21:53Z</time>
      </trkpt>
      <trkpt lat="41.3753700" lon="2.1383850">
        <ele>38.9</ele>
        <time>2020-11-15T13:21:54Z</time>
      </trkpt>
      <trkpt lat="41.3753730" lon="2.1383730">
        <ele>38.9</ele>
        <time>2020-11-15T13:21:55Z</time>
      </trkpt>
      <trkpt lat="41.3753760" lon="2.1383540">
        <ele>38.9</ele>
        <time>2020-11-15T13:21:57Z</time>
      </trkpt>
      <trkpt lat="41.3753800" lon="2.1383130">
        <ele>39.0</ele>
        <time>2020-11-15T13:21:59Z</time>
      </trkpt>
      <trkpt lat="41.3753850" lon="2.1382900">
        <ele>39.0</ele>
        <time>2020-11-15T13:22:00Z</time>
      </trkpt>
      <trkpt lat="41.3753860" lon="2.1382700">
        <ele>39.0</ele>
        <time>2020-11-15T13:22:01Z</time>
      </trkpt>
      <trkpt lat="41.3753870" lon="2.1382500">
        <ele>39.1</ele>
        <time>2020-11-15T13:22:02Z</time>
      </trkpt>
      <trkpt lat="41.3753860" lon="2.1382140">
        <ele>39.1</ele>
        <time>2020-11-15T13:22:04Z</time>
      </trkpt>
      <trkpt lat="41.3753850" lon="2.1381970">
        <ele>39.2</ele>
        <time>2020-11-15T13:22:05Z</time>
      </trkpt>
      <trkpt lat="41.3753840" lon="2.1381780">
        <ele>39.2</ele>
        <time>2020-11-15T13:22:07Z</time>
      </trkpt>
      <trkpt lat="41.3753830" lon="2.1381620">
        <ele>39.2</ele>
        <time>2020-11-15T13:22:08Z</time>
      </trkpt>
      <trkpt lat="41.3753840" lon="2.1381400">
        <ele>39.3</ele>
        <time>2020-11-15T13:22:09Z</time>
      </trkpt>
      <trkpt lat="41.3753870" lon="2.1381190">
        <ele>39.3</ele>
        <time>2020-11-15T13:22:10Z</time>
      </trkpt>
      <trkpt lat="41.3753880" lon="2.1381070">
        <ele>39.3</ele>
        <time>2020-11-15T13:22:12Z</time>
      </trkpt>
      <trkpt lat="41.3753880" lon="2.1380940">
        <ele>39.3</ele>
        <time>2020-11-15T13:22:13Z</time>
      </trkpt>
      <trkpt lat="41.3753890" lon="2.1380810">
        <ele>39.4</ele>
        <time>2020-11-15T13:22:14Z</time>
      </trkpt>
      <trkpt lat="41.3753850" lon="2.1380700">
        <ele>39.4</ele>
        <time>2020-11-15T13:22:15Z</time>
      </trkpt>
      <trkpt lat="41.3753840" lon="2.1380570">
        <ele>39.4</ele>
        <time>2020-11-15T13:22:16Z</time>
      </trkpt>
      <trkpt lat="41.3753840" lon="2.1380420">
        <ele>39.4</ele>
        <time>2020-11-15T13:22:18Z</time>
      </trkpt>
      <trkpt lat="41.3753850" lon="2.1380200">
        <ele>39.5</ele>
        <time>2020-11-15T13:22:19Z</time>
      </trkpt>
      <trkpt lat="41.3753870" lon="2.1380100">
        <ele>39.5</ele>
        <time>2020-11-15T13:22:21Z</time>
      </trkpt>
      <trkpt lat="41.3753890" lon="2.1379970">
        <ele>39.5</ele>
        <time>2020-11-15T13:22:22Z</time>
      </trkpt>
      <trkpt lat="41.3753900" lon="2.1379600">
        <ele>39.6</ele>
        <time>2020-11-15T13:22:24Z</time>
      </trkpt>
      <trkpt lat="41.3753870" lon="2.1379400">
        <ele>39.6</ele>
        <time>2020-11-15T13:22:25Z</time>
      </trkpt>
      <trkpt lat="41.3753860" lon="2.1379130">
        <ele>39.6</ele>
        <time>2020-11-15T13:22:26Z</time>
      </trkpt>
      <trkpt lat="41.3753860" lon="2.1378960">
        <ele>39.7</ele>
        <time>2020-11-15T13:22:28Z</time>
      </trkpt>
      <trkpt lat="41.3753850" lon="2.1378700">
        <ele>39.7</ele>
        <time>2020-11-15T13:22:29Z</time>
      </trkpt>
      <trkpt lat="41.3753820" lon="2.1378650">
        <ele>39.7</ele>
        <time>2020-11-15T13:22:30Z</time>
      </trkpt>
      <trkpt lat="41.3753790" lon="2.1378570">
        <ele>39.7</ele>
        <time>2020-11-15T13:22:31Z</time>
      </trkpt>
      <trkpt lat="41.3753770" lon="2.1378450">
        <ele>39.8</ele>
        <time>2020-11-15T13:22:32Z</time>
      </trkpt>
      <trkpt lat="41.3753750" lon="2.1378280">
        <ele>39.8</ele>
        <time>2020-11-15T13:22:33Z</time>
      </trkpt>
      <trkpt lat="41.3753670" lon="2.1378030">
        <ele>39.8</ele>
        <time>2020-11-15T13:22:34Z</time>
      </trkpt>
      <trkpt lat="41.3753640" lon="2.1377890">
        <ele>39.8</ele>
        <time>2020-11-15T13:22:35Z</time>
      </trkpt>
      <trkpt lat="41.3753610" lon="2.1377750">
        <ele>39.9</ele>
        <time>2020-11-15T13:22:37Z</time>
      </trkpt>
      <trkpt lat="41.3753590" lon="2.1377510">
        <ele>39.9</ele>
        <time>2020-11-15T13:22:38Z</time>
      </trkpt>
      <trkpt lat="41.3753540" lon="2.1377390">
        <ele>39.9</ele>
        <time>2020-11-15T13:22:40Z</time>
      </trkpt>
      <trkpt lat="41.3753530" lon="2.1377300">
        <ele>39.9</ele>
        <time>2020-11-15T13:22:41Z</time>
      </trkpt>
      <trkpt lat="41.3753520" lon="2.1377140">
        <ele>40.0</ele>
        <time>2020-11-15T13:22:42Z</time>
      </trkpt>
      <trkpt lat="41.3753510" lon="2.1376960">
        <ele>40.0</ele>
        <time>2020-11-15T13:22:43Z</time>
      </trkpt>
      <trkpt lat="41.3753530" lon="2.1376930">
        <ele>40.0</ele>
        <time>2020-11-15T13:22:44Z</time>
      </trkpt>
      <trkpt lat="41.3753540" lon="2.1376870">
        <ele>40.0</ele>
        <time>2020-11-15T13:22:45Z</time>
      </trkpt>
      <trkpt lat="41.3753560" lon="2.1376740">
        <ele>40.0</ele>
        <time>2020-11-15T13:22:47Z</time>
      </trkpt>
      <trkpt lat="41.3753600" lon="2.1376290">
        <ele>40.1</ele>
        <time>2020-11-15T13:22:50Z</time>
      </trkpt>
      <trkpt lat="41.3753630" lon="2.1376240">
        <ele>40.1</ele>
        <time>2020-11-15T13:22:51Z</time>
      </trkpt>
      <trkpt lat="41.3753650" lon="2.1376060">
        <ele>40.1</ele>
        <time>2020-11-15T13:22:52Z</time>
      </trkpt>
      <trkpt lat="41.3753670" lon="2.1375880">
        <ele>40.1</ele>
        <time>2020-11-15T13:22:53Z</time>
      </trkpt>
      <trkpt lat="41.3753710" lon="2.1375940">
        <ele>40.2</ele>
        <time>2020-11-15T13:22:55Z</time>
      </trkpt>
      <trkpt lat="41.3753730" lon="2.1375950">
        <ele>40.2</ele>
        <time>2020-11-15T13:22:56Z</time>
      </trkpt>
      <trkpt lat="41.3753750" lon="2.1375840">
        <ele>40.2</ele>
        <time>2020-11-15T13:22:57Z</time>
      </trkpt>
      <trkpt lat="41.3753770" lon="2.1375550">
        <ele>40.2</ele>
        <time>2020-11-15T13:22:58Z</time>
      </trkpt>
      <trkpt lat="41.3753760" lon="2.1374870">
        <ele>40.3</ele>
        <time>2020-11-15T13:23:00Z</time>
      </trkpt>
      <trkpt lat="41.3753740" lon="2.1374630">
        <ele>40.4</ele>
        <time>2020-11-15T13:23:02Z</time>
      </trkpt>
      <trkpt lat="41.3753730" lon="2.1374380">
        <ele>40.4</ele>
        <time>2020-11-15T13:23:03Z</time>
      </trkpt>
      <trkpt lat="41.3753710" lon="2.1374140">
        <ele>40.4</ele>
        <time>2020-11-15T13:23:04Z</time>
      </trkpt>
      <trkpt lat="41.3753710" lon="2.1373970">
        <ele>40.5</ele>
        <time>2020-11-15T13:23:05Z</time>
      </trkpt>
      <trkpt lat="41.3753710" lon="2.1373770">
        <ele>40.5</ele>
        <time>2020-11-15T13:23:06Z</time>
      </trkpt>
      <trkpt lat="41.3753710" lon="2.1373610">
        <ele>40.5</ele>
        <time>2020-11-15T13:23:08Z</time>
      </trkpt>
      <trkpt lat="41.3753710" lon="2.1373440">
        <ele>40.5</ele>
        <time>2020-11-15T13:23:09Z</time>
      </trkpt>
      <trkpt lat="41.3753690" lon="2.1373380">
        <ele>40.6</ele>
        <time>2020-11-15T13:23:10Z</time>
      </trkpt>
      <trkpt lat="41.3753670" lon="2.1373340">
        <ele>40.6</ele>
        <time>2020-11-15T13:23:11Z</time>
      </trkpt>
      <trkpt lat="41.3753660" lon="2.1373170">
        <ele>40.6</ele>
        <time>2020-11-15T13:23:12Z</time>
      </trkpt>
      <trkpt lat="41.3753650" lon="2.1373000">
        <ele>40.6</ele>
        <time>2020-11-15T13:23:14Z</time>
      </trkpt>
      <trkpt lat="41.3753650" lon="2.1372700">
        <ele>40.7</ele>
        <time>2020-11-15T13:23:15Z</time>
      </trkpt>
      <trkpt lat="41.3753660" lon="2.1372570">
        <ele>40.7</ele>
        <time>2020-11-15T13:23:16Z</time>
      </trkpt>
      <trkpt lat="41.3753680" lon="2.1372230">
        <ele>40.7</ele>
        <time>2020-11-15T13:23:17Z</time>
      </trkpt>
      <trkpt lat="41.3753690" lon="2.1372080">
        <ele>40.7</ele>
        <time>2020-11-15T13:23:19Z</time>
      </trkpt>
      <trkpt lat="41.3753690" lon="2.1371940">
        <ele>40.8</ele>
        <time>2020-11-15T13:23:20Z</time>
      </trkpt>
      <trkpt lat="41.3753700" lon="2.1371790">
        <ele>40.8</ele>
        <time>2020-11-15T13:23:21Z</time>
      </trkpt>
      <trkpt lat="41.3753710" lon="2.1371650">
        <ele>40.8</ele>
        <time>2020-11-15T13:23:22Z</time>
      </trkpt>
      <trkpt lat="41.3753740" lon="2.1371300">
        <ele>40.8</ele>
        <time>2020-11-15T13:23:23Z</time>
      </trkpt>
      <trkpt lat="41.3753760" lon="2.1371130">
        <ele>40.9</ele>
        <time>2020-11-15T13:23:24Z</time>
      </trkpt>
      <trkpt lat="41.3753820" lon="2.1370990">
        <ele>40.9</ele>
        <time>2020-11-15T13:23:26Z</time>
      </trkpt>
      <trkpt lat="41.3753850" lon="2.1370840">
        <ele>40.9</ele>
        <time>2020-11-15T13:23:27Z</time>
      </trkpt>
      <trkpt lat="41.3753870" lon="2.1370680">
        <ele>40.9</ele>
        <time>2020-11-15T13:23:28Z</time>
      </trkpt>
      <trkpt lat="41.3753940" lon="2.1370360">
        <ele>41.0</ele>
        <time>2020-11-15T13:23:29Z</time>
      </trkpt>
      <trkpt lat="41.3754000" lon="2.1370200">
        <ele>41.0</ele>
        <time>2020-11-15T13:23:30Z</time>
      </trkpt>
      <trkpt lat="41.3754060" lon="2.1369930">
        <ele>41.0</ele>
        <time>2020-11-15T13:23:32Z</time>
      </trkpt>
      <trkpt lat="41.3754080" lon="2.1369810">
        <ele>41.0</ele>
        <time>2020-11-15T13:23:33Z</time>
      </trkpt>
      <trkpt lat="41.3754090" lon="2.1369700">
        <ele>41.1</ele>
        <time>2020-11-15T13:23:34Z</time>
      </trkpt>
      <trkpt lat="41.3754100" lon="2.1369420">
        <ele>41.1</ele>
        <time>2020-11-15T13:23:35Z</time>
      </trkpt>
      <trkpt lat="41.3754110" lon="2.1369270">
        <ele>41.1</ele>
        <time>2020-11-15T13:23:36Z</time>
      </trkpt>
      <trkpt lat="41.3754110" lon="2.1369090">
        <ele>41.1</ele>
        <time>2020-11-15T13:23:38Z</time>
      </trkpt>
      <trkpt lat="41.3754100" lon="2.1368910">
        <ele>41.2</ele>
        <time>2020-11-15T13:23:39Z</time>
      </trkpt>
      <trkpt lat="41.3754010" lon="2.1368640">
        <ele>41.2</ele>
        <time>2020-11-15T13:23:40Z</time>
      </trkpt>
      <trkpt lat="41.3753980" lon="2.1368510">
        <ele>41.2</ele>
        <time>2020-11-15T13:23:41Z</time>
      </trkpt>
      <trkpt lat="41.3753980" lon="2.1368370">
        <ele>41.2</ele>
        <time>2020-11-15T13:23:42Z</time>
      </trkpt>
      <trkpt lat="41.3753970" lon="2.1368200">
        <ele>41.2</ele>
        <time>2020-11-15T13:23:43Z</time>
      </trkpt>
      <trkpt lat="41.3753940" lon="2.1367930">
        <ele>41.3</ele>
        <time>2020-11-15T13:23:45Z</time>
      </trkpt>
      <trkpt lat="41.3753850" lon="2.1367800">
        <ele>41.3</ele>
        <time>2020-11-15T13:23:46Z</time>
      </trkpt>
      <trkpt lat="41.3753840" lon="2.1367630">
        <ele>41.3</ele>
        <time>2020-11-15T13:23:47Z</time>
      </trkpt>
      <trkpt lat="41.3753840" lon="2.1367470">
        <ele>41.3</ele>
        <time>2020-11-15T13:23:48Z</time>
      </trkpt>
      <trkpt lat="41.3753830" lon="2.1367210">
        <ele>41.3</ele>
        <time>2020-11-15T13:23:50Z</time>
      </trkpt>
      <trkpt lat="41.3753820" lon="2.1367090">
        <ele>41.3</ele>
        <time>2020-11-15T13:23:51Z</time>
      </trkpt>
      <trkpt lat="41.3753820" lon="2.1366820">
        <ele>41.4</ele>
        <time>2020-11-15T13:23:52Z</time>
      </trkpt>
      <trkpt lat="41.3753820" lon="2.1366690">
        <ele>41.4</ele>
        <time>2020-11-15T13:23:54Z</time>
      </trkpt>
      <trkpt lat="41.3753820" lon="2.1366560">
        <ele>41.4</ele>
        <time>2020-11-15T13:23:55Z</time>
      </trkpt>
      <trkpt lat="41.3753840" lon="2.1366330">
        <ele>41.4</ele>
        <time>2020-11-15T13:23:56Z</time>
      </trkpt>
      <trkpt lat="41.3753860" lon="2.1366200">
        <ele>41.4</ele>
        <time>2020-11-15T13:23:57Z</time>
      </trkpt>
      <trkpt lat="41.3753890" lon="2.1366070">
        <ele>41.4</ele>
        <time>2020-11-15T13:23:59Z</time>
      </trkpt>
      <trkpt lat="41.3753910" lon="2.1365940">
        <ele>41.5</ele>
        <time>2020-11-15T13:24:00Z</time>
      </trkpt>
      <trkpt lat="41.3753930" lon="2.1365810">
        <ele>41.5</ele>
        <time>2020-11-15T13:24:01Z</time>
      </trkpt>
      <trkpt lat="41.3753950" lon="2.1365680">
        <ele>41.5</ele>
        <time>2020-11-15T13:24:02Z</time>
      </trkpt>
      <trkpt lat="41.3753960" lon="2.1365540">
        <ele>41.5</ele>
        <time>2020-11-15T13:24:03Z</time>
      </trkpt>
      <trkpt lat="41.3754000" lon="2.1365230">
        <ele>41.5</ele>
        <time>2020-11-15T13:24:05Z</time>
      </trkpt>
      <trkpt lat="41.3754050" lon="2.1365110">
        <ele>41.5</ele>
        <time>2020-11-15T13:24:06Z</time>
      </trkpt>
      <trkpt lat="41.3754100" lon="2.1364960">
        <ele>41.5</ele>
        <time>2020-11-15T13:24:07Z</time>
      </trkpt>
      <trkpt lat="41.3754130" lon="2.1364800">
        <ele>41.6</ele>
        <time>2020-11-15T13:24:08Z</time>
      </trkpt>
      <trkpt lat="41.3754180" lon="2.1364480">
        <ele>41.6</ele>
        <time>2020-11-15T13:24:09Z</time>
      </trkpt>
      <trkpt lat="41.3754190" lon="2.1364310">
        <ele>41.6</ele>
        <time>2020-11-15T13:24:11Z</time>
      </trkpt>
      <trkpt lat="41.3754210" lon="2.1364090">
        <ele>41.6</ele>
        <time>2020-11-15T13:24:12Z</time>
      </trkpt>
      <trkpt lat="41.3754240" lon="2.1363910">
        <ele>41.6</ele>
        <time>2020-11-15T13:24:13Z</time>
      </trkpt>
      <trkpt lat="41.3754190" lon="2.1363360">
        <ele>41.6</ele>
        <time>2020-11-15T13:24:15Z</time>
      </trkpt>
      <trkpt lat="41.3754170" lon="2.1363160">
        <ele>41.6</ele>
        <time>2020-11-15T13:24:17Z</time>
      </trkpt>
      <trkpt lat="41.3754170" lon="2.1362980">
        <ele>41.6</ele>
        <time>2020-11-15T13:24:18Z</time>
      </trkpt>
      <trkpt lat="41.3754180" lon="2.1362630">
        <ele>41.6</ele>
        <time>2020-11-15T13:24:19Z</time>
      </trkpt>
      <trkpt lat="41.3754170" lon="2.1362490">
        <ele>41.6</ele>
        <time>2020-11-15T13:24:20Z</time>
      </trkpt>
      <trkpt lat="41.3754200" lon="2.1362310">
        <ele>41.6</ele>
        <time>2020-11-15T13:24:22Z</time>
      </trkpt>
      <trkpt lat="41.3754310" lon="2.1362080">
        <ele>41.6</ele>
        <time>2020-11-15T13:24:24Z</time>
      </trkpt>
      <trkpt lat="41.3754360" lon="2.1361910">
        <ele>41.6</ele>
        <time>2020-11-15T13:24:25Z</time>
      </trkpt>
      <trkpt lat="41.3754330" lon="2.1361730">
        <ele>41.6</ele>
        <time>2020-11-15T13:24:26Z</time>
      </trkpt>
      <trkpt lat="41.3754420" lon="2.1361430">
        <ele>41.6</ele>
        <time>2020-11-15T13:24:27Z</time>
      </trkpt>
      <trkpt lat="41.3754490" lon="2.1361300">
        <ele>41.6</ele>
        <time>2020-11-15T13:24:29Z</time>
      </trkpt>
      <trkpt lat="41.3754560" lon="2.1361160">
        <ele>41.6</ele>
        <time>2020-11-15T13:24:30Z</time>
      </trkpt>
      <trkpt lat="41.3754790" lon="2.1361060">
        <ele>41.5</ele>
        <time>2020-11-15T13:24:31Z</time>
      </trkpt>
      <trkpt lat="41.3754940" lon="2.1361000">
        <ele>41.5</ele>
        <time>2020-11-15T13:24:33Z</time>
      </trkpt>
      <trkpt lat="41.3755230" lon="2.1360720">
        <ele>41.5</ele>
        <time>2020-11-15T13:24:35Z</time>
      </trkpt>
      <trkpt lat="41.3755330" lon="2.1360550">
        <ele>41.5</ele>
        <time>2020-11-15T13:24:36Z</time>
      </trkpt>
      <trkpt lat="41.3755380" lon="2.1360390">
        <ele>41.5</ele>
        <time>2020-11-15T13:24:37Z</time>
      </trkpt>
      <trkpt lat="41.3755430" lon="2.1360040">
        <ele>41.5</ele>
        <time>2020-11-15T13:24:38Z</time>
      </trkpt>
      <trkpt lat="41.3755430" lon="2.1359870">
        <ele>41.5</ele>
        <time>2020-11-15T13:24:39Z</time>
      </trkpt>
      <trkpt lat="41.3755390" lon="2.1359720">
        <ele>41.5</ele>
        <time>2020-11-15T13:24:41Z</time>
      </trkpt>
      <trkpt lat="41.3755370" lon="2.1359580">
        <ele>41.5</ele>
        <time>2020-11-15T13:24:42Z</time>
      </trkpt>
      <trkpt lat="41.3755350" lon="2.1359420">
        <ele>41.5</ele>
        <time>2020-11-15T13:24:43Z</time>
      </trkpt>
      <trkpt lat="41.3755270" lon="2.1359050">
        <ele>41.5</ele>
        <time>2020-11-15T13:24:44Z</time>
      </trkpt>
      <trkpt lat="41.3755220" lon="2.1358860">
        <ele>41.5</ele>
        <time>2020-11-15T13:24:45Z</time>
      </trkpt>
      <trkpt lat="41.3755150" lon="2.1358680">
        <ele>41.5</ele>
        <time>2020-11-15T13:24:46Z</time>
      </trkpt>
      <trkpt lat="41.3755100" lon="2.1358500">
        <ele>41.4</ele>
        <time>2020-11-15T13:24:47Z</time>
      </trkpt>
      <trkpt lat="41.3755020" lon="2.1358180">
        <ele>41.4</ele>
        <time>2020-11-15T13:24:49Z</time>
      </trkpt>
      <trkpt lat="41.3754980" lon="2.1358030">
        <ele>41.4</ele>
        <time>2020-11-15T13:24:50Z</time>
      </trkpt>
      <trkpt lat="41.3754870" lon="2.1357670">
        <ele>41.4</ele>
        <time>2020-11-15T13:24:52Z</time>
      </trkpt>
      <trkpt lat="41.3754820" lon="2.1357510">
        <ele>41.4</ele>
        <time>2020-11-15T13:24:53Z</time>
      </trkpt>
      <trkpt lat="41.3754780" lon="2.1357330">
        <ele>41.4</ele>
        <time>2020-11-15T13:24:54Z</time>
      </trkpt>
      <trkpt lat="41.3754640" lon="2.1357310">
        <ele>41.4</ele>
        <time>2020-11-15T13:24:55Z</time>
      </trkpt>
      <trkpt lat="41.3754590" lon="2.1357240">
        <ele>41.4</ele>
        <time>2020-11-15T13:24:57Z</time>
      </trkpt>
      <trkpt lat="41.3754570" lon="2.1357170">
        <ele>41.4</ele>
        <time>2020-11-15T13:24:58Z</time>
      </trkpt>
      <trkpt lat="41.3754550" lon="2.1357040">
        <ele>41.4</ele>
        <time>2020-11-15T13:24:59Z</time>
      </trkpt>
      <trkpt lat="41.3754530" lon="2.1356770">
        <ele>41.4</ele>
        <time>2020-11-15T13:25:00Z</time>
      </trkpt>
      <trkpt lat="41.3754530" lon="2.1356630">
        <ele>41.4</ele>
        <time>2020-11-15T13:25:01Z</time>
      </trkpt>
      <trkpt lat="41.3754550" lon="2.1356350">
        <ele>41.3</ele>
        <time>2020-11-15T13:25:03Z</time>
      </trkpt>
      <trkpt lat="41.3754560" lon="2.1356210">
        <ele>41.3</ele>
        <time>2020-11-15T13:25:04Z</time>
      </trkpt>
      <trkpt lat="41.3754560" lon="2.1356070">
        <ele>41.3</ele>
        <time>2020-11-15T13:25:05Z</time>
      </trkpt>
      <trkpt lat="41.3754670" lon="2.1355700">
        <ele>41.2</ele>
        <time>2020-11-15T13:25:07Z</time>
      </trkpt>
      <trkpt lat="41.3754740" lon="2.1355550">
        <ele>41.3</ele>
        <time>2020-11-15T13:25:08Z</time>
      </trkpt>
      <trkpt lat="41.3754830" lon="2.1355350">
        <ele>40.8</ele>
        <time>2020-11-15T13:25:09Z</time>
      </trkpt>
      <trkpt lat="41.3754890" lon="2.1355070">
        <ele>39.9</ele>
        <time>2020-11-15T13:25:10Z</time>
      </trkpt>
      <trkpt lat="41.3754980" lon="2.1354990">
        <ele>39.9</ele>
        <time>2020-11-15T13:25:11Z</time>
      </trkpt>
      <trkpt lat="41.3755270" lon="2.1354970">
        <ele>39.6</ele>
        <time>2020-11-15T13:25:12Z</time>
      </trkpt>
      <trkpt lat="41.3755420" lon="2.1354980">
        <ele>39.7</ele>
        <time>2020-11-15T13:25:14Z</time>
      </trkpt>
      <trkpt lat="41.3755570" lon="2.1355000">
        <ele>39.4</ele>
        <time>2020-11-15T13:25:15Z</time>
      </trkpt>
      <trkpt lat="41.3755720" lon="2.1355020">
        <ele>39.4</ele>
        <time>2020-11-15T13:25:16Z</time>
      </trkpt>
      <trkpt lat="41.3756050" lon="2.1355230">
        <ele>39.5</ele>
        <time>2020-11-15T13:25:18Z</time>
      </trkpt>
      <trkpt lat="41.3756320" lon="2.1355340">
        <ele>39.3</ele>
        <time>2020-11-15T13:25:19Z</time>
      </trkpt>
      <trkpt lat="41.3756420" lon="2.1355360">
        <ele>39.3</ele>
        <time>2020-11-15T13:25:20Z</time>
      </trkpt>
      <trkpt lat="41.3756600" lon="2.1355310">
        <ele>39.1</ele>
        <time>2020-11-15T13:25:21Z</time>
      </trkpt>
      <trkpt lat="41.3756690" lon="2.1355290">
        <ele>39.2</ele>
        <time>2020-11-15T13:25:22Z</time>
      </trkpt>
      <trkpt lat="41.3756780" lon="2.1355260">
        <ele>39.2</ele>
        <time>2020-11-15T13:25:23Z</time>
      </trkpt>
      <trkpt lat="41.3757020" lon="2.1355050">
        <ele>38.8</ele>
        <time>2020-11-15T13:25:25Z</time>
      </trkpt>
      <trkpt lat="41.3757120" lon="2.1354910">
        <ele>38.9</ele>
        <time>2020-11-15T13:25:26Z</time>
      </trkpt>
      <trkpt lat="41.3757310" lon="2.1354580">
        <ele>38.6</ele>
        <time>2020-11-15T13:25:28Z</time>
      </trkpt>
      <trkpt lat="41.3757360" lon="2.1354500">
        <ele>38.7</ele>
        <time>2020-11-15T13:25:29Z</time>
      </trkpt>
      <trkpt lat="41.3757600" lon="2.1354170">
        <ele>38.6</ele>
        <time>2020-11-15T13:25:30Z</time>
      </trkpt>
      <trkpt lat="41.3757660" lon="2.1354070">
        <ele>38.7</ele>
        <time>2020-11-15T13:25:31Z</time>
      </trkpt>
      <trkpt lat="41.3757740" lon="2.1353930">
        <ele>38.7</ele>
        <time>2020-11-15T13:25:32Z</time>
      </trkpt>
      <trkpt lat="41.3757840" lon="2.1353790">
        <ele>38.8</ele>
        <time>2020-11-15T13:25:33Z</time>
      </trkpt>
      <trkpt lat="41.3758040" lon="2.1353280">
        <ele>38.7</ele>
        <time>2020-11-15T13:25:35Z</time>
      </trkpt>
      <trkpt lat="41.3758080" lon="2.1353100">
        <ele>38.8</ele>
        <time>2020-11-15T13:25:36Z</time>
      </trkpt>
      <trkpt lat="41.3758130" lon="2.1352920">
        <ele>39.0</ele>
        <time>2020-11-15T13:25:37Z</time>
      </trkpt>
      <trkpt lat="41.3758270" lon="2.1352550">
        <ele>39.0</ele>
        <time>2020-11-15T13:25:38Z</time>
      </trkpt>
      <trkpt lat="41.3758330" lon="2.1352380">
        <ele>39.0</ele>
        <time>2020-11-15T13:25:40Z</time>
      </trkpt>
      <trkpt lat="41.3758400" lon="2.1352210">
        <ele>39.1</ele>
        <time>2020-11-15T13:25:41Z</time>
      </trkpt>
      <trkpt lat="41.3758460" lon="2.1352040">
        <ele>39.3</ele>
        <time>2020-11-15T13:25:42Z</time>
      </trkpt>
      <trkpt lat="41.3758550" lon="2.1351710">
        <ele>39.4</ele>
        <time>2020-11-15T13:25:43Z</time>
      </trkpt>
      <trkpt lat="41.3758600" lon="2.1351570">
        <ele>39.4</ele>
        <time>2020-11-15T13:25:44Z</time>
      </trkpt>
      <trkpt lat="41.3758650" lon="2.1351420">
        <ele>39.4</ele>
        <time>2020-11-15T13:25:45Z</time>
      </trkpt>
      <trkpt lat="41.3758710" lon="2.1351160">
        <ele>39.5</ele>
        <time>2020-11-15T13:25:46Z</time>
      </trkpt>
      <trkpt lat="41.3758770" lon="2.1350940">
        <ele>39.7</ele>
        <time>2020-11-15T13:25:48Z</time>
      </trkpt>
      <trkpt lat="41.3758920" lon="2.1350610">
        <ele>39.7</ele>
        <time>2020-11-15T13:25:49Z</time>
      </trkpt>
      <trkpt lat="41.3759000" lon="2.1350440">
        <ele>39.7</ele>
        <time>2020-11-15T13:25:50Z</time>
      </trkpt>
      <trkpt lat="41.3759070" lon="2.1350310">
        <ele>39.9</ele>
        <time>2020-11-15T13:25:52Z</time>
      </trkpt>
      <trkpt lat="41.3759120" lon="2.1350190">
        <ele>39.9</ele>
        <time>2020-11-15T13:25:53Z</time>
      </trkpt>
      <trkpt lat="41.3759170" lon="2.1350070">
        <ele>40.0</ele>
        <time>2020-11-15T13:25:54Z</time>
      </trkpt>
      <trkpt lat="41.3759210" lon="2.1349940">
        <ele>39.9</ele>
        <time>2020-11-15T13:25:55Z</time>
      </trkpt>
      <trkpt lat="41.3759280" lon="2.1349640">
        <ele>40.0</ele>
        <time>2020-11-15T13:25:56Z</time>
      </trkpt>
      <trkpt lat="41.3759260" lon="2.1349380">
        <ele>39.9</ele>
        <time>2020-11-15T13:25:57Z</time>
      </trkpt>
      <trkpt lat="41.3759310" lon="2.1349180">
        <ele>40.0</ele>
        <time>2020-11-15T13:25:59Z</time>
      </trkpt>
      <trkpt lat="41.3759390" lon="2.1348880">
        <ele>39.9</ele>
        <time>2020-11-15T13:26:00Z</time>
      </trkpt>
      <trkpt lat="41.3759410" lon="2.1348780">
        <ele>40.0</ele>
        <time>2020-11-15T13:26:01Z</time>
      </trkpt>
      <trkpt lat="41.3759440" lon="2.1348710">
        <ele>40.0</ele>
        <time>2020-11-15T13:26:02Z</time>
      </trkpt>
      <trkpt lat="41.3759490" lon="2.1348650">
        <ele>40.0</ele>
        <time>2020-11-15T13:26:03Z</time>
      </trkpt>
      <trkpt lat="41.3759500" lon="2.1348710">
        <ele>40.1</ele>
        <time>2020-11-15T13:26:04Z</time>
      </trkpt>
      <trkpt lat="41.3759580" lon="2.1348670">
        <ele>40.2</ele>
        <time>2020-11-15T13:26:05Z</time>
      </trkpt>
      <trkpt lat="41.3759600" lon="2.1348660">
        <ele>40.1</ele>
        <time>2020-11-15T13:26:07Z</time>
      </trkpt>
      <trkpt lat="41.3759640" lon="2.1348640">
        <ele>40.1</ele>
        <time>2020-11-15T13:26:08Z</time>
      </trkpt>
      <trkpt lat="41.3759690" lon="2.1348610">
        <ele>40.2</ele>
        <time>2020-11-15T13:26:09Z</time>
      </trkpt>
      <trkpt lat="41.3759780" lon="2.1348570">
        <ele>40.2</ele>
        <time>2020-11-15T13:26:10Z</time>
      </trkpt>
      <trkpt lat="41.3759900" lon="2.1348410">
        <ele>40.3</ele>
        <time>2020-11-15T13:26:11Z</time>
      </trkpt>
      <trkpt lat="41.3759970" lon="2.1348340">
        <ele>40.3</ele>
        <time>2020-11-15T13:26:12Z</time>
      </trkpt>
      <trkpt lat="41.3760140" lon="2.1348110">
        <ele>40.2</ele>
        <time>2020-11-15T13:26:14Z</time>
      </trkpt>
      <trkpt lat="41.3760230" lon="2.1347970">
        <ele>40.3</ele>
        <time>2020-11-15T13:26:15Z</time>
      </trkpt>
      <trkpt lat="41.3760310" lon="2.1347830">
        <ele>40.3</ele>
        <time>2020-11-15T13:26:16Z</time>
      </trkpt>
      <trkpt lat="41.3760410" lon="2.1347360">
        <ele>40.1</ele>
        <time>2020-11-15T13:26:17Z</time>
      </trkpt>
      <trkpt lat="41.3760450" lon="2.1347240">
        <ele>40.1</ele>
        <time>2020-11-15T13:26:18Z</time>
      </trkpt>
      <trkpt lat="41.3760600" lon="2.1346930">
        <ele>40.1</ele>
        <time>2020-11-15T13:26:19Z</time>
      </trkpt>
      <trkpt lat="41.3760670" lon="2.1346810">
        <ele>40.1</ele>
        <time>2020-11-15T13:26:20Z</time>
      </trkpt>
      <trkpt lat="41.3760720" lon="2.1346690">
        <ele>40.1</ele>
        <time>2020-11-15T13:26:22Z</time>
      </trkpt>
      <trkpt lat="41.3760780" lon="2.1346550">
        <ele>40.2</ele>
        <time>2020-11-15T13:26:23Z</time>
      </trkpt>
      <trkpt lat="41.3760840" lon="2.1346420">
        <ele>40.2</ele>
        <time>2020-11-15T13:26:24Z</time>
      </trkpt>
      <trkpt lat="41.3760920" lon="2.1346250">
        <ele>40.2</ele>
        <time>2020-11-15T13:26:25Z</time>
      </trkpt>
      <trkpt lat="41.3761060" lon="2.1346040">
        <ele>40.2</ele>
        <time>2020-11-15T13:26:26Z</time>
      </trkpt>
      <trkpt lat="41.3761120" lon="2.1345940">
        <ele>40.2</ele>
        <time>2020-11-15T13:26:27Z</time>
      </trkpt>
      <trkpt lat="41.3761190" lon="2.1345820">
        <ele>40.2</ele>
        <time>2020-11-15T13:26:28Z</time>
      </trkpt>
      <trkpt lat="41.3761260" lon="2.1345700">
        <ele>40.2</ele>
        <time>2020-11-15T13:26:30Z</time>
      </trkpt>
      <trkpt lat="41.3761400" lon="2.1345450">
        <ele>40.3</ele>
        <time>2020-11-15T13:26:32Z</time>
      </trkpt>
      <trkpt lat="41.3761320" lon="2.1345400">
        <ele>40.3</ele>
        <time>2020-11-15T13:26:33Z</time>
      </trkpt>
      <trkpt lat="41.3761360" lon="2.1345320">
        <ele>40.3</ele>
        <time>2020-11-15T13:26:34Z</time>
      </trkpt>
      <trkpt lat="41.3761560" lon="2.1345050">
        <ele>40.3</ele>
        <time>2020-11-15T13:26:35Z</time>
      </trkpt>
      <trkpt lat="41.3761670" lon="2.1344930">
        <ele>40.3</ele>
        <time>2020-11-15T13:26:36Z</time>
      </trkpt>
      <trkpt lat="41.3761810" lon="2.1344820">
        <ele>40.3</ele>
        <time>2020-11-15T13:26:37Z</time>
      </trkpt>
      <trkpt lat="41.3761930" lon="2.1344730">
        <ele>40.4</ele>
        <time>2020-11-15T13:26:38Z</time>
      </trkpt>
      <trkpt lat="41.3762170" lon="2.1344550">
        <ele>40.4</ele>
        <time>2020-11-15T13:26:40Z</time>
      </trkpt>
      <trkpt lat="41.3762280" lon="2.1344460">
        <ele>40.4</ele>
        <time>2020-11-15T13:26:41Z</time>
      </trkpt>
      <trkpt lat="41.3762420" lon="2.1344380">
        <ele>40.4</ele>
        <time>2020-11-15T13:26:42Z</time>
      </trkpt>
      <trkpt lat="41.3762550" lon="2.1344330">
        <ele>40.4</ele>
        <time>2020-11-15T13:26:44Z</time>
      </trkpt>
      <trkpt lat="41.3762660" lon="2.1344300">
        <ele>40.4</ele>
        <time>2020-11-15T13:26:45Z</time>
      </trkpt>
      <trkpt lat="41.3762860" lon="2.1344270">
        <ele>40.5</ele>
        <time>2020-11-15T13:26:46Z</time>
      </trkpt>
      <trkpt lat="41.3763010" lon="2.1344310">
        <ele>40.5</ele>
        <time>2020-11-15T13:26:47Z</time>
      </trkpt>
      <trkpt lat="41.3763150" lon="2.1344320">
        <ele>40.5</ele>
        <time>2020-11-15T13:26:48Z</time>
      </trkpt>
      <trkpt lat="41.3763280" lon="2.1344320">
        <ele>40.5</ele>
        <time>2020-11-15T13:26:49Z</time>
      </trkpt>
      <trkpt lat="41.3763500" lon="2.1344270">
        <ele>40.6</ele>
        <time>2020-11-15T13:26:51Z</time>
      </trkpt>
      <trkpt lat="41.3763670" lon="2.1344210">
        <ele>40.6</ele>
        <time>2020-11-15T13:26:52Z</time>
      </trkpt>
      <trkpt lat="41.3763770" lon="2.1344190">
        <ele>40.6</ele>
        <time>2020-11-15T13:26:54Z</time>
      </trkpt>
      <trkpt lat="41.3763870" lon="2.1344160">
        <ele>40.6</ele>
        <time>2020-11-15T13:26:55Z</time>
      </trkpt>
      <trkpt lat="41.3763970" lon="2.1344130">
        <ele>40.6</ele>
        <time>2020-11-15T13:26:56Z</time>
      </trkpt>
      <trkpt lat="41.3764050" lon="2.1344110">
        <ele>40.7</ele>
        <time>2020-11-15T13:26:57Z</time>
      </trkpt>
      <trkpt lat="41.3764150" lon="2.1344080">
        <ele>40.7</ele>
        <time>2020-11-15T13:26:59Z</time>
      </trkpt>
      <trkpt lat="41.3764260" lon="2.1344050">
        <ele>40.7</ele>
        <time>2020-11-15T13:27:00Z</time>
      </trkpt>
      <trkpt lat="41.3764310" lon="2.1343900">
        <ele>40.7</ele>
        <time>2020-11-15T13:27:02Z</time>
      </trkpt>
      <trkpt lat="41.3764350" lon="2.1343830">
        <ele>40.7</ele>
        <time>2020-11-15T13:27:03Z</time>
      </trkpt>
      <trkpt lat="41.3764410" lon="2.1343790">
        <ele>40.7</ele>
        <time>2020-11-15T13:27:04Z</time>
      </trkpt>
      <trkpt lat="41.3764540" lon="2.1343760">
        <ele>40.7</ele>
        <time>2020-11-15T13:27:05Z</time>
      </trkpt>
      <trkpt lat="41.3764690" lon="2.1343590">
        <ele>40.8</ele>
        <time>2020-11-15T13:27:06Z</time>
      </trkpt>
      <trkpt lat="41.3764750" lon="2.1343490">
        <ele>40.8</ele>
        <time>2020-11-15T13:27:07Z</time>
      </trkpt>
      <trkpt lat="41.3764880" lon="2.1343430">
        <ele>40.8</ele>
        <time>2020-11-15T13:27:09Z</time>
      </trkpt>
      <trkpt lat="41.3765040" lon="2.1343380">
        <ele>40.8</ele>
        <time>2020-11-15T13:27:10Z</time>
      </trkpt>
      <trkpt lat="41.3765290" lon="2.1343320">
        <ele>40.9</ele>
        <time>2020-11-15T13:27:11Z</time>
      </trkpt>
      <trkpt lat="41.3765370" lon="2.1343330">
        <ele>40.9</ele>
        <time>2020-11-15T13:27:12Z</time>
      </trkpt>
      <trkpt lat="41.3765480" lon="2.1343320">
        <ele>40.9</ele>
        <time>2020-11-15T13:27:14Z</time>
      </trkpt>
      <trkpt lat="41.3765610" lon="2.1343320">
        <ele>40.9</ele>
        <time>2020-11-15T13:27:15Z</time>
      </trkpt>
      <trkpt lat="41.3766040" lon="2.1343140">
        <ele>41.0</ele>
        <time>2020-11-15T13:27:17Z</time>
      </trkpt>
      <trkpt lat="41.3766240" lon="2.1343070">
        <ele>41.0</ele>
        <time>2020-11-15T13:27:18Z</time>
      </trkpt>
      <trkpt lat="41.3766390" lon="2.1343050">
        <ele>41.0</ele>
        <time>2020-11-15T13:27:19Z</time>
      </trkpt>
      <trkpt lat="41.3766660" lon="2.1342980">
        <ele>41.1</ele>
        <time>2020-11-15T13:27:21Z</time>
      </trkpt>
      <trkpt lat="41.3766780" lon="2.1342920">
        <ele>41.1</ele>
        <time>2020-11-15T13:27:22Z</time>
      </trkpt>
      <trkpt lat="41.3766990" lon="2.1342820">
        <ele>41.1</ele>
        <time>2020-11-15T13:27:23Z</time>
      </trkpt>
      <trkpt lat="41.3767080" lon="2.1342790">
        <ele>41.1</ele>
        <time>2020-11-15T13:27:24Z</time>
      </trkpt>
      <trkpt lat="41.3767170" lon="2.1342770">
        <ele>41.1</ele>
        <time>2020-11-15T13:27:25Z</time>
      </trkpt>
      <trkpt lat="41.3767360" lon="2.1342730">
        <ele>41.2</ele>
        <time>2020-11-15T13:27:26Z</time>
      </trkpt>
      <trkpt lat="41.3767460" lon="2.1342720">
        <ele>41.2</ele>
        <time>2020-11-15T13:27:27Z</time>
      </trkpt>
      <trkpt lat="41.3767590" lon="2.1342690">
        <ele>41.2</ele>
        <time>2020-11-15T13:27:29Z</time>
      </trkpt>
      <trkpt lat="41.3767740" lon="2.1342640">
        <ele>41.2</ele>
        <time>2020-11-15T13:27:30Z</time>
      </trkpt>
      <trkpt lat="41.3767920" lon="2.1342410">
        <ele>41.2</ele>
        <time>2020-11-15T13:27:32Z</time>
      </trkpt>
      <trkpt lat="41.3767990" lon="2.1342330">
        <ele>41.2</ele>
        <time>2020-11-15T13:27:33Z</time>
      </trkpt>
      <trkpt lat="41.3768060" lon="2.1342260">
        <ele>41.2</ele>
        <time>2020-11-15T13:27:34Z</time>
      </trkpt>
      <trkpt lat="41.3768170" lon="2.1342200">
        <ele>41.3</ele>
        <time>2020-11-15T13:27:36Z</time>
      </trkpt>
      <trkpt lat="41.3768380" lon="2.1342040">
        <ele>41.3</ele>
        <time>2020-11-15T13:27:37Z</time>
      </trkpt>
      <trkpt lat="41.3768570" lon="2.1341910">
        <ele>41.3</ele>
        <time>2020-11-15T13:27:38Z</time>
      </trkpt>
      <trkpt lat="41.3768660" lon="2.1341880">
        <ele>41.3</ele>
        <time>2020-11-15T13:27:39Z</time>
      </trkpt>
      <trkpt lat="41.3768740" lon="2.1341840">
        <ele>41.3</ele>
        <time>2020-11-15T13:27:40Z</time>
      </trkpt>
      <trkpt lat="41.3768970" lon="2.1341640">
        <ele>41.4</ele>
        <time>2020-11-15T13:27:42Z</time>
      </trkpt>
      <trkpt lat="41.3769160" lon="2.1341510">
        <ele>41.4</ele>
        <time>2020-11-15T13:27:44Z</time>
      </trkpt>
      <trkpt lat="41.3769310" lon="2.1341470">
        <ele>41.4</ele>
        <time>2020-11-15T13:27:45Z</time>
      </trkpt>
      <trkpt lat="41.3769510" lon="2.1341460">
        <ele>41.4</ele>
        <time>2020-11-15T13:27:46Z</time>
      </trkpt>
      <trkpt lat="41.3769650" lon="2.1341490">
        <ele>41.4</ele>
        <time>2020-11-15T13:27:47Z</time>
      </trkpt>
      <trkpt lat="41.3769790" lon="2.1341500">
        <ele>41.4</ele>
        <time>2020-11-15T13:27:48Z</time>
      </trkpt>
      <trkpt lat="41.3769930" lon="2.1341520">
        <ele>41.5</ele>
        <time>2020-11-15T13:27:49Z</time>
      </trkpt>
      <trkpt lat="41.3770180" lon="2.1341450">
        <ele>41.5</ele>
        <time>2020-11-15T13:27:51Z</time>
      </trkpt>
      <trkpt lat="41.3770290" lon="2.1341360">
        <ele>41.5</ele>
        <time>2020-11-15T13:27:52Z</time>
      </trkpt>
      <trkpt lat="41.3770440" lon="2.1341230">
        <ele>41.5</ele>
        <time>2020-11-15T13:27:54Z</time>
      </trkpt>
      <trkpt lat="41.3770550" lon="2.1341210">
        <ele>41.5</ele>
        <time>2020-11-15T13:27:55Z</time>
      </trkpt>
      <trkpt lat="41.3770650" lon="2.1341230">
        <ele>41.6</ele>
        <time>2020-11-15T13:27:56Z</time>
      </trkpt>
      <trkpt lat="41.3770870" lon="2.1341270">
        <ele>41.6</ele>
        <time>2020-11-15T13:27:57Z</time>
      </trkpt>
      <trkpt lat="41.3771120" lon="2.1341300">
        <ele>41.7</ele>
        <time>2020-11-15T13:27:58Z</time>
      </trkpt>
      <trkpt lat="41.3771260" lon="2.1341280">
        <ele>41.7</ele>
        <time>2020-11-15T13:28:00Z</time>
      </trkpt>
      <trkpt lat="41.3771390" lon="2.1341260">
        <ele>41.7</ele>
        <time>2020-11-15T13:28:01Z</time>
      </trkpt>
      <trkpt lat="41.3771530" lon="2.1341240">
        <ele>41.7</ele>
        <time>2020-11-15T13:28:02Z</time>
      </trkpt>
      <trkpt lat="41.3771660" lon="2.1341160">
        <ele>41.8</ele>
        <time>2020-11-15T13:28:03Z</time>
      </trkpt>
      <trkpt lat="41.3771800" lon="2.1341120">
        <ele>41.8</ele>
        <time>2020-11-15T13:28:04Z</time>
      </trkpt>
      <trkpt lat="41.3772080" lon="2.1341050">
        <ele>41.8</ele>
        <time>2020-11-15T13:28:06Z</time>
      </trkpt>
      <trkpt lat="41.3772210" lon="2.1340990">
        <ele>41.9</ele>
        <time>2020-11-15T13:28:07Z</time>
      </trkpt>
      <trkpt lat="41.3772330" lon="2.1340810">
        <ele>41.9</ele>
        <time>2020-11-15T13:28:08Z</time>
      </trkpt>
      <trkpt lat="41.3772550" lon="2.1340680">
        <ele>41.9</ele>
        <time>2020-11-15T13:28:10Z</time>
      </trkpt>
      <trkpt lat="41.3772780" lon="2.1340580">
        <ele>42.0</ele>
        <time>2020-11-15T13:28:11Z</time>
      </trkpt>
      <trkpt lat="41.3772890" lon="2.1340500">
        <ele>42.0</ele>
        <time>2020-11-15T13:28:12Z</time>
      </trkpt>
      <trkpt lat="41.3772980" lon="2.1340440">
        <ele>42.0</ele>
        <time>2020-11-15T13:28:13Z</time>
      </trkpt>
      <trkpt lat="41.3773110" lon="2.1340400">
        <ele>42.1</ele>
        <time>2020-11-15T13:28:14Z</time>
      </trkpt>
      <trkpt lat="41.3773240" lon="2.1340380">
        <ele>42.1</ele>
        <time>2020-11-15T13:28:16Z</time>
      </trkpt>
      <trkpt lat="41.3773400" lon="2.1340340">
        <ele>42.1</ele>
        <time>2020-11-15T13:28:17Z</time>
      </trkpt>
      <trkpt lat="41.3773460" lon="2.1340320">
        <ele>42.1</ele>
        <time>2020-11-15T13:28:18Z</time>
      </trkpt>
      <trkpt lat="41.3773540" lon="2.1340320">
        <ele>42.1</ele>
        <time>2020-11-15T13:28:19Z</time>
      </trkpt>
      <trkpt lat="41.3773800" lon="2.1340230">
        <ele>42.2</ele>
        <time>2020-11-15T13:28:20Z</time>
      </trkpt>
      <trkpt lat="41.3773920" lon="2.1340150">
        <ele>42.2</ele>
        <time>2020-11-15T13:28:21Z</time>
      </trkpt>
      <trkpt lat="41.3774160" lon="2.1339890">
        <ele>42.3</ele>
        <time>2020-11-15T13:28:22Z</time>
      </trkpt>
      <trkpt lat="41.3774280" lon="2.1339800">
        <ele>42.3</ele>
        <time>2020-11-15T13:28:24Z</time>
      </trkpt>
      <trkpt lat="41.3774400" lon="2.1339710">
        <ele>42.3</ele>
        <time>2020-11-15T13:28:25Z</time>
      </trkpt>
      <trkpt lat="41.3774520" lon="2.1339620">
        <ele>42.3</ele>
        <time>2020-11-15T13:28:26Z</time>
      </trkpt>
      <trkpt lat="41.3774640" lon="2.1339530">
        <ele>42.4</ele>
        <time>2020-11-15T13:28:27Z</time>
      </trkpt>
      <trkpt lat="41.3774720" lon="2.1339440">
        <ele>42.4</ele>
        <time>2020-11-15T13:28:29Z</time>
      </trkpt>
      <trkpt lat="41.3774830" lon="2.1339380">
        <ele>42.4</ele>
        <time>2020-11-15T13:28:30Z</time>
      </trkpt>
      <trkpt lat="41.3775100" lon="2.1339220">
        <ele>42.4</ele>
        <time>2020-11-15T13:28:32Z</time>
      </trkpt>
      <trkpt lat="41.3775120" lon="2.1339140">
        <ele>42.4</ele>
        <time>2020-11-15T13:28:33Z</time>
      </trkpt>
      <trkpt lat="41.3775190" lon="2.1339100">
        <ele>42.5</ele>
        <time>2020-11-15T13:28:34Z</time>
      </trkpt>
      <trkpt lat="41.3775350" lon="2.1339040">
        <ele>42.5</ele>
        <time>2020-11-15T13:28:35Z</time>
      </trkpt>
      <trkpt lat="41.3775530" lon="2.1339000">
        <ele>42.5</ele>
        <time>2020-11-15T13:28:36Z</time>
      </trkpt>
      <trkpt lat="41.3775620" lon="2.1339030">
        <ele>42.5</ele>
        <time>2020-11-15T13:28:38Z</time>
      </trkpt>
      <trkpt lat="41.3775740" lon="2.1339080">
        <ele>42.5</ele>
        <time>2020-11-15T13:28:39Z</time>
      </trkpt>
      <trkpt lat="41.3775880" lon="2.1339120">
        <ele>42.5</ele>
        <time>2020-11-15T13:28:40Z</time>
      </trkpt>
      <trkpt lat="41.3776150" lon="2.1339060">
        <ele>42.6</ele>
        <time>2020-11-15T13:28:42Z</time>
      </trkpt>
      <trkpt lat="41.3776200" lon="2.1338930">
        <ele>42.6</ele>
        <time>2020-11-15T13:28:43Z</time>
      </trkpt>
      <trkpt lat="41.3776280" lon="2.1338760">
        <ele>42.6</ele>
        <time>2020-11-15T13:28:44Z</time>
      </trkpt>
      <trkpt lat="41.3776320" lon="2.1338620">
        <ele>42.6</ele>
        <time>2020-11-15T13:28:46Z</time>
      </trkpt>
      <trkpt lat="41.3776310" lon="2.1338390">
        <ele>42.6</ele>
        <time>2020-11-15T13:28:47Z</time>
      </trkpt>
      <trkpt lat="41.3776240" lon="2.1338240">
        <ele>42.6</ele>
        <time>2020-11-15T13:28:48Z</time>
      </trkpt>
      <trkpt lat="41.3776170" lon="2.1338050">
        <ele>42.6</ele>
        <time>2020-11-15T13:28:49Z</time>
      </trkpt>
      <trkpt lat="41.3776130" lon="2.1337850">
        <ele>42.7</ele>
        <time>2020-11-15T13:28:50Z</time>
      </trkpt>
      <trkpt lat="41.3776050" lon="2.1337500">
        <ele>42.7</ele>
        <time>2020-11-15T13:28:51Z</time>
      </trkpt>
      <trkpt lat="41.3775930" lon="2.1337310">
        <ele>42.7</ele>
        <time>2020-11-15T13:28:53Z</time>
      </trkpt>
      <trkpt lat="41.3775860" lon="2.1337130">
        <ele>42.7</ele>
        <time>2020-11-15T13:28:54Z</time>
      </trkpt>
      <trkpt lat="41.3775960" lon="2.1336960">
        <ele>42.7</ele>
        <time>2020-11-15T13:28:55Z</time>
      </trkpt>
      <trkpt lat="41.3776090" lon="2.1336950">
        <ele>42.7</ele>
        <time>2020-11-15T13:28:57Z</time>
      </trkpt>
      <trkpt lat="41.3776210" lon="2.1336930">
        <ele>42.8</ele>
        <time>2020-11-15T13:28:58Z</time>
      </trkpt>
      <trkpt lat="41.3776330" lon="2.1336920">
        <ele>42.8</ele>
        <time>2020-11-15T13:28:59Z</time>
      </trkpt>
      <trkpt lat="41.3776570" lon="2.1337030">
        <ele>42.8</ele>
        <time>2020-11-15T13:29:00Z</time>
      </trkpt>
      <trkpt lat="41.3776680" lon="2.1337110">
        <ele>42.8</ele>
        <time>2020-11-15T13:29:01Z</time>
      </trkpt>
      <trkpt lat="41.3776920" lon="2.1337370">
        <ele>42.8</ele>
        <time>2020-11-15T13:29:03Z</time>
      </trkpt>
      <trkpt lat="41.3776990" lon="2.1337420">
        <ele>42.8</ele>
        <time>2020-11-15T13:29:04Z</time>
      </trkpt>
      <trkpt lat="41.3777220" lon="2.1337490">
        <ele>42.9</ele>
        <time>2020-11-15T13:29:05Z</time>
      </trkpt>
      <trkpt lat="41.3777310" lon="2.1337520">
        <ele>42.9</ele>
        <time>2020-11-15T13:29:06Z</time>
      </trkpt>
      <trkpt lat="41.3777400" lon="2.1337540">
        <ele>42.9</ele>
        <time>2020-11-15T13:29:07Z</time>
      </trkpt>
      <trkpt lat="41.3777520" lon="2.1337600">
        <ele>42.9</ele>
        <time>2020-11-15T13:29:08Z</time>
      </trkpt>
      <trkpt lat="41.3777640" lon="2.1337630">
        <ele>42.9</ele>
        <time>2020-11-15T13:29:09Z</time>
      </trkpt>
      <trkpt lat="41.3777770" lon="2.1337640">
        <ele>42.9</ele>
        <time>2020-11-15T13:29:11Z</time>
      </trkpt>
      <trkpt lat="41.3777930" lon="2.1337660">
        <ele>42.9</ele>
        <time>2020-11-15T13:29:12Z</time>
      </trkpt>
      <trkpt lat="41.3778090" lon="2.1337660">
        <ele>43.0</ele>
        <time>2020-11-15T13:29:13Z</time>
      </trkpt>
      <trkpt lat="41.3778280" lon="2.1337680">
        <ele>43.0</ele>
        <time>2020-11-15T13:29:14Z</time>
      </trkpt>
      <trkpt lat="41.3778420" lon="2.1337690">
        <ele>43.0</ele>
        <time>2020-11-15T13:29:15Z</time>
      </trkpt>
      <trkpt lat="41.3778780" lon="2.1337570">
        <ele>43.1</ele>
        <time>2020-11-15T13:29:17Z</time>
      </trkpt>
      <trkpt lat="41.3778880" lon="2.1337500">
        <ele>43.1</ele>
        <time>2020-11-15T13:29:18Z</time>
      </trkpt>
      <trkpt lat="41.3779030" lon="2.1337460">
        <ele>43.1</ele>
        <time>2020-11-15T13:29:19Z</time>
      </trkpt>
      <trkpt lat="41.3779160" lon="2.1337470">
        <ele>43.2</ele>
        <time>2020-11-15T13:29:20Z</time>
      </trkpt>
      <trkpt lat="41.3779320" lon="2.1337510">
        <ele>43.2</ele>
        <time>2020-11-15T13:29:21Z</time>
      </trkpt>
      <trkpt lat="41.3779370" lon="2.1337520">
        <ele>43.2</ele>
        <time>2020-11-15T13:29:23Z</time>
      </trkpt>
      <trkpt lat="41.3779440" lon="2.1337560">
        <ele>43.2</ele>
        <time>2020-11-15T13:29:24Z</time>
      </trkpt>
      <trkpt lat="41.3779570" lon="2.1337680">
        <ele>43.3</ele>
        <time>2020-11-15T13:29:25Z</time>
      </trkpt>
      <trkpt lat="41.3779720" lon="2.1337700">
        <ele>43.3</ele>
        <time>2020-11-15T13:29:27Z</time>
      </trkpt>
      <trkpt lat="41.3779870" lon="2.1337580">
        <ele>43.3</ele>
        <time>2020-11-15T13:29:28Z</time>
      </trkpt>
      <trkpt lat="41.3779970" lon="2.1337570">
        <ele>43.3</ele>
        <time>2020-11-15T13:29:29Z</time>
      </trkpt>
      <trkpt lat="41.3780080" lon="2.1337580">
        <ele>43.4</ele>
        <time>2020-11-15T13:29:31Z</time>
      </trkpt>
      <trkpt lat="41.3780240" lon="2.1337470">
        <ele>43.4</ele>
        <time>2020-11-15T13:29:32Z</time>
      </trkpt>
      <trkpt lat="41.3780300" lon="2.1337280">
        <ele>43.4</ele>
        <time>2020-11-15T13:29:33Z</time>
      </trkpt>
      <trkpt lat="41.3780440" lon="2.1337140">
        <ele>43.5</ele>
        <time>2020-11-15T13:29:34Z</time>
      </trkpt>
      <trkpt lat="41.3780540" lon="2.1337110">
        <ele>43.5</ele>
        <time>2020-11-15T13:29:35Z</time>
      </trkpt>
      <trkpt lat="41.3780850" lon="2.1336910">
        <ele>43.6</ele>
        <time>2020-11-15T13:29:37Z</time>
      </trkpt>
      <trkpt lat="41.3780930" lon="2.1336830">
        <ele>43.6</ele>
        <time>2020-11-15T13:29:38Z</time>
      </trkpt>
      <trkpt lat="41.3781160" lon="2.1336850">
        <ele>43.6</ele>
        <time>2020-11-15T13:29:40Z</time>
      </trkpt>
      <trkpt lat="41.3781290" lon="2.1336870">
        <ele>43.7</ele>
        <time>2020-11-15T13:29:41Z</time>
      </trkpt>
      <trkpt lat="41.3781410" lon="2.1336890">
        <ele>43.7</ele>
        <time>2020-11-15T13:29:42Z</time>
      </trkpt>
      <trkpt lat="41.3781520" lon="2.1336880">
        <ele>43.7</ele>
        <time>2020-11-15T13:29:43Z</time>
      </trkpt>
      <trkpt lat="41.3781640" lon="2.1336880">
        <ele>43.8</ele>
        <time>2020-11-15T13:29:44Z</time>
      </trkpt>
      <trkpt lat="41.3781760" lon="2.1336900">
        <ele>43.8</ele>
        <time>2020-11-15T13:29:45Z</time>
      </trkpt>
      <trkpt lat="41.3781980" lon="2.1336850">
        <ele>43.8</ele>
        <time>2020-11-15T13:29:46Z</time>
      </trkpt>
      <trkpt lat="41.3782130" lon="2.1336740">
        <ele>43.9</ele>
        <time>2020-11-15T13:29:48Z</time>
      </trkpt>
      <trkpt lat="41.3782250" lon="2.1336700">
        <ele>43.9</ele>
        <time>2020-11-15T13:29:49Z</time>
      </trkpt>
      <trkpt lat="41.3782360" lon="2.1336690">
        <ele>43.9</ele>
        <time>2020-11-15T13:29:50Z</time>
      </trkpt>
      <trkpt lat="41.3782710" lon="2.1336590">
        <ele>44.0</ele>
        <time>2020-11-15T13:29:52Z</time>
      </trkpt>
      <trkpt lat="41.3782940" lon="2.1336330">
        <ele>44.1</ele>
        <time>2020-11-15T13:29:53Z</time>
      </trkpt>
      <trkpt lat="41.3783010" lon="2.1336270">
        <ele>44.1</ele>
        <time>2020-11-15T13:29:54Z</time>
      </trkpt>
      <trkpt lat="41.3783140" lon="2.1336210">
        <ele>44.1</ele>
        <time>2020-11-15T13:29:55Z</time>
      </trkpt>
      <trkpt lat="41.3783440" lon="2.1336060">
        <ele>44.2</ele>
        <time>2020-11-15T13:29:57Z</time>
      </trkpt>
      <trkpt lat="41.3783680" lon="2.1335810">
        <ele>44.3</ele>
        <time>2020-11-15T13:29:58Z</time>
      </trkpt>
      <trkpt lat="41.3783800" lon="2.1335720">
        <ele>44.3</ele>
        <time>2020-11-15T13:30:00Z</time>
      </trkpt>
      <trkpt lat="41.3783900" lon="2.1335640">
        <ele>44.3</ele>
        <time>2020-11-15T13:30:01Z</time>
      </trkpt>
      <trkpt lat="41.3783890" lon="2.1335520">
        <ele>44.3</ele>
        <time>2020-11-15T13:30:02Z</time>
      </trkpt>
      <trkpt lat="41.3783880" lon="2.1335100">
        <ele>44.4</ele>
        <time>2020-11-15T13:30:04Z</time>
      </trkpt>
      <trkpt lat="41.3783950" lon="2.1334980">
        <ele>44.4</ele>
        <time>2020-11-15T13:30:05Z</time>
      </trkpt>
      <trkpt lat="41.3784030" lon="2.1334920">
        <ele>44.4</ele>
        <time>2020-11-15T13:30:06Z</time>
      </trkpt>
      <trkpt lat="41.3784220" lon="2.1334780">
        <ele>44.6</ele>
        <time>2020-11-15T13:30:08Z</time>
      </trkpt>
      <trkpt lat="41.3784420" lon="2.1333340">
        <ele>44.4</ele>
        <time>2020-11-15T13:34:19Z</time>
      </trkpt>
      <trkpt lat="41.3784640" lon="2.1333580">
        <ele>44.4</ele>
        <time>2020-11-15T13:34:20Z</time>
      </trkpt>
      <trkpt lat="41.3784870" lon="2.1333820">
        <ele>44.3</ele>
        <time>2020-11-15T13:34:21Z</time>
      </trkpt>
      <trkpt lat="41.3784690" lon="2.1333600">
        <ele>44.3</ele>
        <time>2020-11-15T13:34:22Z</time>
      </trkpt>
      <trkpt lat="41.3784670" lon="2.1333520">
        <ele>44.3</ele>
        <time>2020-11-15T13:34:24Z</time>
      </trkpt>
      <trkpt lat="41.3784640" lon="2.1333430">
        <ele>44.3</ele>
        <time>2020-11-15T13:34:25Z</time>
      </trkpt>
      <trkpt lat="41.3784610" lon="2.1333350">
        <ele>44.3</ele>
        <time>2020-11-15T13:34:26Z</time>
      </trkpt>
      <trkpt lat="41.3784590" lon="2.1333260">
        <ele>44.3</ele>
        <time>2020-11-15T13:34:27Z</time>
      </trkpt>
      <trkpt lat="41.3784560" lon="2.1333180">
        <ele>44.3</ele>
        <time>2020-11-15T13:34:28Z</time>
      </trkpt>
      <trkpt lat="41.3784530" lon="2.1333090">
        <ele>44.3</ele>
        <time>2020-11-15T13:34:30Z</time>
      </trkpt>
      <trkpt lat="41.3784510" lon="2.1333010">
        <ele>44.3</ele>
        <time>2020-11-15T13:34:31Z</time>
      </trkpt>
      <trkpt lat="41.3784480" lon="2.1332920">
        <ele>44.3</ele>
        <time>2020-11-15T13:34:32Z</time>
      </trkpt>
      <trkpt lat="41.3784270" lon="2.1332540">
        <ele>44.2</ele>
        <time>2020-11-15T13:34:33Z</time>
      </trkpt>
      <trkpt lat="41.3784090" lon="2.1332170">
        <ele>44.2</ele>
        <time>2020-11-15T13:34:34Z</time>
      </trkpt>
      <trkpt lat="41.3783950" lon="2.1331850">
        <ele>44.2</ele>
        <time>2020-11-15T13:34:35Z</time>
      </trkpt>
      <trkpt lat="41.3783810" lon="2.1331530">
        <ele>44.1</ele>
        <time>2020-11-15T13:34:36Z</time>
      </trkpt>
      <trkpt lat="41.3783780" lon="2.1331370">
        <ele>44.1</ele>
        <time>2020-11-15T13:34:37Z</time>
      </trkpt>
      <trkpt lat="41.3783730" lon="2.1331180">
        <ele>44.1</ele>
        <time>2020-11-15T13:34:38Z</time>
      </trkpt>
      <trkpt lat="41.3783710" lon="2.1330930">
        <ele>44.1</ele>
        <time>2020-11-15T13:34:40Z</time>
      </trkpt>
      <trkpt lat="41.3783700" lon="2.1330820">
        <ele>44.1</ele>
        <time>2020-11-15T13:34:41Z</time>
      </trkpt>
      <trkpt lat="41.3783680" lon="2.1330710">
        <ele>44.1</ele>
        <time>2020-11-15T13:34:42Z</time>
      </trkpt>
      <trkpt lat="41.3783650" lon="2.1330640">
        <ele>44.1</ele>
        <time>2020-11-15T13:34:43Z</time>
      </trkpt>
      <trkpt lat="41.3783630" lon="2.1330580">
        <ele>44.1</ele>
        <time>2020-11-15T13:34:44Z</time>
      </trkpt>
      <trkpt lat="41.3783600" lon="2.1330410">
        <ele>44.0</ele>
        <time>2020-11-15T13:34:45Z</time>
      </trkpt>
      <trkpt lat="41.3783580" lon="2.1330310">
        <ele>44.0</ele>
        <time>2020-11-15T13:34:46Z</time>
      </trkpt>
      <trkpt lat="41.3783560" lon="2.1330180">
        <ele>44.0</ele>
        <time>2020-11-15T13:34:47Z</time>
      </trkpt>
      <trkpt lat="41.3783510" lon="2.1330030">
        <ele>44.0</ele>
        <time>2020-11-15T13:34:48Z</time>
      </trkpt>
      <trkpt lat="41.3783420" lon="2.1329550">
        <ele>44.0</ele>
        <time>2020-11-15T13:34:50Z</time>
      </trkpt>
      <trkpt lat="41.3783370" lon="2.1329240">
        <ele>44.0</ele>
        <time>2020-11-15T13:34:51Z</time>
      </trkpt>
      <trkpt lat="41.3783300" lon="2.1328880">
        <ele>43.9</ele>
        <time>2020-11-15T13:34:52Z</time>
      </trkpt>
      <trkpt lat="41.3783250" lon="2.1328640">
        <ele>43.9</ele>
        <time>2020-11-15T13:34:53Z</time>
      </trkpt>
      <trkpt lat="41.3783220" lon="2.1328450">
        <ele>43.9</ele>
        <time>2020-11-15T13:34:54Z</time>
      </trkpt>
      <trkpt lat="41.3783160" lon="2.1328000">
        <ele>43.9</ele>
        <time>2020-11-15T13:34:55Z</time>
      </trkpt>
      <trkpt lat="41.3783130" lon="2.1327760">
        <ele>43.8</ele>
        <time>2020-11-15T13:34:56Z</time>
      </trkpt>
      <trkpt lat="41.3783090" lon="2.1327620">
        <ele>43.8</ele>
        <time>2020-11-15T13:34:57Z</time>
      </trkpt>
      <trkpt lat="41.3783000" lon="2.1327250">
        <ele>43.8</ele>
        <time>2020-11-15T13:34:59Z</time>
      </trkpt>
      <trkpt lat="41.3782950" lon="2.1327050">
        <ele>43.8</ele>
        <time>2020-11-15T13:35:00Z</time>
      </trkpt>
      <trkpt lat="41.3782950" lon="2.1327000">
        <ele>43.8</ele>
        <time>2020-11-15T13:35:01Z</time>
      </trkpt>
      <trkpt lat="41.3782910" lon="2.1326790">
        <ele>43.8</ele>
        <time>2020-11-15T13:35:03Z</time>
      </trkpt>
      <trkpt lat="41.3782870" lon="2.1326610">
        <ele>43.8</ele>
        <time>2020-11-15T13:35:05Z</time>
      </trkpt>
      <trkpt lat="41.3782860" lon="2.1326400">
        <ele>43.8</ele>
        <time>2020-11-15T13:35:06Z</time>
      </trkpt>
      <trkpt lat="41.3782840" lon="2.1326260">
        <ele>43.7</ele>
        <time>2020-11-15T13:35:07Z</time>
      </trkpt>
      <trkpt lat="41.3782810" lon="2.1326200">
        <ele>43.7</ele>
        <time>2020-11-15T13:35:08Z</time>
      </trkpt>
      <trkpt lat="41.3782760" lon="2.1326100">
        <ele>43.7</ele>
        <time>2020-11-15T13:35:09Z</time>
      </trkpt>
      <trkpt lat="41.3782720" lon="2.1325920">
        <ele>43.7</ele>
        <time>2020-11-15T13:35:10Z</time>
      </trkpt>
      <trkpt lat="41.3782760" lon="2.1325930">
        <ele>43.7</ele>
        <time>2020-11-15T13:35:11Z</time>
      </trkpt>
      <trkpt lat="41.3782750" lon="2.1325800">
        <ele>43.7</ele>
        <time>2020-11-15T13:35:12Z</time>
      </trkpt>
      <trkpt lat="41.3782700" lon="2.1325520">
        <ele>43.7</ele>
        <time>2020-11-15T13:35:13Z</time>
      </trkpt>
      <trkpt lat="41.3782670" lon="2.1325360">
        <ele>43.7</ele>
        <time>2020-11-15T13:35:15Z</time>
      </trkpt>
      <trkpt lat="41.3782640" lon="2.1325210">
        <ele>43.7</ele>
        <time>2020-11-15T13:35:16Z</time>
      </trkpt>
      <trkpt lat="41.3782680" lon="2.1325170">
        <ele>43.7</ele>
        <time>2020-11-15T13:35:17Z</time>
      </trkpt>
      <trkpt lat="41.3782660" lon="2.1325020">
        <ele>43.7</ele>
        <time>2020-11-15T13:35:18Z</time>
      </trkpt>
      <trkpt lat="41.3782610" lon="2.1324790">
        <ele>43.7</ele>
        <time>2020-11-15T13:35:19Z</time>
      </trkpt>
      <trkpt lat="41.3782550" lon="2.1324520">
        <ele>43.7</ele>
        <time>2020-11-15T13:35:21Z</time>
      </trkpt>
      <trkpt lat="41.3782540" lon="2.1324400">
        <ele>43.7</ele>
        <time>2020-11-15T13:35:22Z</time>
      </trkpt>
      <trkpt lat="41.3782500" lon="2.1324260">
        <ele>43.7</ele>
        <time>2020-11-15T13:35:23Z</time>
      </trkpt>
      <trkpt lat="41.3782420" lon="2.1324000">
        <ele>43.7</ele>
        <time>2020-11-15T13:35:24Z</time>
      </trkpt>
      <trkpt lat="41.3782360" lon="2.1323740">
        <ele>43.7</ele>
        <time>2020-11-15T13:35:26Z</time>
      </trkpt>
      <trkpt lat="41.3782340" lon="2.1323620">
        <ele>43.7</ele>
        <time>2020-11-15T13:35:27Z</time>
      </trkpt>
      <trkpt lat="41.3782190" lon="2.1323250">
        <ele>43.7</ele>
        <time>2020-11-15T13:35:28Z</time>
      </trkpt>
      <trkpt lat="41.3782150" lon="2.1323150">
        <ele>43.7</ele>
        <time>2020-11-15T13:35:29Z</time>
      </trkpt>
      <trkpt lat="41.3781990" lon="2.1322660">
        <ele>43.7</ele>
        <time>2020-11-15T13:35:31Z</time>
      </trkpt>
      <trkpt lat="41.3781930" lon="2.1322510">
        <ele>43.7</ele>
        <time>2020-11-15T13:35:32Z</time>
      </trkpt>
      <trkpt lat="41.3781880" lon="2.1322370">
        <ele>43.7</ele>
        <time>2020-11-15T13:35:33Z</time>
      </trkpt>
      <trkpt lat="41.3781800" lon="2.1322130">
        <ele>43.7</ele>
        <time>2020-11-15T13:35:34Z</time>
      </trkpt>
      <trkpt lat="41.3781700" lon="2.1321710">
        <ele>43.7</ele>
        <time>2020-11-15T13:35:36Z</time>
      </trkpt>
      <trkpt lat="41.3781680" lon="2.1321630">
        <ele>43.7</ele>
        <time>2020-11-15T13:35:37Z</time>
      </trkpt>
      <trkpt lat="41.3781650" lon="2.1321520">
        <ele>43.7</ele>
        <time>2020-11-15T13:35:38Z</time>
      </trkpt>
      <trkpt lat="41.3781600" lon="2.1321360">
        <ele>43.7</ele>
        <time>2020-11-15T13:35:39Z</time>
      </trkpt>
      <trkpt lat="41.3781520" lon="2.1321000">
        <ele>43.7</ele>
        <time>2020-11-15T13:35:41Z</time>
      </trkpt>
      <trkpt lat="41.3781500" lon="2.1320870">
        <ele>43.7</ele>
        <time>2020-11-15T13:35:42Z</time>
      </trkpt>
      <trkpt lat="41.3781460" lon="2.1320720">
        <ele>43.7</ele>
        <time>2020-11-15T13:35:43Z</time>
      </trkpt>
      <trkpt lat="41.3781410" lon="2.1320570">
        <ele>43.7</ele>
        <time>2020-11-15T13:35:44Z</time>
      </trkpt>
      <trkpt lat="41.3781310" lon="2.1320170">
        <ele>43.7</ele>
        <time>2020-11-15T13:35:45Z</time>
      </trkpt>
      <trkpt lat="41.3781290" lon="2.1320090">
        <ele>43.7</ele>
        <time>2020-11-15T13:35:46Z</time>
      </trkpt>
      <trkpt lat="41.3781220" lon="2.1319830">
        <ele>43.7</ele>
        <time>2020-11-15T13:35:47Z</time>
      </trkpt>
      <trkpt lat="41.3781190" lon="2.1319730">
        <ele>43.7</ele>
        <time>2020-11-15T13:35:49Z</time>
      </trkpt>
      <trkpt lat="41.3781160" lon="2.1319620">
        <ele>43.7</ele>
        <time>2020-11-15T13:35:50Z</time>
      </trkpt>
      <trkpt lat="41.3781160" lon="2.1319610">
        <ele>43.7</ele>
        <time>2020-11-15T13:35:51Z</time>
      </trkpt>
      <trkpt lat="41.3781130" lon="2.1319570">
        <ele>43.7</ele>
        <time>2020-11-15T13:35:52Z</time>
      </trkpt>
      <trkpt lat="41.3781090" lon="2.1319440">
        <ele>43.7</ele>
        <time>2020-11-15T13:35:53Z</time>
      </trkpt>
      <trkpt lat="41.3781030" lon="2.1319290">
        <ele>43.7</ele>
        <time>2020-11-15T13:35:54Z</time>
      </trkpt>
      <trkpt lat="41.3780950" lon="2.1318930">
        <ele>43.7</ele>
        <time>2020-11-15T13:35:55Z</time>
      </trkpt>
      <trkpt lat="41.3780910" lon="2.1318730">
        <ele>43.7</ele>
        <time>2020-11-15T13:35:56Z</time>
      </trkpt>
      <trkpt lat="41.3780840" lon="2.1318410">
        <ele>43.7</ele>
        <time>2020-11-15T13:35:57Z</time>
      </trkpt>
      <trkpt lat="41.3780810" lon="2.1318280">
        <ele>43.7</ele>
        <time>2020-11-15T13:35:59Z</time>
      </trkpt>
      <trkpt lat="41.3780780" lon="2.1318160">
        <ele>43.7</ele>
        <time>2020-11-15T13:36:00Z</time>
      </trkpt>
      <trkpt lat="41.3780750" lon="2.1318030">
        <ele>43.7</ele>
        <time>2020-11-15T13:36:01Z</time>
      </trkpt>
      <trkpt lat="41.3780720" lon="2.1317900">
        <ele>43.7</ele>
        <time>2020-11-15T13:36:02Z</time>
      </trkpt>
      <trkpt lat="41.3780710" lon="2.1317810">
        <ele>43.7</ele>
        <time>2020-11-15T13:36:03Z</time>
      </trkpt>
      <trkpt lat="41.3780680" lon="2.1317670">
        <ele>43.7</ele>
        <time>2020-11-15T13:36:04Z</time>
      </trkpt>
      <trkpt lat="41.3780640" lon="2.1317510">
        <ele>43.7</ele>
        <time>2020-11-15T13:36:05Z</time>
      </trkpt>
      <trkpt lat="41.3780600" lon="2.1317300">
        <ele>43.7</ele>
        <time>2020-11-15T13:36:06Z</time>
      </trkpt>
      <trkpt lat="41.3780590" lon="2.1317230">
        <ele>43.7</ele>
        <time>2020-11-15T13:36:08Z</time>
      </trkpt>
      <trkpt lat="41.3780550" lon="2.1317070">
        <ele>43.7</ele>
        <time>2020-11-15T13:36:09Z</time>
      </trkpt>
      <trkpt lat="41.3780490" lon="2.1316810">
        <ele>43.7</ele>
        <time>2020-11-15T13:36:10Z</time>
      </trkpt>
      <trkpt lat="41.3780460" lon="2.1316590">
        <ele>43.7</ele>
        <time>2020-11-15T13:36:12Z</time>
      </trkpt>
      <trkpt lat="41.3780450" lon="2.1316520">
        <ele>43.7</ele>
        <time>2020-11-15T13:36:13Z</time>
      </trkpt>
      <trkpt lat="41.3780420" lon="2.1316330">
        <ele>43.7</ele>
        <time>2020-11-15T13:36:14Z</time>
      </trkpt>
      <trkpt lat="41.3780400" lon="2.1316220">
        <ele>43.7</ele>
        <time>2020-11-15T13:36:15Z</time>
      </trkpt>
      <trkpt lat="41.3780360" lon="2.1315980">
        <ele>43.7</ele>
        <time>2020-11-15T13:36:17Z</time>
      </trkpt>
      <trkpt lat="41.3780320" lon="2.1315800">
        <ele>43.7</ele>
        <time>2020-11-15T13:36:18Z</time>
      </trkpt>
      <trkpt lat="41.3780200" lon="2.1315440">
        <ele>43.7</ele>
        <time>2020-11-15T13:36:19Z</time>
      </trkpt>
      <trkpt lat="41.3780160" lon="2.1315350">
        <ele>43.7</ele>
        <time>2020-11-15T13:36:20Z</time>
      </trkpt>
      <trkpt lat="41.3780050" lon="2.1315000">
        <ele>43.6</ele>
        <time>2020-11-15T13:36:22Z</time>
      </trkpt>
      <trkpt lat="41.3779970" lon="2.1314850">
        <ele>43.6</ele>
        <time>2020-11-15T13:36:23Z</time>
      </trkpt>
      <trkpt lat="41.3779820" lon="2.1314760">
        <ele>43.6</ele>
        <time>2020-11-15T13:36:24Z</time>
      </trkpt>
      <trkpt lat="41.3779700" lon="2.1314730">
        <ele>43.5</ele>
        <time>2020-11-15T13:36:26Z</time>
      </trkpt>
      <trkpt lat="41.3779540" lon="2.1314760">
        <ele>43.5</ele>
        <time>2020-11-15T13:36:27Z</time>
      </trkpt>
      <trkpt lat="41.3779420" lon="2.1315110">
        <ele>43.5</ele>
        <time>2020-11-15T13:36:28Z</time>
      </trkpt>
      <trkpt lat="41.3779210" lon="2.1315490">
        <ele>43.4</ele>
        <time>2020-11-15T13:36:29Z</time>
      </trkpt>
      <trkpt lat="41.3779140" lon="2.1315610">
        <ele>43.4</ele>
        <time>2020-11-15T13:36:30Z</time>
      </trkpt>
      <trkpt lat="41.3778920" lon="2.1315910">
        <ele>43.3</ele>
        <time>2020-11-15T13:36:31Z</time>
      </trkpt>
      <trkpt lat="41.3778880" lon="2.1315970">
        <ele>43.3</ele>
        <time>2020-11-15T13:36:32Z</time>
      </trkpt>
      <trkpt lat="41.3778770" lon="2.1316060">
        <ele>43.3</ele>
        <time>2020-11-15T13:36:34Z</time>
      </trkpt>
      <trkpt lat="41.3778600" lon="2.1316160">
        <ele>43.2</ele>
        <time>2020-11-15T13:36:35Z</time>
      </trkpt>
      <trkpt lat="41.3778420" lon="2.1316250">
        <ele>43.2</ele>
        <time>2020-11-15T13:36:36Z</time>
      </trkpt>
      <trkpt lat="41.3778350" lon="2.1316280">
        <ele>43.2</ele>
        <time>2020-11-15T13:36:37Z</time>
      </trkpt>
      <trkpt lat="41.3778260" lon="2.1316320">
        <ele>43.2</ele>
        <time>2020-11-15T13:36:39Z</time>
      </trkpt>
      <trkpt lat="41.3778080" lon="2.1316420">
        <ele>43.1</ele>
        <time>2020-11-15T13:36:41Z</time>
      </trkpt>
      <trkpt lat="41.3777940" lon="2.1316530">
        <ele>43.1</ele>
        <time>2020-11-15T13:36:42Z</time>
      </trkpt>
      <trkpt lat="41.3777760" lon="2.1316650">
        <ele>43.0</ele>
        <time>2020-11-15T13:36:43Z</time>
      </trkpt>
      <trkpt lat="41.3777660" lon="2.1316690">
        <ele>43.0</ele>
        <time>2020-11-15T13:36:44Z</time>
      </trkpt>
      <trkpt lat="41.3777570" lon="2.1316740">
        <ele>43.0</ele>
        <time>2020-11-15T13:36:45Z</time>
      </trkpt>
      <trkpt lat="41.3777300" lon="2.1316880">
        <ele>42.9</ele>
        <time>2020-11-15T13:36:46Z</time>
      </trkpt>
      <trkpt lat="41.3777150" lon="2.1316940">
        <ele>42.9</ele>
        <time>2020-11-15T13:36:47Z</time>
      </trkpt>
      <trkpt lat="41.3777040" lon="2.1317010">
        <ele>42.9</ele>
        <time>2020-11-15T13:36:49Z</time>
      </trkpt>
      <trkpt lat="41.3776890" lon="2.1317100">
        <ele>42.9</ele>
        <time>2020-11-15T13:36:50Z</time>
      </trkpt>
      <trkpt lat="41.3776590" lon="2.1317240">
        <ele>42.8</ele>
        <time>2020-11-15T13:36:51Z</time>
      </trkpt>
      <trkpt lat="41.3776450" lon="2.1317300">
        <ele>42.8</ele>
        <time>2020-11-15T13:36:52Z</time>
      </trkpt>
      <trkpt lat="41.3776330" lon="2.1317360">
        <ele>42.8</ele>
        <time>2020-11-15T13:36:53Z</time>
      </trkpt>
      <trkpt lat="41.3776160" lon="2.1317420">
        <ele>42.7</ele>
        <time>2020-11-15T13:36:54Z</time>
      </trkpt>
      <trkpt lat="41.3776000" lon="2.1317480">
        <ele>42.7</ele>
        <time>2020-11-15T13:36:55Z</time>
      </trkpt>
      <trkpt lat="41.3775740" lon="2.1317560">
        <ele>42.7</ele>
        <time>2020-11-15T13:36:57Z</time>
      </trkpt>
      <trkpt lat="41.3775600" lon="2.1317610">
        <ele>42.6</ele>
        <time>2020-11-15T13:36:58Z</time>
      </trkpt>
      <trkpt lat="41.3775460" lon="2.1317660">
        <ele>42.6</ele>
        <time>2020-11-15T13:36:59Z</time>
      </trkpt>
      <trkpt lat="41.3775310" lon="2.1317720">
        <ele>42.6</ele>
        <time>2020-11-15T13:37:00Z</time>
      </trkpt>
      <trkpt lat="41.3775150" lon="2.1317780">
        <ele>42.6</ele>
        <time>2020-11-15T13:37:01Z</time>
      </trkpt>
      <trkpt lat="41.3775020" lon="2.1317840">
        <ele>42.6</ele>
        <time>2020-11-15T13:37:02Z</time>
      </trkpt>
      <trkpt lat="41.3774930" lon="2.1317850">
        <ele>42.6</ele>
        <time>2020-11-15T13:37:03Z</time>
      </trkpt>
      <trkpt lat="41.3774820" lon="2.1317890">
        <ele>42.6</ele>
        <time>2020-11-15T13:37:05Z</time>
      </trkpt>
      <trkpt lat="41.3774690" lon="2.1317930">
        <ele>42.5</ele>
        <time>2020-11-15T13:37:06Z</time>
      </trkpt>
      <trkpt lat="41.3774570" lon="2.1317970">
        <ele>42.5</ele>
        <time>2020-11-15T13:37:07Z</time>
      </trkpt>
      <trkpt lat="41.3774520" lon="2.1317970">
        <ele>42.5</ele>
        <time>2020-11-15T13:37:08Z</time>
      </trkpt>
      <trkpt lat="41.3774410" lon="2.1318020">
        <ele>42.5</ele>
        <time>2020-11-15T13:37:09Z</time>
      </trkpt>
      <trkpt lat="41.3774300" lon="2.1318080">
        <ele>42.5</ele>
        <time>2020-11-15T13:37:10Z</time>
      </trkpt>
      <trkpt lat="41.3774190" lon="2.1318120">
        <ele>42.5</ele>
        <time>2020-11-15T13:37:11Z</time>
      </trkpt>
      <trkpt lat="41.3774050" lon="2.1318180">
        <ele>42.5</ele>
        <time>2020-11-15T13:37:12Z</time>
      </trkpt>
      <trkpt lat="41.3773960" lon="2.1318220">
        <ele>42.5</ele>
        <time>2020-11-15T13:37:13Z</time>
      </trkpt>
      <trkpt lat="41.3773860" lon="2.1318260">
        <ele>42.5</ele>
        <time>2020-11-15T13:37:15Z</time>
      </trkpt>
      <trkpt lat="41.3773750" lon="2.1318250">
        <ele>42.5</ele>
        <time>2020-11-15T13:37:16Z</time>
      </trkpt>
      <trkpt lat="41.3773600" lon="2.1318150">
        <ele>42.5</ele>
        <time>2020-11-15T13:37:17Z</time>
      </trkpt>
      <trkpt lat="41.3773520" lon="2.1317970">
        <ele>42.4</ele>
        <time>2020-11-15T13:37:18Z</time>
      </trkpt>
      <trkpt lat="41.3773450" lon="2.1317710">
        <ele>42.4</ele>
        <time>2020-11-15T13:37:20Z</time>
      </trkpt>
      <trkpt lat="41.3773420" lon="2.1317320">
        <ele>42.4</ele>
        <time>2020-11-15T13:37:21Z</time>
      </trkpt>
      <trkpt lat="41.3773410" lon="2.1317150">
        <ele>42.4</ele>
        <time>2020-11-15T13:37:22Z</time>
      </trkpt>
      <trkpt lat="41.3773400" lon="2.1316730">
        <ele>42.4</ele>
        <time>2020-11-15T13:37:23Z</time>
      </trkpt>
      <trkpt lat="41.3773380" lon="2.1316550">
        <ele>42.4</ele>
        <time>2020-11-15T13:37:24Z</time>
      </trkpt>
      <trkpt lat="41.3773350" lon="2.1316340">
        <ele>42.4</ele>
        <time>2020-11-15T13:37:25Z</time>
      </trkpt>
      <trkpt lat="41.3773300" lon="2.1316010">
        <ele>42.3</ele>
        <time>2020-11-15T13:37:27Z</time>
      </trkpt>
      <trkpt lat="41.3773300" lon="2.1315870">
        <ele>42.3</ele>
        <time>2020-11-15T13:37:28Z</time>
      </trkpt>
      <trkpt lat="41.3773260" lon="2.1315730">
        <ele>42.3</ele>
        <time>2020-11-15T13:37:29Z</time>
      </trkpt>
      <trkpt lat="41.3773230" lon="2.1315580">
        <ele>42.3</ele>
        <time>2020-11-15T13:37:30Z</time>
      </trkpt>
      <trkpt lat="41.3773160" lon="2.1315320">
        <ele>42.3</ele>
        <time>2020-11-15T13:37:32Z</time>
      </trkpt>
      <trkpt lat="41.3773120" lon="2.1315120">
        <ele>42.3</ele>
        <time>2020-11-15T13:37:34Z</time>
      </trkpt>
      <trkpt lat="41.3773030" lon="2.1314760">
        <ele>42.3</ele>
        <time>2020-11-15T13:37:35Z</time>
      </trkpt>
      <trkpt lat="41.3772990" lon="2.1314580">
        <ele>42.3</ele>
        <time>2020-11-15T13:37:36Z</time>
      </trkpt>
      <trkpt lat="41.3772940" lon="2.1314390">
        <ele>42.2</ele>
        <time>2020-11-15T13:37:37Z</time>
      </trkpt>
      <trkpt lat="41.3772860" lon="2.1313930">
        <ele>42.2</ele>
        <time>2020-11-15T13:37:38Z</time>
      </trkpt>
      <trkpt lat="41.3772830" lon="2.1313820">
        <ele>42.2</ele>
        <time>2020-11-15T13:37:39Z</time>
      </trkpt>
      <trkpt lat="41.3772790" lon="2.1313650">
        <ele>42.2</ele>
        <time>2020-11-15T13:37:41Z</time>
      </trkpt>
      <trkpt lat="41.3772730" lon="2.1313370">
        <ele>42.2</ele>
        <time>2020-11-15T13:37:42Z</time>
      </trkpt>
      <trkpt lat="41.3772700" lon="2.1313130">
        <ele>42.2</ele>
        <time>2020-11-15T13:37:43Z</time>
      </trkpt>
      <trkpt lat="41.3772660" lon="2.1312900">
        <ele>42.2</ele>
        <time>2020-11-15T13:37:44Z</time>
      </trkpt>
      <trkpt lat="41.3772620" lon="2.1312690">
        <ele>42.1</ele>
        <time>2020-11-15T13:37:45Z</time>
      </trkpt>
      <trkpt lat="41.3772560" lon="2.1312470">
        <ele>42.1</ele>
        <time>2020-11-15T13:37:46Z</time>
      </trkpt>
      <trkpt lat="41.3772500" lon="2.1312230">
        <ele>42.1</ele>
        <time>2020-11-15T13:37:47Z</time>
      </trkpt>
      <trkpt lat="41.3772450" lon="2.1312060">
        <ele>42.1</ele>
        <time>2020-11-15T13:37:48Z</time>
      </trkpt>
      <trkpt lat="41.3772390" lon="2.1311860">
        <ele>42.1</ele>
        <time>2020-11-15T13:37:49Z</time>
      </trkpt>
      <trkpt lat="41.3772330" lon="2.1311650">
        <ele>42.1</ele>
        <time>2020-11-15T13:37:51Z</time>
      </trkpt>
      <trkpt lat="41.3772280" lon="2.1311440">
        <ele>42.1</ele>
        <time>2020-11-15T13:37:52Z</time>
      </trkpt>
      <trkpt lat="41.3772240" lon="2.1311300">
        <ele>42.1</ele>
        <time>2020-11-15T13:37:53Z</time>
      </trkpt>
      <trkpt lat="41.3772190" lon="2.1311120">
        <ele>42.1</ele>
        <time>2020-11-15T13:37:54Z</time>
      </trkpt>
      <trkpt lat="41.3772150" lon="2.1310900">
        <ele>42.0</ele>
        <time>2020-11-15T13:37:55Z</time>
      </trkpt>
      <trkpt lat="41.3772200" lon="2.1310720">
        <ele>42.0</ele>
        <time>2020-11-15T13:37:56Z</time>
      </trkpt>
      <trkpt lat="41.3772260" lon="2.1310740">
        <ele>42.0</ele>
        <time>2020-11-15T13:37:58Z</time>
      </trkpt>
      <trkpt lat="41.3772330" lon="2.1310750">
        <ele>42.0</ele>
        <time>2020-11-15T13:38:00Z</time>
      </trkpt>
      <trkpt lat="41.3772390" lon="2.1310770">
        <ele>42.0</ele>
        <time>2020-11-15T13:38:01Z</time>
      </trkpt>
      <trkpt lat="41.3772450" lon="2.1310780">
        <ele>42.0</ele>
        <time>2020-11-15T13:38:03Z</time>
      </trkpt>
      <trkpt lat="41.3772510" lon="2.1310800">
        <ele>42.0</ele>
        <time>2020-11-15T13:38:05Z</time>
      </trkpt>
      <trkpt lat="41.3772570" lon="2.1310810">
        <ele>42.0</ele>
        <time>2020-11-15T13:38:06Z</time>
      </trkpt>
      <trkpt lat="41.3772630" lon="2.1310830">
        <ele>42.0</ele>
        <time>2020-11-15T13:38:08Z</time>
      </trkpt>
      <trkpt lat="41.3772700" lon="2.1310840">
        <ele>42.0</ele>
        <time>2020-11-15T13:38:09Z</time>
      </trkpt>
      <trkpt lat="41.3772760" lon="2.1310860">
        <ele>42.0</ele>
        <time>2020-11-15T13:38:11Z</time>
      </trkpt>
      <trkpt lat="41.3772820" lon="2.1310870">
        <ele>42.0</ele>
        <time>2020-11-15T13:38:12Z</time>
      </trkpt>
      <trkpt lat="41.3772930" lon="2.1310950">
        <ele>42.0</ele>
        <time>2020-11-15T13:38:13Z</time>
      </trkpt>
      <trkpt lat="41.3773050" lon="2.1310990">
        <ele>42.0</ele>
        <time>2020-11-15T13:38:15Z</time>
      </trkpt>
      <trkpt lat="41.3773130" lon="2.1311080">
        <ele>42.0</ele>
        <time>2020-11-15T13:38:16Z</time>
      </trkpt>
      <trkpt lat="41.3772840" lon="2.1311250">
        <ele>42.0</ele>
        <time>2020-11-15T13:38:17Z</time>
      </trkpt>
      <trkpt lat="41.3772750" lon="2.1311270">
        <ele>42.0</ele>
        <time>2020-11-15T13:38:18Z</time>
      </trkpt>
      <trkpt lat="41.3772630" lon="2.1311270">
        <ele>42.0</ele>
        <time>2020-11-15T13:38:20Z</time>
      </trkpt>
      <trkpt lat="41.3772550" lon="2.1311190">
        <ele>42.0</ele>
        <time>2020-11-15T13:38:21Z</time>
      </trkpt>
      <trkpt lat="41.3772680" lon="2.1311080">
        <ele>42.0</ele>
        <time>2020-11-15T13:38:22Z</time>
      </trkpt>
      <trkpt lat="41.3772860" lon="2.1311080">
        <ele>42.0</ele>
        <time>2020-11-15T13:38:23Z</time>
      </trkpt>
      <trkpt lat="41.3773000" lon="2.1311070">
        <ele>42.0</ele>
        <time>2020-11-15T13:38:24Z</time>
      </trkpt>
      <trkpt lat="41.3773190" lon="2.1311110">
        <ele>41.9</ele>
        <time>2020-11-15T13:38:26Z</time>
      </trkpt>
      <trkpt lat="41.3773180" lon="2.1311340">
        <ele>41.9</ele>
        <time>2020-11-15T13:38:27Z</time>
      </trkpt>
      <trkpt lat="41.3773100" lon="2.1311450">
        <ele>41.9</ele>
        <time>2020-11-15T13:38:28Z</time>
      </trkpt>
      <trkpt lat="41.3773000" lon="2.1311530">
        <ele>41.9</ele>
        <time>2020-11-15T13:38:30Z</time>
      </trkpt>
      <trkpt lat="41.3772900" lon="2.1311560">
        <ele>41.9</ele>
        <time>2020-11-15T13:38:31Z</time>
      </trkpt>
      <trkpt lat="41.3772830" lon="2.1311450">
        <ele>41.9</ele>
        <time>2020-11-15T13:38:37Z</time>
      </trkpt>
      <trkpt lat="41.3772840" lon="2.1311430">
        <ele>41.9</ele>
        <time>2020-11-15T13:38:39Z</time>
      </trkpt>
      <trkpt lat="41.3772840" lon="2.1311420">
        <ele>41.9</ele>
        <time>2020-11-15T13:38:40Z</time>
      </trkpt>
      <trkpt lat="41.3772830" lon="2.1311390">
        <ele>41.9</ele>
        <time>2020-11-15T13:38:41Z</time>
      </trkpt>
      <trkpt lat="41.3772710" lon="2.1311320">
        <ele>41.9</ele>
        <time>2020-11-15T13:38:47Z</time>
      </trkpt>
      <trkpt lat="41.3772720" lon="2.1311310">
        <ele>41.9</ele>
        <time>2020-11-15T13:38:53Z</time>
      </trkpt>
      <trkpt lat="41.3772760" lon="2.1311230">
        <ele>41.9</ele>
        <time>2020-11-15T13:38:59Z</time>
      </trkpt>
      <trkpt lat="41.3772750" lon="2.1311190">
        <ele>41.9</ele>
        <time>2020-11-15T13:39:01Z</time>
      </trkpt>
      <trkpt lat="41.3772740" lon="2.1311150">
        <ele>41.9</ele>
        <time>2020-11-15T13:39:02Z</time>
      </trkpt>
    </trkseg>
  </trk>
</gpx>
